<?xml version="1.0" encoding="UTF-8" standalone="no" ?>
<gpx xmlns="http://www.topografix.com/GPX/1/1" xmlns:xsi="http://www.w3.org/2001/XMLSchema-instance" xsi:schemaLocation="http://www.topografix.com/GPX/1/1 http://www.topografix.com/GPX/1/1/gpx.xsd" version="1.1" creator="VisuGPX - https://www.visugpx.com">
  <metadata>
    <name>Pornichet 24/03/2022</name>
    <desc><![CDATA[Sortie jeudi 24 mars 2022]]></desc>
  </metadata>
  <trk>
    <name><![CDATA[Pornichet Cyclisme]]></name>
    <trkseg>
      <trkpt lat="47.26403" lon="-2.31605">
        <ele>9.5</ele>
        <time>2022-03-24T08:15:36.000Z</time>
      </trkpt>
      <trkpt lat="47.26404" lon="-2.31626">
        <ele>9.3</ele>
        <time>2022-03-24T08:15:40.000Z</time>
      </trkpt>
      <trkpt lat="47.26404" lon="-2.31632">
        <ele>9.8000001907349</ele>
        <time>2022-03-24T08:15:41.000Z</time>
      </trkpt>
      <trkpt lat="47.26404" lon="-2.31642">
        <ele>7.1999998092651</ele>
        <time>2022-03-24T08:15:42.000Z</time>
      </trkpt>
      <trkpt lat="47.26404" lon="-2.31648">
        <ele>6.1999998092651</ele>
        <time>2022-03-24T08:15:44.000Z</time>
      </trkpt>
      <trkpt lat="47.26404" lon="-2.31654">
        <ele>5.1999998092651</ele>
        <time>2022-03-24T08:15:45.000Z</time>
      </trkpt>
      <trkpt lat="47.26405" lon="-2.3166">
        <ele>4.4000000953674</ele>
        <time>2022-03-24T08:15:46.000Z</time>
      </trkpt>
      <trkpt lat="47.26405" lon="-2.31666">
        <ele>3.4000000953674</ele>
        <time>2022-03-24T08:15:47.000Z</time>
      </trkpt>
      <trkpt lat="47.26406" lon="-2.31672">
        <ele>2.4000000953674</ele>
        <time>2022-03-24T08:15:48.000Z</time>
      </trkpt>
      <trkpt lat="47.26406" lon="-2.31679">
        <ele>2.4000000953674</ele>
        <time>2022-03-24T08:15:49.000Z</time>
      </trkpt>
      <trkpt lat="47.26404" lon="-2.31698">
        <ele>2.4000000953674</ele>
        <time>2022-03-24T08:15:54.000Z</time>
      </trkpt>
      <trkpt lat="47.26388" lon="-2.31704">
        <ele>2.4000000953674</ele>
        <time>2022-03-24T08:15:59.000Z</time>
      </trkpt>
      <trkpt lat="47.26372" lon="-2.31712">
        <ele>2.4000000953674</ele>
        <time>2022-03-24T08:16:03.000Z</time>
      </trkpt>
      <trkpt lat="47.26363" lon="-2.31717">
        <ele>2.4000000953674</ele>
        <time>2022-03-24T08:16:05.000Z</time>
      </trkpt>
      <trkpt lat="47.26358" lon="-2.31718">
        <ele>2</ele>
        <time>2022-03-24T08:16:06.000Z</time>
      </trkpt>
      <trkpt lat="47.26353" lon="-2.31721">
        <ele>1.6000000238419</ele>
        <time>2022-03-24T08:16:07.000Z</time>
      </trkpt>
      <trkpt lat="47.26349" lon="-2.31722">
        <ele>1.2000000476837</ele>
        <time>2022-03-24T08:16:08.000Z</time>
      </trkpt>
      <trkpt lat="47.26346" lon="-2.31724">
        <ele>0.40000000596046</ele>
        <time>2022-03-24T08:16:09.000Z</time>
      </trkpt>
      <trkpt lat="47.26339" lon="-2.31727">
        <ele>0.40000000596046</ele>
        <time>2022-03-24T08:16:11.000Z</time>
      </trkpt>
      <trkpt lat="47.26324" lon="-2.31727">
        <ele>0.40000000596046</ele>
        <time>2022-03-24T08:16:16.000Z</time>
      </trkpt>
      <trkpt lat="47.26316" lon="-2.31728">
        <ele>4.6</ele>
        <time>2022-03-24T08:16:19.000Z</time>
      </trkpt>
      <trkpt lat="47.26313" lon="-2.31729">
        <ele>-0.40000000596046</ele>
        <time>2022-03-24T08:16:20.000Z</time>
      </trkpt>
      <trkpt lat="47.26311" lon="-2.3173">
        <ele>-0.80000001192093</ele>
        <time>2022-03-24T08:16:21.000Z</time>
      </trkpt>
      <trkpt lat="47.26307" lon="-2.31731">
        <ele>-1.2000000476837</ele>
        <time>2022-03-24T08:16:22.000Z</time>
      </trkpt>
      <trkpt lat="47.26305" lon="-2.31735">
        <ele>-1.6000000238419</ele>
        <time>2022-03-24T08:16:23.000Z</time>
      </trkpt>
      <trkpt lat="47.26303" lon="-2.31739">
        <ele>-1.6000000238419</ele>
        <time>2022-03-24T08:16:24.000Z</time>
      </trkpt>
      <trkpt lat="47.26303" lon="-2.31743">
        <ele>-1.6000000238419</ele>
        <time>2022-03-24T08:16:25.000Z</time>
      </trkpt>
      <trkpt lat="47.26304" lon="-2.31757">
        <ele>-1.6000000238419</ele>
        <time>2022-03-24T08:16:28.000Z</time>
      </trkpt>
      <trkpt lat="47.26305" lon="-2.31767">
        <ele>-1.6000000238419</ele>
        <time>2022-03-24T08:16:30.000Z</time>
      </trkpt>
      <trkpt lat="47.26307" lon="-2.31782">
        <ele>-1.6000000238419</ele>
        <time>2022-03-24T08:16:33.000Z</time>
      </trkpt>
      <trkpt lat="47.26306" lon="-2.31814">
        <ele>-1.6000000238419</ele>
        <time>2022-03-24T08:16:39.000Z</time>
      </trkpt>
      <trkpt lat="47.26303" lon="-2.31839">
        <ele>-1.6000000238419</ele>
        <time>2022-03-24T08:16:44.000Z</time>
      </trkpt>
      <trkpt lat="47.263" lon="-2.31873">
        <ele>-1.6000000238419</ele>
        <time>2022-03-24T08:16:50.000Z</time>
      </trkpt>
      <trkpt lat="47.26299" lon="-2.31888">
        <ele>-1.6000000238419</ele>
        <time>2022-03-24T08:16:53.000Z</time>
      </trkpt>
      <trkpt lat="47.26296" lon="-2.31892">
        <ele>-1.6000000238419</ele>
        <time>2022-03-24T08:16:54.000Z</time>
      </trkpt>
      <trkpt lat="47.2628" lon="-2.31908">
        <ele>-1.6000000238419</ele>
        <time>2022-03-24T08:16:59.000Z</time>
      </trkpt>
      <trkpt lat="47.2626" lon="-2.31939">
        <ele>-1.6000000238419</ele>
        <time>2022-03-24T08:17:06.000Z</time>
      </trkpt>
      <trkpt lat="47.26257" lon="-2.31943">
        <ele>-1.6000000238419</ele>
        <time>2022-03-24T08:17:07.000Z</time>
      </trkpt>
      <trkpt lat="47.26247" lon="-2.3196">
        <ele>-1.6000000238419</ele>
        <time>2022-03-24T08:17:11.000Z</time>
      </trkpt>
      <trkpt lat="47.26239" lon="-2.31973">
        <ele>-1.6000000238419</ele>
        <time>2022-03-24T08:17:15.000Z</time>
      </trkpt>
      <trkpt lat="47.26228" lon="-2.31977">
        <ele>-1.6000000238419</ele>
        <time>2022-03-24T08:17:19.000Z</time>
      </trkpt>
      <trkpt lat="47.26222" lon="-2.31982">
        <ele>-1.6000000238419</ele>
        <time>2022-03-24T08:17:22.000Z</time>
      </trkpt>
      <trkpt lat="47.26214" lon="-2.31991">
        <ele>-1.6000000238419</ele>
        <time>2022-03-24T08:17:25.000Z</time>
      </trkpt>
      <trkpt lat="47.26203" lon="-2.32002">
        <ele>-1.6000000238419</ele>
        <time>2022-03-24T08:17:29.000Z</time>
      </trkpt>
      <trkpt lat="47.26202" lon="-2.32006">
        <ele>-1.6000000238419</ele>
        <time>2022-03-24T08:17:30.000Z</time>
      </trkpt>
      <trkpt lat="47.26198" lon="-2.32016">
        <ele>-1.6000000238419</ele>
        <time>2022-03-24T08:17:34.000Z</time>
      </trkpt>
      <trkpt lat="47.26196" lon="-2.32017">
        <ele>-1.6000000238419</ele>
        <time>2022-03-24T08:17:35.000Z</time>
      </trkpt>
      <trkpt lat="47.26189" lon="-2.32015">
        <ele>-1.6000000238419</ele>
        <time>2022-03-24T08:17:38.000Z</time>
      </trkpt>
      <trkpt lat="47.26186" lon="-2.32015">
        <ele>-1.6000000238419</ele>
        <time>2022-03-24T08:17:39.000Z</time>
      </trkpt>
      <trkpt lat="47.26169" lon="-2.32025">
        <ele>-1.6000000238419</ele>
        <time>2022-03-24T08:17:44.000Z</time>
      </trkpt>
      <trkpt lat="47.26162" lon="-2.32031">
        <ele>-1.6000000238419</ele>
        <time>2022-03-24T08:17:46.000Z</time>
      </trkpt>
      <trkpt lat="47.26157" lon="-2.32042">
        <ele>-1.6000000238419</ele>
        <time>2022-03-24T08:17:48.000Z</time>
      </trkpt>
      <trkpt lat="47.26147" lon="-2.32072">
        <ele>-1.6000000238419</ele>
        <time>2022-03-24T08:17:53.000Z</time>
      </trkpt>
      <trkpt lat="47.26143" lon="-2.32083">
        <ele>-1.6000000238419</ele>
        <time>2022-03-24T08:17:55.000Z</time>
      </trkpt>
      <trkpt lat="47.26132" lon="-2.32118">
        <ele>-1.6000000238419</ele>
        <time>2022-03-24T08:18:01.000Z</time>
      </trkpt>
      <trkpt lat="47.26118" lon="-2.32159">
        <ele>-1.6000000238419</ele>
        <time>2022-03-24T08:18:08.000Z</time>
      </trkpt>
      <trkpt lat="47.26114" lon="-2.32169">
        <ele>-1.6000000238419</ele>
        <time>2022-03-24T08:18:10.000Z</time>
      </trkpt>
      <trkpt lat="47.26103" lon="-2.3219">
        <ele>-1.6000000238419</ele>
        <time>2022-03-24T08:18:14.000Z</time>
      </trkpt>
      <trkpt lat="47.26087" lon="-2.3222">
        <ele>-1.6000000238419</ele>
        <time>2022-03-24T08:18:20.000Z</time>
      </trkpt>
      <trkpt lat="47.26073" lon="-2.32239">
        <ele>-1.6000000238419</ele>
        <time>2022-03-24T08:18:24.000Z</time>
      </trkpt>
      <trkpt lat="47.26063" lon="-2.32252">
        <ele>-1.6000000238419</ele>
        <time>2022-03-24T08:18:27.000Z</time>
      </trkpt>
      <trkpt lat="47.26037" lon="-2.32281">
        <ele>-1.6000000238419</ele>
        <time>2022-03-24T08:18:34.000Z</time>
      </trkpt>
      <trkpt lat="47.26012" lon="-2.32312">
        <ele>-1.6000000238419</ele>
        <time>2022-03-24T08:18:41.000Z</time>
      </trkpt>
      <trkpt lat="47.26008" lon="-2.32317">
        <ele>-1.6000000238419</ele>
        <time>2022-03-24T08:18:42.000Z</time>
      </trkpt>
      <trkpt lat="47.2599" lon="-2.3234">
        <ele>-1.6000000238419</ele>
        <time>2022-03-24T08:18:47.000Z</time>
      </trkpt>
      <trkpt lat="47.25983" lon="-2.32349">
        <ele>-1.2000000476837</ele>
        <time>2022-03-24T08:18:49.000Z</time>
      </trkpt>
      <trkpt lat="47.25979" lon="-2.32354">
        <ele>-0.80000001192093</ele>
        <time>2022-03-24T08:18:50.000Z</time>
      </trkpt>
      <trkpt lat="47.25976" lon="-2.32358">
        <ele>-0.40000000596046</ele>
        <time>2022-03-24T08:18:51.000Z</time>
      </trkpt>
      <trkpt lat="47.25972" lon="-2.32363">
        <ele>3.2</ele>
        <time>2022-03-24T08:18:52.000Z</time>
      </trkpt>
      <trkpt lat="47.25969" lon="-2.32367">
        <ele>0.40000000596046</ele>
        <time>2022-03-24T08:18:53.000Z</time>
      </trkpt>
      <trkpt lat="47.25962" lon="-2.32375">
        <ele>0.40000000596046</ele>
        <time>2022-03-24T08:18:55.000Z</time>
      </trkpt>
      <trkpt lat="47.25945" lon="-2.32397">
        <ele>0.40000000596046</ele>
        <time>2022-03-24T08:19:00.000Z</time>
      </trkpt>
      <trkpt lat="47.25936" lon="-2.32409">
        <ele>0.40000000596046</ele>
        <time>2022-03-24T08:19:03.000Z</time>
      </trkpt>
      <trkpt lat="47.25929" lon="-2.32418">
        <ele>0.40000000596046</ele>
        <time>2022-03-24T08:19:05.000Z</time>
      </trkpt>
      <trkpt lat="47.25919" lon="-2.3243">
        <ele>0.40000000596046</ele>
        <time>2022-03-24T08:19:08.000Z</time>
      </trkpt>
      <trkpt lat="47.2591" lon="-2.32443">
        <ele>0.40000000596046</ele>
        <time>2022-03-24T08:19:11.000Z</time>
      </trkpt>
      <trkpt lat="47.259" lon="-2.32462">
        <ele>0.40000000596046</ele>
        <time>2022-03-24T08:19:16.000Z</time>
      </trkpt>
      <trkpt lat="47.25907" lon="-2.32471">
        <ele>0.40000000596046</ele>
        <time>2022-03-24T08:19:20.000Z</time>
      </trkpt>
      <trkpt lat="47.25918" lon="-2.32483">
        <ele>0.40000000596046</ele>
        <time>2022-03-24T08:19:24.000Z</time>
      </trkpt>
      <trkpt lat="47.25925" lon="-2.325">
        <ele>0.40000000596046</ele>
        <time>2022-03-24T08:19:27.000Z</time>
      </trkpt>
      <trkpt lat="47.25929" lon="-2.32512">
        <ele>0.40000000596046</ele>
        <time>2022-03-24T08:19:29.000Z</time>
      </trkpt>
      <trkpt lat="47.25941" lon="-2.32548">
        <ele>0.40000000596046</ele>
        <time>2022-03-24T08:19:35.000Z</time>
      </trkpt>
      <trkpt lat="47.25952" lon="-2.32592">
        <ele>0.40000000596046</ele>
        <time>2022-03-24T08:19:42.000Z</time>
      </trkpt>
      <trkpt lat="47.25959" lon="-2.32636">
        <ele>0.40000000596046</ele>
        <time>2022-03-24T08:19:49.000Z</time>
      </trkpt>
      <trkpt lat="47.25966" lon="-2.32655">
        <ele>0.40000000596046</ele>
        <time>2022-03-24T08:19:53.000Z</time>
      </trkpt>
      <trkpt lat="47.25974" lon="-2.32654">
        <ele>0.40000000596046</ele>
        <time>2022-03-24T08:19:55.000Z</time>
      </trkpt>
      <trkpt lat="47.25978" lon="-2.32655">
        <ele>0.40000000596046</ele>
        <time>2022-03-24T08:19:56.000Z</time>
      </trkpt>
      <trkpt lat="47.25982" lon="-2.32656">
        <ele>0.40000000596046</ele>
        <time>2022-03-24T08:19:57.000Z</time>
      </trkpt>
      <trkpt lat="47.25987" lon="-2.32656">
        <ele>0.80000001192093</ele>
        <time>2022-03-24T08:19:58.000Z</time>
      </trkpt>
      <trkpt lat="47.25991" lon="-2.32656">
        <ele>1.2000000476837</ele>
        <time>2022-03-24T08:19:59.000Z</time>
      </trkpt>
      <trkpt lat="47.25995" lon="-2.32655">
        <ele>1.6000000238419</ele>
        <time>2022-03-24T08:20:00.000Z</time>
      </trkpt>
      <trkpt lat="47.26" lon="-2.32654">
        <ele>2</ele>
        <time>2022-03-24T08:20:01.000Z</time>
      </trkpt>
      <trkpt lat="47.26004" lon="-2.32654">
        <ele>2.4000000953674</ele>
        <time>2022-03-24T08:20:02.000Z</time>
      </trkpt>
      <trkpt lat="47.26035" lon="-2.32651">
        <ele>2.4000000953674</ele>
        <time>2022-03-24T08:20:09.000Z</time>
      </trkpt>
      <trkpt lat="47.26068" lon="-2.32646">
        <ele>2.4000000953674</ele>
        <time>2022-03-24T08:20:17.000Z</time>
      </trkpt>
      <trkpt lat="47.26072" lon="-2.32645">
        <ele>2.7999999523163</ele>
        <time>2022-03-24T08:20:18.000Z</time>
      </trkpt>
      <trkpt lat="47.26076" lon="-2.32644">
        <ele>3.2000000476837</ele>
        <time>2022-03-24T08:20:19.000Z</time>
      </trkpt>
      <trkpt lat="47.2608" lon="-2.32643">
        <ele>3.5999999046326</ele>
        <time>2022-03-24T08:20:20.000Z</time>
      </trkpt>
      <trkpt lat="47.26084" lon="-2.32643">
        <ele>4</ele>
        <time>2022-03-24T08:20:21.000Z</time>
      </trkpt>
      <trkpt lat="47.26089" lon="-2.32642">
        <ele>4.4000000953674</ele>
        <time>2022-03-24T08:20:22.000Z</time>
      </trkpt>
      <trkpt lat="47.26101" lon="-2.3264">
        <ele>4.4000000953674</ele>
        <time>2022-03-24T08:20:25.000Z</time>
      </trkpt>
      <trkpt lat="47.26106" lon="-2.32641">
        <ele>4.4000000953674</ele>
        <time>2022-03-24T08:20:26.000Z</time>
      </trkpt>
      <trkpt lat="47.26128" lon="-2.3264">
        <ele>4.4000000953674</ele>
        <time>2022-03-24T08:20:31.000Z</time>
      </trkpt>
      <trkpt lat="47.26136" lon="-2.32641">
        <ele>4.4000000953674</ele>
        <time>2022-03-24T08:20:33.000Z</time>
      </trkpt>
      <trkpt lat="47.26149" lon="-2.32646">
        <ele>4.4000000953674</ele>
        <time>2022-03-24T08:20:36.000Z</time>
      </trkpt>
      <trkpt lat="47.26153" lon="-2.32647">
        <ele>4.4000000953674</ele>
        <time>2022-03-24T08:20:37.000Z</time>
      </trkpt>
      <trkpt lat="47.26178" lon="-2.3266">
        <ele>4.4000000953674</ele>
        <time>2022-03-24T08:20:43.000Z</time>
      </trkpt>
      <trkpt lat="47.26186" lon="-2.32666">
        <ele>4.4000000953674</ele>
        <time>2022-03-24T08:20:45.000Z</time>
      </trkpt>
      <trkpt lat="47.26201" lon="-2.32682">
        <ele>4.4000000953674</ele>
        <time>2022-03-24T08:20:49.000Z</time>
      </trkpt>
      <trkpt lat="47.26226" lon="-2.32713">
        <ele>4.4000000953674</ele>
        <time>2022-03-24T08:20:56.000Z</time>
      </trkpt>
      <trkpt lat="47.26254" lon="-2.32753">
        <ele>4.4000000953674</ele>
        <time>2022-03-24T08:21:04.000Z</time>
      </trkpt>
      <trkpt lat="47.26265" lon="-2.3277">
        <ele>4.4000000953674</ele>
        <time>2022-03-24T08:21:07.000Z</time>
      </trkpt>
      <trkpt lat="47.26274" lon="-2.32789">
        <ele>4.4000000953674</ele>
        <time>2022-03-24T08:21:10.000Z</time>
      </trkpt>
      <trkpt lat="47.26279" lon="-2.32802">
        <ele>4.4000000953674</ele>
        <time>2022-03-24T08:21:12.000Z</time>
      </trkpt>
      <trkpt lat="47.26284" lon="-2.32823">
        <ele>4.4000000953674</ele>
        <time>2022-03-24T08:21:15.000Z</time>
      </trkpt>
      <trkpt lat="47.26286" lon="-2.32838">
        <ele>4.4000000953674</ele>
        <time>2022-03-24T08:21:17.000Z</time>
      </trkpt>
      <trkpt lat="47.26289" lon="-2.32852">
        <ele>4.4000000953674</ele>
        <time>2022-03-24T08:21:19.000Z</time>
      </trkpt>
      <trkpt lat="47.26296" lon="-2.32863">
        <ele>4.4000000953674</ele>
        <time>2022-03-24T08:21:21.000Z</time>
      </trkpt>
      <trkpt lat="47.2631" lon="-2.32867">
        <ele>4.4000000953674</ele>
        <time>2022-03-24T08:21:24.000Z</time>
      </trkpt>
      <trkpt lat="47.26314" lon="-2.32871">
        <ele>4.4000000953674</ele>
        <time>2022-03-24T08:21:25.000Z</time>
      </trkpt>
      <trkpt lat="47.26319" lon="-2.32884">
        <ele>4.4000000953674</ele>
        <time>2022-03-24T08:21:27.000Z</time>
      </trkpt>
      <trkpt lat="47.26336" lon="-2.32938">
        <ele>4.4000000953674</ele>
        <time>2022-03-24T08:21:35.000Z</time>
      </trkpt>
      <trkpt lat="47.26339" lon="-2.32945">
        <ele>4.4000000953674</ele>
        <time>2022-03-24T08:21:36.000Z</time>
      </trkpt>
      <trkpt lat="47.26341" lon="-2.32951">
        <ele>4.4000000953674</ele>
        <time>2022-03-24T08:21:37.000Z</time>
      </trkpt>
      <trkpt lat="47.26357" lon="-2.3298">
        <ele>4.4000000953674</ele>
        <time>2022-03-24T08:21:42.000Z</time>
      </trkpt>
      <trkpt lat="47.2636" lon="-2.32984">
        <ele>4.4000000953674</ele>
        <time>2022-03-24T08:21:43.000Z</time>
      </trkpt>
      <trkpt lat="47.26363" lon="-2.3299">
        <ele>4.4000000953674</ele>
        <time>2022-03-24T08:21:44.000Z</time>
      </trkpt>
      <trkpt lat="47.26364" lon="-2.33003">
        <ele>4.4000000953674</ele>
        <time>2022-03-24T08:21:46.000Z</time>
      </trkpt>
      <trkpt lat="47.26366" lon="-2.33052">
        <ele>4.4000000953674</ele>
        <time>2022-03-24T08:21:53.000Z</time>
      </trkpt>
      <trkpt lat="47.26368" lon="-2.33078">
        <ele>4.4000000953674</ele>
        <time>2022-03-24T08:21:57.000Z</time>
      </trkpt>
      <trkpt lat="47.26371" lon="-2.33106">
        <ele>4.4000000953674</ele>
        <time>2022-03-24T08:22:01.000Z</time>
      </trkpt>
      <trkpt lat="47.26375" lon="-2.3316">
        <ele>4.4000000953674</ele>
        <time>2022-03-24T08:22:09.000Z</time>
      </trkpt>
      <trkpt lat="47.26379" lon="-2.33228">
        <ele>4.4000000953674</ele>
        <time>2022-03-24T08:22:19.000Z</time>
      </trkpt>
      <trkpt lat="47.2638" lon="-2.33241">
        <ele>4.4000000953674</ele>
        <time>2022-03-24T08:22:21.000Z</time>
      </trkpt>
      <trkpt lat="47.26386" lon="-2.33258">
        <ele>4.4000000953674</ele>
        <time>2022-03-24T08:22:24.000Z</time>
      </trkpt>
      <trkpt lat="47.26399" lon="-2.33265">
        <ele>4.4000000953674</ele>
        <time>2022-03-24T08:22:27.000Z</time>
      </trkpt>
      <trkpt lat="47.26408" lon="-2.33267">
        <ele>4.4000000953674</ele>
        <time>2022-03-24T08:22:29.000Z</time>
      </trkpt>
      <trkpt lat="47.26431" lon="-2.3327">
        <ele>5</ele>
        <time>2022-03-24T08:22:34.000Z</time>
      </trkpt>
      <trkpt lat="47.26436" lon="-2.3327">
        <ele>5.4000000953674</ele>
        <time>2022-03-24T08:22:35.000Z</time>
      </trkpt>
      <trkpt lat="47.2644" lon="-2.33271">
        <ele>5.8000001907349</ele>
        <time>2022-03-24T08:22:36.000Z</time>
      </trkpt>
      <trkpt lat="47.26445" lon="-2.33271">
        <ele>6.1999998092651</ele>
        <time>2022-03-24T08:22:37.000Z</time>
      </trkpt>
      <trkpt lat="47.26449" lon="-2.33271">
        <ele>6.5999999046326</ele>
        <time>2022-03-24T08:22:38.000Z</time>
      </trkpt>
      <trkpt lat="47.26466" lon="-2.33276">
        <ele>6.5999999046326</ele>
        <time>2022-03-24T08:22:42.000Z</time>
      </trkpt>
      <trkpt lat="47.26493" lon="-2.33281">
        <ele>6.5999999046326</ele>
        <time>2022-03-24T08:22:49.000Z</time>
      </trkpt>
      <trkpt lat="47.26509" lon="-2.33289">
        <ele>6.5999999046326</ele>
        <time>2022-03-24T08:22:54.000Z</time>
      </trkpt>
      <trkpt lat="47.26522" lon="-2.33302">
        <ele>6.5999999046326</ele>
        <time>2022-03-24T08:22:58.000Z</time>
      </trkpt>
      <trkpt lat="47.26525" lon="-2.33308">
        <ele>6.5999999046326</ele>
        <time>2022-03-24T08:22:59.000Z</time>
      </trkpt>
      <trkpt lat="47.26526" lon="-2.33328">
        <ele>6.5999999046326</ele>
        <time>2022-03-24T08:23:02.000Z</time>
      </trkpt>
      <trkpt lat="47.26527" lon="-2.33357">
        <ele>6.5999999046326</ele>
        <time>2022-03-24T08:23:06.000Z</time>
      </trkpt>
      <trkpt lat="47.26528" lon="-2.33364">
        <ele>6.5999999046326</ele>
        <time>2022-03-24T08:23:07.000Z</time>
      </trkpt>
      <trkpt lat="47.2654" lon="-2.33408">
        <ele>6.5999999046326</ele>
        <time>2022-03-24T08:23:13.000Z</time>
      </trkpt>
      <trkpt lat="47.26551" lon="-2.33475">
        <ele>6.5999999046326</ele>
        <time>2022-03-24T08:23:22.000Z</time>
      </trkpt>
      <trkpt lat="47.2656" lon="-2.33534">
        <ele>6.5999999046326</ele>
        <time>2022-03-24T08:23:30.000Z</time>
      </trkpt>
      <trkpt lat="47.26563" lon="-2.33557">
        <ele>7</ele>
        <time>2022-03-24T08:23:33.000Z</time>
      </trkpt>
      <trkpt lat="47.26564" lon="-2.33565">
        <ele>7.4000000953674</ele>
        <time>2022-03-24T08:23:34.000Z</time>
      </trkpt>
      <trkpt lat="47.26565" lon="-2.33572">
        <ele>7.8000001907349</ele>
        <time>2022-03-24T08:23:35.000Z</time>
      </trkpt>
      <trkpt lat="47.26566" lon="-2.33579">
        <ele>8.1999998092651</ele>
        <time>2022-03-24T08:23:36.000Z</time>
      </trkpt>
      <trkpt lat="47.26567" lon="-2.33587">
        <ele>8.6000003814697</ele>
        <time>2022-03-24T08:23:37.000Z</time>
      </trkpt>
      <trkpt lat="47.26575" lon="-2.33643">
        <ele>8.6000003814697</ele>
        <time>2022-03-24T08:23:45.000Z</time>
      </trkpt>
      <trkpt lat="47.26578" lon="-2.33656">
        <ele>9</ele>
        <time>2022-03-24T08:23:47.000Z</time>
      </trkpt>
      <trkpt lat="47.26579" lon="-2.33662">
        <ele>9.3999996185303</ele>
        <time>2022-03-24T08:23:48.000Z</time>
      </trkpt>
      <trkpt lat="47.26582" lon="-2.33668">
        <ele>9.8000001907349</ele>
        <time>2022-03-24T08:23:49.000Z</time>
      </trkpt>
      <trkpt lat="47.26585" lon="-2.33673">
        <ele>10.199999809265</ele>
        <time>2022-03-24T08:23:50.000Z</time>
      </trkpt>
      <trkpt lat="47.26589" lon="-2.33678">
        <ele>10.60000038147</ele>
        <time>2022-03-24T08:23:51.000Z</time>
      </trkpt>
      <trkpt lat="47.26591" lon="-2.33684">
        <ele>10.60000038147</ele>
        <time>2022-03-24T08:23:52.000Z</time>
      </trkpt>
      <trkpt lat="47.26598" lon="-2.33693">
        <ele>10.60000038147</ele>
        <time>2022-03-24T08:23:54.000Z</time>
      </trkpt>
      <trkpt lat="47.26606" lon="-2.33701">
        <ele>10.60000038147</ele>
        <time>2022-03-24T08:23:56.000Z</time>
      </trkpt>
      <trkpt lat="47.26609" lon="-2.33705">
        <ele>11.199999809265</ele>
        <time>2022-03-24T08:23:57.000Z</time>
      </trkpt>
      <trkpt lat="47.26612" lon="-2.33709">
        <ele>12</ele>
        <time>2022-03-24T08:23:58.000Z</time>
      </trkpt>
      <trkpt lat="47.26615" lon="-2.33715">
        <ele>12.39999961853</ele>
        <time>2022-03-24T08:23:59.000Z</time>
      </trkpt>
      <trkpt lat="47.26618" lon="-2.3372">
        <ele>12.800000190735</ele>
        <time>2022-03-24T08:24:00.000Z</time>
      </trkpt>
      <trkpt lat="47.26621" lon="-2.33725">
        <ele>12.800000190735</ele>
        <time>2022-03-24T08:24:01.000Z</time>
      </trkpt>
      <trkpt lat="47.26634" lon="-2.33745">
        <ele>12.800000190735</ele>
        <time>2022-03-24T08:24:05.000Z</time>
      </trkpt>
      <trkpt lat="47.26641" lon="-2.33755">
        <ele>12.800000190735</ele>
        <time>2022-03-24T08:24:07.000Z</time>
      </trkpt>
      <trkpt lat="47.26652" lon="-2.33776">
        <ele>12.800000190735</ele>
        <time>2022-03-24T08:24:11.000Z</time>
      </trkpt>
      <trkpt lat="47.26655" lon="-2.3378">
        <ele>12.800000190735</ele>
        <time>2022-03-24T08:24:12.000Z</time>
      </trkpt>
      <trkpt lat="47.26674" lon="-2.33809">
        <ele>12.800000190735</ele>
        <time>2022-03-24T08:24:18.000Z</time>
      </trkpt>
      <trkpt lat="47.26699" lon="-2.33848">
        <ele>12.800000190735</ele>
        <time>2022-03-24T08:24:26.000Z</time>
      </trkpt>
      <trkpt lat="47.26716" lon="-2.33876">
        <ele>12.800000190735</ele>
        <time>2022-03-24T08:24:32.000Z</time>
      </trkpt>
      <trkpt lat="47.26736" lon="-2.33907">
        <ele>12.800000190735</ele>
        <time>2022-03-24T08:24:38.000Z</time>
      </trkpt>
      <trkpt lat="47.26743" lon="-2.33918">
        <ele>13.199999809265</ele>
        <time>2022-03-24T08:24:40.000Z</time>
      </trkpt>
      <trkpt lat="47.26747" lon="-2.33923">
        <ele>13.60000038147</ele>
        <time>2022-03-24T08:24:41.000Z</time>
      </trkpt>
      <trkpt lat="47.2675" lon="-2.33929">
        <ele>14</ele>
        <time>2022-03-24T08:24:42.000Z</time>
      </trkpt>
      <trkpt lat="47.26753" lon="-2.33934">
        <ele>14.39999961853</ele>
        <time>2022-03-24T08:24:43.000Z</time>
      </trkpt>
      <trkpt lat="47.26756" lon="-2.33941">
        <ele>14.800000190735</ele>
        <time>2022-03-24T08:24:44.000Z</time>
      </trkpt>
      <trkpt lat="47.26763" lon="-2.33952">
        <ele>14.800000190735</ele>
        <time>2022-03-24T08:24:46.000Z</time>
      </trkpt>
      <trkpt lat="47.26788" lon="-2.3399">
        <ele>14.800000190735</ele>
        <time>2022-03-24T08:24:53.000Z</time>
      </trkpt>
      <trkpt lat="47.26815" lon="-2.34034">
        <ele>14.800000190735</ele>
        <time>2022-03-24T08:25:01.000Z</time>
      </trkpt>
      <trkpt lat="47.26831" lon="-2.34059">
        <ele>14.800000190735</ele>
        <time>2022-03-24T08:25:06.000Z</time>
      </trkpt>
      <trkpt lat="47.26837" lon="-2.34068">
        <ele>14.800000190735</ele>
        <time>2022-03-24T08:25:08.000Z</time>
      </trkpt>
      <trkpt lat="47.26845" lon="-2.3408">
        <ele>14.800000190735</ele>
        <time>2022-03-24T08:25:11.000Z</time>
      </trkpt>
      <trkpt lat="47.26859" lon="-2.34103">
        <ele>15.199999809265</ele>
        <time>2022-03-24T08:25:17.000Z</time>
      </trkpt>
      <trkpt lat="47.26862" lon="-2.34108">
        <ele>15.60000038147</ele>
        <time>2022-03-24T08:25:18.000Z</time>
      </trkpt>
      <trkpt lat="47.26865" lon="-2.34113">
        <ele>16</ele>
        <time>2022-03-24T08:25:19.000Z</time>
      </trkpt>
      <trkpt lat="47.26869" lon="-2.34119">
        <ele>16.39999961853</ele>
        <time>2022-03-24T08:25:20.000Z</time>
      </trkpt>
      <trkpt lat="47.26872" lon="-2.34124">
        <ele>16.799999237061</ele>
        <time>2022-03-24T08:25:21.000Z</time>
      </trkpt>
      <trkpt lat="47.26879" lon="-2.34134">
        <ele>16.799999237061</ele>
        <time>2022-03-24T08:25:23.000Z</time>
      </trkpt>
      <trkpt lat="47.26903" lon="-2.34173">
        <ele>16.799999237061</ele>
        <time>2022-03-24T08:25:30.000Z</time>
      </trkpt>
      <trkpt lat="47.26907" lon="-2.34178">
        <ele>16.799999237061</ele>
        <time>2022-03-24T08:25:31.000Z</time>
      </trkpt>
      <trkpt lat="47.26922" lon="-2.34202">
        <ele>16.799999237061</ele>
        <time>2022-03-24T08:25:35.000Z</time>
      </trkpt>
      <trkpt lat="47.2695" lon="-2.34246">
        <ele>16.799999237061</ele>
        <time>2022-03-24T08:25:43.000Z</time>
      </trkpt>
      <trkpt lat="47.26965" lon="-2.34267">
        <ele>16.799999237061</ele>
        <time>2022-03-24T08:25:47.000Z</time>
      </trkpt>
      <trkpt lat="47.2698" lon="-2.34293">
        <ele>16.799999237061</ele>
        <time>2022-03-24T08:25:52.000Z</time>
      </trkpt>
      <trkpt lat="47.26986" lon="-2.34303">
        <ele>16.799999237061</ele>
        <time>2022-03-24T08:25:54.000Z</time>
      </trkpt>
      <trkpt lat="47.26994" lon="-2.34315">
        <ele>16.799999237061</ele>
        <time>2022-03-24T08:25:57.000Z</time>
      </trkpt>
      <trkpt lat="47.27008" lon="-2.34317">
        <ele>16.799999237061</ele>
        <time>2022-03-24T08:26:01.000Z</time>
      </trkpt>
      <trkpt lat="47.27023" lon="-2.3432">
        <ele>16.799999237061</ele>
        <time>2022-03-24T08:26:05.000Z</time>
      </trkpt>
      <trkpt lat="47.27031" lon="-2.34322">
        <ele>16.799999237061</ele>
        <time>2022-03-24T08:26:07.000Z</time>
      </trkpt>
      <trkpt lat="47.27035" lon="-2.34325">
        <ele>16.799999237061</ele>
        <time>2022-03-24T08:26:08.000Z</time>
      </trkpt>
      <trkpt lat="47.27042" lon="-2.34341">
        <ele>16.799999237061</ele>
        <time>2022-03-24T08:26:11.000Z</time>
      </trkpt>
      <trkpt lat="47.27044" lon="-2.34355">
        <ele>16.799999237061</ele>
        <time>2022-03-24T08:26:13.000Z</time>
      </trkpt>
      <trkpt lat="47.27045" lon="-2.34362">
        <ele>17.200000762939</ele>
        <time>2022-03-24T08:26:14.000Z</time>
      </trkpt>
      <trkpt lat="47.27047" lon="-2.34369">
        <ele>17.60000038147</ele>
        <time>2022-03-24T08:26:15.000Z</time>
      </trkpt>
      <trkpt lat="47.27048" lon="-2.34376">
        <ele>18</ele>
        <time>2022-03-24T08:26:16.000Z</time>
      </trkpt>
      <trkpt lat="47.27049" lon="-2.34383">
        <ele>18.39999961853</ele>
        <time>2022-03-24T08:26:17.000Z</time>
      </trkpt>
      <trkpt lat="47.27051" lon="-2.3439">
        <ele>18.799999237061</ele>
        <time>2022-03-24T08:26:18.000Z</time>
      </trkpt>
      <trkpt lat="47.27061" lon="-2.34431">
        <ele>18.799999237061</ele>
        <time>2022-03-24T08:26:24.000Z</time>
      </trkpt>
      <trkpt lat="47.27064" lon="-2.34438">
        <ele>18.799999237061</ele>
        <time>2022-03-24T08:26:25.000Z</time>
      </trkpt>
      <trkpt lat="47.27067" lon="-2.34452">
        <ele>18.799999237061</ele>
        <time>2022-03-24T08:26:27.000Z</time>
      </trkpt>
      <trkpt lat="47.27072" lon="-2.34472">
        <ele>18.799999237061</ele>
        <time>2022-03-24T08:26:30.000Z</time>
      </trkpt>
      <trkpt lat="47.27087" lon="-2.34534">
        <ele>18.799999237061</ele>
        <time>2022-03-24T08:26:39.000Z</time>
      </trkpt>
      <trkpt lat="47.27099" lon="-2.34588">
        <ele>18.799999237061</ele>
        <time>2022-03-24T08:26:47.000Z</time>
      </trkpt>
      <trkpt lat="47.27114" lon="-2.34648">
        <ele>18.799999237061</ele>
        <time>2022-03-24T08:26:55.000Z</time>
      </trkpt>
      <trkpt lat="47.27115" lon="-2.34657">
        <ele>18.799999237061</ele>
        <time>2022-03-24T08:26:56.000Z</time>
      </trkpt>
      <trkpt lat="47.27123" lon="-2.34695">
        <ele>18.799999237061</ele>
        <time>2022-03-24T08:27:01.000Z</time>
      </trkpt>
      <trkpt lat="47.27135" lon="-2.34747">
        <ele>18.799999237061</ele>
        <time>2022-03-24T08:27:08.000Z</time>
      </trkpt>
      <trkpt lat="47.27146" lon="-2.34807">
        <ele>19.200000762939</ele>
        <time>2022-03-24T08:27:16.000Z</time>
      </trkpt>
      <trkpt lat="47.27147" lon="-2.34814">
        <ele>19.60000038147</ele>
        <time>2022-03-24T08:27:17.000Z</time>
      </trkpt>
      <trkpt lat="47.27149" lon="-2.34822">
        <ele>20</ele>
        <time>2022-03-24T08:27:18.000Z</time>
      </trkpt>
      <trkpt lat="47.2715" lon="-2.34829">
        <ele>20.39999961853</ele>
        <time>2022-03-24T08:27:19.000Z</time>
      </trkpt>
      <trkpt lat="47.27152" lon="-2.34836">
        <ele>20.799999237061</ele>
        <time>2022-03-24T08:27:20.000Z</time>
      </trkpt>
      <trkpt lat="47.27156" lon="-2.34858">
        <ele>20.799999237061</ele>
        <time>2022-03-24T08:27:23.000Z</time>
      </trkpt>
      <trkpt lat="47.27169" lon="-2.34901">
        <ele>20.799999237061</ele>
        <time>2022-03-24T08:27:29.000Z</time>
      </trkpt>
      <trkpt lat="47.27187" lon="-2.34957">
        <ele>20.799999237061</ele>
        <time>2022-03-24T08:27:37.000Z</time>
      </trkpt>
      <trkpt lat="47.2719" lon="-2.34963">
        <ele>20.799999237061</ele>
        <time>2022-03-24T08:27:38.000Z</time>
      </trkpt>
      <trkpt lat="47.27203" lon="-2.35003">
        <ele>21.39999961853</ele>
        <time>2022-03-24T08:27:44.000Z</time>
      </trkpt>
      <trkpt lat="47.27206" lon="-2.35009">
        <ele>21.799999237061</ele>
        <time>2022-03-24T08:27:45.000Z</time>
      </trkpt>
      <trkpt lat="47.27208" lon="-2.35015">
        <ele>22.200000762939</ele>
        <time>2022-03-24T08:27:46.000Z</time>
      </trkpt>
      <trkpt lat="47.27211" lon="-2.35022">
        <ele>22.60000038147</ele>
        <time>2022-03-24T08:27:47.000Z</time>
      </trkpt>
      <trkpt lat="47.27213" lon="-2.35029">
        <ele>23</ele>
        <time>2022-03-24T08:27:48.000Z</time>
      </trkpt>
      <trkpt lat="47.27223" lon="-2.35057">
        <ele>23</ele>
        <time>2022-03-24T08:27:52.000Z</time>
      </trkpt>
      <trkpt lat="47.27246" lon="-2.3511">
        <ele>23</ele>
        <time>2022-03-24T08:28:00.000Z</time>
      </trkpt>
      <trkpt lat="47.27252" lon="-2.3512">
        <ele>23</ele>
        <time>2022-03-24T08:28:02.000Z</time>
      </trkpt>
      <trkpt lat="47.27259" lon="-2.35122">
        <ele>23</ele>
        <time>2022-03-24T08:28:04.000Z</time>
      </trkpt>
      <trkpt lat="47.27267" lon="-2.35117">
        <ele>23</ele>
        <time>2022-03-24T08:28:06.000Z</time>
      </trkpt>
      <trkpt lat="47.27276" lon="-2.35112">
        <ele>23</ele>
        <time>2022-03-24T08:28:08.000Z</time>
      </trkpt>
      <trkpt lat="47.27301" lon="-2.35102">
        <ele>23.39999961853</ele>
        <time>2022-03-24T08:28:13.000Z</time>
      </trkpt>
      <trkpt lat="47.27306" lon="-2.35099">
        <ele>23.799999237061</ele>
        <time>2022-03-24T08:28:14.000Z</time>
      </trkpt>
      <trkpt lat="47.2731" lon="-2.35097">
        <ele>24.200000762939</ele>
        <time>2022-03-24T08:28:15.000Z</time>
      </trkpt>
      <trkpt lat="47.27314" lon="-2.35094">
        <ele>24.799999237061</ele>
        <time>2022-03-24T08:28:16.000Z</time>
      </trkpt>
      <trkpt lat="47.27319" lon="-2.35091">
        <ele>25.200000762939</ele>
        <time>2022-03-24T08:28:17.000Z</time>
      </trkpt>
      <trkpt lat="47.27322" lon="-2.35089">
        <ele>25.200000762939</ele>
        <time>2022-03-24T08:28:18.000Z</time>
      </trkpt>
      <trkpt lat="47.27333" lon="-2.35085">
        <ele>25.60000038147</ele>
        <time>2022-03-24T08:28:21.000Z</time>
      </trkpt>
      <trkpt lat="47.27336" lon="-2.35083">
        <ele>26</ele>
        <time>2022-03-24T08:28:22.000Z</time>
      </trkpt>
      <trkpt lat="47.27339" lon="-2.35082">
        <ele>26.39999961853</ele>
        <time>2022-03-24T08:28:23.000Z</time>
      </trkpt>
      <trkpt lat="47.27342" lon="-2.3508">
        <ele>26.799999237061</ele>
        <time>2022-03-24T08:28:24.000Z</time>
      </trkpt>
      <trkpt lat="47.27346" lon="-2.35079">
        <ele>27.39999961853</ele>
        <time>2022-03-24T08:28:25.000Z</time>
      </trkpt>
      <trkpt lat="47.27359" lon="-2.35071">
        <ele>27.799999237061</ele>
        <time>2022-03-24T08:28:29.000Z</time>
      </trkpt>
      <trkpt lat="47.27363" lon="-2.3507">
        <ele>28.200000762939</ele>
        <time>2022-03-24T08:28:30.000Z</time>
      </trkpt>
      <trkpt lat="47.27366" lon="-2.35068">
        <ele>28.60000038147</ele>
        <time>2022-03-24T08:28:31.000Z</time>
      </trkpt>
      <trkpt lat="47.2737" lon="-2.35066">
        <ele>29</ele>
        <time>2022-03-24T08:28:32.000Z</time>
      </trkpt>
      <trkpt lat="47.27373" lon="-2.35065">
        <ele>29.39999961853</ele>
        <time>2022-03-24T08:28:33.000Z</time>
      </trkpt>
      <trkpt lat="47.27386" lon="-2.35057">
        <ele>29.39999961853</ele>
        <time>2022-03-24T08:28:37.000Z</time>
      </trkpt>
      <trkpt lat="47.27396" lon="-2.35053">
        <ele>29.39999961853</ele>
        <time>2022-03-24T08:28:41.000Z</time>
      </trkpt>
      <trkpt lat="47.274" lon="-2.35058">
        <ele>29.799999237061</ele>
        <time>2022-03-24T08:28:43.000Z</time>
      </trkpt>
      <trkpt lat="47.27402" lon="-2.35062">
        <ele>30.200000762939</ele>
        <time>2022-03-24T08:28:44.000Z</time>
      </trkpt>
      <trkpt lat="47.27404" lon="-2.35068">
        <ele>30.60000038147</ele>
        <time>2022-03-24T08:28:45.000Z</time>
      </trkpt>
      <trkpt lat="47.27405" lon="-2.35073">
        <ele>31</ele>
        <time>2022-03-24T08:28:46.000Z</time>
      </trkpt>
      <trkpt lat="47.27406" lon="-2.35078">
        <ele>31.39999961853</ele>
        <time>2022-03-24T08:28:47.000Z</time>
      </trkpt>
      <trkpt lat="47.27414" lon="-2.35113">
        <ele>31.39999961853</ele>
        <time>2022-03-24T08:28:53.000Z</time>
      </trkpt>
      <trkpt lat="47.2742" lon="-2.35139">
        <ele>31.39999961853</ele>
        <time>2022-03-24T08:28:58.000Z</time>
      </trkpt>
      <trkpt lat="47.27427" lon="-2.35167">
        <ele>31.39999961853</ele>
        <time>2022-03-24T08:29:03.000Z</time>
      </trkpt>
      <trkpt lat="47.27437" lon="-2.35169">
        <ele>31.39999961853</ele>
        <time>2022-03-24T08:29:06.000Z</time>
      </trkpt>
      <trkpt lat="47.27441" lon="-2.35166">
        <ele>31.39999961853</ele>
        <time>2022-03-24T08:29:07.000Z</time>
      </trkpt>
      <trkpt lat="47.27463" lon="-2.35155">
        <ele>32</ele>
        <time>2022-03-24T08:29:13.000Z</time>
      </trkpt>
      <trkpt lat="47.27466" lon="-2.35153">
        <ele>32.400001525879</ele>
        <time>2022-03-24T08:29:14.000Z</time>
      </trkpt>
      <trkpt lat="47.2747" lon="-2.35151">
        <ele>32.799999237061</ele>
        <time>2022-03-24T08:29:15.000Z</time>
      </trkpt>
      <trkpt lat="47.27473" lon="-2.35149">
        <ele>33.200000762939</ele>
        <time>2022-03-24T08:29:16.000Z</time>
      </trkpt>
      <trkpt lat="47.27477" lon="-2.35148">
        <ele>33.799999237061</ele>
        <time>2022-03-24T08:29:17.000Z</time>
      </trkpt>
      <trkpt lat="47.27491" lon="-2.35141">
        <ele>33.799999237061</ele>
        <time>2022-03-24T08:29:21.000Z</time>
      </trkpt>
      <trkpt lat="47.27507" lon="-2.35128">
        <ele>34.200000762939</ele>
        <time>2022-03-24T08:29:26.000Z</time>
      </trkpt>
      <trkpt lat="47.2751" lon="-2.35128">
        <ele>34.599998474121</ele>
        <time>2022-03-24T08:29:27.000Z</time>
      </trkpt>
      <trkpt lat="47.27514" lon="-2.35129">
        <ele>35</ele>
        <time>2022-03-24T08:29:28.000Z</time>
      </trkpt>
      <trkpt lat="47.27517" lon="-2.3513">
        <ele>35.400001525879</ele>
        <time>2022-03-24T08:29:29.000Z</time>
      </trkpt>
      <trkpt lat="47.27521" lon="-2.35132">
        <ele>35.799999237061</ele>
        <time>2022-03-24T08:29:30.000Z</time>
      </trkpt>
      <trkpt lat="47.27545" lon="-2.35137">
        <ele>35.799999237061</ele>
        <time>2022-03-24T08:29:36.000Z</time>
      </trkpt>
      <trkpt lat="47.27572" lon="-2.35132">
        <ele>35.799999237061</ele>
        <time>2022-03-24T08:29:43.000Z</time>
      </trkpt>
      <trkpt lat="47.27595" lon="-2.35132">
        <ele>35.799999237061</ele>
        <time>2022-03-24T08:29:48.000Z</time>
      </trkpt>
      <trkpt lat="47.27599" lon="-2.35135">
        <ele>35.799999237061</ele>
        <time>2022-03-24T08:29:49.000Z</time>
      </trkpt>
      <trkpt lat="47.27606" lon="-2.35155">
        <ele>35.799999237061</ele>
        <time>2022-03-24T08:29:52.000Z</time>
      </trkpt>
      <trkpt lat="47.27614" lon="-2.35175">
        <ele>35.799999237061</ele>
        <time>2022-03-24T08:29:55.000Z</time>
      </trkpt>
      <trkpt lat="47.2763" lon="-2.35176">
        <ele>35.799999237061</ele>
        <time>2022-03-24T08:29:58.000Z</time>
      </trkpt>
      <trkpt lat="47.27635" lon="-2.35175">
        <ele>35.799999237061</ele>
        <time>2022-03-24T08:29:59.000Z</time>
      </trkpt>
      <trkpt lat="47.27646" lon="-2.35172">
        <ele>35.799999237061</ele>
        <time>2022-03-24T08:30:01.000Z</time>
      </trkpt>
      <trkpt lat="47.2766" lon="-2.35173">
        <ele>35.799999237061</ele>
        <time>2022-03-24T08:30:04.000Z</time>
      </trkpt>
      <trkpt lat="47.27665" lon="-2.35176">
        <ele>35.799999237061</ele>
        <time>2022-03-24T08:30:05.000Z</time>
      </trkpt>
      <trkpt lat="47.2767" lon="-2.3519">
        <ele>35.799999237061</ele>
        <time>2022-03-24T08:30:07.000Z</time>
      </trkpt>
      <trkpt lat="47.27671" lon="-2.35207">
        <ele>35.400001525879</ele>
        <time>2022-03-24T08:30:09.000Z</time>
      </trkpt>
      <trkpt lat="47.27672" lon="-2.35214">
        <ele>35</ele>
        <time>2022-03-24T08:30:10.000Z</time>
      </trkpt>
      <trkpt lat="47.27673" lon="-2.35219">
        <ele>34.599998474121</ele>
        <time>2022-03-24T08:30:11.000Z</time>
      </trkpt>
      <trkpt lat="47.27676" lon="-2.35221">
        <ele>34</ele>
        <time>2022-03-24T08:30:12.000Z</time>
      </trkpt>
      <trkpt lat="47.2768" lon="-2.3522">
        <ele>33.599998474121</ele>
        <time>2022-03-24T08:30:13.000Z</time>
      </trkpt>
      <trkpt lat="47.27688" lon="-2.35217">
        <ele>33.599998474121</ele>
        <time>2022-03-24T08:30:15.000Z</time>
      </trkpt>
      <trkpt lat="47.27693" lon="-2.35215">
        <ele>33.599998474121</ele>
        <time>2022-03-24T08:30:16.000Z</time>
      </trkpt>
      <trkpt lat="47.27698" lon="-2.35214">
        <ele>33.599998474121</ele>
        <time>2022-03-24T08:30:17.000Z</time>
      </trkpt>
      <trkpt lat="47.27733" lon="-2.35204">
        <ele>33.599998474121</ele>
        <time>2022-03-24T08:30:24.000Z</time>
      </trkpt>
      <trkpt lat="47.27744" lon="-2.35201">
        <ele>33.200000762939</ele>
        <time>2022-03-24T08:30:26.000Z</time>
      </trkpt>
      <trkpt lat="47.27748" lon="-2.352">
        <ele>32.799999237061</ele>
        <time>2022-03-24T08:30:27.000Z</time>
      </trkpt>
      <trkpt lat="47.27753" lon="-2.352">
        <ele>32.400001525879</ele>
        <time>2022-03-24T08:30:28.000Z</time>
      </trkpt>
      <trkpt lat="47.27758" lon="-2.352">
        <ele>32</ele>
        <time>2022-03-24T08:30:29.000Z</time>
      </trkpt>
      <trkpt lat="47.27763" lon="-2.352">
        <ele>31.60000038147</ele>
        <time>2022-03-24T08:30:30.000Z</time>
      </trkpt>
      <trkpt lat="47.27767" lon="-2.352">
        <ele>31.60000038147</ele>
        <time>2022-03-24T08:30:31.000Z</time>
      </trkpt>
      <trkpt lat="47.27769" lon="-2.35204">
        <ele>31.60000038147</ele>
        <time>2022-03-24T08:30:32.000Z</time>
      </trkpt>
      <trkpt lat="47.27772" lon="-2.35215">
        <ele>31.60000038147</ele>
        <time>2022-03-24T08:30:34.000Z</time>
      </trkpt>
      <trkpt lat="47.27777" lon="-2.35234">
        <ele>31.60000038147</ele>
        <time>2022-03-24T08:30:37.000Z</time>
      </trkpt>
      <trkpt lat="47.27781" lon="-2.35254">
        <ele>31.60000038147</ele>
        <time>2022-03-24T08:30:40.000Z</time>
      </trkpt>
      <trkpt lat="47.27783" lon="-2.35261">
        <ele>31.60000038147</ele>
        <time>2022-03-24T08:30:41.000Z</time>
      </trkpt>
      <trkpt lat="47.27789" lon="-2.35289">
        <ele>31.60000038147</ele>
        <time>2022-03-24T08:30:45.000Z</time>
      </trkpt>
      <trkpt lat="47.27799" lon="-2.35339">
        <ele>31.60000038147</ele>
        <time>2022-03-24T08:30:52.000Z</time>
      </trkpt>
      <trkpt lat="47.27802" lon="-2.35345">
        <ele>31.60000038147</ele>
        <time>2022-03-24T08:30:53.000Z</time>
      </trkpt>
      <trkpt lat="47.27812" lon="-2.35359">
        <ele>31.60000038147</ele>
        <time>2022-03-24T08:30:56.000Z</time>
      </trkpt>
      <trkpt lat="47.27826" lon="-2.3536">
        <ele>31.60000038147</ele>
        <time>2022-03-24T08:30:59.000Z</time>
      </trkpt>
      <trkpt lat="47.27857" lon="-2.35359">
        <ele>31.60000038147</ele>
        <time>2022-03-24T08:31:06.000Z</time>
      </trkpt>
      <trkpt lat="47.27865" lon="-2.35359">
        <ele>31.60000038147</ele>
        <time>2022-03-24T08:31:08.000Z</time>
      </trkpt>
      <trkpt lat="47.27883" lon="-2.35371">
        <ele>31.60000038147</ele>
        <time>2022-03-24T08:31:13.000Z</time>
      </trkpt>
      <trkpt lat="47.27886" lon="-2.35375">
        <ele>31.60000038147</ele>
        <time>2022-03-24T08:31:14.000Z</time>
      </trkpt>
      <trkpt lat="47.27903" lon="-2.35397">
        <ele>31.60000038147</ele>
        <time>2022-03-24T08:31:19.000Z</time>
      </trkpt>
      <trkpt lat="47.27927" lon="-2.35429">
        <ele>31.60000038147</ele>
        <time>2022-03-24T08:31:26.000Z</time>
      </trkpt>
      <trkpt lat="47.27949" lon="-2.35454">
        <ele>31.60000038147</ele>
        <time>2022-03-24T08:31:32.000Z</time>
      </trkpt>
      <trkpt lat="47.27953" lon="-2.35456">
        <ele>31.60000038147</ele>
        <time>2022-03-24T08:31:33.000Z</time>
      </trkpt>
      <trkpt lat="47.27972" lon="-2.35469">
        <ele>31.60000038147</ele>
        <time>2022-03-24T08:31:38.000Z</time>
      </trkpt>
      <trkpt lat="47.27975" lon="-2.35473">
        <ele>31.60000038147</ele>
        <time>2022-03-24T08:31:39.000Z</time>
      </trkpt>
      <trkpt lat="47.27984" lon="-2.35489">
        <ele>31.60000038147</ele>
        <time>2022-03-24T08:31:42.000Z</time>
      </trkpt>
      <trkpt lat="47.27989" lon="-2.355">
        <ele>31.60000038147</ele>
        <time>2022-03-24T08:31:44.000Z</time>
      </trkpt>
      <trkpt lat="47.28" lon="-2.35524">
        <ele>31.60000038147</ele>
        <time>2022-03-24T08:31:49.000Z</time>
      </trkpt>
      <trkpt lat="47.28001" lon="-2.35529">
        <ele>32</ele>
        <time>2022-03-24T08:31:50.000Z</time>
      </trkpt>
      <trkpt lat="47.28002" lon="-2.35534">
        <ele>32.400001525879</ele>
        <time>2022-03-24T08:31:51.000Z</time>
      </trkpt>
      <trkpt lat="47.28003" lon="-2.35538">
        <ele>32.799999237061</ele>
        <time>2022-03-24T08:31:52.000Z</time>
      </trkpt>
      <trkpt lat="47.28005" lon="-2.35542">
        <ele>33.200000762939</ele>
        <time>2022-03-24T08:31:53.000Z</time>
      </trkpt>
      <trkpt lat="47.28006" lon="-2.35545">
        <ele>33.599998474121</ele>
        <time>2022-03-24T08:31:54.000Z</time>
      </trkpt>
      <trkpt lat="47.28007" lon="-2.35547">
        <ele>33.599998474121</ele>
        <time>2022-03-24T08:31:55.000Z</time>
      </trkpt>
      <trkpt lat="47.28009" lon="-2.35548">
        <ele>33.599998474121</ele>
        <time>2022-03-24T08:31:56.000Z</time>
      </trkpt>
      <trkpt lat="47.28011" lon="-2.35557">
        <ele>33.599998474121</ele>
        <time>2022-03-24T08:31:59.000Z</time>
      </trkpt>
      <trkpt lat="47.28012" lon="-2.3557">
        <ele>34</ele>
        <time>2022-03-24T08:32:03.000Z</time>
      </trkpt>
      <trkpt lat="47.28013" lon="-2.35574">
        <ele>34.400001525879</ele>
        <time>2022-03-24T08:32:04.000Z</time>
      </trkpt>
      <trkpt lat="47.28016" lon="-2.35576">
        <ele>34.799999237061</ele>
        <time>2022-03-24T08:32:05.000Z</time>
      </trkpt>
      <trkpt lat="47.28019" lon="-2.35576">
        <ele>35.400001525879</ele>
        <time>2022-03-24T08:32:06.000Z</time>
      </trkpt>
      <trkpt lat="47.28022" lon="-2.35575">
        <ele>35.799999237061</ele>
        <time>2022-03-24T08:32:07.000Z</time>
      </trkpt>
      <trkpt lat="47.28025" lon="-2.35574">
        <ele>35.799999237061</ele>
        <time>2022-03-24T08:32:08.000Z</time>
      </trkpt>
      <trkpt lat="47.28036" lon="-2.35575">
        <ele>35.799999237061</ele>
        <time>2022-03-24T08:32:11.000Z</time>
      </trkpt>
      <trkpt lat="47.28054" lon="-2.35577">
        <ele>35.799999237061</ele>
        <time>2022-03-24T08:32:16.000Z</time>
      </trkpt>
      <trkpt lat="47.28073" lon="-2.35594">
        <ele>36.200000762939</ele>
        <time>2022-03-24T08:32:23.000Z</time>
      </trkpt>
      <trkpt lat="47.28076" lon="-2.35597">
        <ele>37</ele>
        <time>2022-03-24T08:32:24.000Z</time>
      </trkpt>
      <trkpt lat="47.28078" lon="-2.356">
        <ele>37.400001525879</ele>
        <time>2022-03-24T08:32:25.000Z</time>
      </trkpt>
      <trkpt lat="47.2808" lon="-2.35603">
        <ele>37.799999237061</ele>
        <time>2022-03-24T08:32:26.000Z</time>
      </trkpt>
      <trkpt lat="47.28082" lon="-2.3561">
        <ele>37.799999237061</ele>
        <time>2022-03-24T08:32:29.000Z</time>
      </trkpt>
      <trkpt lat="47.28081" lon="-2.35613">
        <ele>37.799999237061</ele>
        <time>2022-03-24T08:32:33.000Z</time>
      </trkpt>
      <trkpt lat="47.2808" lon="-2.35614">
        <ele>37.799999237061</ele>
        <time>2022-03-24T08:32:35.000Z</time>
      </trkpt>
      <trkpt lat="47.28077" lon="-2.35614">
        <ele>43.799999237061</ele>
        <time>2022-03-24T08:38:10.000Z</time>
      </trkpt>
      <trkpt lat="47.28074" lon="-2.35615">
        <ele>43.799999237061</ele>
        <time>2022-03-24T08:38:12.000Z</time>
      </trkpt>
      <trkpt lat="47.28075" lon="-2.35622">
        <ele>43.799999237061</ele>
        <time>2022-03-24T08:38:15.000Z</time>
      </trkpt>
      <trkpt lat="47.28078" lon="-2.35632">
        <ele>43.799999237061</ele>
        <time>2022-03-24T08:38:18.000Z</time>
      </trkpt>
      <trkpt lat="47.28079" lon="-2.35636">
        <ele>44.200000762939</ele>
        <time>2022-03-24T08:38:19.000Z</time>
      </trkpt>
      <trkpt lat="47.2808" lon="-2.3564">
        <ele>44.799999237061</ele>
        <time>2022-03-24T08:38:20.000Z</time>
      </trkpt>
      <trkpt lat="47.28082" lon="-2.35643">
        <ele>45.200000762939</ele>
        <time>2022-03-24T08:38:21.000Z</time>
      </trkpt>
      <trkpt lat="47.28083" lon="-2.35647">
        <ele>45.599998474121</ele>
        <time>2022-03-24T08:38:22.000Z</time>
      </trkpt>
      <trkpt lat="47.28084" lon="-2.35651">
        <ele>46</ele>
        <time>2022-03-24T08:38:23.000Z</time>
      </trkpt>
      <trkpt lat="47.28085" lon="-2.35654">
        <ele>46.400001525879</ele>
        <time>2022-03-24T08:38:24.000Z</time>
      </trkpt>
      <trkpt lat="47.28086" lon="-2.35658">
        <ele>46.799999237061</ele>
        <time>2022-03-24T08:38:25.000Z</time>
      </trkpt>
      <trkpt lat="47.28086" lon="-2.35662">
        <ele>47.200000762939</ele>
        <time>2022-03-24T08:38:26.000Z</time>
      </trkpt>
      <trkpt lat="47.28087" lon="-2.35666">
        <ele>47.599998474121</ele>
        <time>2022-03-24T08:38:27.000Z</time>
      </trkpt>
      <trkpt lat="47.28088" lon="-2.3567">
        <ele>48</ele>
        <time>2022-03-24T08:38:28.000Z</time>
      </trkpt>
      <trkpt lat="47.2809" lon="-2.35687">
        <ele>48</ele>
        <time>2022-03-24T08:38:32.000Z</time>
      </trkpt>
      <trkpt lat="47.28091" lon="-2.3569">
        <ele>48.599998474121</ele>
        <time>2022-03-24T08:38:33.000Z</time>
      </trkpt>
      <trkpt lat="47.28092" lon="-2.35693">
        <ele>49.400001525879</ele>
        <time>2022-03-24T08:38:34.000Z</time>
      </trkpt>
      <trkpt lat="47.28093" lon="-2.35696">
        <ele>49.799999237061</ele>
        <time>2022-03-24T08:38:35.000Z</time>
      </trkpt>
      <trkpt lat="47.28093" lon="-2.357">
        <ele>50.200000762939</ele>
        <time>2022-03-24T08:38:36.000Z</time>
      </trkpt>
      <trkpt lat="47.28093" lon="-2.35704">
        <ele>50.200000762939</ele>
        <time>2022-03-24T08:38:37.000Z</time>
      </trkpt>
      <trkpt lat="47.28087" lon="-2.35726">
        <ele>50.200000762939</ele>
        <time>2022-03-24T08:38:42.000Z</time>
      </trkpt>
      <trkpt lat="47.28084" lon="-2.3574">
        <ele>50.200000762939</ele>
        <time>2022-03-24T08:38:44.000Z</time>
      </trkpt>
      <trkpt lat="47.28083" lon="-2.35757">
        <ele>50.200000762939</ele>
        <time>2022-03-24T08:38:46.000Z</time>
      </trkpt>
      <trkpt lat="47.28077" lon="-2.35776">
        <ele>50.200000762939</ele>
        <time>2022-03-24T08:38:49.000Z</time>
      </trkpt>
      <trkpt lat="47.28077" lon="-2.35795">
        <ele>49.799999237061</ele>
        <time>2022-03-24T08:38:52.000Z</time>
      </trkpt>
      <trkpt lat="47.2808" lon="-2.35802">
        <ele>49.400001525879</ele>
        <time>2022-03-24T08:38:53.000Z</time>
      </trkpt>
      <trkpt lat="47.28084" lon="-2.35808">
        <ele>49</ele>
        <time>2022-03-24T08:38:54.000Z</time>
      </trkpt>
      <trkpt lat="47.28087" lon="-2.35813">
        <ele>48.599998474121</ele>
        <time>2022-03-24T08:38:55.000Z</time>
      </trkpt>
      <trkpt lat="47.2809" lon="-2.35818">
        <ele>48</ele>
        <time>2022-03-24T08:38:56.000Z</time>
      </trkpt>
      <trkpt lat="47.28093" lon="-2.35822">
        <ele>48</ele>
        <time>2022-03-24T08:38:57.000Z</time>
      </trkpt>
      <trkpt lat="47.28105" lon="-2.35842">
        <ele>48</ele>
        <time>2022-03-24T08:39:02.000Z</time>
      </trkpt>
      <trkpt lat="47.28117" lon="-2.3586">
        <ele>48</ele>
        <time>2022-03-24T08:39:06.000Z</time>
      </trkpt>
      <trkpt lat="47.2812" lon="-2.35865">
        <ele>48</ele>
        <time>2022-03-24T08:39:07.000Z</time>
      </trkpt>
      <trkpt lat="47.28129" lon="-2.35881">
        <ele>48</ele>
        <time>2022-03-24T08:39:11.000Z</time>
      </trkpt>
      <trkpt lat="47.28138" lon="-2.35899">
        <ele>48</ele>
        <time>2022-03-24T08:39:16.000Z</time>
      </trkpt>
      <trkpt lat="47.2815" lon="-2.35923">
        <ele>48</ele>
        <time>2022-03-24T08:39:21.000Z</time>
      </trkpt>
      <trkpt lat="47.28165" lon="-2.35949">
        <ele>48</ele>
        <time>2022-03-24T08:39:25.000Z</time>
      </trkpt>
      <trkpt lat="47.28171" lon="-2.35964">
        <ele>47.599998474121</ele>
        <time>2022-03-24T08:39:27.000Z</time>
      </trkpt>
      <trkpt lat="47.28175" lon="-2.35972">
        <ele>47.200000762939</ele>
        <time>2022-03-24T08:39:28.000Z</time>
      </trkpt>
      <trkpt lat="47.28178" lon="-2.3598">
        <ele>46.799999237061</ele>
        <time>2022-03-24T08:39:29.000Z</time>
      </trkpt>
      <trkpt lat="47.28181" lon="-2.35987">
        <ele>46.400001525879</ele>
        <time>2022-03-24T08:39:30.000Z</time>
      </trkpt>
      <trkpt lat="47.28183" lon="-2.35993">
        <ele>46</ele>
        <time>2022-03-24T08:39:31.000Z</time>
      </trkpt>
      <trkpt lat="47.28185" lon="-2.35999">
        <ele>46</ele>
        <time>2022-03-24T08:39:32.000Z</time>
      </trkpt>
      <trkpt lat="47.28191" lon="-2.36012">
        <ele>46</ele>
        <time>2022-03-24T08:39:34.000Z</time>
      </trkpt>
      <trkpt lat="47.28198" lon="-2.36027">
        <ele>46</ele>
        <time>2022-03-24T08:39:37.000Z</time>
      </trkpt>
      <trkpt lat="47.28207" lon="-2.36053">
        <ele>46</ele>
        <time>2022-03-24T08:39:42.000Z</time>
      </trkpt>
      <trkpt lat="47.28219" lon="-2.36088">
        <ele>46</ele>
        <time>2022-03-24T08:39:48.000Z</time>
      </trkpt>
      <trkpt lat="47.28227" lon="-2.36105">
        <ele>46</ele>
        <time>2022-03-24T08:39:53.000Z</time>
      </trkpt>
      <trkpt lat="47.28229" lon="-2.36108">
        <ele>46.400001525879</ele>
        <time>2022-03-24T08:39:54.000Z</time>
      </trkpt>
      <trkpt lat="47.2823" lon="-2.36113">
        <ele>46.799999237061</ele>
        <time>2022-03-24T08:39:55.000Z</time>
      </trkpt>
      <trkpt lat="47.28232" lon="-2.36117">
        <ele>47.200000762939</ele>
        <time>2022-03-24T08:39:56.000Z</time>
      </trkpt>
      <trkpt lat="47.28234" lon="-2.36123">
        <ele>47.599998474121</ele>
        <time>2022-03-24T08:39:57.000Z</time>
      </trkpt>
      <trkpt lat="47.28236" lon="-2.3613">
        <ele>48</ele>
        <time>2022-03-24T08:39:58.000Z</time>
      </trkpt>
      <trkpt lat="47.28244" lon="-2.36163">
        <ele>47.400001525879</ele>
        <time>2022-03-24T08:40:02.000Z</time>
      </trkpt>
      <trkpt lat="47.28247" lon="-2.36171">
        <ele>47</ele>
        <time>2022-03-24T08:40:03.000Z</time>
      </trkpt>
      <trkpt lat="47.28249" lon="-2.36177">
        <ele>46.400001525879</ele>
        <time>2022-03-24T08:40:04.000Z</time>
      </trkpt>
      <trkpt lat="47.28252" lon="-2.36182">
        <ele>46</ele>
        <time>2022-03-24T08:40:05.000Z</time>
      </trkpt>
      <trkpt lat="47.28255" lon="-2.36187">
        <ele>45.400001525879</ele>
        <time>2022-03-24T08:40:06.000Z</time>
      </trkpt>
      <trkpt lat="47.28264" lon="-2.36212">
        <ele>45.400001525879</ele>
        <time>2022-03-24T08:40:11.000Z</time>
      </trkpt>
      <trkpt lat="47.28272" lon="-2.36229">
        <ele>45.400001525879</ele>
        <time>2022-03-24T08:40:14.000Z</time>
      </trkpt>
      <trkpt lat="47.2828" lon="-2.36237">
        <ele>45.400001525879</ele>
        <time>2022-03-24T08:40:16.000Z</time>
      </trkpt>
      <trkpt lat="47.28297" lon="-2.36241">
        <ele>45.400001525879</ele>
        <time>2022-03-24T08:40:20.000Z</time>
      </trkpt>
      <trkpt lat="47.28301" lon="-2.36241">
        <ele>45.400001525879</ele>
        <time>2022-03-24T08:40:21.000Z</time>
      </trkpt>
      <trkpt lat="47.28321" lon="-2.36245">
        <ele>45.400001525879</ele>
        <time>2022-03-24T08:40:27.000Z</time>
      </trkpt>
      <trkpt lat="47.2833" lon="-2.3625">
        <ele>45.799999237061</ele>
        <time>2022-03-24T08:40:30.000Z</time>
      </trkpt>
      <trkpt lat="47.28333" lon="-2.36251">
        <ele>46.400001525879</ele>
        <time>2022-03-24T08:40:31.000Z</time>
      </trkpt>
      <trkpt lat="47.28336" lon="-2.36252">
        <ele>46.799999237061</ele>
        <time>2022-03-24T08:40:32.000Z</time>
      </trkpt>
      <trkpt lat="47.28339" lon="-2.36253">
        <ele>47.200000762939</ele>
        <time>2022-03-24T08:40:33.000Z</time>
      </trkpt>
      <trkpt lat="47.28341" lon="-2.36253">
        <ele>47.599998474121</ele>
        <time>2022-03-24T08:40:34.000Z</time>
      </trkpt>
      <trkpt lat="47.28344" lon="-2.36254">
        <ele>47.599998474121</ele>
        <time>2022-03-24T08:40:35.000Z</time>
      </trkpt>
      <trkpt lat="47.28355" lon="-2.36256">
        <ele>47.599998474121</ele>
        <time>2022-03-24T08:40:40.000Z</time>
      </trkpt>
      <trkpt lat="47.28356" lon="-2.36254">
        <ele>48</ele>
        <time>2022-03-24T08:40:41.000Z</time>
      </trkpt>
      <trkpt lat="47.28358" lon="-2.36252">
        <ele>48.400001525879</ele>
        <time>2022-03-24T08:40:42.000Z</time>
      </trkpt>
      <trkpt lat="47.2836" lon="-2.3625">
        <ele>48.799999237061</ele>
        <time>2022-03-24T08:40:43.000Z</time>
      </trkpt>
      <trkpt lat="47.28361" lon="-2.36248">
        <ele>49.200000762939</ele>
        <time>2022-03-24T08:40:44.000Z</time>
      </trkpt>
      <trkpt lat="47.28364" lon="-2.36247">
        <ele>49.599998474121</ele>
        <time>2022-03-24T08:40:45.000Z</time>
      </trkpt>
      <trkpt lat="47.28367" lon="-2.36245">
        <ele>49.599998474121</ele>
        <time>2022-03-24T08:40:46.000Z</time>
      </trkpt>
      <trkpt lat="47.28374" lon="-2.36241">
        <ele>50</ele>
        <time>2022-03-24T08:40:49.000Z</time>
      </trkpt>
      <trkpt lat="47.28376" lon="-2.36239">
        <ele>50.400001525879</ele>
        <time>2022-03-24T08:40:50.000Z</time>
      </trkpt>
      <trkpt lat="47.28377" lon="-2.36237">
        <ele>50.799999237061</ele>
        <time>2022-03-24T08:40:51.000Z</time>
      </trkpt>
      <trkpt lat="47.28378" lon="-2.36235">
        <ele>51.200000762939</ele>
        <time>2022-03-24T08:40:52.000Z</time>
      </trkpt>
      <trkpt lat="47.2838" lon="-2.36232">
        <ele>51.599998474121</ele>
        <time>2022-03-24T08:40:53.000Z</time>
      </trkpt>
      <trkpt lat="47.2839" lon="-2.36221">
        <ele>52</ele>
        <time>2022-03-24T08:40:58.000Z</time>
      </trkpt>
      <trkpt lat="47.28392" lon="-2.36218">
        <ele>52.599998474121</ele>
        <time>2022-03-24T08:40:59.000Z</time>
      </trkpt>
      <trkpt lat="47.28394" lon="-2.36216">
        <ele>53</ele>
        <time>2022-03-24T08:41:00.000Z</time>
      </trkpt>
      <trkpt lat="47.28397" lon="-2.36213">
        <ele>53.400001525879</ele>
        <time>2022-03-24T08:41:01.000Z</time>
      </trkpt>
      <trkpt lat="47.28399" lon="-2.36211">
        <ele>53.799999237061</ele>
        <time>2022-03-24T08:41:02.000Z</time>
      </trkpt>
      <trkpt lat="47.28406" lon="-2.36208">
        <ele>53.799999237061</ele>
        <time>2022-03-24T08:41:05.000Z</time>
      </trkpt>
      <trkpt lat="47.28418" lon="-2.36206">
        <ele>54.200000762939</ele>
        <time>2022-03-24T08:41:09.000Z</time>
      </trkpt>
      <trkpt lat="47.28421" lon="-2.36205">
        <ele>54.599998474121</ele>
        <time>2022-03-24T08:41:10.000Z</time>
      </trkpt>
      <trkpt lat="47.28423" lon="-2.36205">
        <ele>55</ele>
        <time>2022-03-24T08:41:11.000Z</time>
      </trkpt>
      <trkpt lat="47.28425" lon="-2.36205">
        <ele>55.400001525879</ele>
        <time>2022-03-24T08:41:12.000Z</time>
      </trkpt>
      <trkpt lat="47.28449" lon="-2.36195">
        <ele>56</ele>
        <time>2022-03-24T08:41:47.000Z</time>
      </trkpt>
      <trkpt lat="47.28446" lon="-2.3619">
        <ele>56.400001525879</ele>
        <time>2022-03-24T08:41:50.000Z</time>
      </trkpt>
      <trkpt lat="47.28445" lon="-2.36188">
        <ele>57.200000762939</ele>
        <time>2022-03-24T08:41:51.000Z</time>
      </trkpt>
      <trkpt lat="47.28445" lon="-2.36185">
        <ele>57.599998474121</ele>
        <time>2022-03-24T08:41:52.000Z</time>
      </trkpt>
      <trkpt lat="47.28445" lon="-2.36182">
        <ele>58</ele>
        <time>2022-03-24T08:41:53.000Z</time>
      </trkpt>
      <trkpt lat="47.28445" lon="-2.36178">
        <ele>58</ele>
        <time>2022-03-24T08:41:54.000Z</time>
      </trkpt>
      <trkpt lat="47.28445" lon="-2.36174">
        <ele>58</ele>
        <time>2022-03-24T08:41:55.000Z</time>
      </trkpt>
      <trkpt lat="47.28446" lon="-2.36167">
        <ele>58.400001525879</ele>
        <time>2022-03-24T08:41:57.000Z</time>
      </trkpt>
      <trkpt lat="47.28446" lon="-2.36163">
        <ele>58.799999237061</ele>
        <time>2022-03-24T08:41:58.000Z</time>
      </trkpt>
      <trkpt lat="47.28446" lon="-2.3616">
        <ele>59.200000762939</ele>
        <time>2022-03-24T08:41:59.000Z</time>
      </trkpt>
      <trkpt lat="47.28445" lon="-2.36157">
        <ele>59.799999237061</ele>
        <time>2022-03-24T08:42:00.000Z</time>
      </trkpt>
      <trkpt lat="47.28443" lon="-2.36154">
        <ele>60.200000762939</ele>
        <time>2022-03-24T08:42:01.000Z</time>
      </trkpt>
      <trkpt lat="47.28442" lon="-2.36139">
        <ele>60.599998474121</ele>
        <time>2022-03-24T08:42:05.000Z</time>
      </trkpt>
      <trkpt lat="47.28443" lon="-2.36134">
        <ele>61</ele>
        <time>2022-03-24T08:42:06.000Z</time>
      </trkpt>
      <trkpt lat="47.28442" lon="-2.36131">
        <ele>61.400001525879</ele>
        <time>2022-03-24T08:42:07.000Z</time>
      </trkpt>
      <trkpt lat="47.28441" lon="-2.36127">
        <ele>61.799999237061</ele>
        <time>2022-03-24T08:42:08.000Z</time>
      </trkpt>
      <trkpt lat="47.2844" lon="-2.36124">
        <ele>62.200000762939</ele>
        <time>2022-03-24T08:42:09.000Z</time>
      </trkpt>
      <trkpt lat="47.28439" lon="-2.36116">
        <ele>62.200000762939</ele>
        <time>2022-03-24T08:42:11.000Z</time>
      </trkpt>
      <trkpt lat="47.28439" lon="-2.36105">
        <ele>62.599998474121</ele>
        <time>2022-03-24T08:42:14.000Z</time>
      </trkpt>
      <trkpt lat="47.28439" lon="-2.36101">
        <ele>63.599998474121</ele>
        <time>2022-03-24T08:42:15.000Z</time>
      </trkpt>
      <trkpt lat="47.28439" lon="-2.36097">
        <ele>64</ele>
        <time>2022-03-24T08:42:16.000Z</time>
      </trkpt>
      <trkpt lat="47.28439" lon="-2.36093">
        <ele>64.400001525879</ele>
        <time>2022-03-24T08:42:17.000Z</time>
      </trkpt>
      <trkpt lat="47.28438" lon="-2.3609">
        <ele>64.400001525879</ele>
        <time>2022-03-24T08:42:18.000Z</time>
      </trkpt>
      <trkpt lat="47.28438" lon="-2.36068">
        <ele>64.800003051758</ele>
        <time>2022-03-24T08:42:24.000Z</time>
      </trkpt>
      <trkpt lat="47.28438" lon="-2.36065">
        <ele>65.199996948242</ele>
        <time>2022-03-24T08:42:25.000Z</time>
      </trkpt>
      <trkpt lat="47.28437" lon="-2.36061">
        <ele>65.599998474121</ele>
        <time>2022-03-24T08:42:26.000Z</time>
      </trkpt>
      <trkpt lat="47.28438" lon="-2.36057">
        <ele>66</ele>
        <time>2022-03-24T08:42:27.000Z</time>
      </trkpt>
      <trkpt lat="47.28438" lon="-2.36053">
        <ele>66.599998474121</ele>
        <time>2022-03-24T08:42:28.000Z</time>
      </trkpt>
      <trkpt lat="47.28437" lon="-2.36045">
        <ele>66.599998474121</ele>
        <time>2022-03-24T08:42:31.000Z</time>
      </trkpt>
      <trkpt lat="47.28437" lon="-2.36033">
        <ele>66.599998474121</ele>
        <time>2022-03-24T08:42:37.000Z</time>
      </trkpt>
      <trkpt lat="47.2844" lon="-2.36024">
        <ele>67</ele>
        <time>2022-03-24T08:42:43.000Z</time>
      </trkpt>
      <trkpt lat="47.28441" lon="-2.36023">
        <ele>67.400001525879</ele>
        <time>2022-03-24T08:42:44.000Z</time>
      </trkpt>
      <trkpt lat="47.28441" lon="-2.36022">
        <ele>67.800003051758</ele>
        <time>2022-03-24T08:42:45.000Z</time>
      </trkpt>
      <trkpt lat="47.28444" lon="-2.36016">
        <ele>68.599998474121</ele>
        <time>2022-03-24T08:42:50.000Z</time>
      </trkpt>
      <trkpt lat="47.28447" lon="-2.36011">
        <ele>68.599998474121</ele>
        <time>2022-03-24T08:42:52.000Z</time>
      </trkpt>
      <trkpt lat="47.28453" lon="-2.36006">
        <ele>68.599998474121</ele>
        <time>2022-03-24T08:42:56.000Z</time>
      </trkpt>
      <trkpt lat="47.28454" lon="-2.36007">
        <ele>68.599998474121</ele>
        <time>2022-03-24T08:42:57.000Z</time>
      </trkpt>
      <trkpt lat="47.28465" lon="-2.3602">
        <ele>68.599998474121</ele>
        <time>2022-03-24T08:43:03.000Z</time>
      </trkpt>
      <trkpt lat="47.2848" lon="-2.36025">
        <ele>68.599998474121</ele>
        <time>2022-03-24T08:43:07.000Z</time>
      </trkpt>
      <trkpt lat="47.28495" lon="-2.36031">
        <ele>68.599998474121</ele>
        <time>2022-03-24T08:43:12.000Z</time>
      </trkpt>
      <trkpt lat="47.28509" lon="-2.36047">
        <ele>68.599998474121</ele>
        <time>2022-03-24T08:43:18.000Z</time>
      </trkpt>
      <trkpt lat="47.28523" lon="-2.36064">
        <ele>68.599998474121</ele>
        <time>2022-03-24T08:43:23.000Z</time>
      </trkpt>
      <trkpt lat="47.28528" lon="-2.36088">
        <ele>68.599998474121</ele>
        <time>2022-03-24T08:43:27.000Z</time>
      </trkpt>
      <trkpt lat="47.28539" lon="-2.3613">
        <ele>68.599998474121</ele>
        <time>2022-03-24T08:43:32.000Z</time>
      </trkpt>
      <trkpt lat="47.28542" lon="-2.36137">
        <ele>68.599998474121</ele>
        <time>2022-03-24T08:43:33.000Z</time>
      </trkpt>
      <trkpt lat="47.2855" lon="-2.36151">
        <ele>68.599998474121</ele>
        <time>2022-03-24T08:43:36.000Z</time>
      </trkpt>
      <trkpt lat="47.28555" lon="-2.36151">
        <ele>68.599998474121</ele>
        <time>2022-03-24T08:43:39.000Z</time>
      </trkpt>
      <trkpt lat="47.28559" lon="-2.36147">
        <ele>68.599998474121</ele>
        <time>2022-03-24T08:43:43.000Z</time>
      </trkpt>
      <trkpt lat="47.2856" lon="-2.36146">
        <ele>69</ele>
        <time>2022-03-24T08:43:44.000Z</time>
      </trkpt>
      <trkpt lat="47.28561" lon="-2.36146">
        <ele>69.400001525879</ele>
        <time>2022-03-24T08:43:45.000Z</time>
      </trkpt>
      <trkpt lat="47.28563" lon="-2.36145">
        <ele>70</ele>
        <time>2022-03-24T08:43:46.000Z</time>
      </trkpt>
      <trkpt lat="47.28565" lon="-2.36144">
        <ele>70.400001525879</ele>
        <time>2022-03-24T08:43:47.000Z</time>
      </trkpt>
      <trkpt lat="47.28567" lon="-2.36144">
        <ele>70.800003051758</ele>
        <time>2022-03-24T08:43:48.000Z</time>
      </trkpt>
      <trkpt lat="47.28571" lon="-2.36144">
        <ele>70.800003051758</ele>
        <time>2022-03-24T08:43:50.000Z</time>
      </trkpt>
      <trkpt lat="47.28574" lon="-2.36144">
        <ele>71.199996948242</ele>
        <time>2022-03-24T08:43:51.000Z</time>
      </trkpt>
      <trkpt lat="47.28576" lon="-2.36145">
        <ele>71.599998474121</ele>
        <time>2022-03-24T08:43:52.000Z</time>
      </trkpt>
      <trkpt lat="47.28578" lon="-2.36146">
        <ele>72.199996948242</ele>
        <time>2022-03-24T08:43:53.000Z</time>
      </trkpt>
      <trkpt lat="47.2858" lon="-2.36148">
        <ele>73</ele>
        <time>2022-03-24T08:43:54.000Z</time>
      </trkpt>
      <trkpt lat="47.28582" lon="-2.36149">
        <ele>73</ele>
        <time>2022-03-24T08:43:55.000Z</time>
      </trkpt>
      <trkpt lat="47.28592" lon="-2.36151">
        <ele>73</ele>
        <time>2022-03-24T08:44:01.000Z</time>
      </trkpt>
      <trkpt lat="47.28594" lon="-2.36151">
        <ele>73</ele>
        <time>2022-03-24T08:44:07.000Z</time>
      </trkpt>
      <trkpt lat="47.28594" lon="-2.36151">
        <ele>73</ele>
        <time>2022-03-24T08:44:08.000Z</time>
      </trkpt>
      <trkpt lat="47.28594" lon="-2.36158">
        <ele>73</ele>
        <time>2022-03-24T08:44:26.000Z</time>
      </trkpt>
      <trkpt lat="47.28594" lon="-2.36165">
        <ele>73</ele>
        <time>2022-03-24T08:44:28.000Z</time>
      </trkpt>
      <trkpt lat="47.28591" lon="-2.3618">
        <ele>73</ele>
        <time>2022-03-24T08:44:32.000Z</time>
      </trkpt>
      <trkpt lat="47.28586" lon="-2.36196">
        <ele>73</ele>
        <time>2022-03-24T08:44:37.000Z</time>
      </trkpt>
      <trkpt lat="47.2858" lon="-2.36221">
        <ele>73</ele>
        <time>2022-03-24T08:44:44.000Z</time>
      </trkpt>
      <trkpt lat="47.28573" lon="-2.36235">
        <ele>73.400001525879</ele>
        <time>2022-03-24T08:44:48.000Z</time>
      </trkpt>
      <trkpt lat="47.28571" lon="-2.36239">
        <ele>73.800003051758</ele>
        <time>2022-03-24T08:44:49.000Z</time>
      </trkpt>
      <trkpt lat="47.28571" lon="-2.36243">
        <ele>74.199996948242</ele>
        <time>2022-03-24T08:44:50.000Z</time>
      </trkpt>
      <trkpt lat="47.28569" lon="-2.36247">
        <ele>74.599998474121</ele>
        <time>2022-03-24T08:44:51.000Z</time>
      </trkpt>
      <trkpt lat="47.28568" lon="-2.36251">
        <ele>75</ele>
        <time>2022-03-24T08:44:52.000Z</time>
      </trkpt>
      <trkpt lat="47.28564" lon="-2.36267">
        <ele>75</ele>
        <time>2022-03-24T08:44:57.000Z</time>
      </trkpt>
      <trkpt lat="47.28563" lon="-2.3628">
        <ele>75</ele>
        <time>2022-03-24T08:45:01.000Z</time>
      </trkpt>
      <trkpt lat="47.28557" lon="-2.36299">
        <ele>75</ele>
        <time>2022-03-24T08:45:06.000Z</time>
      </trkpt>
      <trkpt lat="47.28551" lon="-2.36323">
        <ele>74.599998474121</ele>
        <time>2022-03-24T08:45:11.000Z</time>
      </trkpt>
      <trkpt lat="47.28549" lon="-2.36326">
        <ele>74.199996948242</ele>
        <time>2022-03-24T08:45:12.000Z</time>
      </trkpt>
      <trkpt lat="47.28547" lon="-2.36327">
        <ele>73.800003051758</ele>
        <time>2022-03-24T08:45:13.000Z</time>
      </trkpt>
      <trkpt lat="47.28544" lon="-2.36328">
        <ele>73.400001525879</ele>
        <time>2022-03-24T08:45:14.000Z</time>
      </trkpt>
      <trkpt lat="47.28542" lon="-2.3633">
        <ele>73</ele>
        <time>2022-03-24T08:45:15.000Z</time>
      </trkpt>
      <trkpt lat="47.28539" lon="-2.36337">
        <ele>73</ele>
        <time>2022-03-24T08:45:17.000Z</time>
      </trkpt>
      <trkpt lat="47.28539" lon="-2.36344">
        <ele>72.599998474121</ele>
        <time>2022-03-24T08:45:18.000Z</time>
      </trkpt>
      <trkpt lat="47.2854" lon="-2.36348">
        <ele>72</ele>
        <time>2022-03-24T08:45:19.000Z</time>
      </trkpt>
      <trkpt lat="47.2854" lon="-2.36352">
        <ele>71.599998474121</ele>
        <time>2022-03-24T08:45:20.000Z</time>
      </trkpt>
      <trkpt lat="47.28541" lon="-2.36354">
        <ele>71.199996948242</ele>
        <time>2022-03-24T08:45:21.000Z</time>
      </trkpt>
      <trkpt lat="47.28542" lon="-2.36356">
        <ele>70.800003051758</ele>
        <time>2022-03-24T08:45:22.000Z</time>
      </trkpt>
      <trkpt lat="47.28543" lon="-2.36363">
        <ele>70.800003051758</ele>
        <time>2022-03-24T08:45:26.000Z</time>
      </trkpt>
      <trkpt lat="47.28542" lon="-2.3637">
        <ele>70.800003051758</ele>
        <time>2022-03-24T08:45:30.000Z</time>
      </trkpt>
      <trkpt lat="47.28539" lon="-2.3637">
        <ele>72.800003051758</ele>
        <time>2022-03-24T08:45:45.000Z</time>
      </trkpt>
      <trkpt lat="47.28537" lon="-2.36369">
        <ele>72.800003051758</ele>
        <time>2022-03-24T08:45:46.000Z</time>
      </trkpt>
      <trkpt lat="47.28532" lon="-2.36368">
        <ele>72.400001525879</ele>
        <time>2022-03-24T08:45:49.000Z</time>
      </trkpt>
      <trkpt lat="47.2853" lon="-2.36371">
        <ele>71.800003051758</ele>
        <time>2022-03-24T08:45:50.000Z</time>
      </trkpt>
      <trkpt lat="47.28527" lon="-2.36373">
        <ele>71.400001525879</ele>
        <time>2022-03-24T08:45:51.000Z</time>
      </trkpt>
      <trkpt lat="47.28525" lon="-2.36377">
        <ele>71</ele>
        <time>2022-03-24T08:45:52.000Z</time>
      </trkpt>
      <trkpt lat="47.28522" lon="-2.3638">
        <ele>70.400001525879</ele>
        <time>2022-03-24T08:45:53.000Z</time>
      </trkpt>
      <trkpt lat="47.28519" lon="-2.36383">
        <ele>70</ele>
        <time>2022-03-24T08:45:54.000Z</time>
      </trkpt>
      <trkpt lat="47.28516" lon="-2.36386">
        <ele>69.400001525879</ele>
        <time>2022-03-24T08:45:55.000Z</time>
      </trkpt>
      <trkpt lat="47.28511" lon="-2.3639">
        <ele>68.599998474121</ele>
        <time>2022-03-24T08:45:56.000Z</time>
      </trkpt>
      <trkpt lat="47.28504" lon="-2.36396">
        <ele>66.800003051758</ele>
        <time>2022-03-24T08:45:57.000Z</time>
      </trkpt>
      <trkpt lat="47.285" lon="-2.364">
        <ele>66</ele>
        <time>2022-03-24T08:45:58.000Z</time>
      </trkpt>
      <trkpt lat="47.28496" lon="-2.36406">
        <ele>65.199996948242</ele>
        <time>2022-03-24T08:45:59.000Z</time>
      </trkpt>
      <trkpt lat="47.28493" lon="-2.36411">
        <ele>64.400001525879</ele>
        <time>2022-03-24T08:46:00.000Z</time>
      </trkpt>
      <trkpt lat="47.28489" lon="-2.36415">
        <ele>63.599998474121</ele>
        <time>2022-03-24T08:46:01.000Z</time>
      </trkpt>
      <trkpt lat="47.28484" lon="-2.36415">
        <ele>63</ele>
        <time>2022-03-24T08:46:02.000Z</time>
      </trkpt>
      <trkpt lat="47.2848" lon="-2.36415">
        <ele>62.400001525879</ele>
        <time>2022-03-24T08:46:03.000Z</time>
      </trkpt>
      <trkpt lat="47.28476" lon="-2.36416">
        <ele>61.799999237061</ele>
        <time>2022-03-24T08:46:04.000Z</time>
      </trkpt>
      <trkpt lat="47.28473" lon="-2.36417">
        <ele>61.200000762939</ele>
        <time>2022-03-24T08:46:05.000Z</time>
      </trkpt>
      <trkpt lat="47.28472" lon="-2.3642">
        <ele>60.400001525879</ele>
        <time>2022-03-24T08:46:06.000Z</time>
      </trkpt>
      <trkpt lat="47.28471" lon="-2.36423">
        <ele>60.400001525879</ele>
        <time>2022-03-24T08:46:07.000Z</time>
      </trkpt>
      <trkpt lat="47.28464" lon="-2.36442">
        <ele>60.400001525879</ele>
        <time>2022-03-24T08:46:13.000Z</time>
      </trkpt>
      <trkpt lat="47.28457" lon="-2.36457">
        <ele>60</ele>
        <time>2022-03-24T08:46:17.000Z</time>
      </trkpt>
      <trkpt lat="47.28456" lon="-2.36461">
        <ele>59.599998474121</ele>
        <time>2022-03-24T08:46:18.000Z</time>
      </trkpt>
      <trkpt lat="47.28455" lon="-2.36465">
        <ele>59</ele>
        <time>2022-03-24T08:46:19.000Z</time>
      </trkpt>
      <trkpt lat="47.28455" lon="-2.36466">
        <ele>58.599998474121</ele>
        <time>2022-03-24T08:46:20.000Z</time>
      </trkpt>
      <trkpt lat="47.28455" lon="-2.36469">
        <ele>58</ele>
        <time>2022-03-24T08:46:21.000Z</time>
      </trkpt>
      <trkpt lat="47.28454" lon="-2.36472">
        <ele>58</ele>
        <time>2022-03-24T08:46:22.000Z</time>
      </trkpt>
      <trkpt lat="47.28454" lon="-2.36471">
        <ele>58</ele>
        <time>2022-03-24T08:46:24.000Z</time>
      </trkpt>
      <trkpt lat="47.28453" lon="-2.36473">
        <ele>58</ele>
        <time>2022-03-24T08:46:30.000Z</time>
      </trkpt>
      <trkpt lat="47.28451" lon="-2.36477">
        <ele>57.599998474121</ele>
        <time>2022-03-24T08:46:31.000Z</time>
      </trkpt>
      <trkpt lat="47.28451" lon="-2.36485">
        <ele>57.200000762939</ele>
        <time>2022-03-24T08:46:32.000Z</time>
      </trkpt>
      <trkpt lat="47.28452" lon="-2.36489">
        <ele>56.799999237061</ele>
        <time>2022-03-24T08:46:33.000Z</time>
      </trkpt>
      <trkpt lat="47.28453" lon="-2.36494">
        <ele>56.400001525879</ele>
        <time>2022-03-24T08:46:34.000Z</time>
      </trkpt>
      <trkpt lat="47.28454" lon="-2.36499">
        <ele>56</ele>
        <time>2022-03-24T08:46:35.000Z</time>
      </trkpt>
      <trkpt lat="47.28459" lon="-2.36514">
        <ele>56</ele>
        <time>2022-03-24T08:46:38.000Z</time>
      </trkpt>
      <trkpt lat="47.28465" lon="-2.36552">
        <ele>56</ele>
        <time>2022-03-24T08:46:44.000Z</time>
      </trkpt>
      <trkpt lat="47.28472" lon="-2.3658">
        <ele>56</ele>
        <time>2022-03-24T08:46:49.000Z</time>
      </trkpt>
      <trkpt lat="47.28481" lon="-2.36609">
        <ele>56</ele>
        <time>2022-03-24T08:46:55.000Z</time>
      </trkpt>
      <trkpt lat="47.28486" lon="-2.36628">
        <ele>56</ele>
        <time>2022-03-24T08:47:00.000Z</time>
      </trkpt>
      <trkpt lat="47.28489" lon="-2.36635">
        <ele>56</ele>
        <time>2022-03-24T08:47:02.000Z</time>
      </trkpt>
      <trkpt lat="47.28494" lon="-2.36652">
        <ele>56</ele>
        <time>2022-03-24T08:47:07.000Z</time>
      </trkpt>
      <trkpt lat="47.285" lon="-2.36663">
        <ele>56</ele>
        <time>2022-03-24T08:47:12.000Z</time>
      </trkpt>
      <trkpt lat="47.28513" lon="-2.36681">
        <ele>56</ele>
        <time>2022-03-24T08:47:19.000Z</time>
      </trkpt>
      <trkpt lat="47.2852" lon="-2.36691">
        <ele>56</ele>
        <time>2022-03-24T08:47:25.000Z</time>
      </trkpt>
      <trkpt lat="47.2852" lon="-2.36691">
        <ele>55</ele>
        <time>2022-03-24T08:47:56.000Z</time>
      </trkpt>
      <trkpt lat="47.28524" lon="-2.36699">
        <ele>55</ele>
        <time>2022-03-24T08:47:58.000Z</time>
      </trkpt>
      <trkpt lat="47.28527" lon="-2.36705">
        <ele>55</ele>
        <time>2022-03-24T08:47:59.000Z</time>
      </trkpt>
      <trkpt lat="47.28537" lon="-2.36728">
        <ele>55</ele>
        <time>2022-03-24T08:48:02.000Z</time>
      </trkpt>
      <trkpt lat="47.28553" lon="-2.36762">
        <ele>54.599998474121</ele>
        <time>2022-03-24T08:48:06.000Z</time>
      </trkpt>
      <trkpt lat="47.28557" lon="-2.36771">
        <ele>54.200000762939</ele>
        <time>2022-03-24T08:48:07.000Z</time>
      </trkpt>
      <trkpt lat="47.28562" lon="-2.36779">
        <ele>53.799999237061</ele>
        <time>2022-03-24T08:48:08.000Z</time>
      </trkpt>
      <trkpt lat="47.28566" lon="-2.36787">
        <ele>53.400001525879</ele>
        <time>2022-03-24T08:48:09.000Z</time>
      </trkpt>
      <trkpt lat="47.2857" lon="-2.36795">
        <ele>53</ele>
        <time>2022-03-24T08:48:10.000Z</time>
      </trkpt>
      <trkpt lat="47.28591" lon="-2.36832">
        <ele>53</ele>
        <time>2022-03-24T08:48:15.000Z</time>
      </trkpt>
      <trkpt lat="47.28595" lon="-2.36837">
        <ele>52.400001525879</ele>
        <time>2022-03-24T08:48:16.000Z</time>
      </trkpt>
      <trkpt lat="47.28599" lon="-2.3684">
        <ele>52</ele>
        <time>2022-03-24T08:48:17.000Z</time>
      </trkpt>
      <trkpt lat="47.28603" lon="-2.36842">
        <ele>51.599998474121</ele>
        <time>2022-03-24T08:48:18.000Z</time>
      </trkpt>
      <trkpt lat="47.28608" lon="-2.36842">
        <ele>51.200000762939</ele>
        <time>2022-03-24T08:48:19.000Z</time>
      </trkpt>
      <trkpt lat="47.28612" lon="-2.3684">
        <ele>50.799999237061</ele>
        <time>2022-03-24T08:48:20.000Z</time>
      </trkpt>
      <trkpt lat="47.28616" lon="-2.36835">
        <ele>50.799999237061</ele>
        <time>2022-03-24T08:48:21.000Z</time>
      </trkpt>
      <trkpt lat="47.2862" lon="-2.36831">
        <ele>50.799999237061</ele>
        <time>2022-03-24T08:48:22.000Z</time>
      </trkpt>
      <trkpt lat="47.28644" lon="-2.36806">
        <ele>50.799999237061</ele>
        <time>2022-03-24T08:48:28.000Z</time>
      </trkpt>
      <trkpt lat="47.28655" lon="-2.36794">
        <ele>51.200000762939</ele>
        <time>2022-03-24T08:48:31.000Z</time>
      </trkpt>
      <trkpt lat="47.28658" lon="-2.3679">
        <ele>51.599998474121</ele>
        <time>2022-03-24T08:48:32.000Z</time>
      </trkpt>
      <trkpt lat="47.28662" lon="-2.36786">
        <ele>52</ele>
        <time>2022-03-24T08:48:33.000Z</time>
      </trkpt>
      <trkpt lat="47.28665" lon="-2.36783">
        <ele>52.400001525879</ele>
        <time>2022-03-24T08:48:34.000Z</time>
      </trkpt>
      <trkpt lat="47.28668" lon="-2.3678">
        <ele>52.799999237061</ele>
        <time>2022-03-24T08:48:35.000Z</time>
      </trkpt>
      <trkpt lat="47.28674" lon="-2.36774">
        <ele>53.200000762939</ele>
        <time>2022-03-24T08:48:38.000Z</time>
      </trkpt>
      <trkpt lat="47.28675" lon="-2.36772">
        <ele>53.599998474121</ele>
        <time>2022-03-24T08:48:39.000Z</time>
      </trkpt>
      <trkpt lat="47.28677" lon="-2.36769">
        <ele>54</ele>
        <time>2022-03-24T08:48:40.000Z</time>
      </trkpt>
      <trkpt lat="47.28679" lon="-2.36767">
        <ele>54.400001525879</ele>
        <time>2022-03-24T08:48:41.000Z</time>
      </trkpt>
      <trkpt lat="47.28681" lon="-2.36764">
        <ele>54.799999237061</ele>
        <time>2022-03-24T08:48:42.000Z</time>
      </trkpt>
      <trkpt lat="47.28688" lon="-2.36759">
        <ele>54.799999237061</ele>
        <time>2022-03-24T08:48:46.000Z</time>
      </trkpt>
      <trkpt lat="47.28688" lon="-2.36759">
        <ele>54.799999237061</ele>
        <time>2022-03-24T08:48:48.000Z</time>
      </trkpt>
      <trkpt lat="47.28688" lon="-2.36761">
        <ele>55.200000762939</ele>
        <time>2022-03-24T08:48:49.000Z</time>
      </trkpt>
      <trkpt lat="47.28688" lon="-2.36764">
        <ele>55.599998474121</ele>
        <time>2022-03-24T08:48:50.000Z</time>
      </trkpt>
      <trkpt lat="47.28689" lon="-2.36768">
        <ele>56</ele>
        <time>2022-03-24T08:48:51.000Z</time>
      </trkpt>
      <trkpt lat="47.28689" lon="-2.36771">
        <ele>56.400001525879</ele>
        <time>2022-03-24T08:48:52.000Z</time>
      </trkpt>
      <trkpt lat="47.2869" lon="-2.36775">
        <ele>56.799999237061</ele>
        <time>2022-03-24T08:48:53.000Z</time>
      </trkpt>
      <trkpt lat="47.2869" lon="-2.36786">
        <ele>56.799999237061</ele>
        <time>2022-03-24T08:48:55.000Z</time>
      </trkpt>
      <trkpt lat="47.28691" lon="-2.36794">
        <ele>56.799999237061</ele>
        <time>2022-03-24T08:48:56.000Z</time>
      </trkpt>
      <trkpt lat="47.28692" lon="-2.36802">
        <ele>56.400001525879</ele>
        <time>2022-03-24T08:48:57.000Z</time>
      </trkpt>
      <trkpt lat="47.28694" lon="-2.3681">
        <ele>56</ele>
        <time>2022-03-24T08:48:58.000Z</time>
      </trkpt>
      <trkpt lat="47.28696" lon="-2.36817">
        <ele>55.599998474121</ele>
        <time>2022-03-24T08:48:59.000Z</time>
      </trkpt>
      <trkpt lat="47.28699" lon="-2.36824">
        <ele>55.200000762939</ele>
        <time>2022-03-24T08:49:00.000Z</time>
      </trkpt>
      <trkpt lat="47.28701" lon="-2.36831">
        <ele>54.799999237061</ele>
        <time>2022-03-24T08:49:01.000Z</time>
      </trkpt>
      <trkpt lat="47.28708" lon="-2.36846">
        <ele>54.400001525879</ele>
        <time>2022-03-24T08:49:03.000Z</time>
      </trkpt>
      <trkpt lat="47.2871" lon="-2.36854">
        <ele>54</ele>
        <time>2022-03-24T08:49:04.000Z</time>
      </trkpt>
      <trkpt lat="47.28712" lon="-2.36861">
        <ele>53.599998474121</ele>
        <time>2022-03-24T08:49:05.000Z</time>
      </trkpt>
      <trkpt lat="47.28715" lon="-2.36868">
        <ele>53.200000762939</ele>
        <time>2022-03-24T08:49:06.000Z</time>
      </trkpt>
      <trkpt lat="47.28718" lon="-2.36873">
        <ele>52.799999237061</ele>
        <time>2022-03-24T08:49:07.000Z</time>
      </trkpt>
      <trkpt lat="47.28721" lon="-2.36878">
        <ele>52.200000762939</ele>
        <time>2022-03-24T08:49:08.000Z</time>
      </trkpt>
      <trkpt lat="47.28725" lon="-2.36882">
        <ele>51.799999237061</ele>
        <time>2022-03-24T08:49:09.000Z</time>
      </trkpt>
      <trkpt lat="47.2873" lon="-2.36887">
        <ele>51.400001525879</ele>
        <time>2022-03-24T08:49:10.000Z</time>
      </trkpt>
      <trkpt lat="47.28735" lon="-2.36893">
        <ele>51</ele>
        <time>2022-03-24T08:49:11.000Z</time>
      </trkpt>
      <trkpt lat="47.2874" lon="-2.369">
        <ele>50.400001525879</ele>
        <time>2022-03-24T08:49:12.000Z</time>
      </trkpt>
      <trkpt lat="47.28743" lon="-2.36907">
        <ele>49.799999237061</ele>
        <time>2022-03-24T08:49:13.000Z</time>
      </trkpt>
      <trkpt lat="47.28745" lon="-2.36914">
        <ele>49.200000762939</ele>
        <time>2022-03-24T08:49:14.000Z</time>
      </trkpt>
      <trkpt lat="47.28748" lon="-2.36919">
        <ele>48.599998474121</ele>
        <time>2022-03-24T08:49:15.000Z</time>
      </trkpt>
      <trkpt lat="47.2875" lon="-2.36924">
        <ele>48</ele>
        <time>2022-03-24T08:49:16.000Z</time>
      </trkpt>
      <trkpt lat="47.28753" lon="-2.36928">
        <ele>48</ele>
        <time>2022-03-24T08:49:17.000Z</time>
      </trkpt>
      <trkpt lat="47.28754" lon="-2.36933">
        <ele>48.599998474121</ele>
        <time>2022-03-24T08:49:18.000Z</time>
      </trkpt>
      <trkpt lat="47.28755" lon="-2.36938">
        <ele>49</ele>
        <time>2022-03-24T08:49:19.000Z</time>
      </trkpt>
      <trkpt lat="47.28755" lon="-2.36942">
        <ele>49.400001525879</ele>
        <time>2022-03-24T08:49:20.000Z</time>
      </trkpt>
      <trkpt lat="47.28756" lon="-2.36946">
        <ele>49.799999237061</ele>
        <time>2022-03-24T08:49:21.000Z</time>
      </trkpt>
      <trkpt lat="47.28756" lon="-2.36949">
        <ele>50.400001525879</ele>
        <time>2022-03-24T08:49:22.000Z</time>
      </trkpt>
      <trkpt lat="47.28756" lon="-2.36952">
        <ele>50.799999237061</ele>
        <time>2022-03-24T08:49:23.000Z</time>
      </trkpt>
      <trkpt lat="47.28756" lon="-2.36955">
        <ele>51.400001525879</ele>
        <time>2022-03-24T08:49:24.000Z</time>
      </trkpt>
      <trkpt lat="47.28756" lon="-2.36958">
        <ele>52</ele>
        <time>2022-03-24T08:49:25.000Z</time>
      </trkpt>
      <trkpt lat="47.28756" lon="-2.36961">
        <ele>52.400001525879</ele>
        <time>2022-03-24T08:49:26.000Z</time>
      </trkpt>
      <trkpt lat="47.28757" lon="-2.36964">
        <ele>52.400001525879</ele>
        <time>2022-03-24T08:49:27.000Z</time>
      </trkpt>
      <trkpt lat="47.28767" lon="-2.36984">
        <ele>52.400001525879</ele>
        <time>2022-03-24T08:49:32.000Z</time>
      </trkpt>
      <trkpt lat="47.28777" lon="-2.3701">
        <ele>52.400001525879</ele>
        <time>2022-03-24T08:49:37.000Z</time>
      </trkpt>
      <trkpt lat="47.28788" lon="-2.37055">
        <ele>52.400001525879</ele>
        <time>2022-03-24T08:49:43.000Z</time>
      </trkpt>
      <trkpt lat="47.2879" lon="-2.37072">
        <ele>52</ele>
        <time>2022-03-24T08:49:45.000Z</time>
      </trkpt>
      <trkpt lat="47.28792" lon="-2.37083">
        <ele>51.400001525879</ele>
        <time>2022-03-24T08:49:46.000Z</time>
      </trkpt>
      <trkpt lat="47.28793" lon="-2.37091">
        <ele>51</ele>
        <time>2022-03-24T08:49:47.000Z</time>
      </trkpt>
      <trkpt lat="47.28795" lon="-2.37099">
        <ele>50.599998474121</ele>
        <time>2022-03-24T08:49:48.000Z</time>
      </trkpt>
      <trkpt lat="47.28797" lon="-2.37105">
        <ele>50</ele>
        <time>2022-03-24T08:49:49.000Z</time>
      </trkpt>
      <trkpt lat="47.28802" lon="-2.3711">
        <ele>50</ele>
        <time>2022-03-24T08:49:51.000Z</time>
      </trkpt>
      <trkpt lat="47.28805" lon="-2.37111">
        <ele>49.599998474121</ele>
        <time>2022-03-24T08:49:52.000Z</time>
      </trkpt>
      <trkpt lat="47.28808" lon="-2.3711">
        <ele>49</ele>
        <time>2022-03-24T08:49:53.000Z</time>
      </trkpt>
      <trkpt lat="47.28811" lon="-2.37109">
        <ele>48.599998474121</ele>
        <time>2022-03-24T08:49:54.000Z</time>
      </trkpt>
      <trkpt lat="47.28814" lon="-2.37108">
        <ele>48</ele>
        <time>2022-03-24T08:49:55.000Z</time>
      </trkpt>
      <trkpt lat="47.28817" lon="-2.37107">
        <ele>47.400001525879</ele>
        <time>2022-03-24T08:49:56.000Z</time>
      </trkpt>
      <trkpt lat="47.28819" lon="-2.37106">
        <ele>46.799999237061</ele>
        <time>2022-03-24T08:49:57.000Z</time>
      </trkpt>
      <trkpt lat="47.28822" lon="-2.37105">
        <ele>46.400001525879</ele>
        <time>2022-03-24T08:49:58.000Z</time>
      </trkpt>
      <trkpt lat="47.28823" lon="-2.37105">
        <ele>45.599998474121</ele>
        <time>2022-03-24T08:49:59.000Z</time>
      </trkpt>
      <trkpt lat="47.28823" lon="-2.37107">
        <ele>45</ele>
        <time>2022-03-24T08:50:00.000Z</time>
      </trkpt>
      <trkpt lat="47.28823" lon="-2.37111">
        <ele>44.400001525879</ele>
        <time>2022-03-24T08:50:01.000Z</time>
      </trkpt>
      <trkpt lat="47.28823" lon="-2.37116">
        <ele>43.799999237061</ele>
        <time>2022-03-24T08:50:02.000Z</time>
      </trkpt>
      <trkpt lat="47.28823" lon="-2.3712">
        <ele>43</ele>
        <time>2022-03-24T08:50:03.000Z</time>
      </trkpt>
      <trkpt lat="47.28824" lon="-2.37139">
        <ele>43</ele>
        <time>2022-03-24T08:50:06.000Z</time>
      </trkpt>
      <trkpt lat="47.28826" lon="-2.37145">
        <ele>43</ele>
        <time>2022-03-24T08:50:07.000Z</time>
      </trkpt>
      <trkpt lat="47.28833" lon="-2.3719">
        <ele>43</ele>
        <time>2022-03-24T08:50:14.000Z</time>
      </trkpt>
      <trkpt lat="47.28835" lon="-2.37196">
        <ele>43</ele>
        <time>2022-03-24T08:50:15.000Z</time>
      </trkpt>
      <trkpt lat="47.2884" lon="-2.3722">
        <ele>43</ele>
        <time>2022-03-24T08:50:20.000Z</time>
      </trkpt>
      <trkpt lat="47.28844" lon="-2.37229">
        <ele>43</ele>
        <time>2022-03-24T08:50:22.000Z</time>
      </trkpt>
      <trkpt lat="47.28847" lon="-2.37233">
        <ele>43</ele>
        <time>2022-03-24T08:50:23.000Z</time>
      </trkpt>
      <trkpt lat="47.28858" lon="-2.37233">
        <ele>43</ele>
        <time>2022-03-24T08:50:26.000Z</time>
      </trkpt>
      <trkpt lat="47.28862" lon="-2.37233">
        <ele>43</ele>
        <time>2022-03-24T08:50:27.000Z</time>
      </trkpt>
      <trkpt lat="47.2888" lon="-2.37228">
        <ele>43</ele>
        <time>2022-03-24T08:50:32.000Z</time>
      </trkpt>
      <trkpt lat="47.28907" lon="-2.37217">
        <ele>43</ele>
        <time>2022-03-24T08:50:39.000Z</time>
      </trkpt>
      <trkpt lat="47.28925" lon="-2.3721">
        <ele>43</ele>
        <time>2022-03-24T08:50:45.000Z</time>
      </trkpt>
      <trkpt lat="47.28936" lon="-2.37205">
        <ele>43</ele>
        <time>2022-03-24T08:50:50.000Z</time>
      </trkpt>
      <trkpt lat="47.28953" lon="-2.37199">
        <ele>43</ele>
        <time>2022-03-24T08:50:55.000Z</time>
      </trkpt>
      <trkpt lat="47.2896" lon="-2.37195">
        <ele>43.799999237061</ele>
        <time>2022-03-24T08:50:57.000Z</time>
      </trkpt>
      <trkpt lat="47.28963" lon="-2.37192">
        <ele>44.200000762939</ele>
        <time>2022-03-24T08:50:58.000Z</time>
      </trkpt>
      <trkpt lat="47.28966" lon="-2.3719">
        <ele>44.599998474121</ele>
        <time>2022-03-24T08:50:59.000Z</time>
      </trkpt>
      <trkpt lat="47.28969" lon="-2.37189">
        <ele>45</ele>
        <time>2022-03-24T08:51:00.000Z</time>
      </trkpt>
      <trkpt lat="47.28972" lon="-2.37187">
        <ele>45</ele>
        <time>2022-03-24T08:51:01.000Z</time>
      </trkpt>
      <trkpt lat="47.28991" lon="-2.37176">
        <ele>45.599998474121</ele>
        <time>2022-03-24T08:51:08.000Z</time>
      </trkpt>
      <trkpt lat="47.28994" lon="-2.37175">
        <ele>46</ele>
        <time>2022-03-24T08:51:09.000Z</time>
      </trkpt>
      <trkpt lat="47.28996" lon="-2.37173">
        <ele>46.400001525879</ele>
        <time>2022-03-24T08:51:10.000Z</time>
      </trkpt>
      <trkpt lat="47.28999" lon="-2.37172">
        <ele>46.799999237061</ele>
        <time>2022-03-24T08:51:11.000Z</time>
      </trkpt>
      <trkpt lat="47.29002" lon="-2.37172">
        <ele>47.200000762939</ele>
        <time>2022-03-24T08:51:12.000Z</time>
      </trkpt>
      <trkpt lat="47.29004" lon="-2.37173">
        <ele>47.200000762939</ele>
        <time>2022-03-24T08:51:13.000Z</time>
      </trkpt>
      <trkpt lat="47.29009" lon="-2.37177">
        <ele>47.599998474121</ele>
        <time>2022-03-24T08:51:15.000Z</time>
      </trkpt>
      <trkpt lat="47.29012" lon="-2.3718">
        <ele>48</ele>
        <time>2022-03-24T08:51:16.000Z</time>
      </trkpt>
      <trkpt lat="47.29015" lon="-2.37183">
        <ele>48.400001525879</ele>
        <time>2022-03-24T08:51:17.000Z</time>
      </trkpt>
      <trkpt lat="47.29017" lon="-2.37185">
        <ele>49</ele>
        <time>2022-03-24T08:51:18.000Z</time>
      </trkpt>
      <trkpt lat="47.2902" lon="-2.37188">
        <ele>49.400001525879</ele>
        <time>2022-03-24T08:51:19.000Z</time>
      </trkpt>
      <trkpt lat="47.29033" lon="-2.37201">
        <ele>49.799999237061</ele>
        <time>2022-03-24T08:51:24.000Z</time>
      </trkpt>
      <trkpt lat="47.29035" lon="-2.37204">
        <ele>50.200000762939</ele>
        <time>2022-03-24T08:51:25.000Z</time>
      </trkpt>
      <trkpt lat="47.29037" lon="-2.37207">
        <ele>50.599998474121</ele>
        <time>2022-03-24T08:51:26.000Z</time>
      </trkpt>
      <trkpt lat="47.2904" lon="-2.37209">
        <ele>51</ele>
        <time>2022-03-24T08:51:27.000Z</time>
      </trkpt>
      <trkpt lat="47.29043" lon="-2.37212">
        <ele>51.400001525879</ele>
        <time>2022-03-24T08:51:28.000Z</time>
      </trkpt>
      <trkpt lat="47.2906" lon="-2.37225">
        <ele>51.400001525879</ele>
        <time>2022-03-24T08:51:34.000Z</time>
      </trkpt>
      <trkpt lat="47.29067" lon="-2.37233">
        <ele>51.799999237061</ele>
        <time>2022-03-24T08:51:37.000Z</time>
      </trkpt>
      <trkpt lat="47.29069" lon="-2.37236">
        <ele>52.200000762939</ele>
        <time>2022-03-24T08:51:38.000Z</time>
      </trkpt>
      <trkpt lat="47.29072" lon="-2.37239">
        <ele>52.599998474121</ele>
        <time>2022-03-24T08:51:39.000Z</time>
      </trkpt>
      <trkpt lat="47.29075" lon="-2.37242">
        <ele>53</ele>
        <time>2022-03-24T08:51:40.000Z</time>
      </trkpt>
      <trkpt lat="47.29077" lon="-2.37245">
        <ele>53.599998474121</ele>
        <time>2022-03-24T08:51:41.000Z</time>
      </trkpt>
      <trkpt lat="47.2909" lon="-2.37257">
        <ele>53.599998474121</ele>
        <time>2022-03-24T08:51:46.000Z</time>
      </trkpt>
      <trkpt lat="47.2911" lon="-2.37279">
        <ele>53.599998474121</ele>
        <time>2022-03-24T08:51:53.000Z</time>
      </trkpt>
      <trkpt lat="47.29123" lon="-2.37292">
        <ele>54</ele>
        <time>2022-03-24T08:51:57.000Z</time>
      </trkpt>
      <trkpt lat="47.29126" lon="-2.37295">
        <ele>54.400001525879</ele>
        <time>2022-03-24T08:51:58.000Z</time>
      </trkpt>
      <trkpt lat="47.29129" lon="-2.37298">
        <ele>54.799999237061</ele>
        <time>2022-03-24T08:51:59.000Z</time>
      </trkpt>
      <trkpt lat="47.29132" lon="-2.37301">
        <ele>55.200000762939</ele>
        <time>2022-03-24T08:52:00.000Z</time>
      </trkpt>
      <trkpt lat="47.29135" lon="-2.37304">
        <ele>55.599998474121</ele>
        <time>2022-03-24T08:52:01.000Z</time>
      </trkpt>
      <trkpt lat="47.2915" lon="-2.37324">
        <ele>55.599998474121</ele>
        <time>2022-03-24T08:52:06.000Z</time>
      </trkpt>
      <trkpt lat="47.29153" lon="-2.37329">
        <ele>55.599998474121</ele>
        <time>2022-03-24T08:52:07.000Z</time>
      </trkpt>
      <trkpt lat="47.29155" lon="-2.37334">
        <ele>55.599998474121</ele>
        <time>2022-03-24T08:52:08.000Z</time>
      </trkpt>
      <trkpt lat="47.29165" lon="-2.37362">
        <ele>55.599998474121</ele>
        <time>2022-03-24T08:52:13.000Z</time>
      </trkpt>
      <trkpt lat="47.29185" lon="-2.37397">
        <ele>55.599998474121</ele>
        <time>2022-03-24T08:52:21.000Z</time>
      </trkpt>
      <trkpt lat="47.29203" lon="-2.37426">
        <ele>55.599998474121</ele>
        <time>2022-03-24T08:52:26.000Z</time>
      </trkpt>
      <trkpt lat="47.29219" lon="-2.37451">
        <ele>55.200000762939</ele>
        <time>2022-03-24T08:52:30.000Z</time>
      </trkpt>
      <trkpt lat="47.29224" lon="-2.37458">
        <ele>54.599998474121</ele>
        <time>2022-03-24T08:52:31.000Z</time>
      </trkpt>
      <trkpt lat="47.29228" lon="-2.37465">
        <ele>54.200000762939</ele>
        <time>2022-03-24T08:52:32.000Z</time>
      </trkpt>
      <trkpt lat="47.29232" lon="-2.37472">
        <ele>53.799999237061</ele>
        <time>2022-03-24T08:52:33.000Z</time>
      </trkpt>
      <trkpt lat="47.29236" lon="-2.37478">
        <ele>53.400001525879</ele>
        <time>2022-03-24T08:52:34.000Z</time>
      </trkpt>
      <trkpt lat="47.29255" lon="-2.37504">
        <ele>53</ele>
        <time>2022-03-24T08:52:39.000Z</time>
      </trkpt>
      <trkpt lat="47.29259" lon="-2.37507">
        <ele>52.599998474121</ele>
        <time>2022-03-24T08:52:40.000Z</time>
      </trkpt>
      <trkpt lat="47.29264" lon="-2.37511">
        <ele>52.200000762939</ele>
        <time>2022-03-24T08:52:41.000Z</time>
      </trkpt>
      <trkpt lat="47.29268" lon="-2.37517">
        <ele>51.799999237061</ele>
        <time>2022-03-24T08:52:42.000Z</time>
      </trkpt>
      <trkpt lat="47.29271" lon="-2.37524">
        <ele>51.400001525879</ele>
        <time>2022-03-24T08:52:43.000Z</time>
      </trkpt>
      <trkpt lat="47.29277" lon="-2.3754">
        <ele>51.400001525879</ele>
        <time>2022-03-24T08:52:45.000Z</time>
      </trkpt>
      <trkpt lat="47.29281" lon="-2.37547">
        <ele>51.400001525879</ele>
        <time>2022-03-24T08:52:46.000Z</time>
      </trkpt>
      <trkpt lat="47.29288" lon="-2.3756">
        <ele>51.400001525879</ele>
        <time>2022-03-24T08:52:48.000Z</time>
      </trkpt>
      <trkpt lat="47.29314" lon="-2.37601">
        <ele>51.400001525879</ele>
        <time>2022-03-24T08:52:55.000Z</time>
      </trkpt>
      <trkpt lat="47.29317" lon="-2.37607">
        <ele>51.400001525879</ele>
        <time>2022-03-24T08:52:56.000Z</time>
      </trkpt>
      <trkpt lat="47.29326" lon="-2.37633">
        <ele>51.400001525879</ele>
        <time>2022-03-24T08:53:00.000Z</time>
      </trkpt>
      <trkpt lat="47.29334" lon="-2.37659">
        <ele>51.400001525879</ele>
        <time>2022-03-24T08:53:04.000Z</time>
      </trkpt>
      <trkpt lat="47.29334" lon="-2.37675">
        <ele>51.400001525879</ele>
        <time>2022-03-24T08:53:06.000Z</time>
      </trkpt>
      <trkpt lat="47.29333" lon="-2.37726">
        <ele>51</ele>
        <time>2022-03-24T08:53:11.000Z</time>
      </trkpt>
      <trkpt lat="47.29334" lon="-2.37737">
        <ele>50.599998474121</ele>
        <time>2022-03-24T08:53:12.000Z</time>
      </trkpt>
      <trkpt lat="47.29334" lon="-2.37749">
        <ele>50</ele>
        <time>2022-03-24T08:53:13.000Z</time>
      </trkpt>
      <trkpt lat="47.29335" lon="-2.37761">
        <ele>49.599998474121</ele>
        <time>2022-03-24T08:53:14.000Z</time>
      </trkpt>
      <trkpt lat="47.29335" lon="-2.37775">
        <ele>49.200000762939</ele>
        <time>2022-03-24T08:53:15.000Z</time>
      </trkpt>
      <trkpt lat="47.29336" lon="-2.37787">
        <ele>48.799999237061</ele>
        <time>2022-03-24T08:53:16.000Z</time>
      </trkpt>
      <trkpt lat="47.29336" lon="-2.378">
        <ele>48.200000762939</ele>
        <time>2022-03-24T08:53:17.000Z</time>
      </trkpt>
      <trkpt lat="47.29337" lon="-2.37813">
        <ele>47.799999237061</ele>
        <time>2022-03-24T08:53:18.000Z</time>
      </trkpt>
      <trkpt lat="47.29338" lon="-2.37826">
        <ele>47.400001525879</ele>
        <time>2022-03-24T08:53:19.000Z</time>
      </trkpt>
      <trkpt lat="47.29339" lon="-2.37839">
        <ele>47</ele>
        <time>2022-03-24T08:53:20.000Z</time>
      </trkpt>
      <trkpt lat="47.29345" lon="-2.37864">
        <ele>46.599998474121</ele>
        <time>2022-03-24T08:53:22.000Z</time>
      </trkpt>
      <trkpt lat="47.29349" lon="-2.37877">
        <ele>45.599998474121</ele>
        <time>2022-03-24T08:53:23.000Z</time>
      </trkpt>
      <trkpt lat="47.29354" lon="-2.37889">
        <ele>45.200000762939</ele>
        <time>2022-03-24T08:53:24.000Z</time>
      </trkpt>
      <trkpt lat="47.29358" lon="-2.379">
        <ele>44.799999237061</ele>
        <time>2022-03-24T08:53:25.000Z</time>
      </trkpt>
      <trkpt lat="47.2937" lon="-2.37935">
        <ele>44.400001525879</ele>
        <time>2022-03-24T08:53:28.000Z</time>
      </trkpt>
      <trkpt lat="47.29374" lon="-2.37946">
        <ele>44</ele>
        <time>2022-03-24T08:53:29.000Z</time>
      </trkpt>
      <trkpt lat="47.29378" lon="-2.37957">
        <ele>43.599998474121</ele>
        <time>2022-03-24T08:53:30.000Z</time>
      </trkpt>
      <trkpt lat="47.29382" lon="-2.37968">
        <ele>43.200000762939</ele>
        <time>2022-03-24T08:53:31.000Z</time>
      </trkpt>
      <trkpt lat="47.29385" lon="-2.37978">
        <ele>42.799999237061</ele>
        <time>2022-03-24T08:53:32.000Z</time>
      </trkpt>
      <trkpt lat="47.29401" lon="-2.3802">
        <ele>42.799999237061</ele>
        <time>2022-03-24T08:53:36.000Z</time>
      </trkpt>
      <trkpt lat="47.29405" lon="-2.38031">
        <ele>42.200000762939</ele>
        <time>2022-03-24T08:53:37.000Z</time>
      </trkpt>
      <trkpt lat="47.2941" lon="-2.38042">
        <ele>41.799999237061</ele>
        <time>2022-03-24T08:53:38.000Z</time>
      </trkpt>
      <trkpt lat="47.29414" lon="-2.38052">
        <ele>41.400001525879</ele>
        <time>2022-03-24T08:53:39.000Z</time>
      </trkpt>
      <trkpt lat="47.29417" lon="-2.38063">
        <ele>40.799999237061</ele>
        <time>2022-03-24T08:53:40.000Z</time>
      </trkpt>
      <trkpt lat="47.29421" lon="-2.38073">
        <ele>40.400001525879</ele>
        <time>2022-03-24T08:53:41.000Z</time>
      </trkpt>
      <trkpt lat="47.29427" lon="-2.38092">
        <ele>40.400001525879</ele>
        <time>2022-03-24T08:53:43.000Z</time>
      </trkpt>
      <trkpt lat="47.29441" lon="-2.38133">
        <ele>40.400001525879</ele>
        <time>2022-03-24T08:53:48.000Z</time>
      </trkpt>
      <trkpt lat="47.29451" lon="-2.38151">
        <ele>40.400001525879</ele>
        <time>2022-03-24T08:53:52.000Z</time>
      </trkpt>
      <trkpt lat="47.29461" lon="-2.38146">
        <ele>40.400001525879</ele>
        <time>2022-03-24T08:53:55.000Z</time>
      </trkpt>
      <trkpt lat="47.29477" lon="-2.38129">
        <ele>40.400001525879</ele>
        <time>2022-03-24T08:54:00.000Z</time>
      </trkpt>
      <trkpt lat="47.29481" lon="-2.38125">
        <ele>40.400001525879</ele>
        <time>2022-03-24T08:54:01.000Z</time>
      </trkpt>
      <trkpt lat="47.29489" lon="-2.3812">
        <ele>40.400001525879</ele>
        <time>2022-03-24T08:54:03.000Z</time>
      </trkpt>
      <trkpt lat="47.29502" lon="-2.38117">
        <ele>40.400001525879</ele>
        <time>2022-03-24T08:54:06.000Z</time>
      </trkpt>
      <trkpt lat="47.29507" lon="-2.38119">
        <ele>40.400001525879</ele>
        <time>2022-03-24T08:54:07.000Z</time>
      </trkpt>
      <trkpt lat="47.29512" lon="-2.3812">
        <ele>40.400001525879</ele>
        <time>2022-03-24T08:54:08.000Z</time>
      </trkpt>
      <trkpt lat="47.29528" lon="-2.38121">
        <ele>40.400001525879</ele>
        <time>2022-03-24T08:54:12.000Z</time>
      </trkpt>
      <trkpt lat="47.29537" lon="-2.38121">
        <ele>40.799999237061</ele>
        <time>2022-03-24T08:54:14.000Z</time>
      </trkpt>
      <trkpt lat="47.29541" lon="-2.38121">
        <ele>41.200000762939</ele>
        <time>2022-03-24T08:54:15.000Z</time>
      </trkpt>
      <trkpt lat="47.29545" lon="-2.38121">
        <ele>41.599998474121</ele>
        <time>2022-03-24T08:54:16.000Z</time>
      </trkpt>
      <trkpt lat="47.29549" lon="-2.3812">
        <ele>42</ele>
        <time>2022-03-24T08:54:17.000Z</time>
      </trkpt>
      <trkpt lat="47.29554" lon="-2.3812">
        <ele>42.599998474121</ele>
        <time>2022-03-24T08:54:18.000Z</time>
      </trkpt>
      <trkpt lat="47.29558" lon="-2.3812">
        <ele>42.599998474121</ele>
        <time>2022-03-24T08:54:19.000Z</time>
      </trkpt>
      <trkpt lat="47.29587" lon="-2.38115">
        <ele>43</ele>
        <time>2022-03-24T08:54:26.000Z</time>
      </trkpt>
      <trkpt lat="47.29591" lon="-2.38114">
        <ele>43.400001525879</ele>
        <time>2022-03-24T08:54:27.000Z</time>
      </trkpt>
      <trkpt lat="47.29595" lon="-2.38113">
        <ele>43.799999237061</ele>
        <time>2022-03-24T08:54:28.000Z</time>
      </trkpt>
      <trkpt lat="47.29599" lon="-2.38113">
        <ele>44.200000762939</ele>
        <time>2022-03-24T08:54:29.000Z</time>
      </trkpt>
      <trkpt lat="47.29602" lon="-2.38112">
        <ele>44.599998474121</ele>
        <time>2022-03-24T08:54:30.000Z</time>
      </trkpt>
      <trkpt lat="47.29614" lon="-2.38109">
        <ele>44.599998474121</ele>
        <time>2022-03-24T08:54:33.000Z</time>
      </trkpt>
      <trkpt lat="47.29632" lon="-2.38102">
        <ele>45.400001525879</ele>
        <time>2022-03-24T08:54:38.000Z</time>
      </trkpt>
      <trkpt lat="47.29636" lon="-2.381">
        <ele>45.799999237061</ele>
        <time>2022-03-24T08:54:39.000Z</time>
      </trkpt>
      <trkpt lat="47.29639" lon="-2.38098">
        <ele>46.200000762939</ele>
        <time>2022-03-24T08:54:40.000Z</time>
      </trkpt>
      <trkpt lat="47.29643" lon="-2.38096">
        <ele>46.599998474121</ele>
        <time>2022-03-24T08:54:41.000Z</time>
      </trkpt>
      <trkpt lat="47.29664" lon="-2.38086">
        <ele>46.599998474121</ele>
        <time>2022-03-24T08:54:48.000Z</time>
      </trkpt>
      <trkpt lat="47.29672" lon="-2.38082">
        <ele>47</ele>
        <time>2022-03-24T08:54:52.000Z</time>
      </trkpt>
      <trkpt lat="47.29673" lon="-2.38081">
        <ele>47.400001525879</ele>
        <time>2022-03-24T08:54:53.000Z</time>
      </trkpt>
      <trkpt lat="47.29676" lon="-2.3808">
        <ele>47.799999237061</ele>
        <time>2022-03-24T08:54:54.000Z</time>
      </trkpt>
      <trkpt lat="47.29677" lon="-2.38079">
        <ele>48.400001525879</ele>
        <time>2022-03-24T08:54:55.000Z</time>
      </trkpt>
      <trkpt lat="47.29679" lon="-2.38078">
        <ele>48.799999237061</ele>
        <time>2022-03-24T08:54:56.000Z</time>
      </trkpt>
      <trkpt lat="47.29688" lon="-2.38071">
        <ele>48.799999237061</ele>
        <time>2022-03-24T08:55:01.000Z</time>
      </trkpt>
      <trkpt lat="47.2969" lon="-2.3807">
        <ele>49.200000762939</ele>
        <time>2022-03-24T08:55:02.000Z</time>
      </trkpt>
      <trkpt lat="47.29691" lon="-2.38068">
        <ele>49.599998474121</ele>
        <time>2022-03-24T08:55:03.000Z</time>
      </trkpt>
      <trkpt lat="47.29692" lon="-2.38066">
        <ele>50</ele>
        <time>2022-03-24T08:55:04.000Z</time>
      </trkpt>
      <trkpt lat="47.29694" lon="-2.38064">
        <ele>50.400001525879</ele>
        <time>2022-03-24T08:55:05.000Z</time>
      </trkpt>
      <trkpt lat="47.29695" lon="-2.38062">
        <ele>50.799999237061</ele>
        <time>2022-03-24T08:55:06.000Z</time>
      </trkpt>
      <trkpt lat="47.29699" lon="-2.38058">
        <ele>50.799999237061</ele>
        <time>2022-03-24T08:55:08.000Z</time>
      </trkpt>
      <trkpt lat="47.29702" lon="-2.38056">
        <ele>51.200000762939</ele>
        <time>2022-03-24T08:55:09.000Z</time>
      </trkpt>
      <trkpt lat="47.29704" lon="-2.38054">
        <ele>51.799999237061</ele>
        <time>2022-03-24T08:55:10.000Z</time>
      </trkpt>
      <trkpt lat="47.29706" lon="-2.38052">
        <ele>52.200000762939</ele>
        <time>2022-03-24T08:55:11.000Z</time>
      </trkpt>
      <trkpt lat="47.29709" lon="-2.3805">
        <ele>52.599998474121</ele>
        <time>2022-03-24T08:55:12.000Z</time>
      </trkpt>
      <trkpt lat="47.29711" lon="-2.38049">
        <ele>53</ele>
        <time>2022-03-24T08:55:13.000Z</time>
      </trkpt>
      <trkpt lat="47.29715" lon="-2.38045">
        <ele>53.599998474121</ele>
        <time>2022-03-24T08:55:15.000Z</time>
      </trkpt>
      <trkpt lat="47.29717" lon="-2.38043">
        <ele>54</ele>
        <time>2022-03-24T08:55:16.000Z</time>
      </trkpt>
      <trkpt lat="47.29719" lon="-2.38042">
        <ele>54.400001525879</ele>
        <time>2022-03-24T08:55:17.000Z</time>
      </trkpt>
      <trkpt lat="47.29721" lon="-2.3804">
        <ele>54.799999237061</ele>
        <time>2022-03-24T08:55:18.000Z</time>
      </trkpt>
      <trkpt lat="47.29723" lon="-2.38038">
        <ele>55.400001525879</ele>
        <time>2022-03-24T08:55:19.000Z</time>
      </trkpt>
      <trkpt lat="47.29727" lon="-2.38035">
        <ele>55.799999237061</ele>
        <time>2022-03-24T08:55:21.000Z</time>
      </trkpt>
      <trkpt lat="47.29729" lon="-2.38033">
        <ele>56.200000762939</ele>
        <time>2022-03-24T08:55:22.000Z</time>
      </trkpt>
      <trkpt lat="47.2973" lon="-2.38031">
        <ele>56.599998474121</ele>
        <time>2022-03-24T08:55:23.000Z</time>
      </trkpt>
      <trkpt lat="47.29731" lon="-2.38029">
        <ele>57</ele>
        <time>2022-03-24T08:55:24.000Z</time>
      </trkpt>
      <trkpt lat="47.29732" lon="-2.38028">
        <ele>57.599998474121</ele>
        <time>2022-03-24T08:55:25.000Z</time>
      </trkpt>
      <trkpt lat="47.29732" lon="-2.38026">
        <ele>58</ele>
        <time>2022-03-24T08:55:26.000Z</time>
      </trkpt>
      <trkpt lat="47.29731" lon="-2.38024">
        <ele>58.799999237061</ele>
        <time>2022-03-24T08:55:27.000Z</time>
      </trkpt>
      <trkpt lat="47.29731" lon="-2.38021">
        <ele>59.200000762939</ele>
        <time>2022-03-24T08:55:28.000Z</time>
      </trkpt>
      <trkpt lat="47.2973" lon="-2.38018">
        <ele>59.599998474121</ele>
        <time>2022-03-24T08:55:29.000Z</time>
      </trkpt>
      <trkpt lat="47.29729" lon="-2.38013">
        <ele>60</ele>
        <time>2022-03-24T08:55:31.000Z</time>
      </trkpt>
      <trkpt lat="47.29728" lon="-2.3801">
        <ele>60.400001525879</ele>
        <time>2022-03-24T08:55:32.000Z</time>
      </trkpt>
      <trkpt lat="47.29728" lon="-2.38008">
        <ele>60.799999237061</ele>
        <time>2022-03-24T08:55:33.000Z</time>
      </trkpt>
      <trkpt lat="47.29727" lon="-2.38005">
        <ele>61.200000762939</ele>
        <time>2022-03-24T08:55:34.000Z</time>
      </trkpt>
      <trkpt lat="47.29727" lon="-2.38002">
        <ele>61.599998474121</ele>
        <time>2022-03-24T08:55:35.000Z</time>
      </trkpt>
      <trkpt lat="47.29727" lon="-2.37999">
        <ele>62</ele>
        <time>2022-03-24T08:55:36.000Z</time>
      </trkpt>
      <trkpt lat="47.29727" lon="-2.37995">
        <ele>62.599998474121</ele>
        <time>2022-03-24T08:55:37.000Z</time>
      </trkpt>
      <trkpt lat="47.29728" lon="-2.37992">
        <ele>63</ele>
        <time>2022-03-24T08:55:38.000Z</time>
      </trkpt>
      <trkpt lat="47.29729" lon="-2.37989">
        <ele>63.400001525879</ele>
        <time>2022-03-24T08:55:39.000Z</time>
      </trkpt>
      <trkpt lat="47.2973" lon="-2.37986">
        <ele>63.799999237061</ele>
        <time>2022-03-24T08:55:40.000Z</time>
      </trkpt>
      <trkpt lat="47.29732" lon="-2.3798">
        <ele>63.799999237061</ele>
        <time>2022-03-24T08:55:42.000Z</time>
      </trkpt>
      <trkpt lat="47.29733" lon="-2.37977">
        <ele>64.199996948242</ele>
        <time>2022-03-24T08:55:43.000Z</time>
      </trkpt>
      <trkpt lat="47.29734" lon="-2.37974">
        <ele>64.599998474121</ele>
        <time>2022-03-24T08:55:44.000Z</time>
      </trkpt>
      <trkpt lat="47.29735" lon="-2.37971">
        <ele>65.199996948242</ele>
        <time>2022-03-24T08:55:45.000Z</time>
      </trkpt>
      <trkpt lat="47.29736" lon="-2.37968">
        <ele>65.599998474121</ele>
        <time>2022-03-24T08:55:46.000Z</time>
      </trkpt>
      <trkpt lat="47.29737" lon="-2.37965">
        <ele>66</ele>
        <time>2022-03-24T08:55:47.000Z</time>
      </trkpt>
      <trkpt lat="47.29739" lon="-2.37959">
        <ele>66</ele>
        <time>2022-03-24T08:55:49.000Z</time>
      </trkpt>
      <trkpt lat="47.29741" lon="-2.37954">
        <ele>66.400001525879</ele>
        <time>2022-03-24T08:55:51.000Z</time>
      </trkpt>
      <trkpt lat="47.29742" lon="-2.37951">
        <ele>67.400001525879</ele>
        <time>2022-03-24T08:55:52.000Z</time>
      </trkpt>
      <trkpt lat="47.29743" lon="-2.37949">
        <ele>67.800003051758</ele>
        <time>2022-03-24T08:55:53.000Z</time>
      </trkpt>
      <trkpt lat="47.29745" lon="-2.37946">
        <ele>68.199996948242</ele>
        <time>2022-03-24T08:55:54.000Z</time>
      </trkpt>
      <trkpt lat="47.29746" lon="-2.37943">
        <ele>68.199996948242</ele>
        <time>2022-03-24T08:55:55.000Z</time>
      </trkpt>
      <trkpt lat="47.29758" lon="-2.37931">
        <ele>68.599998474121</ele>
        <time>2022-03-24T08:56:01.000Z</time>
      </trkpt>
      <trkpt lat="47.2976" lon="-2.37929">
        <ele>69</ele>
        <time>2022-03-24T08:56:02.000Z</time>
      </trkpt>
      <trkpt lat="47.29762" lon="-2.37926">
        <ele>69.400001525879</ele>
        <time>2022-03-24T08:56:03.000Z</time>
      </trkpt>
      <trkpt lat="47.29764" lon="-2.37924">
        <ele>69.800003051758</ele>
        <time>2022-03-24T08:56:04.000Z</time>
      </trkpt>
      <trkpt lat="47.29766" lon="-2.37923">
        <ele>70.199996948242</ele>
        <time>2022-03-24T08:56:05.000Z</time>
      </trkpt>
      <trkpt lat="47.29772" lon="-2.37918">
        <ele>70.199996948242</ele>
        <time>2022-03-24T08:56:08.000Z</time>
      </trkpt>
      <trkpt lat="47.29787" lon="-2.37907">
        <ele>70.199996948242</ele>
        <time>2022-03-24T08:56:14.000Z</time>
      </trkpt>
      <trkpt lat="47.29803" lon="-2.37896">
        <ele>70.199996948242</ele>
        <time>2022-03-24T08:56:21.000Z</time>
      </trkpt>
      <trkpt lat="47.29821" lon="-2.37883">
        <ele>70.199996948242</ele>
        <time>2022-03-24T08:56:26.000Z</time>
      </trkpt>
      <trkpt lat="47.29825" lon="-2.37881">
        <ele>70.199996948242</ele>
        <time>2022-03-24T08:56:27.000Z</time>
      </trkpt>
      <trkpt lat="47.29841" lon="-2.37867">
        <ele>70.199996948242</ele>
        <time>2022-03-24T08:56:31.000Z</time>
      </trkpt>
      <trkpt lat="47.29845" lon="-2.37862">
        <ele>70.199996948242</ele>
        <time>2022-03-24T08:56:32.000Z</time>
      </trkpt>
      <trkpt lat="47.29858" lon="-2.37835">
        <ele>70.199996948242</ele>
        <time>2022-03-24T08:56:38.000Z</time>
      </trkpt>
      <trkpt lat="47.29868" lon="-2.3781">
        <ele>70.199996948242</ele>
        <time>2022-03-24T08:56:45.000Z</time>
      </trkpt>
      <trkpt lat="47.29874" lon="-2.37799">
        <ele>70.199996948242</ele>
        <time>2022-03-24T08:56:50.000Z</time>
      </trkpt>
      <trkpt lat="47.29877" lon="-2.37808">
        <ele>70.199996948242</ele>
        <time>2022-03-24T08:56:54.000Z</time>
      </trkpt>
      <trkpt lat="47.29881" lon="-2.37814">
        <ele>70.199996948242</ele>
        <time>2022-03-24T08:56:56.000Z</time>
      </trkpt>
      <trkpt lat="47.29887" lon="-2.37825">
        <ele>70.199996948242</ele>
        <time>2022-03-24T08:56:59.000Z</time>
      </trkpt>
      <trkpt lat="47.29894" lon="-2.37834">
        <ele>69.800003051758</ele>
        <time>2022-03-24T08:57:01.000Z</time>
      </trkpt>
      <trkpt lat="47.29898" lon="-2.37839">
        <ele>69.199996948242</ele>
        <time>2022-03-24T08:57:02.000Z</time>
      </trkpt>
      <trkpt lat="47.29903" lon="-2.37845">
        <ele>68.800003051758</ele>
        <time>2022-03-24T08:57:03.000Z</time>
      </trkpt>
      <trkpt lat="47.29908" lon="-2.3785">
        <ele>68.400001525879</ele>
        <time>2022-03-24T08:57:04.000Z</time>
      </trkpt>
      <trkpt lat="47.29913" lon="-2.37857">
        <ele>67.800003051758</ele>
        <time>2022-03-24T08:57:05.000Z</time>
      </trkpt>
      <trkpt lat="47.29919" lon="-2.37864">
        <ele>66.800003051758</ele>
        <time>2022-03-24T08:57:06.000Z</time>
      </trkpt>
      <trkpt lat="47.29925" lon="-2.37871">
        <ele>66.400001525879</ele>
        <time>2022-03-24T08:57:07.000Z</time>
      </trkpt>
      <trkpt lat="47.29931" lon="-2.37879">
        <ele>65.800003051758</ele>
        <time>2022-03-24T08:57:08.000Z</time>
      </trkpt>
      <trkpt lat="47.29938" lon="-2.37887">
        <ele>65.400001525879</ele>
        <time>2022-03-24T08:57:09.000Z</time>
      </trkpt>
      <trkpt lat="47.29944" lon="-2.37895">
        <ele>65</ele>
        <time>2022-03-24T08:57:10.000Z</time>
      </trkpt>
      <trkpt lat="47.29951" lon="-2.37903">
        <ele>64.599998474121</ele>
        <time>2022-03-24T08:57:11.000Z</time>
      </trkpt>
      <trkpt lat="47.29957" lon="-2.3791">
        <ele>64</ele>
        <time>2022-03-24T08:57:12.000Z</time>
      </trkpt>
      <trkpt lat="47.29964" lon="-2.37917">
        <ele>63.599998474121</ele>
        <time>2022-03-24T08:57:13.000Z</time>
      </trkpt>
      <trkpt lat="47.29975" lon="-2.37931">
        <ele>63.599998474121</ele>
        <time>2022-03-24T08:57:15.000Z</time>
      </trkpt>
      <trkpt lat="47.29981" lon="-2.37937">
        <ele>63.599998474121</ele>
        <time>2022-03-24T08:57:16.000Z</time>
      </trkpt>
      <trkpt lat="47.29992" lon="-2.37944">
        <ele>63.599998474121</ele>
        <time>2022-03-24T08:57:18.000Z</time>
      </trkpt>
      <trkpt lat="47.29997" lon="-2.37948">
        <ele>63.599998474121</ele>
        <time>2022-03-24T08:57:19.000Z</time>
      </trkpt>
      <trkpt lat="47.3" lon="-2.3796">
        <ele>63.599998474121</ele>
        <time>2022-03-24T08:57:21.000Z</time>
      </trkpt>
      <trkpt lat="47.29994" lon="-2.37977">
        <ele>63.599998474121</ele>
        <time>2022-03-24T08:57:24.000Z</time>
      </trkpt>
      <trkpt lat="47.29988" lon="-2.38004">
        <ele>63.599998474121</ele>
        <time>2022-03-24T08:57:28.000Z</time>
      </trkpt>
      <trkpt lat="47.29988" lon="-2.38012">
        <ele>63.599998474121</ele>
        <time>2022-03-24T08:57:29.000Z</time>
      </trkpt>
      <trkpt lat="47.29988" lon="-2.38062">
        <ele>63.599998474121</ele>
        <time>2022-03-24T08:57:35.000Z</time>
      </trkpt>
      <trkpt lat="47.29988" lon="-2.3812">
        <ele>63.599998474121</ele>
        <time>2022-03-24T08:57:42.000Z</time>
      </trkpt>
      <trkpt lat="47.29988" lon="-2.38128">
        <ele>63.599998474121</ele>
        <time>2022-03-24T08:57:43.000Z</time>
      </trkpt>
      <trkpt lat="47.2999" lon="-2.38172">
        <ele>64</ele>
        <time>2022-03-24T08:57:49.000Z</time>
      </trkpt>
      <trkpt lat="47.29991" lon="-2.38179">
        <ele>64.400001525879</ele>
        <time>2022-03-24T08:57:50.000Z</time>
      </trkpt>
      <trkpt lat="47.29991" lon="-2.38186">
        <ele>64.800003051758</ele>
        <time>2022-03-24T08:57:51.000Z</time>
      </trkpt>
      <trkpt lat="47.29992" lon="-2.38193">
        <ele>65.199996948242</ele>
        <time>2022-03-24T08:57:52.000Z</time>
      </trkpt>
      <trkpt lat="47.29992" lon="-2.382">
        <ele>65.599998474121</ele>
        <time>2022-03-24T08:57:53.000Z</time>
      </trkpt>
      <trkpt lat="47.29994" lon="-2.38241">
        <ele>65.599998474121</ele>
        <time>2022-03-24T08:57:59.000Z</time>
      </trkpt>
      <trkpt lat="47.29994" lon="-2.38261">
        <ele>66</ele>
        <time>2022-03-24T08:58:02.000Z</time>
      </trkpt>
      <trkpt lat="47.29994" lon="-2.38268">
        <ele>66.400001525879</ele>
        <time>2022-03-24T08:58:03.000Z</time>
      </trkpt>
      <trkpt lat="47.29994" lon="-2.38276">
        <ele>66.800003051758</ele>
        <time>2022-03-24T08:58:04.000Z</time>
      </trkpt>
      <trkpt lat="47.29995" lon="-2.38283">
        <ele>67.400001525879</ele>
        <time>2022-03-24T08:58:05.000Z</time>
      </trkpt>
      <trkpt lat="47.29995" lon="-2.3829">
        <ele>67.800003051758</ele>
        <time>2022-03-24T08:58:06.000Z</time>
      </trkpt>
      <trkpt lat="47.29994" lon="-2.38304">
        <ele>67.800003051758</ele>
        <time>2022-03-24T08:58:08.000Z</time>
      </trkpt>
      <trkpt lat="47.29996" lon="-2.38361">
        <ele>67.800003051758</ele>
        <time>2022-03-24T08:58:16.000Z</time>
      </trkpt>
      <trkpt lat="47.3" lon="-2.38419">
        <ele>67.800003051758</ele>
        <time>2022-03-24T08:58:24.000Z</time>
      </trkpt>
      <trkpt lat="47.30001" lon="-2.38426">
        <ele>67.800003051758</ele>
        <time>2022-03-24T08:58:25.000Z</time>
      </trkpt>
      <trkpt lat="47.30007" lon="-2.38472">
        <ele>67.800003051758</ele>
        <time>2022-03-24T08:58:32.000Z</time>
      </trkpt>
      <trkpt lat="47.30017" lon="-2.38533">
        <ele>67.800003051758</ele>
        <time>2022-03-24T08:58:40.000Z</time>
      </trkpt>
      <trkpt lat="47.30024" lon="-2.38587">
        <ele>67.199996948242</ele>
        <time>2022-03-24T08:58:46.000Z</time>
      </trkpt>
      <trkpt lat="47.30025" lon="-2.38595">
        <ele>66.800003051758</ele>
        <time>2022-03-24T08:58:47.000Z</time>
      </trkpt>
      <trkpt lat="47.30025" lon="-2.386">
        <ele>66.199996948242</ele>
        <time>2022-03-24T08:58:48.000Z</time>
      </trkpt>
      <trkpt lat="47.30025" lon="-2.38604">
        <ele>65.800003051758</ele>
        <time>2022-03-24T08:58:49.000Z</time>
      </trkpt>
      <trkpt lat="47.30025" lon="-2.38608">
        <ele>65.199996948242</ele>
        <time>2022-03-24T08:58:50.000Z</time>
      </trkpt>
      <trkpt lat="47.30025" lon="-2.38613">
        <ele>64.800003051758</ele>
        <time>2022-03-24T08:58:51.000Z</time>
      </trkpt>
      <trkpt lat="47.30024" lon="-2.38619">
        <ele>64.199996948242</ele>
        <time>2022-03-24T08:58:52.000Z</time>
      </trkpt>
      <trkpt lat="47.30023" lon="-2.38625">
        <ele>63.799999237061</ele>
        <time>2022-03-24T08:58:53.000Z</time>
      </trkpt>
      <trkpt lat="47.30024" lon="-2.38632">
        <ele>63.200000762939</ele>
        <time>2022-03-24T08:58:54.000Z</time>
      </trkpt>
      <trkpt lat="47.30025" lon="-2.38639">
        <ele>63.200000762939</ele>
        <time>2022-03-24T08:58:55.000Z</time>
      </trkpt>
      <trkpt lat="47.30028" lon="-2.38679">
        <ele>63.200000762939</ele>
        <time>2022-03-24T08:59:00.000Z</time>
      </trkpt>
      <trkpt lat="47.30027" lon="-2.38688">
        <ele>63.200000762939</ele>
        <time>2022-03-24T08:59:01.000Z</time>
      </trkpt>
      <trkpt lat="47.30025" lon="-2.38706">
        <ele>62.799999237061</ele>
        <time>2022-03-24T08:59:03.000Z</time>
      </trkpt>
      <trkpt lat="47.30024" lon="-2.38716">
        <ele>62.400001525879</ele>
        <time>2022-03-24T08:59:04.000Z</time>
      </trkpt>
      <trkpt lat="47.30022" lon="-2.38726">
        <ele>61.799999237061</ele>
        <time>2022-03-24T08:59:05.000Z</time>
      </trkpt>
      <trkpt lat="47.30021" lon="-2.38737">
        <ele>61.400001525879</ele>
        <time>2022-03-24T08:59:06.000Z</time>
      </trkpt>
      <trkpt lat="47.30019" lon="-2.38747">
        <ele>61</ele>
        <time>2022-03-24T08:59:07.000Z</time>
      </trkpt>
      <trkpt lat="47.30015" lon="-2.38781">
        <ele>60</ele>
        <time>2022-03-24T08:59:10.000Z</time>
      </trkpt>
      <trkpt lat="47.30013" lon="-2.38794">
        <ele>59.599998474121</ele>
        <time>2022-03-24T08:59:11.000Z</time>
      </trkpt>
      <trkpt lat="47.30012" lon="-2.38807">
        <ele>59</ele>
        <time>2022-03-24T08:59:12.000Z</time>
      </trkpt>
      <trkpt lat="47.30011" lon="-2.3882">
        <ele>58.599998474121</ele>
        <time>2022-03-24T08:59:13.000Z</time>
      </trkpt>
      <trkpt lat="47.30008" lon="-2.38845">
        <ele>58.200000762939</ele>
        <time>2022-03-24T08:59:15.000Z</time>
      </trkpt>
      <trkpt lat="47.30007" lon="-2.38858">
        <ele>57.799999237061</ele>
        <time>2022-03-24T08:59:16.000Z</time>
      </trkpt>
      <trkpt lat="47.30007" lon="-2.3887">
        <ele>57.200000762939</ele>
        <time>2022-03-24T08:59:17.000Z</time>
      </trkpt>
      <trkpt lat="47.30007" lon="-2.38883">
        <ele>56.799999237061</ele>
        <time>2022-03-24T08:59:18.000Z</time>
      </trkpt>
      <trkpt lat="47.30008" lon="-2.38896">
        <ele>56.400001525879</ele>
        <time>2022-03-24T08:59:19.000Z</time>
      </trkpt>
      <trkpt lat="47.30008" lon="-2.38909">
        <ele>56</ele>
        <time>2022-03-24T08:59:20.000Z</time>
      </trkpt>
      <trkpt lat="47.30008" lon="-2.38921">
        <ele>55.599998474121</ele>
        <time>2022-03-24T08:59:21.000Z</time>
      </trkpt>
      <trkpt lat="47.30007" lon="-2.38932">
        <ele>55</ele>
        <time>2022-03-24T08:59:22.000Z</time>
      </trkpt>
      <trkpt lat="47.30007" lon="-2.38941">
        <ele>54.599998474121</ele>
        <time>2022-03-24T08:59:23.000Z</time>
      </trkpt>
      <trkpt lat="47.30008" lon="-2.38949">
        <ele>54</ele>
        <time>2022-03-24T08:59:24.000Z</time>
      </trkpt>
      <trkpt lat="47.30008" lon="-2.38956">
        <ele>53.400001525879</ele>
        <time>2022-03-24T08:59:25.000Z</time>
      </trkpt>
      <trkpt lat="47.30009" lon="-2.38963">
        <ele>52.799999237061</ele>
        <time>2022-03-24T08:59:26.000Z</time>
      </trkpt>
      <trkpt lat="47.30012" lon="-2.38969">
        <ele>52.200000762939</ele>
        <time>2022-03-24T08:59:27.000Z</time>
      </trkpt>
      <trkpt lat="47.30024" lon="-2.38974">
        <ele>52.200000762939</ele>
        <time>2022-03-24T08:59:30.000Z</time>
      </trkpt>
      <trkpt lat="47.30043" lon="-2.38966">
        <ele>52.200000762939</ele>
        <time>2022-03-24T08:59:34.000Z</time>
      </trkpt>
      <trkpt lat="47.30048" lon="-2.38961">
        <ele>52.200000762939</ele>
        <time>2022-03-24T08:59:35.000Z</time>
      </trkpt>
      <trkpt lat="47.30052" lon="-2.38956">
        <ele>52.200000762939</ele>
        <time>2022-03-24T08:59:36.000Z</time>
      </trkpt>
      <trkpt lat="47.30067" lon="-2.3894">
        <ele>52.200000762939</ele>
        <time>2022-03-24T08:59:40.000Z</time>
      </trkpt>
      <trkpt lat="47.30093" lon="-2.38918">
        <ele>52.200000762939</ele>
        <time>2022-03-24T08:59:47.000Z</time>
      </trkpt>
      <trkpt lat="47.30106" lon="-2.38906">
        <ele>52.599998474121</ele>
        <time>2022-03-24T08:59:51.000Z</time>
      </trkpt>
      <trkpt lat="47.30109" lon="-2.38902">
        <ele>53</ele>
        <time>2022-03-24T08:59:52.000Z</time>
      </trkpt>
      <trkpt lat="47.30113" lon="-2.38898">
        <ele>53.400001525879</ele>
        <time>2022-03-24T08:59:53.000Z</time>
      </trkpt>
      <trkpt lat="47.30115" lon="-2.38894">
        <ele>53.799999237061</ele>
        <time>2022-03-24T08:59:54.000Z</time>
      </trkpt>
      <trkpt lat="47.30118" lon="-2.38889">
        <ele>54.200000762939</ele>
        <time>2022-03-24T08:59:55.000Z</time>
      </trkpt>
      <trkpt lat="47.3012" lon="-2.38884">
        <ele>54.200000762939</ele>
        <time>2022-03-24T08:59:56.000Z</time>
      </trkpt>
      <trkpt lat="47.30125" lon="-2.38874">
        <ele>54.200000762939</ele>
        <time>2022-03-24T08:59:58.000Z</time>
      </trkpt>
      <trkpt lat="47.3013" lon="-2.38865">
        <ele>54.799999237061</ele>
        <time>2022-03-24T09:00:00.000Z</time>
      </trkpt>
      <trkpt lat="47.30133" lon="-2.3886">
        <ele>55.200000762939</ele>
        <time>2022-03-24T09:00:01.000Z</time>
      </trkpt>
      <trkpt lat="47.30136" lon="-2.38856">
        <ele>55.599998474121</ele>
        <time>2022-03-24T09:00:02.000Z</time>
      </trkpt>
      <trkpt lat="47.30138" lon="-2.38852">
        <ele>56</ele>
        <time>2022-03-24T09:00:03.000Z</time>
      </trkpt>
      <trkpt lat="47.30141" lon="-2.38847">
        <ele>56.400001525879</ele>
        <time>2022-03-24T09:00:04.000Z</time>
      </trkpt>
      <trkpt lat="47.30144" lon="-2.38842">
        <ele>56.400001525879</ele>
        <time>2022-03-24T09:00:05.000Z</time>
      </trkpt>
      <trkpt lat="47.30147" lon="-2.38838">
        <ele>56.400001525879</ele>
        <time>2022-03-24T09:00:06.000Z</time>
      </trkpt>
      <trkpt lat="47.30161" lon="-2.38816">
        <ele>56.799999237061</ele>
        <time>2022-03-24T09:00:11.000Z</time>
      </trkpt>
      <trkpt lat="47.30164" lon="-2.38812">
        <ele>57.200000762939</ele>
        <time>2022-03-24T09:00:12.000Z</time>
      </trkpt>
      <trkpt lat="47.30166" lon="-2.38808">
        <ele>57.599998474121</ele>
        <time>2022-03-24T09:00:13.000Z</time>
      </trkpt>
      <trkpt lat="47.30169" lon="-2.38805">
        <ele>58</ele>
        <time>2022-03-24T09:00:14.000Z</time>
      </trkpt>
      <trkpt lat="47.30172" lon="-2.38802">
        <ele>58.599998474121</ele>
        <time>2022-03-24T09:00:15.000Z</time>
      </trkpt>
      <trkpt lat="47.3018" lon="-2.38793">
        <ele>58.599998474121</ele>
        <time>2022-03-24T09:00:18.000Z</time>
      </trkpt>
      <trkpt lat="47.30185" lon="-2.38787">
        <ele>59</ele>
        <time>2022-03-24T09:00:20.000Z</time>
      </trkpt>
      <trkpt lat="47.30188" lon="-2.38784">
        <ele>59.400001525879</ele>
        <time>2022-03-24T09:00:21.000Z</time>
      </trkpt>
      <trkpt lat="47.3019" lon="-2.3878">
        <ele>59.799999237061</ele>
        <time>2022-03-24T09:00:22.000Z</time>
      </trkpt>
      <trkpt lat="47.30193" lon="-2.38777">
        <ele>60.200000762939</ele>
        <time>2022-03-24T09:00:23.000Z</time>
      </trkpt>
      <trkpt lat="47.30196" lon="-2.38774">
        <ele>60.599998474121</ele>
        <time>2022-03-24T09:00:24.000Z</time>
      </trkpt>
      <trkpt lat="47.30199" lon="-2.38772">
        <ele>60.599998474121</ele>
        <time>2022-03-24T09:00:25.000Z</time>
      </trkpt>
      <trkpt lat="47.30205" lon="-2.38769">
        <ele>61</ele>
        <time>2022-03-24T09:00:27.000Z</time>
      </trkpt>
      <trkpt lat="47.30207" lon="-2.38769">
        <ele>61.599998474121</ele>
        <time>2022-03-24T09:00:28.000Z</time>
      </trkpt>
      <trkpt lat="47.3021" lon="-2.3877">
        <ele>62</ele>
        <time>2022-03-24T09:00:29.000Z</time>
      </trkpt>
      <trkpt lat="47.30213" lon="-2.38772">
        <ele>62.400001525879</ele>
        <time>2022-03-24T09:00:30.000Z</time>
      </trkpt>
      <trkpt lat="47.30216" lon="-2.38774">
        <ele>62.799999237061</ele>
        <time>2022-03-24T09:00:31.000Z</time>
      </trkpt>
      <trkpt lat="47.30218" lon="-2.38776">
        <ele>63.200000762939</ele>
        <time>2022-03-24T09:00:32.000Z</time>
      </trkpt>
      <trkpt lat="47.30221" lon="-2.38778">
        <ele>63.599998474121</ele>
        <time>2022-03-24T09:00:33.000Z</time>
      </trkpt>
      <trkpt lat="47.30224" lon="-2.3878">
        <ele>64</ele>
        <time>2022-03-24T09:00:34.000Z</time>
      </trkpt>
      <trkpt lat="47.30226" lon="-2.38782">
        <ele>64.400001525879</ele>
        <time>2022-03-24T09:00:35.000Z</time>
      </trkpt>
      <trkpt lat="47.30229" lon="-2.38784">
        <ele>64.800003051758</ele>
        <time>2022-03-24T09:00:36.000Z</time>
      </trkpt>
      <trkpt lat="47.30231" lon="-2.38786">
        <ele>64.800003051758</ele>
        <time>2022-03-24T09:00:37.000Z</time>
      </trkpt>
      <trkpt lat="47.30235" lon="-2.38789">
        <ele>65.400001525879</ele>
        <time>2022-03-24T09:00:38.000Z</time>
      </trkpt>
      <trkpt lat="47.30238" lon="-2.38793">
        <ele>65.800003051758</ele>
        <time>2022-03-24T09:00:39.000Z</time>
      </trkpt>
      <trkpt lat="47.30241" lon="-2.38796">
        <ele>66.199996948242</ele>
        <time>2022-03-24T09:00:40.000Z</time>
      </trkpt>
      <trkpt lat="47.30244" lon="-2.38799">
        <ele>66.599998474121</ele>
        <time>2022-03-24T09:00:41.000Z</time>
      </trkpt>
      <trkpt lat="47.30246" lon="-2.38802">
        <ele>67.199996948242</ele>
        <time>2022-03-24T09:00:42.000Z</time>
      </trkpt>
      <trkpt lat="47.30255" lon="-2.38818">
        <ele>67.599998474121</ele>
        <time>2022-03-24T09:00:46.000Z</time>
      </trkpt>
      <trkpt lat="47.30257" lon="-2.38822">
        <ele>68</ele>
        <time>2022-03-24T09:00:47.000Z</time>
      </trkpt>
      <trkpt lat="47.3026" lon="-2.38826">
        <ele>68.400001525879</ele>
        <time>2022-03-24T09:00:48.000Z</time>
      </trkpt>
      <trkpt lat="47.30262" lon="-2.38831">
        <ele>69.400001525879</ele>
        <time>2022-03-24T09:00:49.000Z</time>
      </trkpt>
      <trkpt lat="47.30275" lon="-2.38859">
        <ele>69.400001525879</ele>
        <time>2022-03-24T09:00:55.000Z</time>
      </trkpt>
      <trkpt lat="47.30277" lon="-2.38864">
        <ele>69.800003051758</ele>
        <time>2022-03-24T09:00:56.000Z</time>
      </trkpt>
      <trkpt lat="47.30278" lon="-2.38869">
        <ele>70.199996948242</ele>
        <time>2022-03-24T09:00:57.000Z</time>
      </trkpt>
      <trkpt lat="47.3028" lon="-2.38874">
        <ele>70.599998474121</ele>
        <time>2022-03-24T09:00:58.000Z</time>
      </trkpt>
      <trkpt lat="47.30281" lon="-2.38879">
        <ele>71</ele>
        <time>2022-03-24T09:00:59.000Z</time>
      </trkpt>
      <trkpt lat="47.30283" lon="-2.38883">
        <ele>71.400001525879</ele>
        <time>2022-03-24T09:01:00.000Z</time>
      </trkpt>
      <trkpt lat="47.30284" lon="-2.38888">
        <ele>71.400001525879</ele>
        <time>2022-03-24T09:01:01.000Z</time>
      </trkpt>
      <trkpt lat="47.30297" lon="-2.38923">
        <ele>71.400001525879</ele>
        <time>2022-03-24T09:01:08.000Z</time>
      </trkpt>
      <trkpt lat="47.30314" lon="-2.38957">
        <ele>71.400001525879</ele>
        <time>2022-03-24T09:01:15.000Z</time>
      </trkpt>
      <trkpt lat="47.30322" lon="-2.38969">
        <ele>71.800003051758</ele>
        <time>2022-03-24T09:01:18.000Z</time>
      </trkpt>
      <trkpt lat="47.30325" lon="-2.38972">
        <ele>72.199996948242</ele>
        <time>2022-03-24T09:01:19.000Z</time>
      </trkpt>
      <trkpt lat="47.30327" lon="-2.38976">
        <ele>72.599998474121</ele>
        <time>2022-03-24T09:01:20.000Z</time>
      </trkpt>
      <trkpt lat="47.3033" lon="-2.3898">
        <ele>73</ele>
        <time>2022-03-24T09:01:21.000Z</time>
      </trkpt>
      <trkpt lat="47.30332" lon="-2.38984">
        <ele>73.400001525879</ele>
        <time>2022-03-24T09:01:22.000Z</time>
      </trkpt>
      <trkpt lat="47.30344" lon="-2.39015">
        <ele>73.400001525879</ele>
        <time>2022-03-24T09:01:28.000Z</time>
      </trkpt>
      <trkpt lat="47.30348" lon="-2.3903">
        <ele>73.800003051758</ele>
        <time>2022-03-24T09:01:31.000Z</time>
      </trkpt>
      <trkpt lat="47.3035" lon="-2.39035">
        <ele>74.199996948242</ele>
        <time>2022-03-24T09:01:32.000Z</time>
      </trkpt>
      <trkpt lat="47.30352" lon="-2.3904">
        <ele>74.800003051758</ele>
        <time>2022-03-24T09:01:33.000Z</time>
      </trkpt>
      <trkpt lat="47.30353" lon="-2.39046">
        <ele>75.199996948242</ele>
        <time>2022-03-24T09:01:34.000Z</time>
      </trkpt>
      <trkpt lat="47.30354" lon="-2.39051">
        <ele>75.599998474121</ele>
        <time>2022-03-24T09:01:35.000Z</time>
      </trkpt>
      <trkpt lat="47.3036" lon="-2.39089">
        <ele>75.599998474121</ele>
        <time>2022-03-24T09:01:41.000Z</time>
      </trkpt>
      <trkpt lat="47.30373" lon="-2.39133">
        <ele>75.599998474121</ele>
        <time>2022-03-24T09:01:47.000Z</time>
      </trkpt>
      <trkpt lat="47.30379" lon="-2.39147">
        <ele>75.599998474121</ele>
        <time>2022-03-24T09:01:49.000Z</time>
      </trkpt>
      <trkpt lat="47.30393" lon="-2.39164">
        <ele>75.599998474121</ele>
        <time>2022-03-24T09:01:52.000Z</time>
      </trkpt>
      <trkpt lat="47.30415" lon="-2.39169">
        <ele>75.599998474121</ele>
        <time>2022-03-24T09:01:56.000Z</time>
      </trkpt>
      <trkpt lat="47.30437" lon="-2.39161">
        <ele>75.599998474121</ele>
        <time>2022-03-24T09:02:00.000Z</time>
      </trkpt>
      <trkpt lat="47.30445" lon="-2.39154">
        <ele>75.599998474121</ele>
        <time>2022-03-24T09:02:02.000Z</time>
      </trkpt>
      <trkpt lat="47.30461" lon="-2.39137">
        <ele>75.599998474121</ele>
        <time>2022-03-24T09:02:06.000Z</time>
      </trkpt>
      <trkpt lat="47.30485" lon="-2.39108">
        <ele>75.599998474121</ele>
        <time>2022-03-24T09:02:13.000Z</time>
      </trkpt>
      <trkpt lat="47.30496" lon="-2.39098">
        <ele>76</ele>
        <time>2022-03-24T09:02:16.000Z</time>
      </trkpt>
      <trkpt lat="47.305" lon="-2.39094">
        <ele>76.400001525879</ele>
        <time>2022-03-24T09:02:17.000Z</time>
      </trkpt>
      <trkpt lat="47.30503" lon="-2.3909">
        <ele>76.800003051758</ele>
        <time>2022-03-24T09:02:18.000Z</time>
      </trkpt>
      <trkpt lat="47.30507" lon="-2.39085">
        <ele>77.199996948242</ele>
        <time>2022-03-24T09:02:19.000Z</time>
      </trkpt>
      <trkpt lat="47.30511" lon="-2.39081">
        <ele>77.599998474121</ele>
        <time>2022-03-24T09:02:20.000Z</time>
      </trkpt>
      <trkpt lat="47.30514" lon="-2.39077">
        <ele>77.599998474121</ele>
        <time>2022-03-24T09:02:21.000Z</time>
      </trkpt>
      <trkpt lat="47.30535" lon="-2.39057">
        <ele>77.599998474121</ele>
        <time>2022-03-24T09:02:27.000Z</time>
      </trkpt>
      <trkpt lat="47.30551" lon="-2.3904">
        <ele>78</ele>
        <time>2022-03-24T09:02:32.000Z</time>
      </trkpt>
      <trkpt lat="47.30555" lon="-2.39036">
        <ele>78.400001525879</ele>
        <time>2022-03-24T09:02:33.000Z</time>
      </trkpt>
      <trkpt lat="47.30558" lon="-2.39032">
        <ele>78.800003051758</ele>
        <time>2022-03-24T09:02:34.000Z</time>
      </trkpt>
      <trkpt lat="47.30561" lon="-2.39028">
        <ele>79.400001525879</ele>
        <time>2022-03-24T09:02:35.000Z</time>
      </trkpt>
      <trkpt lat="47.30565" lon="-2.39025">
        <ele>79.800003051758</ele>
        <time>2022-03-24T09:02:36.000Z</time>
      </trkpt>
      <trkpt lat="47.30574" lon="-2.39012">
        <ele>79.800003051758</ele>
        <time>2022-03-24T09:02:39.000Z</time>
      </trkpt>
      <trkpt lat="47.30578" lon="-2.39007">
        <ele>79.800003051758</ele>
        <time>2022-03-24T09:02:40.000Z</time>
      </trkpt>
      <trkpt lat="47.30603" lon="-2.38981">
        <ele>79.800003051758</ele>
        <time>2022-03-24T09:02:47.000Z</time>
      </trkpt>
      <trkpt lat="47.30607" lon="-2.38977">
        <ele>80.199996948242</ele>
        <time>2022-03-24T09:02:48.000Z</time>
      </trkpt>
      <trkpt lat="47.30611" lon="-2.38973">
        <ele>80.599998474121</ele>
        <time>2022-03-24T09:02:49.000Z</time>
      </trkpt>
      <trkpt lat="47.30615" lon="-2.3897">
        <ele>81</ele>
        <time>2022-03-24T09:02:50.000Z</time>
      </trkpt>
      <trkpt lat="47.30619" lon="-2.38966">
        <ele>81.400001525879</ele>
        <time>2022-03-24T09:02:51.000Z</time>
      </trkpt>
      <trkpt lat="47.30622" lon="-2.38962">
        <ele>81.800003051758</ele>
        <time>2022-03-24T09:02:52.000Z</time>
      </trkpt>
      <trkpt lat="47.30633" lon="-2.38952">
        <ele>81.800003051758</ele>
        <time>2022-03-24T09:02:55.000Z</time>
      </trkpt>
      <trkpt lat="47.30637" lon="-2.38949">
        <ele>81.800003051758</ele>
        <time>2022-03-24T09:02:56.000Z</time>
      </trkpt>
      <trkpt lat="47.30655" lon="-2.38933">
        <ele>81.800003051758</ele>
        <time>2022-03-24T09:03:01.000Z</time>
      </trkpt>
      <trkpt lat="47.30677" lon="-2.38913">
        <ele>81.800003051758</ele>
        <time>2022-03-24T09:03:08.000Z</time>
      </trkpt>
      <trkpt lat="47.30689" lon="-2.38908">
        <ele>82.199996948242</ele>
        <time>2022-03-24T09:03:12.000Z</time>
      </trkpt>
      <trkpt lat="47.30691" lon="-2.38908">
        <ele>82.599998474121</ele>
        <time>2022-03-24T09:03:13.000Z</time>
      </trkpt>
      <trkpt lat="47.30693" lon="-2.38908">
        <ele>83</ele>
        <time>2022-03-24T09:03:14.000Z</time>
      </trkpt>
      <trkpt lat="47.30695" lon="-2.38909">
        <ele>83.400001525879</ele>
        <time>2022-03-24T09:03:15.000Z</time>
      </trkpt>
      <trkpt lat="47.30697" lon="-2.38911">
        <ele>83.800003051758</ele>
        <time>2022-03-24T09:03:16.000Z</time>
      </trkpt>
      <trkpt lat="47.30699" lon="-2.38913">
        <ele>83.800003051758</ele>
        <time>2022-03-24T09:03:18.000Z</time>
      </trkpt>
      <trkpt lat="47.307" lon="-2.38914">
        <ele>83.800003051758</ele>
        <time>2022-03-24T09:03:30.000Z</time>
      </trkpt>
      <trkpt lat="47.30701" lon="-2.38923">
        <ele>83.800003051758</ele>
        <time>2022-03-24T09:03:33.000Z</time>
      </trkpt>
      <trkpt lat="47.307" lon="-2.38945">
        <ele>83.800003051758</ele>
        <time>2022-03-24T09:03:37.000Z</time>
      </trkpt>
      <trkpt lat="47.30709" lon="-2.38962">
        <ele>83.800003051758</ele>
        <time>2022-03-24T09:03:40.000Z</time>
      </trkpt>
      <trkpt lat="47.30722" lon="-2.38959">
        <ele>83.800003051758</ele>
        <time>2022-03-24T09:03:43.000Z</time>
      </trkpt>
      <trkpt lat="47.30727" lon="-2.38955">
        <ele>83.800003051758</ele>
        <time>2022-03-24T09:03:44.000Z</time>
      </trkpt>
      <trkpt lat="47.30731" lon="-2.38954">
        <ele>83.800003051758</ele>
        <time>2022-03-24T09:03:45.000Z</time>
      </trkpt>
      <trkpt lat="47.30739" lon="-2.38953">
        <ele>83.400001525879</ele>
        <time>2022-03-24T09:03:47.000Z</time>
      </trkpt>
      <trkpt lat="47.30744" lon="-2.38954">
        <ele>83</ele>
        <time>2022-03-24T09:03:48.000Z</time>
      </trkpt>
      <trkpt lat="47.30748" lon="-2.38954">
        <ele>82.599998474121</ele>
        <time>2022-03-24T09:03:49.000Z</time>
      </trkpt>
      <trkpt lat="47.30753" lon="-2.38954">
        <ele>82.199996948242</ele>
        <time>2022-03-24T09:03:50.000Z</time>
      </trkpt>
      <trkpt lat="47.30758" lon="-2.38953">
        <ele>81.800003051758</ele>
        <time>2022-03-24T09:03:51.000Z</time>
      </trkpt>
      <trkpt lat="47.30767" lon="-2.38948">
        <ele>81.800003051758</ele>
        <time>2022-03-24T09:03:53.000Z</time>
      </trkpt>
      <trkpt lat="47.30801" lon="-2.38923">
        <ele>81.800003051758</ele>
        <time>2022-03-24T09:03:59.000Z</time>
      </trkpt>
      <trkpt lat="47.30832" lon="-2.38899">
        <ele>81.800003051758</ele>
        <time>2022-03-24T09:04:05.000Z</time>
      </trkpt>
      <trkpt lat="47.30859" lon="-2.38872">
        <ele>81.800003051758</ele>
        <time>2022-03-24T09:04:12.000Z</time>
      </trkpt>
      <trkpt lat="47.30865" lon="-2.38863">
        <ele>81.800003051758</ele>
        <time>2022-03-24T09:04:14.000Z</time>
      </trkpt>
      <trkpt lat="47.30868" lon="-2.38851">
        <ele>81.800003051758</ele>
        <time>2022-03-24T09:04:16.000Z</time>
      </trkpt>
      <trkpt lat="47.30871" lon="-2.38846">
        <ele>81.800003051758</ele>
        <time>2022-03-24T09:04:17.000Z</time>
      </trkpt>
      <trkpt lat="47.30874" lon="-2.38841">
        <ele>82.199996948242</ele>
        <time>2022-03-24T09:04:18.000Z</time>
      </trkpt>
      <trkpt lat="47.30877" lon="-2.38838">
        <ele>82.599998474121</ele>
        <time>2022-03-24T09:04:19.000Z</time>
      </trkpt>
      <trkpt lat="47.30881" lon="-2.38835">
        <ele>83</ele>
        <time>2022-03-24T09:04:20.000Z</time>
      </trkpt>
      <trkpt lat="47.30886" lon="-2.38833">
        <ele>83.400001525879</ele>
        <time>2022-03-24T09:04:21.000Z</time>
      </trkpt>
      <trkpt lat="47.30891" lon="-2.38835">
        <ele>83.800003051758</ele>
        <time>2022-03-24T09:04:22.000Z</time>
      </trkpt>
      <trkpt lat="47.30895" lon="-2.38837">
        <ele>83.800003051758</ele>
        <time>2022-03-24T09:04:23.000Z</time>
      </trkpt>
      <trkpt lat="47.30903" lon="-2.38855">
        <ele>83.800003051758</ele>
        <time>2022-03-24T09:04:26.000Z</time>
      </trkpt>
      <trkpt lat="47.30906" lon="-2.38869">
        <ele>83.800003051758</ele>
        <time>2022-03-24T09:04:28.000Z</time>
      </trkpt>
      <trkpt lat="47.30909" lon="-2.38875">
        <ele>83.800003051758</ele>
        <time>2022-03-24T09:04:29.000Z</time>
      </trkpt>
      <trkpt lat="47.30917" lon="-2.38885">
        <ele>83.800003051758</ele>
        <time>2022-03-24T09:04:31.000Z</time>
      </trkpt>
      <trkpt lat="47.30924" lon="-2.38894">
        <ele>83.800003051758</ele>
        <time>2022-03-24T09:04:33.000Z</time>
      </trkpt>
      <trkpt lat="47.3093" lon="-2.38911">
        <ele>83.800003051758</ele>
        <time>2022-03-24T09:04:36.000Z</time>
      </trkpt>
      <trkpt lat="47.30929" lon="-2.38932">
        <ele>83.800003051758</ele>
        <time>2022-03-24T09:04:40.000Z</time>
      </trkpt>
      <trkpt lat="47.30922" lon="-2.38948">
        <ele>83.800003051758</ele>
        <time>2022-03-24T09:04:45.000Z</time>
      </trkpt>
      <trkpt lat="47.30919" lon="-2.38954">
        <ele>83.800003051758</ele>
        <time>2022-03-24T09:04:47.000Z</time>
      </trkpt>
      <trkpt lat="47.30911" lon="-2.38969">
        <ele>83.800003051758</ele>
        <time>2022-03-24T09:04:52.000Z</time>
      </trkpt>
      <trkpt lat="47.30905" lon="-2.38985">
        <ele>83.800003051758</ele>
        <time>2022-03-24T09:04:56.000Z</time>
      </trkpt>
      <trkpt lat="47.30903" lon="-2.39004">
        <ele>83.800003051758</ele>
        <time>2022-03-24T09:05:01.000Z</time>
      </trkpt>
      <trkpt lat="47.30902" lon="-2.39032">
        <ele>83.800003051758</ele>
        <time>2022-03-24T09:05:06.000Z</time>
      </trkpt>
      <trkpt lat="47.30902" lon="-2.39087">
        <ele>83.800003051758</ele>
        <time>2022-03-24T09:05:15.000Z</time>
      </trkpt>
      <trkpt lat="47.30917" lon="-2.39131">
        <ele>83.800003051758</ele>
        <time>2022-03-24T09:05:22.000Z</time>
      </trkpt>
      <trkpt lat="47.30939" lon="-2.39187">
        <ele>83.800003051758</ele>
        <time>2022-03-24T09:05:31.000Z</time>
      </trkpt>
      <trkpt lat="47.30962" lon="-2.39235">
        <ele>83.800003051758</ele>
        <time>2022-03-24T09:05:39.000Z</time>
      </trkpt>
      <trkpt lat="47.3097" lon="-2.39255">
        <ele>83.800003051758</ele>
        <time>2022-03-24T09:05:42.000Z</time>
      </trkpt>
      <trkpt lat="47.3098" lon="-2.39284">
        <ele>83.800003051758</ele>
        <time>2022-03-24T09:05:46.000Z</time>
      </trkpt>
      <trkpt lat="47.30998" lon="-2.39339">
        <ele>83.800003051758</ele>
        <time>2022-03-24T09:05:54.000Z</time>
      </trkpt>
      <trkpt lat="47.31018" lon="-2.39396">
        <ele>83.800003051758</ele>
        <time>2022-03-24T09:06:02.000Z</time>
      </trkpt>
      <trkpt lat="47.3104" lon="-2.3946">
        <ele>83.800003051758</ele>
        <time>2022-03-24T09:06:10.000Z</time>
      </trkpt>
      <trkpt lat="47.31058" lon="-2.39516">
        <ele>83.800003051758</ele>
        <time>2022-03-24T09:06:17.000Z</time>
      </trkpt>
      <trkpt lat="47.31078" lon="-2.39571">
        <ele>83.800003051758</ele>
        <time>2022-03-24T09:06:25.000Z</time>
      </trkpt>
      <trkpt lat="47.31095" lon="-2.3962">
        <ele>83.800003051758</ele>
        <time>2022-03-24T09:06:32.000Z</time>
      </trkpt>
      <trkpt lat="47.31122" lon="-2.39697">
        <ele>83.800003051758</ele>
        <time>2022-03-24T09:06:42.000Z</time>
      </trkpt>
      <trkpt lat="47.31141" lon="-2.39752">
        <ele>83.800003051758</ele>
        <time>2022-03-24T09:06:49.000Z</time>
      </trkpt>
      <trkpt lat="47.31166" lon="-2.39818">
        <ele>83.800003051758</ele>
        <time>2022-03-24T09:06:57.000Z</time>
      </trkpt>
      <trkpt lat="47.31181" lon="-2.39863">
        <ele>83.400001525879</ele>
        <time>2022-03-24T09:07:03.000Z</time>
      </trkpt>
      <trkpt lat="47.31183" lon="-2.39871">
        <ele>82.800003051758</ele>
        <time>2022-03-24T09:07:04.000Z</time>
      </trkpt>
      <trkpt lat="47.31184" lon="-2.39876">
        <ele>82.400001525879</ele>
        <time>2022-03-24T09:07:05.000Z</time>
      </trkpt>
      <trkpt lat="47.31187" lon="-2.3988">
        <ele>82</ele>
        <time>2022-03-24T09:07:06.000Z</time>
      </trkpt>
      <trkpt lat="47.31188" lon="-2.39883">
        <ele>81.599998474121</ele>
        <time>2022-03-24T09:07:07.000Z</time>
      </trkpt>
      <trkpt lat="47.3119" lon="-2.39891">
        <ele>81.599998474121</ele>
        <time>2022-03-24T09:07:09.000Z</time>
      </trkpt>
      <trkpt lat="47.31194" lon="-2.39903">
        <ele>81.599998474121</ele>
        <time>2022-03-24T09:07:11.000Z</time>
      </trkpt>
      <trkpt lat="47.31196" lon="-2.39908">
        <ele>81.599998474121</ele>
        <time>2022-03-24T09:07:12.000Z</time>
      </trkpt>
      <trkpt lat="47.31206" lon="-2.39934">
        <ele>81.599998474121</ele>
        <time>2022-03-24T09:07:17.000Z</time>
      </trkpt>
      <trkpt lat="47.3121" lon="-2.39945">
        <ele>81.199996948242</ele>
        <time>2022-03-24T09:07:19.000Z</time>
      </trkpt>
      <trkpt lat="47.31211" lon="-2.39949">
        <ele>80.800003051758</ele>
        <time>2022-03-24T09:07:20.000Z</time>
      </trkpt>
      <trkpt lat="47.31213" lon="-2.39954">
        <ele>80.400001525879</ele>
        <time>2022-03-24T09:07:21.000Z</time>
      </trkpt>
      <trkpt lat="47.31214" lon="-2.39958">
        <ele>80</ele>
        <time>2022-03-24T09:07:22.000Z</time>
      </trkpt>
      <trkpt lat="47.31215" lon="-2.39963">
        <ele>79.599998474121</ele>
        <time>2022-03-24T09:07:23.000Z</time>
      </trkpt>
      <trkpt lat="47.31226" lon="-2.39994">
        <ele>79.199996948242</ele>
        <time>2022-03-24T09:07:29.000Z</time>
      </trkpt>
      <trkpt lat="47.31227" lon="-2.39999">
        <ele>78.800003051758</ele>
        <time>2022-03-24T09:07:30.000Z</time>
      </trkpt>
      <trkpt lat="47.31229" lon="-2.40004">
        <ele>78.400001525879</ele>
        <time>2022-03-24T09:07:31.000Z</time>
      </trkpt>
      <trkpt lat="47.3123" lon="-2.4001">
        <ele>78</ele>
        <time>2022-03-24T09:07:32.000Z</time>
      </trkpt>
      <trkpt lat="47.31231" lon="-2.40015">
        <ele>77.599998474121</ele>
        <time>2022-03-24T09:07:33.000Z</time>
      </trkpt>
      <trkpt lat="47.31233" lon="-2.40021">
        <ele>77.599998474121</ele>
        <time>2022-03-24T09:07:34.000Z</time>
      </trkpt>
      <trkpt lat="47.31236" lon="-2.40039">
        <ele>77</ele>
        <time>2022-03-24T09:07:39.000Z</time>
      </trkpt>
      <trkpt lat="47.31237" lon="-2.40041">
        <ele>76.599998474121</ele>
        <time>2022-03-24T09:07:40.000Z</time>
      </trkpt>
      <trkpt lat="47.31239" lon="-2.40042">
        <ele>76.199996948242</ele>
        <time>2022-03-24T09:07:41.000Z</time>
      </trkpt>
      <trkpt lat="47.31241" lon="-2.40042">
        <ele>75.800003051758</ele>
        <time>2022-03-24T09:07:42.000Z</time>
      </trkpt>
      <trkpt lat="47.31242" lon="-2.40042">
        <ele>75.400001525879</ele>
        <time>2022-03-24T09:07:43.000Z</time>
      </trkpt>
      <trkpt lat="47.31245" lon="-2.40044">
        <ele>75.800003051758</ele>
        <time>2022-03-24T09:07:46.000Z</time>
      </trkpt>
      <trkpt lat="47.31246" lon="-2.40046">
        <ele>76.199996948242</ele>
        <time>2022-03-24T09:07:47.000Z</time>
      </trkpt>
      <trkpt lat="47.31248" lon="-2.40047">
        <ele>77.199996948242</ele>
        <time>2022-03-24T09:07:48.000Z</time>
      </trkpt>
      <trkpt lat="47.3125" lon="-2.40048">
        <ele>77.599998474121</ele>
        <time>2022-03-24T09:07:49.000Z</time>
      </trkpt>
      <trkpt lat="47.31258" lon="-2.40051">
        <ele>77.599998474121</ele>
        <time>2022-03-24T09:07:51.000Z</time>
      </trkpt>
      <trkpt lat="47.31263" lon="-2.40052">
        <ele>77.599998474121</ele>
        <time>2022-03-24T09:07:52.000Z</time>
      </trkpt>
      <trkpt lat="47.31268" lon="-2.40052">
        <ele>77.599998474121</ele>
        <time>2022-03-24T09:07:53.000Z</time>
      </trkpt>
      <trkpt lat="47.31283" lon="-2.40055">
        <ele>77.599998474121</ele>
        <time>2022-03-24T09:07:57.000Z</time>
      </trkpt>
      <trkpt lat="47.31301" lon="-2.40062">
        <ele>77.599998474121</ele>
        <time>2022-03-24T09:08:03.000Z</time>
      </trkpt>
      <trkpt lat="47.31323" lon="-2.4007">
        <ele>77.599998474121</ele>
        <time>2022-03-24T09:08:09.000Z</time>
      </trkpt>
      <trkpt lat="47.31347" lon="-2.40085">
        <ele>77.599998474121</ele>
        <time>2022-03-24T09:08:15.000Z</time>
      </trkpt>
      <trkpt lat="47.31372" lon="-2.40101">
        <ele>77.599998474121</ele>
        <time>2022-03-24T09:08:20.000Z</time>
      </trkpt>
      <trkpt lat="47.31403" lon="-2.40119">
        <ele>77.599998474121</ele>
        <time>2022-03-24T09:08:28.000Z</time>
      </trkpt>
      <trkpt lat="47.31429" lon="-2.40136">
        <ele>77.599998474121</ele>
        <time>2022-03-24T09:08:36.000Z</time>
      </trkpt>
      <trkpt lat="47.31453" lon="-2.40156">
        <ele>77.599998474121</ele>
        <time>2022-03-24T09:08:43.000Z</time>
      </trkpt>
      <trkpt lat="47.31468" lon="-2.40168">
        <ele>78</ele>
        <time>2022-03-24T09:08:48.000Z</time>
      </trkpt>
      <trkpt lat="47.3147" lon="-2.40171">
        <ele>78.400001525879</ele>
        <time>2022-03-24T09:08:49.000Z</time>
      </trkpt>
      <trkpt lat="47.31473" lon="-2.40173">
        <ele>78.800003051758</ele>
        <time>2022-03-24T09:08:50.000Z</time>
      </trkpt>
      <trkpt lat="47.31476" lon="-2.40175">
        <ele>79.199996948242</ele>
        <time>2022-03-24T09:08:51.000Z</time>
      </trkpt>
      <trkpt lat="47.3148" lon="-2.40177">
        <ele>79.599998474121</ele>
        <time>2022-03-24T09:08:52.000Z</time>
      </trkpt>
      <trkpt lat="47.31498" lon="-2.40191">
        <ele>79.599998474121</ele>
        <time>2022-03-24T09:08:57.000Z</time>
      </trkpt>
      <trkpt lat="47.31523" lon="-2.40213">
        <ele>79.599998474121</ele>
        <time>2022-03-24T09:09:04.000Z</time>
      </trkpt>
      <trkpt lat="47.31544" lon="-2.40223">
        <ele>79.599998474121</ele>
        <time>2022-03-24T09:09:10.000Z</time>
      </trkpt>
      <trkpt lat="47.31561" lon="-2.40235">
        <ele>79.599998474121</ele>
        <time>2022-03-24T09:09:15.000Z</time>
      </trkpt>
      <trkpt lat="47.31564" lon="-2.40237">
        <ele>80</ele>
        <time>2022-03-24T09:09:16.000Z</time>
      </trkpt>
      <trkpt lat="47.31568" lon="-2.40241">
        <ele>80.400001525879</ele>
        <time>2022-03-24T09:09:17.000Z</time>
      </trkpt>
      <trkpt lat="47.31573" lon="-2.40243">
        <ele>80.800003051758</ele>
        <time>2022-03-24T09:09:18.000Z</time>
      </trkpt>
      <trkpt lat="47.31578" lon="-2.40248">
        <ele>81.199996948242</ele>
        <time>2022-03-24T09:09:19.000Z</time>
      </trkpt>
      <trkpt lat="47.31584" lon="-2.40252">
        <ele>81.599998474121</ele>
        <time>2022-03-24T09:09:20.000Z</time>
      </trkpt>
      <trkpt lat="47.31615" lon="-2.40277">
        <ele>81.599998474121</ele>
        <time>2022-03-24T09:09:28.000Z</time>
      </trkpt>
      <trkpt lat="47.3164" lon="-2.40297">
        <ele>81.599998474121</ele>
        <time>2022-03-24T09:09:35.000Z</time>
      </trkpt>
      <trkpt lat="47.3166" lon="-2.40314">
        <ele>82</ele>
        <time>2022-03-24T09:09:41.000Z</time>
      </trkpt>
      <trkpt lat="47.31663" lon="-2.40317">
        <ele>82.400001525879</ele>
        <time>2022-03-24T09:09:42.000Z</time>
      </trkpt>
      <trkpt lat="47.31666" lon="-2.40318">
        <ele>82.800003051758</ele>
        <time>2022-03-24T09:09:43.000Z</time>
      </trkpt>
      <trkpt lat="47.31668" lon="-2.4032">
        <ele>83.400001525879</ele>
        <time>2022-03-24T09:09:44.000Z</time>
      </trkpt>
      <trkpt lat="47.3167" lon="-2.40321">
        <ele>83.800003051758</ele>
        <time>2022-03-24T09:09:45.000Z</time>
      </trkpt>
      <trkpt lat="47.31672" lon="-2.40325">
        <ele>83.800003051758</ele>
        <time>2022-03-24T09:09:47.000Z</time>
      </trkpt>
      <trkpt lat="47.31674" lon="-2.40326">
        <ele>83.800003051758</ele>
        <time>2022-03-24T09:09:48.000Z</time>
      </trkpt>
      <trkpt lat="47.31684" lon="-2.40329">
        <ele>83.800003051758</ele>
        <time>2022-03-24T09:09:51.000Z</time>
      </trkpt>
      <trkpt lat="47.31702" lon="-2.40342">
        <ele>83.800003051758</ele>
        <time>2022-03-24T09:09:56.000Z</time>
      </trkpt>
      <trkpt lat="47.31729" lon="-2.40365">
        <ele>83.800003051758</ele>
        <time>2022-03-24T09:10:04.000Z</time>
      </trkpt>
      <trkpt lat="47.31748" lon="-2.40382">
        <ele>84.199996948242</ele>
        <time>2022-03-24T09:10:11.000Z</time>
      </trkpt>
      <trkpt lat="47.31751" lon="-2.40384">
        <ele>84.599998474121</ele>
        <time>2022-03-24T09:10:12.000Z</time>
      </trkpt>
      <trkpt lat="47.31755" lon="-2.40387">
        <ele>85</ele>
        <time>2022-03-24T09:10:13.000Z</time>
      </trkpt>
      <trkpt lat="47.31758" lon="-2.4039">
        <ele>85.400001525879</ele>
        <time>2022-03-24T09:10:14.000Z</time>
      </trkpt>
      <trkpt lat="47.31762" lon="-2.40393">
        <ele>85.800003051758</ele>
        <time>2022-03-24T09:10:15.000Z</time>
      </trkpt>
      <trkpt lat="47.31776" lon="-2.40403">
        <ele>85.800003051758</ele>
        <time>2022-03-24T09:10:20.000Z</time>
      </trkpt>
      <trkpt lat="47.31798" lon="-2.4042">
        <ele>85.800003051758</ele>
        <time>2022-03-24T09:10:28.000Z</time>
      </trkpt>
      <trkpt lat="47.31817" lon="-2.40434">
        <ele>85.800003051758</ele>
        <time>2022-03-24T09:10:34.000Z</time>
      </trkpt>
      <trkpt lat="47.31841" lon="-2.40452">
        <ele>86.599998474121</ele>
        <time>2022-03-24T09:10:41.000Z</time>
      </trkpt>
      <trkpt lat="47.31844" lon="-2.40454">
        <ele>87</ele>
        <time>2022-03-24T09:10:42.000Z</time>
      </trkpt>
      <trkpt lat="47.31847" lon="-2.40456">
        <ele>87.400001525879</ele>
        <time>2022-03-24T09:10:43.000Z</time>
      </trkpt>
      <trkpt lat="47.31849" lon="-2.40457">
        <ele>87.800003051758</ele>
        <time>2022-03-24T09:10:44.000Z</time>
      </trkpt>
      <trkpt lat="47.31864" lon="-2.40468">
        <ele>87.800003051758</ele>
        <time>2022-03-24T09:10:48.000Z</time>
      </trkpt>
      <trkpt lat="47.3189" lon="-2.40487">
        <ele>87.800003051758</ele>
        <time>2022-03-24T09:10:55.000Z</time>
      </trkpt>
      <trkpt lat="47.31915" lon="-2.40507">
        <ele>87.800003051758</ele>
        <time>2022-03-24T09:11:02.000Z</time>
      </trkpt>
      <trkpt lat="47.31935" lon="-2.40521">
        <ele>88.199996948242</ele>
        <time>2022-03-24T09:11:08.000Z</time>
      </trkpt>
      <trkpt lat="47.31938" lon="-2.40522">
        <ele>88.599998474121</ele>
        <time>2022-03-24T09:11:09.000Z</time>
      </trkpt>
      <trkpt lat="47.31941" lon="-2.40524">
        <ele>89</ele>
        <time>2022-03-24T09:11:10.000Z</time>
      </trkpt>
      <trkpt lat="47.31944" lon="-2.40527">
        <ele>89.400001525879</ele>
        <time>2022-03-24T09:11:11.000Z</time>
      </trkpt>
      <trkpt lat="47.31948" lon="-2.40529">
        <ele>89.800003051758</ele>
        <time>2022-03-24T09:11:12.000Z</time>
      </trkpt>
      <trkpt lat="47.31963" lon="-2.4054">
        <ele>89.800003051758</ele>
        <time>2022-03-24T09:11:16.000Z</time>
      </trkpt>
      <trkpt lat="47.31989" lon="-2.40562">
        <ele>89.800003051758</ele>
        <time>2022-03-24T09:11:22.000Z</time>
      </trkpt>
      <trkpt lat="47.32027" lon="-2.40597">
        <ele>89.800003051758</ele>
        <time>2022-03-24T09:11:29.000Z</time>
      </trkpt>
      <trkpt lat="47.32061" lon="-2.40625">
        <ele>89.800003051758</ele>
        <time>2022-03-24T09:11:36.000Z</time>
      </trkpt>
      <trkpt lat="47.32065" lon="-2.40628">
        <ele>90.199996948242</ele>
        <time>2022-03-24T09:11:37.000Z</time>
      </trkpt>
      <trkpt lat="47.32069" lon="-2.40632">
        <ele>90.599998474121</ele>
        <time>2022-03-24T09:11:38.000Z</time>
      </trkpt>
      <trkpt lat="47.32073" lon="-2.40636">
        <ele>91</ele>
        <time>2022-03-24T09:11:39.000Z</time>
      </trkpt>
      <trkpt lat="47.32077" lon="-2.4064">
        <ele>91.400001525879</ele>
        <time>2022-03-24T09:11:40.000Z</time>
      </trkpt>
      <trkpt lat="47.3208" lon="-2.40644">
        <ele>91.800003051758</ele>
        <time>2022-03-24T09:11:41.000Z</time>
      </trkpt>
      <trkpt lat="47.32085" lon="-2.40648">
        <ele>91.800003051758</ele>
        <time>2022-03-24T09:11:42.000Z</time>
      </trkpt>
      <trkpt lat="47.32089" lon="-2.40651">
        <ele>91.800003051758</ele>
        <time>2022-03-24T09:11:43.000Z</time>
      </trkpt>
      <trkpt lat="47.32123" lon="-2.40688">
        <ele>91.800003051758</ele>
        <time>2022-03-24T09:11:52.000Z</time>
      </trkpt>
      <trkpt lat="47.32139" lon="-2.40706">
        <ele>91.800003051758</ele>
        <time>2022-03-24T09:11:57.000Z</time>
      </trkpt>
      <trkpt lat="47.32165" lon="-2.40736">
        <ele>91.800003051758</ele>
        <time>2022-03-24T09:12:04.000Z</time>
      </trkpt>
      <trkpt lat="47.32186" lon="-2.40765">
        <ele>91.800003051758</ele>
        <time>2022-03-24T09:12:11.000Z</time>
      </trkpt>
      <trkpt lat="47.32199" lon="-2.40784">
        <ele>91.800003051758</ele>
        <time>2022-03-24T09:12:17.000Z</time>
      </trkpt>
      <trkpt lat="47.32206" lon="-2.40794">
        <ele>91.800003051758</ele>
        <time>2022-03-24T09:12:22.000Z</time>
      </trkpt>
      <trkpt lat="47.32211" lon="-2.40803">
        <ele>91.800003051758</ele>
        <time>2022-03-24T09:12:28.000Z</time>
      </trkpt>
      <trkpt lat="47.32216" lon="-2.40812">
        <ele>91.800003051758</ele>
        <time>2022-03-24T09:12:32.000Z</time>
      </trkpt>
      <trkpt lat="47.32217" lon="-2.40814">
        <ele>91.800003051758</ele>
        <time>2022-03-24T09:12:33.000Z</time>
      </trkpt>
      <trkpt lat="47.32227" lon="-2.40827">
        <ele>91.800003051758</ele>
        <time>2022-03-24T09:12:38.000Z</time>
      </trkpt>
      <trkpt lat="47.3225" lon="-2.40863">
        <ele>91.800003051758</ele>
        <time>2022-03-24T09:12:45.000Z</time>
      </trkpt>
      <trkpt lat="47.32253" lon="-2.40869">
        <ele>92.199996948242</ele>
        <time>2022-03-24T09:12:46.000Z</time>
      </trkpt>
      <trkpt lat="47.32257" lon="-2.40874">
        <ele>92.599998474121</ele>
        <time>2022-03-24T09:12:47.000Z</time>
      </trkpt>
      <trkpt lat="47.3226" lon="-2.40879">
        <ele>93</ele>
        <time>2022-03-24T09:12:48.000Z</time>
      </trkpt>
      <trkpt lat="47.32263" lon="-2.40884">
        <ele>93.400001525879</ele>
        <time>2022-03-24T09:12:49.000Z</time>
      </trkpt>
      <trkpt lat="47.32265" lon="-2.40889">
        <ele>93.800003051758</ele>
        <time>2022-03-24T09:12:50.000Z</time>
      </trkpt>
      <trkpt lat="47.32279" lon="-2.40916">
        <ele>93.800003051758</ele>
        <time>2022-03-24T09:12:55.000Z</time>
      </trkpt>
      <trkpt lat="47.32304" lon="-2.4096">
        <ele>93.800003051758</ele>
        <time>2022-03-24T09:13:03.000Z</time>
      </trkpt>
      <trkpt lat="47.32327" lon="-2.41003">
        <ele>93.800003051758</ele>
        <time>2022-03-24T09:13:11.000Z</time>
      </trkpt>
      <trkpt lat="47.32335" lon="-2.41019">
        <ele>94.199996948242</ele>
        <time>2022-03-24T09:13:14.000Z</time>
      </trkpt>
      <trkpt lat="47.32338" lon="-2.41024">
        <ele>94.599998474121</ele>
        <time>2022-03-24T09:13:15.000Z</time>
      </trkpt>
      <trkpt lat="47.32341" lon="-2.41029">
        <ele>95.199996948242</ele>
        <time>2022-03-24T09:13:16.000Z</time>
      </trkpt>
      <trkpt lat="47.32343" lon="-2.41035">
        <ele>95.599998474121</ele>
        <time>2022-03-24T09:13:17.000Z</time>
      </trkpt>
      <trkpt lat="47.32346" lon="-2.4104">
        <ele>96</ele>
        <time>2022-03-24T09:13:18.000Z</time>
      </trkpt>
      <trkpt lat="47.32349" lon="-2.41045">
        <ele>96</ele>
        <time>2022-03-24T09:13:19.000Z</time>
      </trkpt>
      <trkpt lat="47.32363" lon="-2.41072">
        <ele>96</ele>
        <time>2022-03-24T09:13:25.000Z</time>
      </trkpt>
      <trkpt lat="47.32373" lon="-2.41094">
        <ele>96</ele>
        <time>2022-03-24T09:13:30.000Z</time>
      </trkpt>
      <trkpt lat="47.32387" lon="-2.41122">
        <ele>96</ele>
        <time>2022-03-24T09:13:36.000Z</time>
      </trkpt>
      <trkpt lat="47.32394" lon="-2.41135">
        <ele>96</ele>
        <time>2022-03-24T09:13:41.000Z</time>
      </trkpt>
      <trkpt lat="47.32403" lon="-2.41147">
        <ele>96</ele>
        <time>2022-03-24T09:13:47.000Z</time>
      </trkpt>
      <trkpt lat="47.32412" lon="-2.41159">
        <ele>96</ele>
        <time>2022-03-24T09:13:54.000Z</time>
      </trkpt>
      <trkpt lat="47.32414" lon="-2.41163">
        <ele>96</ele>
        <time>2022-03-24T09:14:00.000Z</time>
      </trkpt>
      <trkpt lat="47.32417" lon="-2.41172">
        <ele>96</ele>
        <time>2022-03-24T09:14:02.000Z</time>
      </trkpt>
      <trkpt lat="47.32427" lon="-2.41194">
        <ele>96</ele>
        <time>2022-03-24T09:14:07.000Z</time>
      </trkpt>
      <trkpt lat="47.32429" lon="-2.41198">
        <ele>96</ele>
        <time>2022-03-24T09:14:08.000Z</time>
      </trkpt>
      <trkpt lat="47.32441" lon="-2.41223">
        <ele>96</ele>
        <time>2022-03-24T09:14:13.000Z</time>
      </trkpt>
      <trkpt lat="47.32462" lon="-2.41263">
        <ele>96</ele>
        <time>2022-03-24T09:14:20.000Z</time>
      </trkpt>
      <trkpt lat="47.32484" lon="-2.41306">
        <ele>96</ele>
        <time>2022-03-24T09:14:27.000Z</time>
      </trkpt>
      <trkpt lat="47.3251" lon="-2.41355">
        <ele>96</ele>
        <time>2022-03-24T09:14:35.000Z</time>
      </trkpt>
      <trkpt lat="47.32534" lon="-2.41396">
        <ele>96</ele>
        <time>2022-03-24T09:14:42.000Z</time>
      </trkpt>
      <trkpt lat="47.32558" lon="-2.41447">
        <ele>96</ele>
        <time>2022-03-24T09:14:50.000Z</time>
      </trkpt>
      <trkpt lat="47.32568" lon="-2.41464">
        <ele>96</ele>
        <time>2022-03-24T09:14:54.000Z</time>
      </trkpt>
      <trkpt lat="47.32572" lon="-2.41491">
        <ele>96</ele>
        <time>2022-03-24T09:14:59.000Z</time>
      </trkpt>
      <trkpt lat="47.32572" lon="-2.41498">
        <ele>96</ele>
        <time>2022-03-24T09:15:00.000Z</time>
      </trkpt>
      <trkpt lat="47.32573" lon="-2.41504">
        <ele>96</ele>
        <time>2022-03-24T09:15:01.000Z</time>
      </trkpt>
      <trkpt lat="47.32582" lon="-2.41519">
        <ele>96</ele>
        <time>2022-03-24T09:15:04.000Z</time>
      </trkpt>
      <trkpt lat="47.32598" lon="-2.4152">
        <ele>96</ele>
        <time>2022-03-24T09:15:07.000Z</time>
      </trkpt>
      <trkpt lat="47.32638" lon="-2.41528">
        <ele>96</ele>
        <time>2022-03-24T09:15:15.000Z</time>
      </trkpt>
      <trkpt lat="47.32654" lon="-2.41531">
        <ele>95.599998474121</ele>
        <time>2022-03-24T09:15:18.000Z</time>
      </trkpt>
      <trkpt lat="47.32659" lon="-2.41532">
        <ele>95.199996948242</ele>
        <time>2022-03-24T09:15:19.000Z</time>
      </trkpt>
      <trkpt lat="47.32665" lon="-2.41534">
        <ele>94.800003051758</ele>
        <time>2022-03-24T09:15:20.000Z</time>
      </trkpt>
      <trkpt lat="47.3267" lon="-2.41535">
        <ele>94.400001525879</ele>
        <time>2022-03-24T09:15:21.000Z</time>
      </trkpt>
      <trkpt lat="47.32675" lon="-2.41537">
        <ele>94</ele>
        <time>2022-03-24T09:15:22.000Z</time>
      </trkpt>
      <trkpt lat="47.32695" lon="-2.41542">
        <ele>94</ele>
        <time>2022-03-24T09:15:26.000Z</time>
      </trkpt>
      <trkpt lat="47.32698" lon="-2.41543">
        <ele>94</ele>
        <time>2022-03-24T09:15:27.000Z</time>
      </trkpt>
      <trkpt lat="47.32701" lon="-2.41544">
        <ele>93.599998474121</ele>
        <time>2022-03-24T09:15:28.000Z</time>
      </trkpt>
      <trkpt lat="47.32703" lon="-2.41547">
        <ele>93.199996948242</ele>
        <time>2022-03-24T09:15:29.000Z</time>
      </trkpt>
      <trkpt lat="47.32704" lon="-2.4155">
        <ele>92.800003051758</ele>
        <time>2022-03-24T09:15:30.000Z</time>
      </trkpt>
      <trkpt lat="47.32704" lon="-2.41553">
        <ele>92.400001525879</ele>
        <time>2022-03-24T09:15:31.000Z</time>
      </trkpt>
      <trkpt lat="47.32704" lon="-2.41557">
        <ele>92</ele>
        <time>2022-03-24T09:15:32.000Z</time>
      </trkpt>
      <trkpt lat="47.32703" lon="-2.41568">
        <ele>92</ele>
        <time>2022-03-24T09:15:35.000Z</time>
      </trkpt>
      <trkpt lat="47.32702" lon="-2.4157">
        <ele>92</ele>
        <time>2022-03-24T09:15:36.000Z</time>
      </trkpt>
      <trkpt lat="47.32701" lon="-2.41578">
        <ele>92</ele>
        <time>2022-03-24T09:15:39.000Z</time>
      </trkpt>
      <trkpt lat="47.32705" lon="-2.4158">
        <ele>92</ele>
        <time>2022-03-24T09:15:41.000Z</time>
      </trkpt>
      <trkpt lat="47.32705" lon="-2.41594">
        <ele>92</ele>
        <time>2022-03-24T09:15:44.000Z</time>
      </trkpt>
      <trkpt lat="47.32712" lon="-2.41613">
        <ele>92</ele>
        <time>2022-03-24T09:15:48.000Z</time>
      </trkpt>
      <trkpt lat="47.32717" lon="-2.41625">
        <ele>92</ele>
        <time>2022-03-24T09:15:51.000Z</time>
      </trkpt>
      <trkpt lat="47.32715" lon="-2.41628">
        <ele>92</ele>
        <time>2022-03-24T09:15:52.000Z</time>
      </trkpt>
      <trkpt lat="47.32703" lon="-2.41627">
        <ele>92</ele>
        <time>2022-03-24T09:15:56.000Z</time>
      </trkpt>
      <trkpt lat="47.32682" lon="-2.41625">
        <ele>92</ele>
        <time>2022-03-24T09:16:01.000Z</time>
      </trkpt>
      <trkpt lat="47.32649" lon="-2.41613">
        <ele>92</ele>
        <time>2022-03-24T09:16:08.000Z</time>
      </trkpt>
      <trkpt lat="47.32644" lon="-2.41612">
        <ele>92.400001525879</ele>
        <time>2022-03-24T09:16:09.000Z</time>
      </trkpt>
      <trkpt lat="47.3264" lon="-2.41612">
        <ele>92.800003051758</ele>
        <time>2022-03-24T09:16:10.000Z</time>
      </trkpt>
      <trkpt lat="47.32635" lon="-2.41611">
        <ele>93.199996948242</ele>
        <time>2022-03-24T09:16:11.000Z</time>
      </trkpt>
      <trkpt lat="47.32631" lon="-2.41609">
        <ele>93.599998474121</ele>
        <time>2022-03-24T09:16:12.000Z</time>
      </trkpt>
      <trkpt lat="47.32627" lon="-2.41607">
        <ele>94</ele>
        <time>2022-03-24T09:16:13.000Z</time>
      </trkpt>
      <trkpt lat="47.32612" lon="-2.41602">
        <ele>94</ele>
        <time>2022-03-24T09:16:17.000Z</time>
      </trkpt>
      <trkpt lat="47.32607" lon="-2.41602">
        <ele>94</ele>
        <time>2022-03-24T09:16:18.000Z</time>
      </trkpt>
      <trkpt lat="47.32603" lon="-2.41603">
        <ele>94</ele>
        <time>2022-03-24T09:16:19.000Z</time>
      </trkpt>
      <trkpt lat="47.32589" lon="-2.41606">
        <ele>94</ele>
        <time>2022-03-24T09:16:22.000Z</time>
      </trkpt>
      <trkpt lat="47.32584" lon="-2.41605">
        <ele>94.400001525879</ele>
        <time>2022-03-24T09:16:23.000Z</time>
      </trkpt>
      <trkpt lat="47.3258" lon="-2.41601">
        <ele>94.800003051758</ele>
        <time>2022-03-24T09:16:24.000Z</time>
      </trkpt>
      <trkpt lat="47.32576" lon="-2.41597">
        <ele>95.199996948242</ele>
        <time>2022-03-24T09:16:25.000Z</time>
      </trkpt>
      <trkpt lat="47.32571" lon="-2.41593">
        <ele>95.599998474121</ele>
        <time>2022-03-24T09:16:26.000Z</time>
      </trkpt>
      <trkpt lat="47.32567" lon="-2.41589">
        <ele>96</ele>
        <time>2022-03-24T09:16:27.000Z</time>
      </trkpt>
      <trkpt lat="47.3255" lon="-2.41576">
        <ele>96</ele>
        <time>2022-03-24T09:16:31.000Z</time>
      </trkpt>
      <trkpt lat="47.32541" lon="-2.41577">
        <ele>96</ele>
        <time>2022-03-24T09:16:33.000Z</time>
      </trkpt>
      <trkpt lat="47.32527" lon="-2.41581">
        <ele>96</ele>
        <time>2022-03-24T09:16:36.000Z</time>
      </trkpt>
      <trkpt lat="47.32513" lon="-2.41587">
        <ele>96</ele>
        <time>2022-03-24T09:16:39.000Z</time>
      </trkpt>
      <trkpt lat="47.32502" lon="-2.41588">
        <ele>96</ele>
        <time>2022-03-24T09:16:41.000Z</time>
      </trkpt>
      <trkpt lat="47.32485" lon="-2.41584">
        <ele>96</ele>
        <time>2022-03-24T09:16:44.000Z</time>
      </trkpt>
      <trkpt lat="47.32453" lon="-2.41569">
        <ele>96</ele>
        <time>2022-03-24T09:16:50.000Z</time>
      </trkpt>
      <trkpt lat="47.32427" lon="-2.41565">
        <ele>96</ele>
        <time>2022-03-24T09:16:55.000Z</time>
      </trkpt>
      <trkpt lat="47.324" lon="-2.41563">
        <ele>96</ele>
        <time>2022-03-24T09:17:00.000Z</time>
      </trkpt>
      <trkpt lat="47.32389" lon="-2.41557">
        <ele>96</ele>
        <time>2022-03-24T09:17:02.000Z</time>
      </trkpt>
      <trkpt lat="47.32378" lon="-2.4155">
        <ele>96</ele>
        <time>2022-03-24T09:17:04.000Z</time>
      </trkpt>
      <trkpt lat="47.32367" lon="-2.41545">
        <ele>96</ele>
        <time>2022-03-24T09:17:06.000Z</time>
      </trkpt>
      <trkpt lat="47.32361" lon="-2.41544">
        <ele>96</ele>
        <time>2022-03-24T09:17:07.000Z</time>
      </trkpt>
      <trkpt lat="47.3234" lon="-2.4155">
        <ele>96</ele>
        <time>2022-03-24T09:17:11.000Z</time>
      </trkpt>
      <trkpt lat="47.32323" lon="-2.41568">
        <ele>96</ele>
        <time>2022-03-24T09:17:15.000Z</time>
      </trkpt>
      <trkpt lat="47.32315" lon="-2.41594">
        <ele>96</ele>
        <time>2022-03-24T09:17:19.000Z</time>
      </trkpt>
      <trkpt lat="47.32314" lon="-2.41599">
        <ele>96</ele>
        <time>2022-03-24T09:17:20.000Z</time>
      </trkpt>
      <trkpt lat="47.32312" lon="-2.41611">
        <ele>96</ele>
        <time>2022-03-24T09:17:23.000Z</time>
      </trkpt>
      <trkpt lat="47.32303" lon="-2.41632">
        <ele>96</ele>
        <time>2022-03-24T09:17:28.000Z</time>
      </trkpt>
      <trkpt lat="47.32298" lon="-2.4166">
        <ele>96</ele>
        <time>2022-03-24T09:17:33.000Z</time>
      </trkpt>
      <trkpt lat="47.32299" lon="-2.41699">
        <ele>96</ele>
        <time>2022-03-24T09:17:38.000Z</time>
      </trkpt>
      <trkpt lat="47.32297" lon="-2.41718">
        <ele>96</ele>
        <time>2022-03-24T09:17:40.000Z</time>
      </trkpt>
      <trkpt lat="47.32291" lon="-2.41734">
        <ele>96</ele>
        <time>2022-03-24T09:17:42.000Z</time>
      </trkpt>
      <trkpt lat="47.32281" lon="-2.41756">
        <ele>95.599998474121</ele>
        <time>2022-03-24T09:17:45.000Z</time>
      </trkpt>
      <trkpt lat="47.32281" lon="-2.41764">
        <ele>95.199996948242</ele>
        <time>2022-03-24T09:17:46.000Z</time>
      </trkpt>
      <trkpt lat="47.32283" lon="-2.41772">
        <ele>94.800003051758</ele>
        <time>2022-03-24T09:17:47.000Z</time>
      </trkpt>
      <trkpt lat="47.32287" lon="-2.41779">
        <ele>94.400001525879</ele>
        <time>2022-03-24T09:17:48.000Z</time>
      </trkpt>
      <trkpt lat="47.3229" lon="-2.41785">
        <ele>94</ele>
        <time>2022-03-24T09:17:49.000Z</time>
      </trkpt>
      <trkpt lat="47.32299" lon="-2.41808">
        <ele>94</ele>
        <time>2022-03-24T09:17:53.000Z</time>
      </trkpt>
      <trkpt lat="47.32299" lon="-2.41817">
        <ele>94</ele>
        <time>2022-03-24T09:17:55.000Z</time>
      </trkpt>
      <trkpt lat="47.32296" lon="-2.41821">
        <ele>94</ele>
        <time>2022-03-24T09:17:56.000Z</time>
      </trkpt>
      <trkpt lat="47.32293" lon="-2.41825">
        <ele>93.599998474121</ele>
        <time>2022-03-24T09:17:57.000Z</time>
      </trkpt>
      <trkpt lat="47.3229" lon="-2.41829">
        <ele>93.199996948242</ele>
        <time>2022-03-24T09:17:58.000Z</time>
      </trkpt>
      <trkpt lat="47.32287" lon="-2.41833">
        <ele>92.800003051758</ele>
        <time>2022-03-24T09:17:59.000Z</time>
      </trkpt>
      <trkpt lat="47.32283" lon="-2.41837">
        <ele>92.400001525879</ele>
        <time>2022-03-24T09:18:00.000Z</time>
      </trkpt>
      <trkpt lat="47.3228" lon="-2.41842">
        <ele>92</ele>
        <time>2022-03-24T09:18:01.000Z</time>
      </trkpt>
      <trkpt lat="47.32277" lon="-2.41846">
        <ele>92</ele>
        <time>2022-03-24T09:18:02.000Z</time>
      </trkpt>
      <trkpt lat="47.32259" lon="-2.41865">
        <ele>92</ele>
        <time>2022-03-24T09:18:07.000Z</time>
      </trkpt>
      <trkpt lat="47.32252" lon="-2.41877">
        <ele>92</ele>
        <time>2022-03-24T09:18:11.000Z</time>
      </trkpt>
      <trkpt lat="47.32252" lon="-2.4188">
        <ele>92</ele>
        <time>2022-03-24T09:18:12.000Z</time>
      </trkpt>
      <trkpt lat="47.32257" lon="-2.41887">
        <ele>92</ele>
        <time>2022-03-24T09:18:14.000Z</time>
      </trkpt>
      <trkpt lat="47.32274" lon="-2.41912">
        <ele>92</ele>
        <time>2022-03-24T09:18:19.000Z</time>
      </trkpt>
      <trkpt lat="47.32291" lon="-2.4194">
        <ele>92</ele>
        <time>2022-03-24T09:18:25.000Z</time>
      </trkpt>
      <trkpt lat="47.32296" lon="-2.41959">
        <ele>92</ele>
        <time>2022-03-24T09:18:29.000Z</time>
      </trkpt>
      <trkpt lat="47.32309" lon="-2.41971">
        <ele>92</ele>
        <time>2022-03-24T09:18:33.000Z</time>
      </trkpt>
      <trkpt lat="47.32321" lon="-2.41987">
        <ele>92.400001525879</ele>
        <time>2022-03-24T09:18:37.000Z</time>
      </trkpt>
      <trkpt lat="47.32324" lon="-2.41992">
        <ele>92.800003051758</ele>
        <time>2022-03-24T09:18:38.000Z</time>
      </trkpt>
      <trkpt lat="47.32327" lon="-2.41995">
        <ele>93.199996948242</ele>
        <time>2022-03-24T09:18:39.000Z</time>
      </trkpt>
      <trkpt lat="47.3233" lon="-2.41999">
        <ele>93.599998474121</ele>
        <time>2022-03-24T09:18:40.000Z</time>
      </trkpt>
      <trkpt lat="47.32333" lon="-2.42002">
        <ele>94</ele>
        <time>2022-03-24T09:18:41.000Z</time>
      </trkpt>
      <trkpt lat="47.3234" lon="-2.42009">
        <ele>94</ele>
        <time>2022-03-24T09:18:43.000Z</time>
      </trkpt>
      <trkpt lat="47.3236" lon="-2.42028">
        <ele>94</ele>
        <time>2022-03-24T09:18:49.000Z</time>
      </trkpt>
      <trkpt lat="47.32379" lon="-2.4205">
        <ele>94</ele>
        <time>2022-03-24T09:18:56.000Z</time>
      </trkpt>
      <trkpt lat="47.32393" lon="-2.42054">
        <ele>94.400001525879</ele>
        <time>2022-03-24T09:19:00.000Z</time>
      </trkpt>
      <trkpt lat="47.32397" lon="-2.42056">
        <ele>94.800003051758</ele>
        <time>2022-03-24T09:19:01.000Z</time>
      </trkpt>
      <trkpt lat="47.324" lon="-2.42061">
        <ele>95.199996948242</ele>
        <time>2022-03-24T09:19:02.000Z</time>
      </trkpt>
      <trkpt lat="47.32403" lon="-2.42065">
        <ele>95.599998474121</ele>
        <time>2022-03-24T09:19:03.000Z</time>
      </trkpt>
      <trkpt lat="47.32407" lon="-2.42069">
        <ele>96</ele>
        <time>2022-03-24T09:19:04.000Z</time>
      </trkpt>
      <trkpt lat="47.32428" lon="-2.42094">
        <ele>96</ele>
        <time>2022-03-24T09:19:10.000Z</time>
      </trkpt>
      <trkpt lat="47.32439" lon="-2.42112">
        <ele>96.400001525879</ele>
        <time>2022-03-24T09:19:14.000Z</time>
      </trkpt>
      <trkpt lat="47.3244" lon="-2.42117">
        <ele>96.800003051758</ele>
        <time>2022-03-24T09:19:15.000Z</time>
      </trkpt>
      <trkpt lat="47.32438" lon="-2.42123">
        <ele>97.199996948242</ele>
        <time>2022-03-24T09:19:16.000Z</time>
      </trkpt>
      <trkpt lat="47.32437" lon="-2.42129">
        <ele>97.599998474121</ele>
        <time>2022-03-24T09:19:17.000Z</time>
      </trkpt>
      <trkpt lat="47.32435" lon="-2.42135">
        <ele>98.199996948242</ele>
        <time>2022-03-24T09:19:18.000Z</time>
      </trkpt>
      <trkpt lat="47.32429" lon="-2.42146">
        <ele>98.199996948242</ele>
        <time>2022-03-24T09:19:20.000Z</time>
      </trkpt>
      <trkpt lat="47.32415" lon="-2.42166">
        <ele>98.199996948242</ele>
        <time>2022-03-24T09:19:24.000Z</time>
      </trkpt>
      <trkpt lat="47.32386" lon="-2.42195">
        <ele>98.199996948242</ele>
        <time>2022-03-24T09:19:30.000Z</time>
      </trkpt>
      <trkpt lat="47.32382" lon="-2.42201">
        <ele>98.199996948242</ele>
        <time>2022-03-24T09:19:31.000Z</time>
      </trkpt>
      <trkpt lat="47.32348" lon="-2.42243">
        <ele>98.199996948242</ele>
        <time>2022-03-24T09:19:39.000Z</time>
      </trkpt>
      <trkpt lat="47.3234" lon="-2.42254">
        <ele>98.199996948242</ele>
        <time>2022-03-24T09:19:41.000Z</time>
      </trkpt>
      <trkpt lat="47.32327" lon="-2.42279">
        <ele>98.199996948242</ele>
        <time>2022-03-24T09:19:45.000Z</time>
      </trkpt>
      <trkpt lat="47.32323" lon="-2.42284">
        <ele>98.199996948242</ele>
        <time>2022-03-24T09:19:46.000Z</time>
      </trkpt>
      <trkpt lat="47.32318" lon="-2.42309">
        <ele>98.199996948242</ele>
        <time>2022-03-24T09:19:49.000Z</time>
      </trkpt>
      <trkpt lat="47.32318" lon="-2.42326">
        <ele>97.599998474121</ele>
        <time>2022-03-24T09:19:51.000Z</time>
      </trkpt>
      <trkpt lat="47.32318" lon="-2.42334">
        <ele>97.199996948242</ele>
        <time>2022-03-24T09:19:52.000Z</time>
      </trkpt>
      <trkpt lat="47.32319" lon="-2.42343">
        <ele>96.800003051758</ele>
        <time>2022-03-24T09:19:53.000Z</time>
      </trkpt>
      <trkpt lat="47.3232" lon="-2.42352">
        <ele>96.400001525879</ele>
        <time>2022-03-24T09:19:54.000Z</time>
      </trkpt>
      <trkpt lat="47.32321" lon="-2.42361">
        <ele>96</ele>
        <time>2022-03-24T09:19:55.000Z</time>
      </trkpt>
      <trkpt lat="47.32324" lon="-2.42403">
        <ele>96</ele>
        <time>2022-03-24T09:20:00.000Z</time>
      </trkpt>
      <trkpt lat="47.32322" lon="-2.42412">
        <ele>96</ele>
        <time>2022-03-24T09:20:01.000Z</time>
      </trkpt>
      <trkpt lat="47.3231" lon="-2.42437">
        <ele>96</ele>
        <time>2022-03-24T09:20:05.000Z</time>
      </trkpt>
      <trkpt lat="47.32293" lon="-2.42481">
        <ele>95.599998474121</ele>
        <time>2022-03-24T09:20:11.000Z</time>
      </trkpt>
      <trkpt lat="47.32289" lon="-2.42488">
        <ele>95.199996948242</ele>
        <time>2022-03-24T09:20:12.000Z</time>
      </trkpt>
      <trkpt lat="47.32285" lon="-2.42496">
        <ele>94.800003051758</ele>
        <time>2022-03-24T09:20:13.000Z</time>
      </trkpt>
      <trkpt lat="47.32281" lon="-2.42504">
        <ele>94.400001525879</ele>
        <time>2022-03-24T09:20:14.000Z</time>
      </trkpt>
      <trkpt lat="47.32278" lon="-2.42512">
        <ele>94</ele>
        <time>2022-03-24T09:20:15.000Z</time>
      </trkpt>
      <trkpt lat="47.32274" lon="-2.42521">
        <ele>94</ele>
        <time>2022-03-24T09:20:16.000Z</time>
      </trkpt>
      <trkpt lat="47.32265" lon="-2.42541">
        <ele>93.599998474121</ele>
        <time>2022-03-24T09:20:18.000Z</time>
      </trkpt>
      <trkpt lat="47.3226" lon="-2.42552">
        <ele>93.199996948242</ele>
        <time>2022-03-24T09:20:19.000Z</time>
      </trkpt>
      <trkpt lat="47.32255" lon="-2.42563">
        <ele>92.800003051758</ele>
        <time>2022-03-24T09:20:20.000Z</time>
      </trkpt>
      <trkpt lat="47.3225" lon="-2.42573">
        <ele>92.400001525879</ele>
        <time>2022-03-24T09:20:21.000Z</time>
      </trkpt>
      <trkpt lat="47.32244" lon="-2.42583">
        <ele>92</ele>
        <time>2022-03-24T09:20:22.000Z</time>
      </trkpt>
      <trkpt lat="47.32238" lon="-2.42593">
        <ele>91.400001525879</ele>
        <time>2022-03-24T09:20:23.000Z</time>
      </trkpt>
      <trkpt lat="47.32232" lon="-2.42603">
        <ele>91</ele>
        <time>2022-03-24T09:20:24.000Z</time>
      </trkpt>
      <trkpt lat="47.32225" lon="-2.42613">
        <ele>90.400001525879</ele>
        <time>2022-03-24T09:20:25.000Z</time>
      </trkpt>
      <trkpt lat="47.32218" lon="-2.42623">
        <ele>90</ele>
        <time>2022-03-24T09:20:26.000Z</time>
      </trkpt>
      <trkpt lat="47.32211" lon="-2.42632">
        <ele>89.400001525879</ele>
        <time>2022-03-24T09:20:27.000Z</time>
      </trkpt>
      <trkpt lat="47.32203" lon="-2.42642">
        <ele>89</ele>
        <time>2022-03-24T09:20:28.000Z</time>
      </trkpt>
      <trkpt lat="47.32196" lon="-2.42651">
        <ele>88.400001525879</ele>
        <time>2022-03-24T09:20:29.000Z</time>
      </trkpt>
      <trkpt lat="47.32189" lon="-2.4266">
        <ele>88</ele>
        <time>2022-03-24T09:20:30.000Z</time>
      </trkpt>
      <trkpt lat="47.32182" lon="-2.42669">
        <ele>87.599998474121</ele>
        <time>2022-03-24T09:20:31.000Z</time>
      </trkpt>
      <trkpt lat="47.32175" lon="-2.42679">
        <ele>87.199996948242</ele>
        <time>2022-03-24T09:20:32.000Z</time>
      </trkpt>
      <trkpt lat="47.32167" lon="-2.4269">
        <ele>86.599998474121</ele>
        <time>2022-03-24T09:20:33.000Z</time>
      </trkpt>
      <trkpt lat="47.3216" lon="-2.42701">
        <ele>85.800003051758</ele>
        <time>2022-03-24T09:20:34.000Z</time>
      </trkpt>
      <trkpt lat="47.32153" lon="-2.42711">
        <ele>85.400001525879</ele>
        <time>2022-03-24T09:20:35.000Z</time>
      </trkpt>
      <trkpt lat="47.32145" lon="-2.4272">
        <ele>84.800003051758</ele>
        <time>2022-03-24T09:20:36.000Z</time>
      </trkpt>
      <trkpt lat="47.32138" lon="-2.42729">
        <ele>84.400001525879</ele>
        <time>2022-03-24T09:20:37.000Z</time>
      </trkpt>
      <trkpt lat="47.32132" lon="-2.42739">
        <ele>83.800003051758</ele>
        <time>2022-03-24T09:20:38.000Z</time>
      </trkpt>
      <trkpt lat="47.32124" lon="-2.42747">
        <ele>83.400001525879</ele>
        <time>2022-03-24T09:20:39.000Z</time>
      </trkpt>
      <trkpt lat="47.32117" lon="-2.42755">
        <ele>82.800003051758</ele>
        <time>2022-03-24T09:20:40.000Z</time>
      </trkpt>
      <trkpt lat="47.32109" lon="-2.42762">
        <ele>82.199996948242</ele>
        <time>2022-03-24T09:20:41.000Z</time>
      </trkpt>
      <trkpt lat="47.32101" lon="-2.42768">
        <ele>81.800003051758</ele>
        <time>2022-03-24T09:20:42.000Z</time>
      </trkpt>
      <trkpt lat="47.32092" lon="-2.42773">
        <ele>81.199996948242</ele>
        <time>2022-03-24T09:20:43.000Z</time>
      </trkpt>
      <trkpt lat="47.32084" lon="-2.42777">
        <ele>80.800003051758</ele>
        <time>2022-03-24T09:20:44.000Z</time>
      </trkpt>
      <trkpt lat="47.32062" lon="-2.42788">
        <ele>80.800003051758</ele>
        <time>2022-03-24T09:20:47.000Z</time>
      </trkpt>
      <trkpt lat="47.32055" lon="-2.42791">
        <ele>80.199996948242</ele>
        <time>2022-03-24T09:20:48.000Z</time>
      </trkpt>
      <trkpt lat="47.32049" lon="-2.42794">
        <ele>79.800003051758</ele>
        <time>2022-03-24T09:20:49.000Z</time>
      </trkpt>
      <trkpt lat="47.32043" lon="-2.42798">
        <ele>79.199996948242</ele>
        <time>2022-03-24T09:20:50.000Z</time>
      </trkpt>
      <trkpt lat="47.32037" lon="-2.42802">
        <ele>78.800003051758</ele>
        <time>2022-03-24T09:20:51.000Z</time>
      </trkpt>
      <trkpt lat="47.32033" lon="-2.42807">
        <ele>78.400001525879</ele>
        <time>2022-03-24T09:20:52.000Z</time>
      </trkpt>
      <trkpt lat="47.32025" lon="-2.42822">
        <ele>78.400001525879</ele>
        <time>2022-03-24T09:20:55.000Z</time>
      </trkpt>
      <trkpt lat="47.32024" lon="-2.42826">
        <ele>78</ele>
        <time>2022-03-24T09:20:56.000Z</time>
      </trkpt>
      <trkpt lat="47.32023" lon="-2.4283">
        <ele>77.599998474121</ele>
        <time>2022-03-24T09:20:57.000Z</time>
      </trkpt>
      <trkpt lat="47.3202" lon="-2.42835">
        <ele>77.199996948242</ele>
        <time>2022-03-24T09:20:58.000Z</time>
      </trkpt>
      <trkpt lat="47.32017" lon="-2.4284">
        <ele>76.400001525879</ele>
        <time>2022-03-24T09:20:59.000Z</time>
      </trkpt>
      <trkpt lat="47.32011" lon="-2.42852">
        <ele>76.400001525879</ele>
        <time>2022-03-24T09:21:01.000Z</time>
      </trkpt>
      <trkpt lat="47.32005" lon="-2.42867">
        <ele>76.400001525879</ele>
        <time>2022-03-24T09:21:03.000Z</time>
      </trkpt>
      <trkpt lat="47.31999" lon="-2.429">
        <ele>76.400001525879</ele>
        <time>2022-03-24T09:21:07.000Z</time>
      </trkpt>
      <trkpt lat="47.31999" lon="-2.42908">
        <ele>76.400001525879</ele>
        <time>2022-03-24T09:21:08.000Z</time>
      </trkpt>
      <trkpt lat="47.31995" lon="-2.42963">
        <ele>76.400001525879</ele>
        <time>2022-03-24T09:21:15.000Z</time>
      </trkpt>
      <trkpt lat="47.31998" lon="-2.43022">
        <ele>76.400001525879</ele>
        <time>2022-03-24T09:21:21.000Z</time>
      </trkpt>
      <trkpt lat="47.32012" lon="-2.43088">
        <ele>76.400001525879</ele>
        <time>2022-03-24T09:21:27.000Z</time>
      </trkpt>
      <trkpt lat="47.32014" lon="-2.431">
        <ele>75.800003051758</ele>
        <time>2022-03-24T09:21:28.000Z</time>
      </trkpt>
      <trkpt lat="47.32016" lon="-2.43111">
        <ele>75.400001525879</ele>
        <time>2022-03-24T09:21:29.000Z</time>
      </trkpt>
      <trkpt lat="47.32019" lon="-2.43123">
        <ele>75</ele>
        <time>2022-03-24T09:21:30.000Z</time>
      </trkpt>
      <trkpt lat="47.32021" lon="-2.43134">
        <ele>74.599998474121</ele>
        <time>2022-03-24T09:21:31.000Z</time>
      </trkpt>
      <trkpt lat="47.32024" lon="-2.43145">
        <ele>74</ele>
        <time>2022-03-24T09:21:32.000Z</time>
      </trkpt>
      <trkpt lat="47.32026" lon="-2.43157">
        <ele>74</ele>
        <time>2022-03-24T09:21:33.000Z</time>
      </trkpt>
      <trkpt lat="47.32034" lon="-2.4319">
        <ele>73.599998474121</ele>
        <time>2022-03-24T09:21:36.000Z</time>
      </trkpt>
      <trkpt lat="47.32036" lon="-2.432">
        <ele>73.199996948242</ele>
        <time>2022-03-24T09:21:37.000Z</time>
      </trkpt>
      <trkpt lat="47.32038" lon="-2.43208">
        <ele>72.800003051758</ele>
        <time>2022-03-24T09:21:38.000Z</time>
      </trkpt>
      <trkpt lat="47.32041" lon="-2.43215">
        <ele>72.400001525879</ele>
        <time>2022-03-24T09:21:39.000Z</time>
      </trkpt>
      <trkpt lat="47.32043" lon="-2.43222">
        <ele>72</ele>
        <time>2022-03-24T09:21:40.000Z</time>
      </trkpt>
      <trkpt lat="47.32044" lon="-2.43228">
        <ele>72</ele>
        <time>2022-03-24T09:21:41.000Z</time>
      </trkpt>
      <trkpt lat="47.32042" lon="-2.43233">
        <ele>72</ele>
        <time>2022-03-24T09:21:42.000Z</time>
      </trkpt>
      <trkpt lat="47.32031" lon="-2.43245">
        <ele>72</ele>
        <time>2022-03-24T09:21:45.000Z</time>
      </trkpt>
      <trkpt lat="47.32" lon="-2.43266">
        <ele>72</ele>
        <time>2022-03-24T09:21:51.000Z</time>
      </trkpt>
      <trkpt lat="47.31987" lon="-2.43273">
        <ele>71.599998474121</ele>
        <time>2022-03-24T09:21:53.000Z</time>
      </trkpt>
      <trkpt lat="47.31982" lon="-2.43277">
        <ele>71.199996948242</ele>
        <time>2022-03-24T09:21:54.000Z</time>
      </trkpt>
      <trkpt lat="47.31976" lon="-2.43282">
        <ele>70.599998474121</ele>
        <time>2022-03-24T09:21:55.000Z</time>
      </trkpt>
      <trkpt lat="47.31973" lon="-2.43288">
        <ele>70.199996948242</ele>
        <time>2022-03-24T09:21:56.000Z</time>
      </trkpt>
      <trkpt lat="47.3197" lon="-2.43295">
        <ele>69.800003051758</ele>
        <time>2022-03-24T09:21:57.000Z</time>
      </trkpt>
      <trkpt lat="47.31968" lon="-2.43302">
        <ele>69.800003051758</ele>
        <time>2022-03-24T09:21:58.000Z</time>
      </trkpt>
      <trkpt lat="47.31967" lon="-2.4332">
        <ele>69.800003051758</ele>
        <time>2022-03-24T09:22:00.000Z</time>
      </trkpt>
      <trkpt lat="47.31966" lon="-2.4333">
        <ele>69.400001525879</ele>
        <time>2022-03-24T09:22:01.000Z</time>
      </trkpt>
      <trkpt lat="47.31965" lon="-2.43339">
        <ele>69</ele>
        <time>2022-03-24T09:22:02.000Z</time>
      </trkpt>
      <trkpt lat="47.31963" lon="-2.43349">
        <ele>68.599998474121</ele>
        <time>2022-03-24T09:22:03.000Z</time>
      </trkpt>
      <trkpt lat="47.31961" lon="-2.4336">
        <ele>68.199996948242</ele>
        <time>2022-03-24T09:22:04.000Z</time>
      </trkpt>
      <trkpt lat="47.31959" lon="-2.4337">
        <ele>67.599998474121</ele>
        <time>2022-03-24T09:22:05.000Z</time>
      </trkpt>
      <trkpt lat="47.31947" lon="-2.4341">
        <ele>67.199996948242</ele>
        <time>2022-03-24T09:22:09.000Z</time>
      </trkpt>
      <trkpt lat="47.31944" lon="-2.4342">
        <ele>66.800003051758</ele>
        <time>2022-03-24T09:22:10.000Z</time>
      </trkpt>
      <trkpt lat="47.31941" lon="-2.43431">
        <ele>66.400001525879</ele>
        <time>2022-03-24T09:22:11.000Z</time>
      </trkpt>
      <trkpt lat="47.31937" lon="-2.43442">
        <ele>65.800003051758</ele>
        <time>2022-03-24T09:22:12.000Z</time>
      </trkpt>
      <trkpt lat="47.31933" lon="-2.43452">
        <ele>65</ele>
        <time>2022-03-24T09:22:13.000Z</time>
      </trkpt>
      <trkpt lat="47.3193" lon="-2.43463">
        <ele>64.599998474121</ele>
        <time>2022-03-24T09:22:14.000Z</time>
      </trkpt>
      <trkpt lat="47.31927" lon="-2.43474">
        <ele>64.199996948242</ele>
        <time>2022-03-24T09:22:15.000Z</time>
      </trkpt>
      <trkpt lat="47.31924" lon="-2.43486">
        <ele>63.799999237061</ele>
        <time>2022-03-24T09:22:16.000Z</time>
      </trkpt>
      <trkpt lat="47.31922" lon="-2.43497">
        <ele>63.400001525879</ele>
        <time>2022-03-24T09:22:17.000Z</time>
      </trkpt>
      <trkpt lat="47.31924" lon="-2.43543">
        <ele>63</ele>
        <time>2022-03-24T09:22:21.000Z</time>
      </trkpt>
      <trkpt lat="47.31925" lon="-2.43554">
        <ele>62.599998474121</ele>
        <time>2022-03-24T09:22:22.000Z</time>
      </trkpt>
      <trkpt lat="47.31926" lon="-2.43565">
        <ele>62.200000762939</ele>
        <time>2022-03-24T09:22:23.000Z</time>
      </trkpt>
      <trkpt lat="47.31925" lon="-2.43576">
        <ele>61.799999237061</ele>
        <time>2022-03-24T09:22:24.000Z</time>
      </trkpt>
      <trkpt lat="47.31924" lon="-2.43586">
        <ele>61.400001525879</ele>
        <time>2022-03-24T09:22:25.000Z</time>
      </trkpt>
      <trkpt lat="47.31908" lon="-2.43609">
        <ele>60.799999237061</ele>
        <time>2022-03-24T09:22:28.000Z</time>
      </trkpt>
      <trkpt lat="47.31901" lon="-2.43614">
        <ele>60.400001525879</ele>
        <time>2022-03-24T09:22:29.000Z</time>
      </trkpt>
      <trkpt lat="47.31896" lon="-2.43619">
        <ele>60</ele>
        <time>2022-03-24T09:22:30.000Z</time>
      </trkpt>
      <trkpt lat="47.31891" lon="-2.43624">
        <ele>59.599998474121</ele>
        <time>2022-03-24T09:22:31.000Z</time>
      </trkpt>
      <trkpt lat="47.31888" lon="-2.43631">
        <ele>59</ele>
        <time>2022-03-24T09:22:32.000Z</time>
      </trkpt>
      <trkpt lat="47.31885" lon="-2.43638">
        <ele>58.599998474121</ele>
        <time>2022-03-24T09:22:33.000Z</time>
      </trkpt>
      <trkpt lat="47.31886" lon="-2.43645">
        <ele>58.200000762939</ele>
        <time>2022-03-24T09:22:34.000Z</time>
      </trkpt>
      <trkpt lat="47.31888" lon="-2.43651">
        <ele>57.799999237061</ele>
        <time>2022-03-24T09:22:35.000Z</time>
      </trkpt>
      <trkpt lat="47.31892" lon="-2.43656">
        <ele>56.799999237061</ele>
        <time>2022-03-24T09:22:36.000Z</time>
      </trkpt>
      <trkpt lat="47.31908" lon="-2.43689">
        <ele>56.799999237061</ele>
        <time>2022-03-24T09:22:41.000Z</time>
      </trkpt>
      <trkpt lat="47.31927" lon="-2.43731">
        <ele>56.799999237061</ele>
        <time>2022-03-24T09:22:47.000Z</time>
      </trkpt>
      <trkpt lat="47.31952" lon="-2.43796">
        <ele>56.799999237061</ele>
        <time>2022-03-24T09:22:56.000Z</time>
      </trkpt>
      <trkpt lat="47.31972" lon="-2.4383">
        <ele>56.799999237061</ele>
        <time>2022-03-24T09:23:02.000Z</time>
      </trkpt>
      <trkpt lat="47.31986" lon="-2.43836">
        <ele>56.799999237061</ele>
        <time>2022-03-24T09:23:05.000Z</time>
      </trkpt>
      <trkpt lat="47.31993" lon="-2.4383">
        <ele>57.200000762939</ele>
        <time>2022-03-24T09:23:07.000Z</time>
      </trkpt>
      <trkpt lat="47.31996" lon="-2.43826">
        <ele>57.799999237061</ele>
        <time>2022-03-24T09:23:08.000Z</time>
      </trkpt>
      <trkpt lat="47.32" lon="-2.43822">
        <ele>58.200000762939</ele>
        <time>2022-03-24T09:23:09.000Z</time>
      </trkpt>
      <trkpt lat="47.32003" lon="-2.43818">
        <ele>58.599998474121</ele>
        <time>2022-03-24T09:23:10.000Z</time>
      </trkpt>
      <trkpt lat="47.32007" lon="-2.43815">
        <ele>59</ele>
        <time>2022-03-24T09:23:11.000Z</time>
      </trkpt>
      <trkpt lat="47.32017" lon="-2.43806">
        <ele>59.599998474121</ele>
        <time>2022-03-24T09:23:14.000Z</time>
      </trkpt>
      <trkpt lat="47.3202" lon="-2.43804">
        <ele>60</ele>
        <time>2022-03-24T09:23:15.000Z</time>
      </trkpt>
      <trkpt lat="47.32024" lon="-2.43802">
        <ele>60.400001525879</ele>
        <time>2022-03-24T09:23:16.000Z</time>
      </trkpt>
      <trkpt lat="47.32027" lon="-2.43801">
        <ele>60.799999237061</ele>
        <time>2022-03-24T09:23:17.000Z</time>
      </trkpt>
      <trkpt lat="47.32031" lon="-2.438">
        <ele>61.200000762939</ele>
        <time>2022-03-24T09:23:18.000Z</time>
      </trkpt>
      <trkpt lat="47.32036" lon="-2.43806">
        <ele>61.599998474121</ele>
        <time>2022-03-24T09:23:20.000Z</time>
      </trkpt>
      <trkpt lat="47.32038" lon="-2.43811">
        <ele>62</ele>
        <time>2022-03-24T09:23:21.000Z</time>
      </trkpt>
      <trkpt lat="47.32041" lon="-2.43815">
        <ele>62.400001525879</ele>
        <time>2022-03-24T09:23:22.000Z</time>
      </trkpt>
      <trkpt lat="47.32044" lon="-2.4382">
        <ele>62.799999237061</ele>
        <time>2022-03-24T09:23:23.000Z</time>
      </trkpt>
      <trkpt lat="47.32047" lon="-2.43825">
        <ele>63.200000762939</ele>
        <time>2022-03-24T09:23:24.000Z</time>
      </trkpt>
      <trkpt lat="47.32049" lon="-2.4383">
        <ele>63.200000762939</ele>
        <time>2022-03-24T09:23:25.000Z</time>
      </trkpt>
      <trkpt lat="47.32052" lon="-2.43835">
        <ele>63.200000762939</ele>
        <time>2022-03-24T09:23:26.000Z</time>
      </trkpt>
      <trkpt lat="47.32068" lon="-2.43867">
        <ele>63.799999237061</ele>
        <time>2022-03-24T09:23:32.000Z</time>
      </trkpt>
      <trkpt lat="47.32071" lon="-2.43873">
        <ele>64.199996948242</ele>
        <time>2022-03-24T09:23:33.000Z</time>
      </trkpt>
      <trkpt lat="47.32075" lon="-2.43878">
        <ele>64.599998474121</ele>
        <time>2022-03-24T09:23:34.000Z</time>
      </trkpt>
      <trkpt lat="47.32078" lon="-2.43882">
        <ele>65</ele>
        <time>2022-03-24T09:23:35.000Z</time>
      </trkpt>
      <trkpt lat="47.32081" lon="-2.43887">
        <ele>65.400001525879</ele>
        <time>2022-03-24T09:23:36.000Z</time>
      </trkpt>
      <trkpt lat="47.32088" lon="-2.43895">
        <ele>65.400001525879</ele>
        <time>2022-03-24T09:23:38.000Z</time>
      </trkpt>
      <trkpt lat="47.32105" lon="-2.43904">
        <ele>65.400001525879</ele>
        <time>2022-03-24T09:23:42.000Z</time>
      </trkpt>
      <trkpt lat="47.32113" lon="-2.43908">
        <ele>65.400001525879</ele>
        <time>2022-03-24T09:23:44.000Z</time>
      </trkpt>
      <trkpt lat="47.32125" lon="-2.43915">
        <ele>65.800003051758</ele>
        <time>2022-03-24T09:23:47.000Z</time>
      </trkpt>
      <trkpt lat="47.32129" lon="-2.43919">
        <ele>66.199996948242</ele>
        <time>2022-03-24T09:23:48.000Z</time>
      </trkpt>
      <trkpt lat="47.32133" lon="-2.43923">
        <ele>66.800003051758</ele>
        <time>2022-03-24T09:23:49.000Z</time>
      </trkpt>
      <trkpt lat="47.32136" lon="-2.43927">
        <ele>67.599998474121</ele>
        <time>2022-03-24T09:23:50.000Z</time>
      </trkpt>
      <trkpt lat="47.32144" lon="-2.43939">
        <ele>68</ele>
        <time>2022-03-24T09:23:53.000Z</time>
      </trkpt>
      <trkpt lat="47.32147" lon="-2.43944">
        <ele>68.599998474121</ele>
        <time>2022-03-24T09:23:54.000Z</time>
      </trkpt>
      <trkpt lat="47.3215" lon="-2.43948">
        <ele>69</ele>
        <time>2022-03-24T09:23:55.000Z</time>
      </trkpt>
      <trkpt lat="47.32153" lon="-2.43953">
        <ele>69.400001525879</ele>
        <time>2022-03-24T09:23:56.000Z</time>
      </trkpt>
      <trkpt lat="47.32156" lon="-2.43957">
        <ele>69.800003051758</ele>
        <time>2022-03-24T09:23:57.000Z</time>
      </trkpt>
      <trkpt lat="47.3217" lon="-2.43975">
        <ele>70.199996948242</ele>
        <time>2022-03-24T09:24:02.000Z</time>
      </trkpt>
      <trkpt lat="47.32173" lon="-2.43979">
        <ele>70.599998474121</ele>
        <time>2022-03-24T09:24:03.000Z</time>
      </trkpt>
      <trkpt lat="47.32176" lon="-2.43982">
        <ele>71</ele>
        <time>2022-03-24T09:24:04.000Z</time>
      </trkpt>
      <trkpt lat="47.32179" lon="-2.43986">
        <ele>71.400001525879</ele>
        <time>2022-03-24T09:24:05.000Z</time>
      </trkpt>
      <trkpt lat="47.32182" lon="-2.4399">
        <ele>71.800003051758</ele>
        <time>2022-03-24T09:24:06.000Z</time>
      </trkpt>
      <trkpt lat="47.32199" lon="-2.44013">
        <ele>71.800003051758</ele>
        <time>2022-03-24T09:24:12.000Z</time>
      </trkpt>
      <trkpt lat="47.32207" lon="-2.44025">
        <ele>72.199996948242</ele>
        <time>2022-03-24T09:24:15.000Z</time>
      </trkpt>
      <trkpt lat="47.3221" lon="-2.44029">
        <ele>72.599998474121</ele>
        <time>2022-03-24T09:24:16.000Z</time>
      </trkpt>
      <trkpt lat="47.32213" lon="-2.44032">
        <ele>73</ele>
        <time>2022-03-24T09:24:17.000Z</time>
      </trkpt>
      <trkpt lat="47.32216" lon="-2.44035">
        <ele>73.400001525879</ele>
        <time>2022-03-24T09:24:18.000Z</time>
      </trkpt>
      <trkpt lat="47.32219" lon="-2.44037">
        <ele>73.800003051758</ele>
        <time>2022-03-24T09:24:19.000Z</time>
      </trkpt>
      <trkpt lat="47.32239" lon="-2.44046">
        <ele>73.800003051758</ele>
        <time>2022-03-24T09:24:25.000Z</time>
      </trkpt>
      <trkpt lat="47.32265" lon="-2.44046">
        <ele>73.800003051758</ele>
        <time>2022-03-24T09:24:31.000Z</time>
      </trkpt>
      <trkpt lat="47.32285" lon="-2.4405">
        <ele>73.800003051758</ele>
        <time>2022-03-24T09:24:36.000Z</time>
      </trkpt>
      <trkpt lat="47.32289" lon="-2.44051">
        <ele>74.199996948242</ele>
        <time>2022-03-24T09:24:37.000Z</time>
      </trkpt>
      <trkpt lat="47.32294" lon="-2.44053">
        <ele>74.599998474121</ele>
        <time>2022-03-24T09:24:38.000Z</time>
      </trkpt>
      <trkpt lat="47.32299" lon="-2.44055">
        <ele>75.599998474121</ele>
        <time>2022-03-24T09:24:39.000Z</time>
      </trkpt>
      <trkpt lat="47.32304" lon="-2.44057">
        <ele>76</ele>
        <time>2022-03-24T09:24:40.000Z</time>
      </trkpt>
      <trkpt lat="47.32313" lon="-2.4406">
        <ele>76</ele>
        <time>2022-03-24T09:24:42.000Z</time>
      </trkpt>
      <trkpt lat="47.32341" lon="-2.44068">
        <ele>76</ele>
        <time>2022-03-24T09:24:48.000Z</time>
      </trkpt>
      <trkpt lat="47.32345" lon="-2.44068">
        <ele>76.400001525879</ele>
        <time>2022-03-24T09:24:49.000Z</time>
      </trkpt>
      <trkpt lat="47.3235" lon="-2.44068">
        <ele>76.800003051758</ele>
        <time>2022-03-24T09:24:50.000Z</time>
      </trkpt>
      <trkpt lat="47.32354" lon="-2.44068">
        <ele>77.199996948242</ele>
        <time>2022-03-24T09:24:51.000Z</time>
      </trkpt>
      <trkpt lat="47.32359" lon="-2.44067">
        <ele>77.599998474121</ele>
        <time>2022-03-24T09:24:52.000Z</time>
      </trkpt>
      <trkpt lat="47.32363" lon="-2.44066">
        <ele>78</ele>
        <time>2022-03-24T09:24:53.000Z</time>
      </trkpt>
      <trkpt lat="47.32372" lon="-2.44063">
        <ele>78</ele>
        <time>2022-03-24T09:24:55.000Z</time>
      </trkpt>
      <trkpt lat="47.32393" lon="-2.44055">
        <ele>78.400001525879</ele>
        <time>2022-03-24T09:25:00.000Z</time>
      </trkpt>
      <trkpt lat="47.32396" lon="-2.44053">
        <ele>78.800003051758</ele>
        <time>2022-03-24T09:25:01.000Z</time>
      </trkpt>
      <trkpt lat="47.324" lon="-2.44051">
        <ele>79.199996948242</ele>
        <time>2022-03-24T09:25:02.000Z</time>
      </trkpt>
      <trkpt lat="47.32404" lon="-2.44049">
        <ele>79.599998474121</ele>
        <time>2022-03-24T09:25:03.000Z</time>
      </trkpt>
      <trkpt lat="47.32407" lon="-2.44047">
        <ele>80</ele>
        <time>2022-03-24T09:25:04.000Z</time>
      </trkpt>
      <trkpt lat="47.32422" lon="-2.44036">
        <ele>80</ele>
        <time>2022-03-24T09:25:08.000Z</time>
      </trkpt>
      <trkpt lat="47.32432" lon="-2.44029">
        <ele>80.599998474121</ele>
        <time>2022-03-24T09:25:11.000Z</time>
      </trkpt>
      <trkpt lat="47.32436" lon="-2.44027">
        <ele>81</ele>
        <time>2022-03-24T09:25:12.000Z</time>
      </trkpt>
      <trkpt lat="47.32439" lon="-2.44024">
        <ele>81.400001525879</ele>
        <time>2022-03-24T09:25:13.000Z</time>
      </trkpt>
      <trkpt lat="47.32443" lon="-2.44021">
        <ele>82</ele>
        <time>2022-03-24T09:25:14.000Z</time>
      </trkpt>
      <trkpt lat="47.32446" lon="-2.44019">
        <ele>82.400001525879</ele>
        <time>2022-03-24T09:25:15.000Z</time>
      </trkpt>
      <trkpt lat="47.32474" lon="-2.44">
        <ele>82.400001525879</ele>
        <time>2022-03-24T09:25:23.000Z</time>
      </trkpt>
      <trkpt lat="47.32495" lon="-2.43986">
        <ele>82.400001525879</ele>
        <time>2022-03-24T09:25:31.000Z</time>
      </trkpt>
      <trkpt lat="47.32497" lon="-2.43984">
        <ele>82.800003051758</ele>
        <time>2022-03-24T09:25:32.000Z</time>
      </trkpt>
      <trkpt lat="47.32498" lon="-2.43983">
        <ele>83.199996948242</ele>
        <time>2022-03-24T09:25:33.000Z</time>
      </trkpt>
      <trkpt lat="47.32499" lon="-2.43983">
        <ele>83.599998474121</ele>
        <time>2022-03-24T09:25:34.000Z</time>
      </trkpt>
      <trkpt lat="47.32501" lon="-2.43982">
        <ele>84</ele>
        <time>2022-03-24T09:25:35.000Z</time>
      </trkpt>
      <trkpt lat="47.32502" lon="-2.43982">
        <ele>84.400001525879</ele>
        <time>2022-03-24T09:25:36.000Z</time>
      </trkpt>
      <trkpt lat="47.32504" lon="-2.43982">
        <ele>84.400001525879</ele>
        <time>2022-03-24T09:25:37.000Z</time>
      </trkpt>
      <trkpt lat="47.32505" lon="-2.43983">
        <ele>84.400001525879</ele>
        <time>2022-03-24T09:25:38.000Z</time>
      </trkpt>
      <trkpt lat="47.32511" lon="-2.43991">
        <ele>84.400001525879</ele>
        <time>2022-03-24T09:25:41.000Z</time>
      </trkpt>
      <trkpt lat="47.32513" lon="-2.43994">
        <ele>84.400001525879</ele>
        <time>2022-03-24T09:25:42.000Z</time>
      </trkpt>
      <trkpt lat="47.32516" lon="-2.43998">
        <ele>84.400001525879</ele>
        <time>2022-03-24T09:25:43.000Z</time>
      </trkpt>
      <trkpt lat="47.32526" lon="-2.44008">
        <ele>84.400001525879</ele>
        <time>2022-03-24T09:25:46.000Z</time>
      </trkpt>
      <trkpt lat="47.32547" lon="-2.44021">
        <ele>84.400001525879</ele>
        <time>2022-03-24T09:25:52.000Z</time>
      </trkpt>
      <trkpt lat="47.32567" lon="-2.44034">
        <ele>84.400001525879</ele>
        <time>2022-03-24T09:25:59.000Z</time>
      </trkpt>
      <trkpt lat="47.32567" lon="-2.44044">
        <ele>84.400001525879</ele>
        <time>2022-03-24T09:26:03.000Z</time>
      </trkpt>
      <trkpt lat="47.32561" lon="-2.44055">
        <ele>84.400001525879</ele>
        <time>2022-03-24T09:26:06.000Z</time>
      </trkpt>
      <trkpt lat="47.32558" lon="-2.44065">
        <ele>84.400001525879</ele>
        <time>2022-03-24T09:26:08.000Z</time>
      </trkpt>
      <trkpt lat="47.32545" lon="-2.44111">
        <ele>84.400001525879</ele>
        <time>2022-03-24T09:26:16.000Z</time>
      </trkpt>
      <trkpt lat="47.32533" lon="-2.44151">
        <ele>84.400001525879</ele>
        <time>2022-03-24T09:26:23.000Z</time>
      </trkpt>
      <trkpt lat="47.32525" lon="-2.44185">
        <ele>84.400001525879</ele>
        <time>2022-03-24T09:26:28.000Z</time>
      </trkpt>
      <trkpt lat="47.32524" lon="-2.44191">
        <ele>84.400001525879</ele>
        <time>2022-03-24T09:26:29.000Z</time>
      </trkpt>
      <trkpt lat="47.3253" lon="-2.4421">
        <ele>84.400001525879</ele>
        <time>2022-03-24T09:26:32.000Z</time>
      </trkpt>
      <trkpt lat="47.32533" lon="-2.44215">
        <ele>84.400001525879</ele>
        <time>2022-03-24T09:26:33.000Z</time>
      </trkpt>
      <trkpt lat="47.32554" lon="-2.44255">
        <ele>84.400001525879</ele>
        <time>2022-03-24T09:26:40.000Z</time>
      </trkpt>
      <trkpt lat="47.32557" lon="-2.44262">
        <ele>84.400001525879</ele>
        <time>2022-03-24T09:26:41.000Z</time>
      </trkpt>
      <trkpt lat="47.32561" lon="-2.44284">
        <ele>84.400001525879</ele>
        <time>2022-03-24T09:26:44.000Z</time>
      </trkpt>
      <trkpt lat="47.32572" lon="-2.44318">
        <ele>84.400001525879</ele>
        <time>2022-03-24T09:26:49.000Z</time>
      </trkpt>
      <trkpt lat="47.32576" lon="-2.44329">
        <ele>84.400001525879</ele>
        <time>2022-03-24T09:26:51.000Z</time>
      </trkpt>
      <trkpt lat="47.32583" lon="-2.44345">
        <ele>84.400001525879</ele>
        <time>2022-03-24T09:26:54.000Z</time>
      </trkpt>
      <trkpt lat="47.32585" lon="-2.44351">
        <ele>84.400001525879</ele>
        <time>2022-03-24T09:26:55.000Z</time>
      </trkpt>
      <trkpt lat="47.32589" lon="-2.44361">
        <ele>84.400001525879</ele>
        <time>2022-03-24T09:26:57.000Z</time>
      </trkpt>
      <trkpt lat="47.32595" lon="-2.44372">
        <ele>84.400001525879</ele>
        <time>2022-03-24T09:26:59.000Z</time>
      </trkpt>
      <trkpt lat="47.32607" lon="-2.44383">
        <ele>84.400001525879</ele>
        <time>2022-03-24T09:27:03.000Z</time>
      </trkpt>
      <trkpt lat="47.32621" lon="-2.44402">
        <ele>84.400001525879</ele>
        <time>2022-03-24T09:27:08.000Z</time>
      </trkpt>
      <trkpt lat="47.32635" lon="-2.44434">
        <ele>84.400001525879</ele>
        <time>2022-03-24T09:27:14.000Z</time>
      </trkpt>
      <trkpt lat="47.32647" lon="-2.44468">
        <ele>84.400001525879</ele>
        <time>2022-03-24T09:27:19.000Z</time>
      </trkpt>
      <trkpt lat="47.32652" lon="-2.44481">
        <ele>85</ele>
        <time>2022-03-24T09:27:21.000Z</time>
      </trkpt>
      <trkpt lat="47.32654" lon="-2.44487">
        <ele>85.400001525879</ele>
        <time>2022-03-24T09:27:22.000Z</time>
      </trkpt>
      <trkpt lat="47.32657" lon="-2.44491">
        <ele>85.800003051758</ele>
        <time>2022-03-24T09:27:23.000Z</time>
      </trkpt>
      <trkpt lat="47.3266" lon="-2.44493">
        <ele>86.199996948242</ele>
        <time>2022-03-24T09:27:24.000Z</time>
      </trkpt>
      <trkpt lat="47.32664" lon="-2.44495">
        <ele>86.599998474121</ele>
        <time>2022-03-24T09:27:25.000Z</time>
      </trkpt>
      <trkpt lat="47.32665" lon="-2.44507">
        <ele>86.599998474121</ele>
        <time>2022-03-24T09:27:28.000Z</time>
      </trkpt>
      <trkpt lat="47.32662" lon="-2.44515">
        <ele>86.599998474121</ele>
        <time>2022-03-24T09:27:30.000Z</time>
      </trkpt>
      <trkpt lat="47.32654" lon="-2.44528">
        <ele>86.599998474121</ele>
        <time>2022-03-24T09:27:33.000Z</time>
      </trkpt>
      <trkpt lat="47.3264" lon="-2.44556">
        <ele>86.599998474121</ele>
        <time>2022-03-24T09:27:38.000Z</time>
      </trkpt>
      <trkpt lat="47.3262" lon="-2.44591">
        <ele>86.599998474121</ele>
        <time>2022-03-24T09:27:44.000Z</time>
      </trkpt>
      <trkpt lat="47.32612" lon="-2.44603">
        <ele>86</ele>
        <time>2022-03-24T09:27:46.000Z</time>
      </trkpt>
      <trkpt lat="47.32609" lon="-2.44609">
        <ele>85.599998474121</ele>
        <time>2022-03-24T09:27:47.000Z</time>
      </trkpt>
      <trkpt lat="47.32605" lon="-2.44616">
        <ele>85.199996948242</ele>
        <time>2022-03-24T09:27:48.000Z</time>
      </trkpt>
      <trkpt lat="47.32601" lon="-2.44623">
        <ele>84.599998474121</ele>
        <time>2022-03-24T09:27:49.000Z</time>
      </trkpt>
      <trkpt lat="47.32596" lon="-2.44629">
        <ele>84.199996948242</ele>
        <time>2022-03-24T09:27:50.000Z</time>
      </trkpt>
      <trkpt lat="47.32581" lon="-2.44648">
        <ele>84.199996948242</ele>
        <time>2022-03-24T09:27:54.000Z</time>
      </trkpt>
      <trkpt lat="47.32576" lon="-2.44653">
        <ele>84.199996948242</ele>
        <time>2022-03-24T09:27:55.000Z</time>
      </trkpt>
      <trkpt lat="47.32571" lon="-2.44657">
        <ele>83.800003051758</ele>
        <time>2022-03-24T09:27:56.000Z</time>
      </trkpt>
      <trkpt lat="47.32567" lon="-2.44663">
        <ele>82.800003051758</ele>
        <time>2022-03-24T09:27:57.000Z</time>
      </trkpt>
      <trkpt lat="47.32562" lon="-2.4467">
        <ele>82.400001525879</ele>
        <time>2022-03-24T09:27:58.000Z</time>
      </trkpt>
      <trkpt lat="47.32558" lon="-2.44676">
        <ele>81.800003051758</ele>
        <time>2022-03-24T09:27:59.000Z</time>
      </trkpt>
      <trkpt lat="47.32545" lon="-2.44695">
        <ele>81.400001525879</ele>
        <time>2022-03-24T09:28:02.000Z</time>
      </trkpt>
      <trkpt lat="47.3254" lon="-2.44701">
        <ele>81</ele>
        <time>2022-03-24T09:28:03.000Z</time>
      </trkpt>
      <trkpt lat="47.32537" lon="-2.44707">
        <ele>80.400001525879</ele>
        <time>2022-03-24T09:28:04.000Z</time>
      </trkpt>
      <trkpt lat="47.32534" lon="-2.44713">
        <ele>80</ele>
        <time>2022-03-24T09:28:05.000Z</time>
      </trkpt>
      <trkpt lat="47.3253" lon="-2.44719">
        <ele>79.599998474121</ele>
        <time>2022-03-24T09:28:06.000Z</time>
      </trkpt>
      <trkpt lat="47.32528" lon="-2.44724">
        <ele>79.199996948242</ele>
        <time>2022-03-24T09:28:07.000Z</time>
      </trkpt>
      <trkpt lat="47.32527" lon="-2.4473">
        <ele>78.599998474121</ele>
        <time>2022-03-24T09:28:08.000Z</time>
      </trkpt>
      <trkpt lat="47.32526" lon="-2.44736">
        <ele>78.199996948242</ele>
        <time>2022-03-24T09:28:09.000Z</time>
      </trkpt>
      <trkpt lat="47.32523" lon="-2.4474">
        <ele>77.800003051758</ele>
        <time>2022-03-24T09:28:10.000Z</time>
      </trkpt>
      <trkpt lat="47.3252" lon="-2.44743">
        <ele>77.400001525879</ele>
        <time>2022-03-24T09:28:11.000Z</time>
      </trkpt>
      <trkpt lat="47.32516" lon="-2.44748">
        <ele>77.400001525879</ele>
        <time>2022-03-24T09:28:12.000Z</time>
      </trkpt>
      <trkpt lat="47.32505" lon="-2.4476">
        <ele>77</ele>
        <time>2022-03-24T09:28:15.000Z</time>
      </trkpt>
      <trkpt lat="47.32501" lon="-2.44764">
        <ele>76.599998474121</ele>
        <time>2022-03-24T09:28:16.000Z</time>
      </trkpt>
      <trkpt lat="47.32496" lon="-2.44769">
        <ele>76.199996948242</ele>
        <time>2022-03-24T09:28:17.000Z</time>
      </trkpt>
      <trkpt lat="47.32491" lon="-2.44773">
        <ele>75.800003051758</ele>
        <time>2022-03-24T09:28:18.000Z</time>
      </trkpt>
      <trkpt lat="47.32486" lon="-2.44777">
        <ele>75.199996948242</ele>
        <time>2022-03-24T09:28:19.000Z</time>
      </trkpt>
      <trkpt lat="47.32477" lon="-2.44785">
        <ele>74.800003051758</ele>
        <time>2022-03-24T09:28:21.000Z</time>
      </trkpt>
      <trkpt lat="47.32472" lon="-2.44788">
        <ele>73.800003051758</ele>
        <time>2022-03-24T09:28:22.000Z</time>
      </trkpt>
      <trkpt lat="47.32468" lon="-2.44791">
        <ele>73.199996948242</ele>
        <time>2022-03-24T09:28:23.000Z</time>
      </trkpt>
      <trkpt lat="47.32463" lon="-2.44794">
        <ele>72.800003051758</ele>
        <time>2022-03-24T09:28:24.000Z</time>
      </trkpt>
      <trkpt lat="47.3244" lon="-2.4481">
        <ele>72.800003051758</ele>
        <time>2022-03-24T09:28:28.000Z</time>
      </trkpt>
      <trkpt lat="47.32434" lon="-2.44814">
        <ele>72.400001525879</ele>
        <time>2022-03-24T09:28:29.000Z</time>
      </trkpt>
      <trkpt lat="47.32428" lon="-2.44819">
        <ele>72</ele>
        <time>2022-03-24T09:28:30.000Z</time>
      </trkpt>
      <trkpt lat="47.32422" lon="-2.44823">
        <ele>71.599998474121</ele>
        <time>2022-03-24T09:28:31.000Z</time>
      </trkpt>
      <trkpt lat="47.32415" lon="-2.44826">
        <ele>71.199996948242</ele>
        <time>2022-03-24T09:28:32.000Z</time>
      </trkpt>
      <trkpt lat="47.32408" lon="-2.4483">
        <ele>70.599998474121</ele>
        <time>2022-03-24T09:28:33.000Z</time>
      </trkpt>
      <trkpt lat="47.32395" lon="-2.44838">
        <ele>70.599998474121</ele>
        <time>2022-03-24T09:28:35.000Z</time>
      </trkpt>
      <trkpt lat="47.32359" lon="-2.44863">
        <ele>70.199996948242</ele>
        <time>2022-03-24T09:28:41.000Z</time>
      </trkpt>
      <trkpt lat="47.32353" lon="-2.44868">
        <ele>69.800003051758</ele>
        <time>2022-03-24T09:28:42.000Z</time>
      </trkpt>
      <trkpt lat="47.32348" lon="-2.44874">
        <ele>69.400001525879</ele>
        <time>2022-03-24T09:28:43.000Z</time>
      </trkpt>
      <trkpt lat="47.32343" lon="-2.44879">
        <ele>69</ele>
        <time>2022-03-24T09:28:44.000Z</time>
      </trkpt>
      <trkpt lat="47.32338" lon="-2.44885">
        <ele>68.599998474121</ele>
        <time>2022-03-24T09:28:45.000Z</time>
      </trkpt>
      <trkpt lat="47.32334" lon="-2.44891">
        <ele>68.599998474121</ele>
        <time>2022-03-24T09:28:46.000Z</time>
      </trkpt>
      <trkpt lat="47.32307" lon="-2.44924">
        <ele>68.599998474121</ele>
        <time>2022-03-24T09:28:52.000Z</time>
      </trkpt>
      <trkpt lat="47.32269" lon="-2.44966">
        <ele>68.599998474121</ele>
        <time>2022-03-24T09:29:00.000Z</time>
      </trkpt>
      <trkpt lat="47.32258" lon="-2.44978">
        <ele>68.199996948242</ele>
        <time>2022-03-24T09:29:02.000Z</time>
      </trkpt>
      <trkpt lat="47.32253" lon="-2.44985">
        <ele>67.800003051758</ele>
        <time>2022-03-24T09:29:03.000Z</time>
      </trkpt>
      <trkpt lat="47.32248" lon="-2.44991">
        <ele>67.199996948242</ele>
        <time>2022-03-24T09:29:04.000Z</time>
      </trkpt>
      <trkpt lat="47.32242" lon="-2.44997">
        <ele>66.800003051758</ele>
        <time>2022-03-24T09:29:05.000Z</time>
      </trkpt>
      <trkpt lat="47.32237" lon="-2.45003">
        <ele>66.199996948242</ele>
        <time>2022-03-24T09:29:06.000Z</time>
      </trkpt>
      <trkpt lat="47.32231" lon="-2.4501">
        <ele>65.599998474121</ele>
        <time>2022-03-24T09:29:07.000Z</time>
      </trkpt>
      <trkpt lat="47.32227" lon="-2.45016">
        <ele>65</ele>
        <time>2022-03-24T09:29:08.000Z</time>
      </trkpt>
      <trkpt lat="47.32222" lon="-2.45021">
        <ele>64.199996948242</ele>
        <time>2022-03-24T09:29:09.000Z</time>
      </trkpt>
      <trkpt lat="47.32219" lon="-2.45025">
        <ele>63.599998474121</ele>
        <time>2022-03-24T09:29:10.000Z</time>
      </trkpt>
      <trkpt lat="47.32216" lon="-2.45028">
        <ele>62</ele>
        <time>2022-03-24T09:29:11.000Z</time>
      </trkpt>
      <trkpt lat="47.32216" lon="-2.45033">
        <ele>61.200000762939</ele>
        <time>2022-03-24T09:29:12.000Z</time>
      </trkpt>
      <trkpt lat="47.32217" lon="-2.45039">
        <ele>60.799999237061</ele>
        <time>2022-03-24T09:29:13.000Z</time>
      </trkpt>
      <trkpt lat="47.32219" lon="-2.45044">
        <ele>60.400001525879</ele>
        <time>2022-03-24T09:29:14.000Z</time>
      </trkpt>
      <trkpt lat="47.32222" lon="-2.45049">
        <ele>60</ele>
        <time>2022-03-24T09:29:15.000Z</time>
      </trkpt>
      <trkpt lat="47.32225" lon="-2.45055">
        <ele>59.599998474121</ele>
        <time>2022-03-24T09:29:16.000Z</time>
      </trkpt>
      <trkpt lat="47.32228" lon="-2.45061">
        <ele>59.200000762939</ele>
        <time>2022-03-24T09:29:17.000Z</time>
      </trkpt>
      <trkpt lat="47.32253" lon="-2.45121">
        <ele>59.200000762939</ele>
        <time>2022-03-24T09:29:26.000Z</time>
      </trkpt>
      <trkpt lat="47.32264" lon="-2.45164">
        <ele>59.200000762939</ele>
        <time>2022-03-24T09:29:32.000Z</time>
      </trkpt>
      <trkpt lat="47.32265" lon="-2.45172">
        <ele>58.799999237061</ele>
        <time>2022-03-24T09:29:33.000Z</time>
      </trkpt>
      <trkpt lat="47.32267" lon="-2.45179">
        <ele>58.400001525879</ele>
        <time>2022-03-24T09:29:34.000Z</time>
      </trkpt>
      <trkpt lat="47.32269" lon="-2.45187">
        <ele>58</ele>
        <time>2022-03-24T09:29:35.000Z</time>
      </trkpt>
      <trkpt lat="47.32273" lon="-2.45195">
        <ele>57.200000762939</ele>
        <time>2022-03-24T09:29:36.000Z</time>
      </trkpt>
      <trkpt lat="47.32281" lon="-2.45212">
        <ele>56.599998474121</ele>
        <time>2022-03-24T09:29:38.000Z</time>
      </trkpt>
      <trkpt lat="47.32285" lon="-2.4522">
        <ele>56.200000762939</ele>
        <time>2022-03-24T09:29:39.000Z</time>
      </trkpt>
      <trkpt lat="47.32289" lon="-2.45228">
        <ele>55.799999237061</ele>
        <time>2022-03-24T09:29:40.000Z</time>
      </trkpt>
      <trkpt lat="47.32293" lon="-2.45236">
        <ele>55.200000762939</ele>
        <time>2022-03-24T09:29:41.000Z</time>
      </trkpt>
      <trkpt lat="47.32297" lon="-2.45244">
        <ele>54.799999237061</ele>
        <time>2022-03-24T09:29:42.000Z</time>
      </trkpt>
      <trkpt lat="47.323" lon="-2.45252">
        <ele>54.799999237061</ele>
        <time>2022-03-24T09:29:43.000Z</time>
      </trkpt>
      <trkpt lat="47.32304" lon="-2.45267">
        <ele>54.799999237061</ele>
        <time>2022-03-24T09:29:45.000Z</time>
      </trkpt>
      <trkpt lat="47.32308" lon="-2.45281">
        <ele>55.200000762939</ele>
        <time>2022-03-24T09:29:47.000Z</time>
      </trkpt>
      <trkpt lat="47.3231" lon="-2.45288">
        <ele>55.599998474121</ele>
        <time>2022-03-24T09:29:48.000Z</time>
      </trkpt>
      <trkpt lat="47.32311" lon="-2.45295">
        <ele>56</ele>
        <time>2022-03-24T09:29:49.000Z</time>
      </trkpt>
      <trkpt lat="47.32313" lon="-2.45301">
        <ele>56.400001525879</ele>
        <time>2022-03-24T09:29:50.000Z</time>
      </trkpt>
      <trkpt lat="47.32314" lon="-2.45306">
        <ele>56.799999237061</ele>
        <time>2022-03-24T09:29:51.000Z</time>
      </trkpt>
      <trkpt lat="47.32317" lon="-2.45345">
        <ele>56.799999237061</ele>
        <time>2022-03-24T09:29:58.000Z</time>
      </trkpt>
      <trkpt lat="47.3232" lon="-2.4538">
        <ele>56.799999237061</ele>
        <time>2022-03-24T09:30:03.000Z</time>
      </trkpt>
      <trkpt lat="47.32321" lon="-2.45391">
        <ele>56.400001525879</ele>
        <time>2022-03-24T09:30:05.000Z</time>
      </trkpt>
      <trkpt lat="47.32321" lon="-2.45396">
        <ele>56</ele>
        <time>2022-03-24T09:30:06.000Z</time>
      </trkpt>
      <trkpt lat="47.32319" lon="-2.45401">
        <ele>55.400001525879</ele>
        <time>2022-03-24T09:30:07.000Z</time>
      </trkpt>
      <trkpt lat="47.32318" lon="-2.45407">
        <ele>55</ele>
        <time>2022-03-24T09:30:08.000Z</time>
      </trkpt>
      <trkpt lat="47.32317" lon="-2.45413">
        <ele>54.599998474121</ele>
        <time>2022-03-24T09:30:09.000Z</time>
      </trkpt>
      <trkpt lat="47.32319" lon="-2.45424">
        <ele>54.599998474121</ele>
        <time>2022-03-24T09:30:11.000Z</time>
      </trkpt>
      <trkpt lat="47.32324" lon="-2.45433">
        <ele>54.599998474121</ele>
        <time>2022-03-24T09:30:13.000Z</time>
      </trkpt>
      <trkpt lat="47.32332" lon="-2.45449">
        <ele>54.599998474121</ele>
        <time>2022-03-24T09:30:16.000Z</time>
      </trkpt>
      <trkpt lat="47.32341" lon="-2.45464">
        <ele>54.599998474121</ele>
        <time>2022-03-24T09:30:19.000Z</time>
      </trkpt>
      <trkpt lat="47.3235" lon="-2.45479">
        <ele>54.599998474121</ele>
        <time>2022-03-24T09:30:22.000Z</time>
      </trkpt>
      <trkpt lat="47.32359" lon="-2.45492">
        <ele>54.599998474121</ele>
        <time>2022-03-24T09:30:25.000Z</time>
      </trkpt>
      <trkpt lat="47.32368" lon="-2.45507">
        <ele>54.599998474121</ele>
        <time>2022-03-24T09:30:28.000Z</time>
      </trkpt>
      <trkpt lat="47.32389" lon="-2.45545">
        <ele>54.599998474121</ele>
        <time>2022-03-24T09:30:36.000Z</time>
      </trkpt>
      <trkpt lat="47.32401" lon="-2.45561">
        <ele>54.599998474121</ele>
        <time>2022-03-24T09:30:41.000Z</time>
      </trkpt>
      <trkpt lat="47.3241" lon="-2.45572">
        <ele>54.599998474121</ele>
        <time>2022-03-24T09:30:45.000Z</time>
      </trkpt>
      <trkpt lat="47.32416" lon="-2.45601">
        <ele>54.599998474121</ele>
        <time>2022-03-24T09:30:50.000Z</time>
      </trkpt>
      <trkpt lat="47.32419" lon="-2.45607">
        <ele>54.599998474121</ele>
        <time>2022-03-24T09:30:51.000Z</time>
      </trkpt>
      <trkpt lat="47.32434" lon="-2.45636">
        <ele>54.599998474121</ele>
        <time>2022-03-24T09:30:56.000Z</time>
      </trkpt>
      <trkpt lat="47.32464" lon="-2.45681">
        <ele>54.599998474121</ele>
        <time>2022-03-24T09:31:04.000Z</time>
      </trkpt>
      <trkpt lat="47.32489" lon="-2.45724">
        <ele>54.599998474121</ele>
        <time>2022-03-24T09:31:11.000Z</time>
      </trkpt>
      <trkpt lat="47.32512" lon="-2.45766">
        <ele>54.599998474121</ele>
        <time>2022-03-24T09:31:18.000Z</time>
      </trkpt>
      <trkpt lat="47.32534" lon="-2.45804">
        <ele>54.599998474121</ele>
        <time>2022-03-24T09:31:25.000Z</time>
      </trkpt>
      <trkpt lat="47.3254" lon="-2.45814">
        <ele>54.599998474121</ele>
        <time>2022-03-24T09:31:27.000Z</time>
      </trkpt>
      <trkpt lat="47.32554" lon="-2.45832">
        <ele>54.599998474121</ele>
        <time>2022-03-24T09:31:31.000Z</time>
      </trkpt>
      <trkpt lat="47.3256" lon="-2.45843">
        <ele>54.599998474121</ele>
        <time>2022-03-24T09:31:33.000Z</time>
      </trkpt>
      <trkpt lat="47.32572" lon="-2.45866">
        <ele>54.599998474121</ele>
        <time>2022-03-24T09:31:37.000Z</time>
      </trkpt>
      <trkpt lat="47.32575" lon="-2.45872">
        <ele>54.599998474121</ele>
        <time>2022-03-24T09:31:38.000Z</time>
      </trkpt>
      <trkpt lat="47.32594" lon="-2.45895">
        <ele>54.599998474121</ele>
        <time>2022-03-24T09:31:43.000Z</time>
      </trkpt>
      <trkpt lat="47.32609" lon="-2.45915">
        <ele>54.599998474121</ele>
        <time>2022-03-24T09:31:47.000Z</time>
      </trkpt>
      <trkpt lat="47.32616" lon="-2.45926">
        <ele>54.599998474121</ele>
        <time>2022-03-24T09:31:49.000Z</time>
      </trkpt>
      <trkpt lat="47.32622" lon="-2.45938">
        <ele>54.599998474121</ele>
        <time>2022-03-24T09:31:51.000Z</time>
      </trkpt>
      <trkpt lat="47.32635" lon="-2.4596">
        <ele>54.599998474121</ele>
        <time>2022-03-24T09:31:55.000Z</time>
      </trkpt>
      <trkpt lat="47.32639" lon="-2.45965">
        <ele>54.599998474121</ele>
        <time>2022-03-24T09:31:56.000Z</time>
      </trkpt>
      <trkpt lat="47.32656" lon="-2.4598">
        <ele>54.599998474121</ele>
        <time>2022-03-24T09:32:00.000Z</time>
      </trkpt>
      <trkpt lat="47.32668" lon="-2.45992">
        <ele>54.599998474121</ele>
        <time>2022-03-24T09:32:04.000Z</time>
      </trkpt>
      <trkpt lat="47.32677" lon="-2.46006">
        <ele>54.599998474121</ele>
        <time>2022-03-24T09:32:10.000Z</time>
      </trkpt>
      <trkpt lat="47.32686" lon="-2.46017">
        <ele>54.599998474121</ele>
        <time>2022-03-24T09:32:15.000Z</time>
      </trkpt>
      <trkpt lat="47.32698" lon="-2.46031">
        <ele>54.599998474121</ele>
        <time>2022-03-24T09:32:21.000Z</time>
      </trkpt>
      <trkpt lat="47.32707" lon="-2.46041">
        <ele>54.599998474121</ele>
        <time>2022-03-24T09:32:26.000Z</time>
      </trkpt>
      <trkpt lat="47.32714" lon="-2.4605">
        <ele>54.599998474121</ele>
        <time>2022-03-24T09:32:32.000Z</time>
      </trkpt>
      <trkpt lat="47.3272" lon="-2.46056">
        <ele>54.599998474121</ele>
        <time>2022-03-24T09:32:37.000Z</time>
      </trkpt>
      <trkpt lat="47.32726" lon="-2.46062">
        <ele>55</ele>
        <time>2022-03-24T09:32:42.000Z</time>
      </trkpt>
      <trkpt lat="47.32727" lon="-2.46064">
        <ele>55.400001525879</ele>
        <time>2022-03-24T09:32:43.000Z</time>
      </trkpt>
      <trkpt lat="47.32729" lon="-2.46066">
        <ele>55.799999237061</ele>
        <time>2022-03-24T09:32:44.000Z</time>
      </trkpt>
      <trkpt lat="47.32731" lon="-2.46068">
        <ele>56.200000762939</ele>
        <time>2022-03-24T09:32:45.000Z</time>
      </trkpt>
      <trkpt lat="47.32733" lon="-2.4607">
        <ele>56.599998474121</ele>
        <time>2022-03-24T09:32:46.000Z</time>
      </trkpt>
      <trkpt lat="47.32739" lon="-2.46077">
        <ele>56.599998474121</ele>
        <time>2022-03-24T09:32:49.000Z</time>
      </trkpt>
      <trkpt lat="47.32748" lon="-2.46092">
        <ele>56.599998474121</ele>
        <time>2022-03-24T09:32:55.000Z</time>
      </trkpt>
      <trkpt lat="47.32756" lon="-2.46108">
        <ele>56.599998474121</ele>
        <time>2022-03-24T09:33:00.000Z</time>
      </trkpt>
      <trkpt lat="47.32762" lon="-2.46122">
        <ele>57</ele>
        <time>2022-03-24T09:33:04.000Z</time>
      </trkpt>
      <trkpt lat="47.32763" lon="-2.46125">
        <ele>57.400001525879</ele>
        <time>2022-03-24T09:33:05.000Z</time>
      </trkpt>
      <trkpt lat="47.32764" lon="-2.46129">
        <ele>57.799999237061</ele>
        <time>2022-03-24T09:33:06.000Z</time>
      </trkpt>
      <trkpt lat="47.32765" lon="-2.46132">
        <ele>58.200000762939</ele>
        <time>2022-03-24T09:33:07.000Z</time>
      </trkpt>
      <trkpt lat="47.32766" lon="-2.46137">
        <ele>58.799999237061</ele>
        <time>2022-03-24T09:33:08.000Z</time>
      </trkpt>
      <trkpt lat="47.32769" lon="-2.46144">
        <ele>58.799999237061</ele>
        <time>2022-03-24T09:33:10.000Z</time>
      </trkpt>
      <trkpt lat="47.32784" lon="-2.46162">
        <ele>58.799999237061</ele>
        <time>2022-03-24T09:33:16.000Z</time>
      </trkpt>
      <trkpt lat="47.32788" lon="-2.46167">
        <ele>59.200000762939</ele>
        <time>2022-03-24T09:33:18.000Z</time>
      </trkpt>
      <trkpt lat="47.32792" lon="-2.4617">
        <ele>60</ele>
        <time>2022-03-24T09:33:19.000Z</time>
      </trkpt>
      <trkpt lat="47.32795" lon="-2.46173">
        <ele>60.400001525879</ele>
        <time>2022-03-24T09:33:20.000Z</time>
      </trkpt>
      <trkpt lat="47.32798" lon="-2.46175">
        <ele>60.799999237061</ele>
        <time>2022-03-24T09:33:21.000Z</time>
      </trkpt>
      <trkpt lat="47.32813" lon="-2.46187">
        <ele>60.799999237061</ele>
        <time>2022-03-24T09:33:28.000Z</time>
      </trkpt>
      <trkpt lat="47.32821" lon="-2.46189">
        <ele>60.799999237061</ele>
        <time>2022-03-24T09:33:33.000Z</time>
      </trkpt>
      <trkpt lat="47.32828" lon="-2.46186">
        <ele>60.799999237061</ele>
        <time>2022-03-24T09:33:39.000Z</time>
      </trkpt>
      <trkpt lat="47.32832" lon="-2.46183">
        <ele>60.799999237061</ele>
        <time>2022-03-24T09:33:42.000Z</time>
      </trkpt>
      <trkpt lat="47.32833" lon="-2.46182">
        <ele>61.200000762939</ele>
        <time>2022-03-24T09:33:43.000Z</time>
      </trkpt>
      <trkpt lat="47.32835" lon="-2.46181">
        <ele>62</ele>
        <time>2022-03-24T09:33:44.000Z</time>
      </trkpt>
      <trkpt lat="47.32836" lon="-2.4618">
        <ele>62.400001525879</ele>
        <time>2022-03-24T09:33:45.000Z</time>
      </trkpt>
      <trkpt lat="47.32837" lon="-2.46179">
        <ele>62.799999237061</ele>
        <time>2022-03-24T09:33:46.000Z</time>
      </trkpt>
      <trkpt lat="47.3284" lon="-2.46175">
        <ele>62.799999237061</ele>
        <time>2022-03-24T09:33:49.000Z</time>
      </trkpt>
      <trkpt lat="47.32845" lon="-2.46172">
        <ele>62.799999237061</ele>
        <time>2022-03-24T09:33:52.000Z</time>
      </trkpt>
      <trkpt lat="47.32853" lon="-2.46168">
        <ele>63.200000762939</ele>
        <time>2022-03-24T09:33:57.000Z</time>
      </trkpt>
      <trkpt lat="47.32854" lon="-2.46167">
        <ele>63.799999237061</ele>
        <time>2022-03-24T09:33:58.000Z</time>
      </trkpt>
      <trkpt lat="47.32856" lon="-2.46166">
        <ele>64.199996948242</ele>
        <time>2022-03-24T09:33:59.000Z</time>
      </trkpt>
      <trkpt lat="47.32857" lon="-2.46166">
        <ele>64.599998474121</ele>
        <time>2022-03-24T09:34:00.000Z</time>
      </trkpt>
      <trkpt lat="47.32859" lon="-2.46165">
        <ele>65</ele>
        <time>2022-03-24T09:34:01.000Z</time>
      </trkpt>
      <trkpt lat="47.32866" lon="-2.4616">
        <ele>65</ele>
        <time>2022-03-24T09:34:05.000Z</time>
      </trkpt>
      <trkpt lat="47.32873" lon="-2.46155">
        <ele>65.400001525879</ele>
        <time>2022-03-24T09:34:09.000Z</time>
      </trkpt>
      <trkpt lat="47.32875" lon="-2.46154">
        <ele>65.800003051758</ele>
        <time>2022-03-24T09:34:10.000Z</time>
      </trkpt>
      <trkpt lat="47.32877" lon="-2.46153">
        <ele>66.199996948242</ele>
        <time>2022-03-24T09:34:11.000Z</time>
      </trkpt>
      <trkpt lat="47.32879" lon="-2.46152">
        <ele>66.599998474121</ele>
        <time>2022-03-24T09:34:12.000Z</time>
      </trkpt>
      <trkpt lat="47.32881" lon="-2.46151">
        <ele>67</ele>
        <time>2022-03-24T09:34:13.000Z</time>
      </trkpt>
      <trkpt lat="47.3289" lon="-2.46145">
        <ele>67</ele>
        <time>2022-03-24T09:34:19.000Z</time>
      </trkpt>
      <trkpt lat="47.32893" lon="-2.46145">
        <ele>67</ele>
        <time>2022-03-24T09:34:22.000Z</time>
      </trkpt>
      <trkpt lat="47.329" lon="-2.46151">
        <ele>69</ele>
        <time>2022-03-24T09:39:27.000Z</time>
      </trkpt>
      <trkpt lat="47.32901" lon="-2.46154">
        <ele>69</ele>
        <time>2022-03-24T09:39:28.000Z</time>
      </trkpt>
      <trkpt lat="47.32908" lon="-2.46174">
        <ele>69</ele>
        <time>2022-03-24T09:39:33.000Z</time>
      </trkpt>
      <trkpt lat="47.32918" lon="-2.46206">
        <ele>69</ele>
        <time>2022-03-24T09:39:40.000Z</time>
      </trkpt>
      <trkpt lat="47.32929" lon="-2.46245">
        <ele>69</ele>
        <time>2022-03-24T09:39:48.000Z</time>
      </trkpt>
      <trkpt lat="47.32938" lon="-2.46277">
        <ele>69</ele>
        <time>2022-03-24T09:39:54.000Z</time>
      </trkpt>
      <trkpt lat="47.32951" lon="-2.4632">
        <ele>69</ele>
        <time>2022-03-24T09:40:01.000Z</time>
      </trkpt>
      <trkpt lat="47.32958" lon="-2.46346">
        <ele>68.599998474121</ele>
        <time>2022-03-24T09:40:04.000Z</time>
      </trkpt>
      <trkpt lat="47.3296" lon="-2.46356">
        <ele>68.199996948242</ele>
        <time>2022-03-24T09:40:05.000Z</time>
      </trkpt>
      <trkpt lat="47.32963" lon="-2.46368">
        <ele>67.599998474121</ele>
        <time>2022-03-24T09:40:06.000Z</time>
      </trkpt>
      <trkpt lat="47.32965" lon="-2.4638">
        <ele>67.199996948242</ele>
        <time>2022-03-24T09:40:07.000Z</time>
      </trkpt>
      <trkpt lat="47.32966" lon="-2.46392">
        <ele>66.800003051758</ele>
        <time>2022-03-24T09:40:08.000Z</time>
      </trkpt>
      <trkpt lat="47.32966" lon="-2.46405">
        <ele>66.199996948242</ele>
        <time>2022-03-24T09:40:09.000Z</time>
      </trkpt>
      <trkpt lat="47.32967" lon="-2.46419">
        <ele>65.800003051758</ele>
        <time>2022-03-24T09:40:10.000Z</time>
      </trkpt>
      <trkpt lat="47.32966" lon="-2.46433">
        <ele>65</ele>
        <time>2022-03-24T09:40:11.000Z</time>
      </trkpt>
      <trkpt lat="47.32965" lon="-2.46449">
        <ele>64.400001525879</ele>
        <time>2022-03-24T09:40:12.000Z</time>
      </trkpt>
      <trkpt lat="47.32964" lon="-2.46465">
        <ele>63.599998474121</ele>
        <time>2022-03-24T09:40:13.000Z</time>
      </trkpt>
      <trkpt lat="47.32964" lon="-2.4648">
        <ele>62.799999237061</ele>
        <time>2022-03-24T09:40:14.000Z</time>
      </trkpt>
      <trkpt lat="47.32963" lon="-2.46493">
        <ele>62.200000762939</ele>
        <time>2022-03-24T09:40:15.000Z</time>
      </trkpt>
      <trkpt lat="47.32962" lon="-2.46506">
        <ele>61.200000762939</ele>
        <time>2022-03-24T09:40:16.000Z</time>
      </trkpt>
      <trkpt lat="47.32961" lon="-2.46518">
        <ele>60.400001525879</ele>
        <time>2022-03-24T09:40:17.000Z</time>
      </trkpt>
      <trkpt lat="47.3296" lon="-2.46529">
        <ele>59.599998474121</ele>
        <time>2022-03-24T09:40:18.000Z</time>
      </trkpt>
      <trkpt lat="47.32959" lon="-2.46539">
        <ele>58.799999237061</ele>
        <time>2022-03-24T09:40:19.000Z</time>
      </trkpt>
      <trkpt lat="47.32958" lon="-2.46549">
        <ele>58</ele>
        <time>2022-03-24T09:40:20.000Z</time>
      </trkpt>
      <trkpt lat="47.32959" lon="-2.46557">
        <ele>56.599998474121</ele>
        <time>2022-03-24T09:40:21.000Z</time>
      </trkpt>
      <trkpt lat="47.32962" lon="-2.46563">
        <ele>55.799999237061</ele>
        <time>2022-03-24T09:40:22.000Z</time>
      </trkpt>
      <trkpt lat="47.3297" lon="-2.46565">
        <ele>55.799999237061</ele>
        <time>2022-03-24T09:40:24.000Z</time>
      </trkpt>
      <trkpt lat="47.32977" lon="-2.46562">
        <ele>55.799999237061</ele>
        <time>2022-03-24T09:40:26.000Z</time>
      </trkpt>
      <trkpt lat="47.32981" lon="-2.4656">
        <ele>55.799999237061</ele>
        <time>2022-03-24T09:40:28.000Z</time>
      </trkpt>
      <trkpt lat="47.32996" lon="-2.46552">
        <ele>56.200000762939</ele>
        <time>2022-03-24T09:40:33.000Z</time>
      </trkpt>
      <trkpt lat="47.32999" lon="-2.4655">
        <ele>56.599998474121</ele>
        <time>2022-03-24T09:40:34.000Z</time>
      </trkpt>
      <trkpt lat="47.33002" lon="-2.46548">
        <ele>57</ele>
        <time>2022-03-24T09:40:35.000Z</time>
      </trkpt>
      <trkpt lat="47.33005" lon="-2.46546">
        <ele>57.599998474121</ele>
        <time>2022-03-24T09:40:36.000Z</time>
      </trkpt>
      <trkpt lat="47.33009" lon="-2.46543">
        <ele>58</ele>
        <time>2022-03-24T09:40:37.000Z</time>
      </trkpt>
      <trkpt lat="47.33018" lon="-2.46539">
        <ele>58</ele>
        <time>2022-03-24T09:40:40.000Z</time>
      </trkpt>
      <trkpt lat="47.33028" lon="-2.46537">
        <ele>58.400001525879</ele>
        <time>2022-03-24T09:40:43.000Z</time>
      </trkpt>
      <trkpt lat="47.33032" lon="-2.46537">
        <ele>58.799999237061</ele>
        <time>2022-03-24T09:40:44.000Z</time>
      </trkpt>
      <trkpt lat="47.33036" lon="-2.46538">
        <ele>59.200000762939</ele>
        <time>2022-03-24T09:40:45.000Z</time>
      </trkpt>
      <trkpt lat="47.33039" lon="-2.46537">
        <ele>60</ele>
        <time>2022-03-24T09:40:46.000Z</time>
      </trkpt>
      <trkpt lat="47.33061" lon="-2.46528">
        <ele>60</ele>
        <time>2022-03-24T09:40:52.000Z</time>
      </trkpt>
      <trkpt lat="47.3307" lon="-2.46523">
        <ele>60.400001525879</ele>
        <time>2022-03-24T09:40:55.000Z</time>
      </trkpt>
      <trkpt lat="47.33073" lon="-2.46523">
        <ele>60.799999237061</ele>
        <time>2022-03-24T09:40:56.000Z</time>
      </trkpt>
      <trkpt lat="47.33076" lon="-2.46521">
        <ele>61.200000762939</ele>
        <time>2022-03-24T09:40:57.000Z</time>
      </trkpt>
      <trkpt lat="47.33079" lon="-2.46519">
        <ele>61.599998474121</ele>
        <time>2022-03-24T09:40:58.000Z</time>
      </trkpt>
      <trkpt lat="47.33082" lon="-2.46518">
        <ele>62.200000762939</ele>
        <time>2022-03-24T09:40:59.000Z</time>
      </trkpt>
      <trkpt lat="47.33094" lon="-2.46512">
        <ele>62.599998474121</ele>
        <time>2022-03-24T09:41:03.000Z</time>
      </trkpt>
      <trkpt lat="47.33096" lon="-2.4651">
        <ele>63</ele>
        <time>2022-03-24T09:41:04.000Z</time>
      </trkpt>
      <trkpt lat="47.33099" lon="-2.46509">
        <ele>63.400001525879</ele>
        <time>2022-03-24T09:41:05.000Z</time>
      </trkpt>
      <trkpt lat="47.33101" lon="-2.46508">
        <ele>63.799999237061</ele>
        <time>2022-03-24T09:41:06.000Z</time>
      </trkpt>
      <trkpt lat="47.33104" lon="-2.46507">
        <ele>64.199996948242</ele>
        <time>2022-03-24T09:41:07.000Z</time>
      </trkpt>
      <trkpt lat="47.3311" lon="-2.46503">
        <ele>64.599998474121</ele>
        <time>2022-03-24T09:41:10.000Z</time>
      </trkpt>
      <trkpt lat="47.33111" lon="-2.46502">
        <ele>65</ele>
        <time>2022-03-24T09:41:11.000Z</time>
      </trkpt>
      <trkpt lat="47.33114" lon="-2.46501">
        <ele>65.400001525879</ele>
        <time>2022-03-24T09:41:12.000Z</time>
      </trkpt>
      <trkpt lat="47.33116" lon="-2.465">
        <ele>66</ele>
        <time>2022-03-24T09:41:13.000Z</time>
      </trkpt>
      <trkpt lat="47.33119" lon="-2.46499">
        <ele>66.400001525879</ele>
        <time>2022-03-24T09:41:14.000Z</time>
      </trkpt>
      <trkpt lat="47.33128" lon="-2.46496">
        <ele>66.400001525879</ele>
        <time>2022-03-24T09:41:18.000Z</time>
      </trkpt>
      <trkpt lat="47.33146" lon="-2.46494">
        <ele>66.400001525879</ele>
        <time>2022-03-24T09:41:25.000Z</time>
      </trkpt>
      <trkpt lat="47.33148" lon="-2.46494">
        <ele>66.800003051758</ele>
        <time>2022-03-24T09:41:26.000Z</time>
      </trkpt>
      <trkpt lat="47.33151" lon="-2.46493">
        <ele>67.199996948242</ele>
        <time>2022-03-24T09:41:27.000Z</time>
      </trkpt>
      <trkpt lat="47.33153" lon="-2.46493">
        <ele>67.599998474121</ele>
        <time>2022-03-24T09:41:28.000Z</time>
      </trkpt>
      <trkpt lat="47.33154" lon="-2.46493">
        <ele>68</ele>
        <time>2022-03-24T09:41:29.000Z</time>
      </trkpt>
      <trkpt lat="47.33156" lon="-2.46492">
        <ele>68.400001525879</ele>
        <time>2022-03-24T09:41:30.000Z</time>
      </trkpt>
      <trkpt lat="47.33157" lon="-2.46491">
        <ele>68.400001525879</ele>
        <time>2022-03-24T09:41:31.000Z</time>
      </trkpt>
      <trkpt lat="47.33169" lon="-2.46485">
        <ele>68.400001525879</ele>
        <time>2022-03-24T09:41:39.000Z</time>
      </trkpt>
      <trkpt lat="47.33178" lon="-2.46479">
        <ele>68.800003051758</ele>
        <time>2022-03-24T09:41:45.000Z</time>
      </trkpt>
      <trkpt lat="47.3318" lon="-2.46478">
        <ele>69.199996948242</ele>
        <time>2022-03-24T09:41:46.000Z</time>
      </trkpt>
      <trkpt lat="47.33182" lon="-2.46478">
        <ele>69.599998474121</ele>
        <time>2022-03-24T09:41:47.000Z</time>
      </trkpt>
      <trkpt lat="47.33183" lon="-2.46477">
        <ele>70</ele>
        <time>2022-03-24T09:41:48.000Z</time>
      </trkpt>
      <trkpt lat="47.33185" lon="-2.46477">
        <ele>70.400001525879</ele>
        <time>2022-03-24T09:41:49.000Z</time>
      </trkpt>
      <trkpt lat="47.33189" lon="-2.46476">
        <ele>70.400001525879</ele>
        <time>2022-03-24T09:41:52.000Z</time>
      </trkpt>
      <trkpt lat="47.33199" lon="-2.46473">
        <ele>70.800003051758</ele>
        <time>2022-03-24T09:41:58.000Z</time>
      </trkpt>
      <trkpt lat="47.332" lon="-2.46473">
        <ele>71.199996948242</ele>
        <time>2022-03-24T09:41:59.000Z</time>
      </trkpt>
      <trkpt lat="47.33202" lon="-2.46474">
        <ele>72.199996948242</ele>
        <time>2022-03-24T09:42:00.000Z</time>
      </trkpt>
      <trkpt lat="47.33204" lon="-2.46474">
        <ele>72.599998474121</ele>
        <time>2022-03-24T09:42:01.000Z</time>
      </trkpt>
      <trkpt lat="47.3321" lon="-2.46473">
        <ele>72.599998474121</ele>
        <time>2022-03-24T09:42:04.000Z</time>
      </trkpt>
      <trkpt lat="47.33211" lon="-2.46472">
        <ele>72.599998474121</ele>
        <time>2022-03-24T09:42:05.000Z</time>
      </trkpt>
      <trkpt lat="47.33218" lon="-2.4647">
        <ele>73</ele>
        <time>2022-03-24T09:42:09.000Z</time>
      </trkpt>
      <trkpt lat="47.3322" lon="-2.46468">
        <ele>73.400001525879</ele>
        <time>2022-03-24T09:42:10.000Z</time>
      </trkpt>
      <trkpt lat="47.33221" lon="-2.46467">
        <ele>73.800003051758</ele>
        <time>2022-03-24T09:42:11.000Z</time>
      </trkpt>
      <trkpt lat="47.33223" lon="-2.46465">
        <ele>74.400001525879</ele>
        <time>2022-03-24T09:42:12.000Z</time>
      </trkpt>
      <trkpt lat="47.33225" lon="-2.46463">
        <ele>74.800003051758</ele>
        <time>2022-03-24T09:42:13.000Z</time>
      </trkpt>
      <trkpt lat="47.3323" lon="-2.46452">
        <ele>74.800003051758</ele>
        <time>2022-03-24T09:42:17.000Z</time>
      </trkpt>
      <trkpt lat="47.33241" lon="-2.46434">
        <ele>75.199996948242</ele>
        <time>2022-03-24T09:42:23.000Z</time>
      </trkpt>
      <trkpt lat="47.33243" lon="-2.46432">
        <ele>76</ele>
        <time>2022-03-24T09:42:24.000Z</time>
      </trkpt>
      <trkpt lat="47.33245" lon="-2.46431">
        <ele>76.400001525879</ele>
        <time>2022-03-24T09:42:25.000Z</time>
      </trkpt>
      <trkpt lat="47.33248" lon="-2.4643">
        <ele>76.800003051758</ele>
        <time>2022-03-24T09:42:26.000Z</time>
      </trkpt>
      <trkpt lat="47.33254" lon="-2.46429">
        <ele>76.800003051758</ele>
        <time>2022-03-24T09:42:29.000Z</time>
      </trkpt>
      <trkpt lat="47.33271" lon="-2.46434">
        <ele>77.199996948242</ele>
        <time>2022-03-24T09:42:36.000Z</time>
      </trkpt>
      <trkpt lat="47.33273" lon="-2.46436">
        <ele>77.599998474121</ele>
        <time>2022-03-24T09:42:37.000Z</time>
      </trkpt>
      <trkpt lat="47.33274" lon="-2.46439">
        <ele>78</ele>
        <time>2022-03-24T09:42:38.000Z</time>
      </trkpt>
      <trkpt lat="47.33275" lon="-2.46442">
        <ele>78.400001525879</ele>
        <time>2022-03-24T09:42:39.000Z</time>
      </trkpt>
      <trkpt lat="47.33276" lon="-2.46445">
        <ele>78.800003051758</ele>
        <time>2022-03-24T09:42:40.000Z</time>
      </trkpt>
      <trkpt lat="47.33278" lon="-2.4645">
        <ele>78.800003051758</ele>
        <time>2022-03-24T09:42:42.000Z</time>
      </trkpt>
      <trkpt lat="47.33282" lon="-2.46456">
        <ele>78.800003051758</ele>
        <time>2022-03-24T09:42:47.000Z</time>
      </trkpt>
      <trkpt lat="47.33283" lon="-2.46461">
        <ele>78.800003051758</ele>
        <time>2022-03-24T09:43:01.000Z</time>
      </trkpt>
      <trkpt lat="47.33283" lon="-2.46469">
        <ele>78.800003051758</ele>
        <time>2022-03-24T09:43:04.000Z</time>
      </trkpt>
      <trkpt lat="47.33285" lon="-2.46495">
        <ele>78.800003051758</ele>
        <time>2022-03-24T09:43:10.000Z</time>
      </trkpt>
      <trkpt lat="47.3329" lon="-2.46533">
        <ele>78</ele>
        <time>2022-03-24T09:43:15.000Z</time>
      </trkpt>
      <trkpt lat="47.33291" lon="-2.46542">
        <ele>77.599998474121</ele>
        <time>2022-03-24T09:43:16.000Z</time>
      </trkpt>
      <trkpt lat="47.33292" lon="-2.4655">
        <ele>77.199996948242</ele>
        <time>2022-03-24T09:43:17.000Z</time>
      </trkpt>
      <trkpt lat="47.33294" lon="-2.46559">
        <ele>76.800003051758</ele>
        <time>2022-03-24T09:43:18.000Z</time>
      </trkpt>
      <trkpt lat="47.33302" lon="-2.46592">
        <ele>76.800003051758</ele>
        <time>2022-03-24T09:43:22.000Z</time>
      </trkpt>
      <trkpt lat="47.33318" lon="-2.46613">
        <ele>76.800003051758</ele>
        <time>2022-03-24T09:43:26.000Z</time>
      </trkpt>
      <trkpt lat="47.33329" lon="-2.46631">
        <ele>76.400001525879</ele>
        <time>2022-03-24T09:43:30.000Z</time>
      </trkpt>
      <trkpt lat="47.3333" lon="-2.46636">
        <ele>76</ele>
        <time>2022-03-24T09:43:31.000Z</time>
      </trkpt>
      <trkpt lat="47.3333" lon="-2.46639">
        <ele>75.599998474121</ele>
        <time>2022-03-24T09:43:32.000Z</time>
      </trkpt>
      <trkpt lat="47.33329" lon="-2.46642">
        <ele>75.199996948242</ele>
        <time>2022-03-24T09:43:33.000Z</time>
      </trkpt>
      <trkpt lat="47.33329" lon="-2.46644">
        <ele>74.800003051758</ele>
        <time>2022-03-24T09:43:34.000Z</time>
      </trkpt>
      <trkpt lat="47.33327" lon="-2.46646">
        <ele>74.800003051758</ele>
        <time>2022-03-24T09:43:35.000Z</time>
      </trkpt>
      <trkpt lat="47.33325" lon="-2.46653">
        <ele>74.800003051758</ele>
        <time>2022-03-24T09:43:38.000Z</time>
      </trkpt>
      <trkpt lat="47.3333" lon="-2.46656">
        <ele>74.800003051758</ele>
        <time>2022-03-24T09:43:42.000Z</time>
      </trkpt>
      <trkpt lat="47.33332" lon="-2.46656">
        <ele>74.800003051758</ele>
        <time>2022-03-24T09:43:43.000Z</time>
      </trkpt>
      <trkpt lat="47.33343" lon="-2.46655">
        <ele>74.800003051758</ele>
        <time>2022-03-24T09:43:47.000Z</time>
      </trkpt>
      <trkpt lat="47.33359" lon="-2.46648">
        <ele>74.800003051758</ele>
        <time>2022-03-24T09:43:53.000Z</time>
      </trkpt>
      <trkpt lat="47.3337" lon="-2.46641">
        <ele>74.800003051758</ele>
        <time>2022-03-24T09:43:58.000Z</time>
      </trkpt>
      <trkpt lat="47.33381" lon="-2.46628">
        <ele>74.800003051758</ele>
        <time>2022-03-24T09:44:04.000Z</time>
      </trkpt>
      <trkpt lat="47.3339" lon="-2.46617">
        <ele>75.199996948242</ele>
        <time>2022-03-24T09:44:08.000Z</time>
      </trkpt>
      <trkpt lat="47.33391" lon="-2.46615">
        <ele>75.599998474121</ele>
        <time>2022-03-24T09:44:09.000Z</time>
      </trkpt>
      <trkpt lat="47.33393" lon="-2.46613">
        <ele>76</ele>
        <time>2022-03-24T09:44:10.000Z</time>
      </trkpt>
      <trkpt lat="47.33395" lon="-2.46611">
        <ele>76.400001525879</ele>
        <time>2022-03-24T09:44:11.000Z</time>
      </trkpt>
      <trkpt lat="47.33396" lon="-2.4661">
        <ele>76.800003051758</ele>
        <time>2022-03-24T09:44:12.000Z</time>
      </trkpt>
      <trkpt lat="47.33404" lon="-2.46603">
        <ele>76.800003051758</ele>
        <time>2022-03-24T09:44:16.000Z</time>
      </trkpt>
      <trkpt lat="47.33412" lon="-2.46593">
        <ele>77.199996948242</ele>
        <time>2022-03-24T09:44:21.000Z</time>
      </trkpt>
      <trkpt lat="47.33413" lon="-2.46591">
        <ele>77.599998474121</ele>
        <time>2022-03-24T09:44:22.000Z</time>
      </trkpt>
      <trkpt lat="47.33415" lon="-2.46589">
        <ele>78</ele>
        <time>2022-03-24T09:44:23.000Z</time>
      </trkpt>
      <trkpt lat="47.33418" lon="-2.46588">
        <ele>78.599998474121</ele>
        <time>2022-03-24T09:44:24.000Z</time>
      </trkpt>
      <trkpt lat="47.3342" lon="-2.46587">
        <ele>79</ele>
        <time>2022-03-24T09:44:25.000Z</time>
      </trkpt>
      <trkpt lat="47.3343" lon="-2.4658">
        <ele>79</ele>
        <time>2022-03-24T09:44:29.000Z</time>
      </trkpt>
      <trkpt lat="47.33435" lon="-2.46577">
        <ele>79.400001525879</ele>
        <time>2022-03-24T09:44:31.000Z</time>
      </trkpt>
      <trkpt lat="47.33438" lon="-2.46576">
        <ele>79.800003051758</ele>
        <time>2022-03-24T09:44:32.000Z</time>
      </trkpt>
      <trkpt lat="47.33441" lon="-2.46574">
        <ele>80.199996948242</ele>
        <time>2022-03-24T09:44:33.000Z</time>
      </trkpt>
      <trkpt lat="47.33443" lon="-2.46573">
        <ele>80.599998474121</ele>
        <time>2022-03-24T09:44:34.000Z</time>
      </trkpt>
      <trkpt lat="47.33446" lon="-2.46571">
        <ele>81</ele>
        <time>2022-03-24T09:44:35.000Z</time>
      </trkpt>
      <trkpt lat="47.33456" lon="-2.46557">
        <ele>81</ele>
        <time>2022-03-24T09:44:41.000Z</time>
      </trkpt>
      <trkpt lat="47.33458" lon="-2.46554">
        <ele>81.400001525879</ele>
        <time>2022-03-24T09:44:42.000Z</time>
      </trkpt>
      <trkpt lat="47.33459" lon="-2.46552">
        <ele>81.800003051758</ele>
        <time>2022-03-24T09:44:43.000Z</time>
      </trkpt>
      <trkpt lat="47.33461" lon="-2.4655">
        <ele>82.199996948242</ele>
        <time>2022-03-24T09:44:44.000Z</time>
      </trkpt>
      <trkpt lat="47.33464" lon="-2.46548">
        <ele>82.800003051758</ele>
        <time>2022-03-24T09:44:45.000Z</time>
      </trkpt>
      <trkpt lat="47.33466" lon="-2.46545">
        <ele>83.199996948242</ele>
        <time>2022-03-24T09:44:46.000Z</time>
      </trkpt>
      <trkpt lat="47.33471" lon="-2.4654">
        <ele>83.199996948242</ele>
        <time>2022-03-24T09:44:48.000Z</time>
      </trkpt>
      <trkpt lat="47.33486" lon="-2.46521">
        <ele>83.199996948242</ele>
        <time>2022-03-24T09:44:54.000Z</time>
      </trkpt>
      <trkpt lat="47.3349" lon="-2.46516">
        <ele>83.599998474121</ele>
        <time>2022-03-24T09:44:56.000Z</time>
      </trkpt>
      <trkpt lat="47.33492" lon="-2.46514">
        <ele>84</ele>
        <time>2022-03-24T09:44:57.000Z</time>
      </trkpt>
      <trkpt lat="47.33494" lon="-2.46512">
        <ele>84.400001525879</ele>
        <time>2022-03-24T09:44:58.000Z</time>
      </trkpt>
      <trkpt lat="47.33496" lon="-2.46509">
        <ele>84.800003051758</ele>
        <time>2022-03-24T09:44:59.000Z</time>
      </trkpt>
      <trkpt lat="47.33497" lon="-2.46507">
        <ele>85.199996948242</ele>
        <time>2022-03-24T09:45:00.000Z</time>
      </trkpt>
      <trkpt lat="47.33499" lon="-2.46504">
        <ele>85.199996948242</ele>
        <time>2022-03-24T09:45:01.000Z</time>
      </trkpt>
      <trkpt lat="47.33508" lon="-2.46493">
        <ele>85.199996948242</ele>
        <time>2022-03-24T09:45:06.000Z</time>
      </trkpt>
      <trkpt lat="47.3351" lon="-2.46491">
        <ele>85.599998474121</ele>
        <time>2022-03-24T09:45:08.000Z</time>
      </trkpt>
      <trkpt lat="47.33511" lon="-2.4649">
        <ele>86</ele>
        <time>2022-03-24T09:45:09.000Z</time>
      </trkpt>
      <trkpt lat="47.33513" lon="-2.46489">
        <ele>86.400001525879</ele>
        <time>2022-03-24T09:45:10.000Z</time>
      </trkpt>
      <trkpt lat="47.33515" lon="-2.46488">
        <ele>86.800003051758</ele>
        <time>2022-03-24T09:45:11.000Z</time>
      </trkpt>
      <trkpt lat="47.33518" lon="-2.46489">
        <ele>87.199996948242</ele>
        <time>2022-03-24T09:45:12.000Z</time>
      </trkpt>
      <trkpt lat="47.33534" lon="-2.46486">
        <ele>87.199996948242</ele>
        <time>2022-03-24T09:45:17.000Z</time>
      </trkpt>
      <trkpt lat="47.33542" lon="-2.46481">
        <ele>87.199996948242</ele>
        <time>2022-03-24T09:45:23.000Z</time>
      </trkpt>
      <trkpt lat="47.33542" lon="-2.46481">
        <ele>87.199996948242</ele>
        <time>2022-03-24T09:45:24.000Z</time>
      </trkpt>
      <trkpt lat="47.3355" lon="-2.46482">
        <ele>87.199996948242</ele>
        <time>2022-03-24T09:45:37.000Z</time>
      </trkpt>
      <trkpt lat="47.33553" lon="-2.4648">
        <ele>87.199996948242</ele>
        <time>2022-03-24T09:45:39.000Z</time>
      </trkpt>
      <trkpt lat="47.33564" lon="-2.46466">
        <ele>87.199996948242</ele>
        <time>2022-03-24T09:45:44.000Z</time>
      </trkpt>
      <trkpt lat="47.33579" lon="-2.46454">
        <ele>87.599998474121</ele>
        <time>2022-03-24T09:45:49.000Z</time>
      </trkpt>
      <trkpt lat="47.33583" lon="-2.46452">
        <ele>88</ele>
        <time>2022-03-24T09:45:50.000Z</time>
      </trkpt>
      <trkpt lat="47.33586" lon="-2.4645">
        <ele>88.400001525879</ele>
        <time>2022-03-24T09:45:51.000Z</time>
      </trkpt>
      <trkpt lat="47.33589" lon="-2.46447">
        <ele>88.800003051758</ele>
        <time>2022-03-24T09:45:52.000Z</time>
      </trkpt>
      <trkpt lat="47.33592" lon="-2.46445">
        <ele>89.199996948242</ele>
        <time>2022-03-24T09:45:53.000Z</time>
      </trkpt>
      <trkpt lat="47.33604" lon="-2.46438">
        <ele>89.199996948242</ele>
        <time>2022-03-24T09:45:57.000Z</time>
      </trkpt>
      <trkpt lat="47.33624" lon="-2.46426">
        <ele>89.199996948242</ele>
        <time>2022-03-24T09:46:04.000Z</time>
      </trkpt>
      <trkpt lat="47.33637" lon="-2.46411">
        <ele>89.599998474121</ele>
        <time>2022-03-24T09:46:09.000Z</time>
      </trkpt>
      <trkpt lat="47.33638" lon="-2.46408">
        <ele>90.199996948242</ele>
        <time>2022-03-24T09:46:10.000Z</time>
      </trkpt>
      <trkpt lat="47.3364" lon="-2.46405">
        <ele>90.599998474121</ele>
        <time>2022-03-24T09:46:11.000Z</time>
      </trkpt>
      <trkpt lat="47.33641" lon="-2.46402">
        <ele>91</ele>
        <time>2022-03-24T09:46:12.000Z</time>
      </trkpt>
      <trkpt lat="47.33642" lon="-2.464">
        <ele>91.400001525879</ele>
        <time>2022-03-24T09:46:13.000Z</time>
      </trkpt>
      <trkpt lat="47.33643" lon="-2.46395">
        <ele>91.400001525879</ele>
        <time>2022-03-24T09:46:15.000Z</time>
      </trkpt>
      <trkpt lat="47.33647" lon="-2.46375">
        <ele>91.400001525879</ele>
        <time>2022-03-24T09:46:23.000Z</time>
      </trkpt>
      <trkpt lat="47.33648" lon="-2.46364">
        <ele>91.400001525879</ele>
        <time>2022-03-24T09:46:30.000Z</time>
      </trkpt>
      <trkpt lat="47.33652" lon="-2.46368">
        <ele>93.400001525879</ele>
        <time>2022-03-24T09:58:56.000Z</time>
      </trkpt>
      <trkpt lat="47.33657" lon="-2.46371">
        <ele>93.400001525879</ele>
        <time>2022-03-24T09:58:58.000Z</time>
      </trkpt>
      <trkpt lat="47.3367" lon="-2.46376">
        <ele>93.800003051758</ele>
        <time>2022-03-24T09:59:03.000Z</time>
      </trkpt>
      <trkpt lat="47.33673" lon="-2.46376">
        <ele>94.199996948242</ele>
        <time>2022-03-24T09:59:04.000Z</time>
      </trkpt>
      <trkpt lat="47.33675" lon="-2.46376">
        <ele>94.599998474121</ele>
        <time>2022-03-24T09:59:05.000Z</time>
      </trkpt>
      <trkpt lat="47.33678" lon="-2.46374">
        <ele>95</ele>
        <time>2022-03-24T09:59:06.000Z</time>
      </trkpt>
      <trkpt lat="47.33687" lon="-2.46367">
        <ele>95.400001525879</ele>
        <time>2022-03-24T09:59:07.000Z</time>
      </trkpt>
      <trkpt lat="47.33687" lon="-2.46367">
        <ele>95.400001525879</ele>
        <time>2022-03-24T09:59:10.000Z</time>
      </trkpt>
      <trkpt lat="47.33704" lon="-2.46347">
        <ele>95.400001525879</ele>
        <time>2022-03-24T09:59:17.000Z</time>
      </trkpt>
      <trkpt lat="47.33711" lon="-2.46341">
        <ele>95.400001525879</ele>
        <time>2022-03-24T09:59:19.000Z</time>
      </trkpt>
      <trkpt lat="47.3372" lon="-2.46331">
        <ele>95.400001525879</ele>
        <time>2022-03-24T09:59:22.000Z</time>
      </trkpt>
      <trkpt lat="47.33731" lon="-2.46321">
        <ele>95.400001525879</ele>
        <time>2022-03-24T09:59:27.000Z</time>
      </trkpt>
      <trkpt lat="47.33739" lon="-2.4631">
        <ele>95.400001525879</ele>
        <time>2022-03-24T09:59:32.000Z</time>
      </trkpt>
      <trkpt lat="47.33754" lon="-2.46289">
        <ele>95.400001525879</ele>
        <time>2022-03-24T09:59:38.000Z</time>
      </trkpt>
      <trkpt lat="47.33771" lon="-2.46266">
        <ele>95.400001525879</ele>
        <time>2022-03-24T09:59:45.000Z</time>
      </trkpt>
      <trkpt lat="47.33792" lon="-2.4624">
        <ele>95.400001525879</ele>
        <time>2022-03-24T09:59:52.000Z</time>
      </trkpt>
      <trkpt lat="47.33817" lon="-2.46212">
        <ele>95.400001525879</ele>
        <time>2022-03-24T09:59:58.000Z</time>
      </trkpt>
      <trkpt lat="47.33857" lon="-2.46167">
        <ele>95.400001525879</ele>
        <time>2022-03-24T10:00:06.000Z</time>
      </trkpt>
      <trkpt lat="47.33867" lon="-2.46156">
        <ele>95</ele>
        <time>2022-03-24T10:00:08.000Z</time>
      </trkpt>
      <trkpt lat="47.33872" lon="-2.4615">
        <ele>94.199996948242</ele>
        <time>2022-03-24T10:00:09.000Z</time>
      </trkpt>
      <trkpt lat="47.33877" lon="-2.46144">
        <ele>93.800003051758</ele>
        <time>2022-03-24T10:00:10.000Z</time>
      </trkpt>
      <trkpt lat="47.33882" lon="-2.46139">
        <ele>93.400001525879</ele>
        <time>2022-03-24T10:00:11.000Z</time>
      </trkpt>
      <trkpt lat="47.33902" lon="-2.46118">
        <ele>93.400001525879</ele>
        <time>2022-03-24T10:00:15.000Z</time>
      </trkpt>
      <trkpt lat="47.33907" lon="-2.46114">
        <ele>93.400001525879</ele>
        <time>2022-03-24T10:00:16.000Z</time>
      </trkpt>
      <trkpt lat="47.33918" lon="-2.46113">
        <ele>93.400001525879</ele>
        <time>2022-03-24T10:00:18.000Z</time>
      </trkpt>
      <trkpt lat="47.33928" lon="-2.46118">
        <ele>93.400001525879</ele>
        <time>2022-03-24T10:00:20.000Z</time>
      </trkpt>
      <trkpt lat="47.33937" lon="-2.46124">
        <ele>93.400001525879</ele>
        <time>2022-03-24T10:00:22.000Z</time>
      </trkpt>
      <trkpt lat="47.33942" lon="-2.46126">
        <ele>93.400001525879</ele>
        <time>2022-03-24T10:00:23.000Z</time>
      </trkpt>
      <trkpt lat="47.33961" lon="-2.46133">
        <ele>93.400001525879</ele>
        <time>2022-03-24T10:00:27.000Z</time>
      </trkpt>
      <trkpt lat="47.33966" lon="-2.46133">
        <ele>93.400001525879</ele>
        <time>2022-03-24T10:00:28.000Z</time>
      </trkpt>
      <trkpt lat="47.33971" lon="-2.46133">
        <ele>93.400001525879</ele>
        <time>2022-03-24T10:00:29.000Z</time>
      </trkpt>
      <trkpt lat="47.33988" lon="-2.46133">
        <ele>93.400001525879</ele>
        <time>2022-03-24T10:00:33.000Z</time>
      </trkpt>
      <trkpt lat="47.33992" lon="-2.46135">
        <ele>93.400001525879</ele>
        <time>2022-03-24T10:00:34.000Z</time>
      </trkpt>
      <trkpt lat="47.34003" lon="-2.46142">
        <ele>93.400001525879</ele>
        <time>2022-03-24T10:00:37.000Z</time>
      </trkpt>
      <trkpt lat="47.34008" lon="-2.46148">
        <ele>93.400001525879</ele>
        <time>2022-03-24T10:00:39.000Z</time>
      </trkpt>
      <trkpt lat="47.3401" lon="-2.46151">
        <ele>93.400001525879</ele>
        <time>2022-03-24T10:00:43.000Z</time>
      </trkpt>
      <trkpt lat="47.34006" lon="-2.46145">
        <ele>93.400001525879</ele>
        <time>2022-03-24T10:01:14.000Z</time>
      </trkpt>
      <trkpt lat="47.34003" lon="-2.4614">
        <ele>93.400001525879</ele>
        <time>2022-03-24T10:01:16.000Z</time>
      </trkpt>
      <trkpt lat="47.3399" lon="-2.46133">
        <ele>93.400001525879</ele>
        <time>2022-03-24T10:01:20.000Z</time>
      </trkpt>
      <trkpt lat="47.33971" lon="-2.46131">
        <ele>93.400001525879</ele>
        <time>2022-03-24T10:01:25.000Z</time>
      </trkpt>
      <trkpt lat="47.33966" lon="-2.46131">
        <ele>93.400001525879</ele>
        <time>2022-03-24T10:01:26.000Z</time>
      </trkpt>
      <trkpt lat="47.33944" lon="-2.46125">
        <ele>93.400001525879</ele>
        <time>2022-03-24T10:01:32.000Z</time>
      </trkpt>
      <trkpt lat="47.33936" lon="-2.46121">
        <ele>93.400001525879</ele>
        <time>2022-03-24T10:01:34.000Z</time>
      </trkpt>
      <trkpt lat="47.33925" lon="-2.46113">
        <ele>93.400001525879</ele>
        <time>2022-03-24T10:01:37.000Z</time>
      </trkpt>
      <trkpt lat="47.3392" lon="-2.46111">
        <ele>93.400001525879</ele>
        <time>2022-03-24T10:01:38.000Z</time>
      </trkpt>
      <trkpt lat="47.33906" lon="-2.46113">
        <ele>93.400001525879</ele>
        <time>2022-03-24T10:01:41.000Z</time>
      </trkpt>
      <trkpt lat="47.33894" lon="-2.46124">
        <ele>93.400001525879</ele>
        <time>2022-03-24T10:01:44.000Z</time>
      </trkpt>
      <trkpt lat="47.33886" lon="-2.46133">
        <ele>93.400001525879</ele>
        <time>2022-03-24T10:01:46.000Z</time>
      </trkpt>
      <trkpt lat="47.33882" lon="-2.46137">
        <ele>93.400001525879</ele>
        <time>2022-03-24T10:01:47.000Z</time>
      </trkpt>
      <trkpt lat="47.33865" lon="-2.46157">
        <ele>93.400001525879</ele>
        <time>2022-03-24T10:01:52.000Z</time>
      </trkpt>
      <trkpt lat="47.33834" lon="-2.4619">
        <ele>93.400001525879</ele>
        <time>2022-03-24T10:02:01.000Z</time>
      </trkpt>
      <trkpt lat="47.33827" lon="-2.46198">
        <ele>93.400001525879</ele>
        <time>2022-03-24T10:02:03.000Z</time>
      </trkpt>
      <trkpt lat="47.33815" lon="-2.46214">
        <ele>93.400001525879</ele>
        <time>2022-03-24T10:02:07.000Z</time>
      </trkpt>
      <trkpt lat="47.33787" lon="-2.46244">
        <ele>93.400001525879</ele>
        <time>2022-03-24T10:02:15.000Z</time>
      </trkpt>
      <trkpt lat="47.33759" lon="-2.46279">
        <ele>93.400001525879</ele>
        <time>2022-03-24T10:02:24.000Z</time>
      </trkpt>
      <trkpt lat="47.33735" lon="-2.46315">
        <ele>93.400001525879</ele>
        <time>2022-03-24T10:02:33.000Z</time>
      </trkpt>
      <trkpt lat="47.33728" lon="-2.46326">
        <ele>93.800003051758</ele>
        <time>2022-03-24T10:02:36.000Z</time>
      </trkpt>
      <trkpt lat="47.33725" lon="-2.4633">
        <ele>94.199996948242</ele>
        <time>2022-03-24T10:02:37.000Z</time>
      </trkpt>
      <trkpt lat="47.33723" lon="-2.46334">
        <ele>95</ele>
        <time>2022-03-24T10:02:38.000Z</time>
      </trkpt>
      <trkpt lat="47.3372" lon="-2.46337">
        <ele>95.400001525879</ele>
        <time>2022-03-24T10:02:39.000Z</time>
      </trkpt>
      <trkpt lat="47.33717" lon="-2.4634">
        <ele>95.400001525879</ele>
        <time>2022-03-24T10:02:40.000Z</time>
      </trkpt>
      <trkpt lat="47.33699" lon="-2.46362">
        <ele>95.400001525879</ele>
        <time>2022-03-24T10:02:47.000Z</time>
      </trkpt>
      <trkpt lat="47.33692" lon="-2.46372">
        <ele>95.400001525879</ele>
        <time>2022-03-24T10:02:50.000Z</time>
      </trkpt>
      <trkpt lat="47.33688" lon="-2.46381">
        <ele>95.400001525879</ele>
        <time>2022-03-24T10:02:53.000Z</time>
      </trkpt>
      <trkpt lat="47.33685" lon="-2.46408">
        <ele>95.400001525879</ele>
        <time>2022-03-24T10:02:58.000Z</time>
      </trkpt>
      <trkpt lat="47.33689" lon="-2.46429">
        <ele>95.400001525879</ele>
        <time>2022-03-24T10:03:02.000Z</time>
      </trkpt>
      <trkpt lat="47.33691" lon="-2.46434">
        <ele>95.400001525879</ele>
        <time>2022-03-24T10:03:03.000Z</time>
      </trkpt>
      <trkpt lat="47.33698" lon="-2.46463">
        <ele>95.400001525879</ele>
        <time>2022-03-24T10:03:09.000Z</time>
      </trkpt>
      <trkpt lat="47.3371" lon="-2.46501">
        <ele>95.400001525879</ele>
        <time>2022-03-24T10:03:17.000Z</time>
      </trkpt>
      <trkpt lat="47.3372" lon="-2.46533">
        <ele>95.400001525879</ele>
        <time>2022-03-24T10:03:23.000Z</time>
      </trkpt>
      <trkpt lat="47.33726" lon="-2.46548">
        <ele>95.400001525879</ele>
        <time>2022-03-24T10:03:26.000Z</time>
      </trkpt>
      <trkpt lat="47.33734" lon="-2.46566">
        <ele>95.400001525879</ele>
        <time>2022-03-24T10:03:30.000Z</time>
      </trkpt>
      <trkpt lat="47.33735" lon="-2.46578">
        <ele>95.400001525879</ele>
        <time>2022-03-24T10:03:32.000Z</time>
      </trkpt>
      <trkpt lat="47.3374" lon="-2.46614">
        <ele>95.400001525879</ele>
        <time>2022-03-24T10:03:39.000Z</time>
      </trkpt>
      <trkpt lat="47.33734" lon="-2.46638">
        <ele>95.400001525879</ele>
        <time>2022-03-24T10:03:44.000Z</time>
      </trkpt>
      <trkpt lat="47.33723" lon="-2.46669">
        <ele>95.400001525879</ele>
        <time>2022-03-24T10:03:51.000Z</time>
      </trkpt>
      <trkpt lat="47.33714" lon="-2.46693">
        <ele>95.400001525879</ele>
        <time>2022-03-24T10:03:56.000Z</time>
      </trkpt>
      <trkpt lat="47.33712" lon="-2.46696">
        <ele>95.400001525879</ele>
        <time>2022-03-24T10:03:57.000Z</time>
      </trkpt>
      <trkpt lat="47.33709" lon="-2.46699">
        <ele>95</ele>
        <time>2022-03-24T10:03:58.000Z</time>
      </trkpt>
      <trkpt lat="47.33707" lon="-2.46702">
        <ele>94.599998474121</ele>
        <time>2022-03-24T10:03:59.000Z</time>
      </trkpt>
      <trkpt lat="47.33704" lon="-2.46704">
        <ele>94.199996948242</ele>
        <time>2022-03-24T10:04:00.000Z</time>
      </trkpt>
      <trkpt lat="47.337" lon="-2.46706">
        <ele>93.800003051758</ele>
        <time>2022-03-24T10:04:01.000Z</time>
      </trkpt>
      <trkpt lat="47.33697" lon="-2.46708">
        <ele>93.400001525879</ele>
        <time>2022-03-24T10:04:02.000Z</time>
      </trkpt>
      <trkpt lat="47.33693" lon="-2.4671">
        <ele>93.400001525879</ele>
        <time>2022-03-24T10:04:03.000Z</time>
      </trkpt>
      <trkpt lat="47.33674" lon="-2.46715">
        <ele>93.400001525879</ele>
        <time>2022-03-24T10:04:08.000Z</time>
      </trkpt>
      <trkpt lat="47.33655" lon="-2.46728">
        <ele>93.400001525879</ele>
        <time>2022-03-24T10:04:12.000Z</time>
      </trkpt>
      <trkpt lat="47.3364" lon="-2.46736">
        <ele>92.800003051758</ele>
        <time>2022-03-24T10:04:15.000Z</time>
      </trkpt>
      <trkpt lat="47.33636" lon="-2.46738">
        <ele>91.800003051758</ele>
        <time>2022-03-24T10:04:16.000Z</time>
      </trkpt>
      <trkpt lat="47.33633" lon="-2.4674">
        <ele>91.400001525879</ele>
        <time>2022-03-24T10:04:17.000Z</time>
      </trkpt>
      <trkpt lat="47.33631" lon="-2.4674">
        <ele>90.800003051758</ele>
        <time>2022-03-24T10:04:18.000Z</time>
      </trkpt>
      <trkpt lat="47.33627" lon="-2.46741">
        <ele>90.800003051758</ele>
        <time>2022-03-24T10:04:21.000Z</time>
      </trkpt>
      <trkpt lat="47.33622" lon="-2.46743">
        <ele>90.400001525879</ele>
        <time>2022-03-24T10:04:24.000Z</time>
      </trkpt>
      <trkpt lat="47.33619" lon="-2.46746">
        <ele>90</ele>
        <time>2022-03-24T10:04:25.000Z</time>
      </trkpt>
      <trkpt lat="47.33617" lon="-2.46748">
        <ele>89.599998474121</ele>
        <time>2022-03-24T10:04:26.000Z</time>
      </trkpt>
      <trkpt lat="47.33613" lon="-2.46752">
        <ele>89.199996948242</ele>
        <time>2022-03-24T10:04:27.000Z</time>
      </trkpt>
      <trkpt lat="47.3361" lon="-2.46754">
        <ele>88.599998474121</ele>
        <time>2022-03-24T10:04:28.000Z</time>
      </trkpt>
      <trkpt lat="47.336" lon="-2.46763">
        <ele>88.599998474121</ele>
        <time>2022-03-24T10:04:31.000Z</time>
      </trkpt>
      <trkpt lat="47.33589" lon="-2.46774">
        <ele>87.800003051758</ele>
        <time>2022-03-24T10:04:34.000Z</time>
      </trkpt>
      <trkpt lat="47.33586" lon="-2.46778">
        <ele>87.400001525879</ele>
        <time>2022-03-24T10:04:35.000Z</time>
      </trkpt>
      <trkpt lat="47.33582" lon="-2.46783">
        <ele>87</ele>
        <time>2022-03-24T10:04:36.000Z</time>
      </trkpt>
      <trkpt lat="47.33578" lon="-2.46787">
        <ele>86.400001525879</ele>
        <time>2022-03-24T10:04:37.000Z</time>
      </trkpt>
      <trkpt lat="47.33573" lon="-2.46793">
        <ele>86</ele>
        <time>2022-03-24T10:04:38.000Z</time>
      </trkpt>
      <trkpt lat="47.33569" lon="-2.46798">
        <ele>85.599998474121</ele>
        <time>2022-03-24T10:04:39.000Z</time>
      </trkpt>
      <trkpt lat="47.33564" lon="-2.46804">
        <ele>85.199996948242</ele>
        <time>2022-03-24T10:04:40.000Z</time>
      </trkpt>
      <trkpt lat="47.33559" lon="-2.46809">
        <ele>84.800003051758</ele>
        <time>2022-03-24T10:04:41.000Z</time>
      </trkpt>
      <trkpt lat="47.33554" lon="-2.46814">
        <ele>84.199996948242</ele>
        <time>2022-03-24T10:04:42.000Z</time>
      </trkpt>
      <trkpt lat="47.3355" lon="-2.46818">
        <ele>83.599998474121</ele>
        <time>2022-03-24T10:04:43.000Z</time>
      </trkpt>
      <trkpt lat="47.33546" lon="-2.46823">
        <ele>83.199996948242</ele>
        <time>2022-03-24T10:04:44.000Z</time>
      </trkpt>
      <trkpt lat="47.33542" lon="-2.46827">
        <ele>82.599998474121</ele>
        <time>2022-03-24T10:04:45.000Z</time>
      </trkpt>
      <trkpt lat="47.33539" lon="-2.46832">
        <ele>82</ele>
        <time>2022-03-24T10:04:46.000Z</time>
      </trkpt>
      <trkpt lat="47.33534" lon="-2.46839">
        <ele>81.599998474121</ele>
        <time>2022-03-24T10:04:48.000Z</time>
      </trkpt>
      <trkpt lat="47.33533" lon="-2.46841">
        <ele>81.199996948242</ele>
        <time>2022-03-24T10:04:49.000Z</time>
      </trkpt>
      <trkpt lat="47.33532" lon="-2.46843">
        <ele>80.800003051758</ele>
        <time>2022-03-24T10:04:50.000Z</time>
      </trkpt>
      <trkpt lat="47.33531" lon="-2.46844">
        <ele>80.400001525879</ele>
        <time>2022-03-24T10:04:51.000Z</time>
      </trkpt>
      <trkpt lat="47.33531" lon="-2.46844">
        <ele>80</ele>
        <time>2022-03-24T10:04:52.000Z</time>
      </trkpt>
      <trkpt lat="47.33531" lon="-2.46847">
        <ele>80</ele>
        <time>2022-03-24T10:04:56.000Z</time>
      </trkpt>
      <trkpt lat="47.33532" lon="-2.46862">
        <ele>80</ele>
        <time>2022-03-24T10:05:00.000Z</time>
      </trkpt>
      <trkpt lat="47.33532" lon="-2.46874">
        <ele>79.400001525879</ele>
        <time>2022-03-24T10:05:04.000Z</time>
      </trkpt>
      <trkpt lat="47.33531" lon="-2.46875">
        <ele>79</ele>
        <time>2022-03-24T10:05:05.000Z</time>
      </trkpt>
      <trkpt lat="47.3353" lon="-2.46876">
        <ele>78.599998474121</ele>
        <time>2022-03-24T10:05:06.000Z</time>
      </trkpt>
      <trkpt lat="47.33529" lon="-2.46878">
        <ele>78.199996948242</ele>
        <time>2022-03-24T10:05:07.000Z</time>
      </trkpt>
      <trkpt lat="47.33528" lon="-2.46879">
        <ele>77.800003051758</ele>
        <time>2022-03-24T10:05:08.000Z</time>
      </trkpt>
      <trkpt lat="47.33525" lon="-2.46883">
        <ele>77.800003051758</ele>
        <time>2022-03-24T10:05:11.000Z</time>
      </trkpt>
      <trkpt lat="47.33512" lon="-2.46896">
        <ele>77.800003051758</ele>
        <time>2022-03-24T10:05:18.000Z</time>
      </trkpt>
      <trkpt lat="47.33508" lon="-2.46901">
        <ele>77.400001525879</ele>
        <time>2022-03-24T10:05:21.000Z</time>
      </trkpt>
      <trkpt lat="47.33507" lon="-2.46902">
        <ele>76.800003051758</ele>
        <time>2022-03-24T10:05:22.000Z</time>
      </trkpt>
      <trkpt lat="47.33506" lon="-2.46903">
        <ele>76.400001525879</ele>
        <time>2022-03-24T10:05:23.000Z</time>
      </trkpt>
      <trkpt lat="47.33505" lon="-2.46904">
        <ele>75.599998474121</ele>
        <time>2022-03-24T10:05:24.000Z</time>
      </trkpt>
      <trkpt lat="47.33495" lon="-2.46911">
        <ele>75.599998474121</ele>
        <time>2022-03-24T10:05:31.000Z</time>
      </trkpt>
      <trkpt lat="47.33486" lon="-2.46918">
        <ele>75.599998474121</ele>
        <time>2022-03-24T10:05:37.000Z</time>
      </trkpt>
      <trkpt lat="47.33477" lon="-2.46929">
        <ele>75.599998474121</ele>
        <time>2022-03-24T10:05:44.000Z</time>
      </trkpt>
      <trkpt lat="47.33475" lon="-2.46933">
        <ele>75.199996948242</ele>
        <time>2022-03-24T10:05:46.000Z</time>
      </trkpt>
      <trkpt lat="47.33473" lon="-2.46935">
        <ele>74.800003051758</ele>
        <time>2022-03-24T10:05:47.000Z</time>
      </trkpt>
      <trkpt lat="47.33472" lon="-2.46937">
        <ele>74.400001525879</ele>
        <time>2022-03-24T10:05:48.000Z</time>
      </trkpt>
      <trkpt lat="47.33471" lon="-2.46939">
        <ele>73.599998474121</ele>
        <time>2022-03-24T10:05:49.000Z</time>
      </trkpt>
      <trkpt lat="47.33466" lon="-2.46948">
        <ele>73.599998474121</ele>
        <time>2022-03-24T10:05:52.000Z</time>
      </trkpt>
      <trkpt lat="47.33452" lon="-2.46973">
        <ele>73.599998474121</ele>
        <time>2022-03-24T10:05:58.000Z</time>
      </trkpt>
      <trkpt lat="47.33448" lon="-2.46977">
        <ele>73.599998474121</ele>
        <time>2022-03-24T10:05:59.000Z</time>
      </trkpt>
      <trkpt lat="47.3343" lon="-2.47002">
        <ele>73.599998474121</ele>
        <time>2022-03-24T10:06:04.000Z</time>
      </trkpt>
      <trkpt lat="47.33407" lon="-2.47045">
        <ele>73.599998474121</ele>
        <time>2022-03-24T10:06:11.000Z</time>
      </trkpt>
      <trkpt lat="47.33397" lon="-2.47075">
        <ele>73.199996948242</ele>
        <time>2022-03-24T10:06:15.000Z</time>
      </trkpt>
      <trkpt lat="47.33395" lon="-2.47084">
        <ele>72.800003051758</ele>
        <time>2022-03-24T10:06:16.000Z</time>
      </trkpt>
      <trkpt lat="47.33393" lon="-2.47092">
        <ele>72.400001525879</ele>
        <time>2022-03-24T10:06:17.000Z</time>
      </trkpt>
      <trkpt lat="47.33392" lon="-2.47101">
        <ele>71.800003051758</ele>
        <time>2022-03-24T10:06:18.000Z</time>
      </trkpt>
      <trkpt lat="47.33391" lon="-2.47109">
        <ele>71.400001525879</ele>
        <time>2022-03-24T10:06:19.000Z</time>
      </trkpt>
      <trkpt lat="47.33386" lon="-2.47131">
        <ele>71.400001525879</ele>
        <time>2022-03-24T10:06:22.000Z</time>
      </trkpt>
      <trkpt lat="47.33383" lon="-2.47137">
        <ele>71.400001525879</ele>
        <time>2022-03-24T10:06:23.000Z</time>
      </trkpt>
      <trkpt lat="47.33371" lon="-2.4716">
        <ele>71.400001525879</ele>
        <time>2022-03-24T10:06:27.000Z</time>
      </trkpt>
      <trkpt lat="47.33369" lon="-2.47166">
        <ele>71.400001525879</ele>
        <time>2022-03-24T10:06:28.000Z</time>
      </trkpt>
      <trkpt lat="47.33371" lon="-2.47186">
        <ele>71.400001525879</ele>
        <time>2022-03-24T10:06:31.000Z</time>
      </trkpt>
      <trkpt lat="47.33372" lon="-2.47193">
        <ele>71.400001525879</ele>
        <time>2022-03-24T10:06:32.000Z</time>
      </trkpt>
      <trkpt lat="47.33379" lon="-2.4724">
        <ele>71.400001525879</ele>
        <time>2022-03-24T10:06:38.000Z</time>
      </trkpt>
      <trkpt lat="47.33381" lon="-2.47249">
        <ele>71.400001525879</ele>
        <time>2022-03-24T10:06:39.000Z</time>
      </trkpt>
      <trkpt lat="47.33388" lon="-2.47314">
        <ele>71.400001525879</ele>
        <time>2022-03-24T10:06:47.000Z</time>
      </trkpt>
      <trkpt lat="47.33392" lon="-2.47341">
        <ele>71.400001525879</ele>
        <time>2022-03-24T10:06:51.000Z</time>
      </trkpt>
      <trkpt lat="47.33395" lon="-2.47355">
        <ele>71.400001525879</ele>
        <time>2022-03-24T10:06:53.000Z</time>
      </trkpt>
      <trkpt lat="47.33413" lon="-2.47419">
        <ele>71.400001525879</ele>
        <time>2022-03-24T10:07:02.000Z</time>
      </trkpt>
      <trkpt lat="47.33424" lon="-2.47468">
        <ele>71.400001525879</ele>
        <time>2022-03-24T10:07:09.000Z</time>
      </trkpt>
      <trkpt lat="47.33442" lon="-2.47515">
        <ele>71.400001525879</ele>
        <time>2022-03-24T10:07:16.000Z</time>
      </trkpt>
      <trkpt lat="47.33463" lon="-2.4756">
        <ele>71.400001525879</ele>
        <time>2022-03-24T10:07:23.000Z</time>
      </trkpt>
      <trkpt lat="47.33479" lon="-2.47592">
        <ele>71</ele>
        <time>2022-03-24T10:07:28.000Z</time>
      </trkpt>
      <trkpt lat="47.3348" lon="-2.47595">
        <ele>70.599998474121</ele>
        <time>2022-03-24T10:07:29.000Z</time>
      </trkpt>
      <trkpt lat="47.33481" lon="-2.47597">
        <ele>70.199996948242</ele>
        <time>2022-03-24T10:07:30.000Z</time>
      </trkpt>
      <trkpt lat="47.33481" lon="-2.47596">
        <ele>69.800003051758</ele>
        <time>2022-03-24T10:07:31.000Z</time>
      </trkpt>
      <trkpt lat="47.33479" lon="-2.476">
        <ele>69.400001525879</ele>
        <time>2022-03-24T10:08:09.000Z</time>
      </trkpt>
      <trkpt lat="47.33475" lon="-2.47605">
        <ele>69.400001525879</ele>
        <time>2022-03-24T10:08:11.000Z</time>
      </trkpt>
      <trkpt lat="47.33458" lon="-2.47618">
        <ele>68.599998474121</ele>
        <time>2022-03-24T10:08:17.000Z</time>
      </trkpt>
      <trkpt lat="47.33457" lon="-2.47618">
        <ele>68.199996948242</ele>
        <time>2022-03-24T10:08:18.000Z</time>
      </trkpt>
      <trkpt lat="47.33455" lon="-2.47619">
        <ele>67.599998474121</ele>
        <time>2022-03-24T10:08:19.000Z</time>
      </trkpt>
      <trkpt lat="47.33454" lon="-2.47619">
        <ele>67.199996948242</ele>
        <time>2022-03-24T10:08:20.000Z</time>
      </trkpt>
      <trkpt lat="47.3345" lon="-2.47621">
        <ele>67.199996948242</ele>
        <time>2022-03-24T10:08:22.000Z</time>
      </trkpt>
      <trkpt lat="47.3344" lon="-2.47627">
        <ele>67.199996948242</ele>
        <time>2022-03-24T10:08:28.000Z</time>
      </trkpt>
      <trkpt lat="47.33438" lon="-2.47628">
        <ele>66.800003051758</ele>
        <time>2022-03-24T10:08:29.000Z</time>
      </trkpt>
      <trkpt lat="47.33435" lon="-2.47629">
        <ele>66.400001525879</ele>
        <time>2022-03-24T10:08:30.000Z</time>
      </trkpt>
      <trkpt lat="47.33432" lon="-2.4763">
        <ele>65.800003051758</ele>
        <time>2022-03-24T10:08:31.000Z</time>
      </trkpt>
      <trkpt lat="47.33429" lon="-2.47631">
        <ele>65.400001525879</ele>
        <time>2022-03-24T10:08:32.000Z</time>
      </trkpt>
      <trkpt lat="47.33427" lon="-2.47632">
        <ele>64.800003051758</ele>
        <time>2022-03-24T10:08:33.000Z</time>
      </trkpt>
      <trkpt lat="47.33426" lon="-2.47632">
        <ele>64.199996948242</ele>
        <time>2022-03-24T10:08:34.000Z</time>
      </trkpt>
      <trkpt lat="47.33426" lon="-2.47631">
        <ele>63.599998474121</ele>
        <time>2022-03-24T10:08:35.000Z</time>
      </trkpt>
      <trkpt lat="47.33427" lon="-2.47631">
        <ele>63</ele>
        <time>2022-03-24T10:08:36.000Z</time>
      </trkpt>
      <trkpt lat="47.33422" lon="-2.47633">
        <ele>62.400001525879</ele>
        <time>2022-03-24T10:08:47.000Z</time>
      </trkpt>
      <trkpt lat="47.33421" lon="-2.47633">
        <ele>62.400001525879</ele>
        <time>2022-03-24T10:08:49.000Z</time>
      </trkpt>
      <trkpt lat="47.33408" lon="-2.47649">
        <ele>60.200000762939</ele>
        <time>2022-03-24T10:09:59.000Z</time>
      </trkpt>
      <trkpt lat="47.33403" lon="-2.47654">
        <ele>60.200000762939</ele>
        <time>2022-03-24T10:10:01.000Z</time>
      </trkpt>
      <trkpt lat="47.33386" lon="-2.47673">
        <ele>60.200000762939</ele>
        <time>2022-03-24T10:10:07.000Z</time>
      </trkpt>
      <trkpt lat="47.33367" lon="-2.47692">
        <ele>59.799999237061</ele>
        <time>2022-03-24T10:10:13.000Z</time>
      </trkpt>
      <trkpt lat="47.33364" lon="-2.47695">
        <ele>59.400001525879</ele>
        <time>2022-03-24T10:10:14.000Z</time>
      </trkpt>
      <trkpt lat="47.3336" lon="-2.47698">
        <ele>59</ele>
        <time>2022-03-24T10:10:15.000Z</time>
      </trkpt>
      <trkpt lat="47.33356" lon="-2.47702">
        <ele>58.599998474121</ele>
        <time>2022-03-24T10:10:16.000Z</time>
      </trkpt>
      <trkpt lat="47.33353" lon="-2.47705">
        <ele>58.200000762939</ele>
        <time>2022-03-24T10:10:17.000Z</time>
      </trkpt>
      <trkpt lat="47.33339" lon="-2.47716">
        <ele>58.200000762939</ele>
        <time>2022-03-24T10:10:20.000Z</time>
      </trkpt>
      <trkpt lat="47.33329" lon="-2.47725">
        <ele>58.200000762939</ele>
        <time>2022-03-24T10:10:24.000Z</time>
      </trkpt>
      <trkpt lat="47.33315" lon="-2.47735">
        <ele>58.200000762939</ele>
        <time>2022-03-24T10:10:31.000Z</time>
      </trkpt>
      <trkpt lat="47.33299" lon="-2.47746">
        <ele>57.799999237061</ele>
        <time>2022-03-24T10:10:35.000Z</time>
      </trkpt>
      <trkpt lat="47.33295" lon="-2.47749">
        <ele>57.400001525879</ele>
        <time>2022-03-24T10:10:36.000Z</time>
      </trkpt>
      <trkpt lat="47.33291" lon="-2.47753">
        <ele>57</ele>
        <time>2022-03-24T10:10:37.000Z</time>
      </trkpt>
      <trkpt lat="47.33287" lon="-2.47755">
        <ele>56.599998474121</ele>
        <time>2022-03-24T10:10:38.000Z</time>
      </trkpt>
      <trkpt lat="47.33283" lon="-2.47758">
        <ele>56.200000762939</ele>
        <time>2022-03-24T10:10:39.000Z</time>
      </trkpt>
      <trkpt lat="47.33271" lon="-2.47767">
        <ele>56.200000762939</ele>
        <time>2022-03-24T10:10:42.000Z</time>
      </trkpt>
      <trkpt lat="47.33268" lon="-2.47771">
        <ele>56.200000762939</ele>
        <time>2022-03-24T10:10:43.000Z</time>
      </trkpt>
      <trkpt lat="47.33243" lon="-2.47797">
        <ele>56.200000762939</ele>
        <time>2022-03-24T10:10:50.000Z</time>
      </trkpt>
      <trkpt lat="47.33212" lon="-2.47831">
        <ele>56.200000762939</ele>
        <time>2022-03-24T10:10:58.000Z</time>
      </trkpt>
      <trkpt lat="47.33198" lon="-2.47847">
        <ele>55.799999237061</ele>
        <time>2022-03-24T10:11:02.000Z</time>
      </trkpt>
      <trkpt lat="47.33194" lon="-2.47852">
        <ele>55.400001525879</ele>
        <time>2022-03-24T10:11:03.000Z</time>
      </trkpt>
      <trkpt lat="47.33191" lon="-2.47857">
        <ele>54.799999237061</ele>
        <time>2022-03-24T10:11:04.000Z</time>
      </trkpt>
      <trkpt lat="47.33188" lon="-2.47862">
        <ele>54.400001525879</ele>
        <time>2022-03-24T10:11:05.000Z</time>
      </trkpt>
      <trkpt lat="47.33185" lon="-2.47867">
        <ele>54</ele>
        <time>2022-03-24T10:11:06.000Z</time>
      </trkpt>
      <trkpt lat="47.33164" lon="-2.47901">
        <ele>54</ele>
        <time>2022-03-24T10:11:13.000Z</time>
      </trkpt>
      <trkpt lat="47.33154" lon="-2.4792">
        <ele>54</ele>
        <time>2022-03-24T10:11:18.000Z</time>
      </trkpt>
      <trkpt lat="47.33151" lon="-2.47923">
        <ele>54</ele>
        <time>2022-03-24T10:11:22.000Z</time>
      </trkpt>
      <trkpt lat="47.3315" lon="-2.4792">
        <ele>54</ele>
        <time>2022-03-24T10:12:24.000Z</time>
      </trkpt>
      <trkpt lat="47.33146" lon="-2.47913">
        <ele>54</ele>
        <time>2022-03-24T10:12:27.000Z</time>
      </trkpt>
      <trkpt lat="47.3314" lon="-2.47895">
        <ele>54</ele>
        <time>2022-03-24T10:12:30.000Z</time>
      </trkpt>
      <trkpt lat="47.33124" lon="-2.47851">
        <ele>54</ele>
        <time>2022-03-24T10:12:36.000Z</time>
      </trkpt>
      <trkpt lat="47.33111" lon="-2.47831">
        <ele>54</ele>
        <time>2022-03-24T10:12:39.000Z</time>
      </trkpt>
      <trkpt lat="47.33101" lon="-2.47822">
        <ele>54</ele>
        <time>2022-03-24T10:12:41.000Z</time>
      </trkpt>
      <trkpt lat="47.33067" lon="-2.47805">
        <ele>54</ele>
        <time>2022-03-24T10:12:47.000Z</time>
      </trkpt>
      <trkpt lat="47.33027" lon="-2.47794">
        <ele>54</ele>
        <time>2022-03-24T10:12:54.000Z</time>
      </trkpt>
      <trkpt lat="47.32996" lon="-2.47775">
        <ele>54</ele>
        <time>2022-03-24T10:13:00.000Z</time>
      </trkpt>
      <trkpt lat="47.3296" lon="-2.47739">
        <ele>54</ele>
        <time>2022-03-24T10:13:08.000Z</time>
      </trkpt>
      <trkpt lat="47.32941" lon="-2.47708">
        <ele>54</ele>
        <time>2022-03-24T10:13:13.000Z</time>
      </trkpt>
      <trkpt lat="47.32938" lon="-2.47701">
        <ele>54</ele>
        <time>2022-03-24T10:13:14.000Z</time>
      </trkpt>
      <trkpt lat="47.32934" lon="-2.47686">
        <ele>54</ele>
        <time>2022-03-24T10:13:16.000Z</time>
      </trkpt>
      <trkpt lat="47.3293" lon="-2.47661">
        <ele>54</ele>
        <time>2022-03-24T10:13:19.000Z</time>
      </trkpt>
      <trkpt lat="47.32918" lon="-2.476">
        <ele>54</ele>
        <time>2022-03-24T10:13:27.000Z</time>
      </trkpt>
      <trkpt lat="47.32917" lon="-2.47576">
        <ele>54</ele>
        <time>2022-03-24T10:13:30.000Z</time>
      </trkpt>
      <trkpt lat="47.32917" lon="-2.47559">
        <ele>54</ele>
        <time>2022-03-24T10:13:32.000Z</time>
      </trkpt>
      <trkpt lat="47.32918" lon="-2.47551">
        <ele>54</ele>
        <time>2022-03-24T10:13:33.000Z</time>
      </trkpt>
      <trkpt lat="47.32919" lon="-2.4751">
        <ele>54</ele>
        <time>2022-03-24T10:13:38.000Z</time>
      </trkpt>
      <trkpt lat="47.32918" lon="-2.47503">
        <ele>54</ele>
        <time>2022-03-24T10:13:39.000Z</time>
      </trkpt>
      <trkpt lat="47.32907" lon="-2.47449">
        <ele>54</ele>
        <time>2022-03-24T10:13:46.000Z</time>
      </trkpt>
      <trkpt lat="47.32897" lon="-2.47398">
        <ele>54</ele>
        <time>2022-03-24T10:13:53.000Z</time>
      </trkpt>
      <trkpt lat="47.32894" lon="-2.4736">
        <ele>54</ele>
        <time>2022-03-24T10:13:59.000Z</time>
      </trkpt>
      <trkpt lat="47.32896" lon="-2.47354">
        <ele>54</ele>
        <time>2022-03-24T10:14:01.000Z</time>
      </trkpt>
      <trkpt lat="47.32899" lon="-2.47352">
        <ele>54</ele>
        <time>2022-03-24T10:14:02.000Z</time>
      </trkpt>
      <trkpt lat="47.32916" lon="-2.47338">
        <ele>54</ele>
        <time>2022-03-24T10:14:06.000Z</time>
      </trkpt>
      <trkpt lat="47.32946" lon="-2.47305">
        <ele>54</ele>
        <time>2022-03-24T10:14:13.000Z</time>
      </trkpt>
      <trkpt lat="47.32971" lon="-2.47275">
        <ele>54</ele>
        <time>2022-03-24T10:14:20.000Z</time>
      </trkpt>
      <trkpt lat="47.32975" lon="-2.47263">
        <ele>54</ele>
        <time>2022-03-24T10:14:22.000Z</time>
      </trkpt>
      <trkpt lat="47.32975" lon="-2.4725">
        <ele>54</ele>
        <time>2022-03-24T10:14:24.000Z</time>
      </trkpt>
      <trkpt lat="47.32972" lon="-2.47236">
        <ele>54</ele>
        <time>2022-03-24T10:14:26.000Z</time>
      </trkpt>
      <trkpt lat="47.32967" lon="-2.47213">
        <ele>54</ele>
        <time>2022-03-24T10:14:29.000Z</time>
      </trkpt>
      <trkpt lat="47.32959" lon="-2.47156">
        <ele>54</ele>
        <time>2022-03-24T10:14:36.000Z</time>
      </trkpt>
      <trkpt lat="47.32949" lon="-2.47114">
        <ele>54</ele>
        <time>2022-03-24T10:14:42.000Z</time>
      </trkpt>
      <trkpt lat="47.32943" lon="-2.47084">
        <ele>54</ele>
        <time>2022-03-24T10:14:47.000Z</time>
      </trkpt>
      <trkpt lat="47.32942" lon="-2.47071">
        <ele>54</ele>
        <time>2022-03-24T10:14:49.000Z</time>
      </trkpt>
      <trkpt lat="47.32941" lon="-2.47057">
        <ele>54.400001525879</ele>
        <time>2022-03-24T10:14:51.000Z</time>
      </trkpt>
      <trkpt lat="47.3294" lon="-2.4705">
        <ele>55.200000762939</ele>
        <time>2022-03-24T10:14:52.000Z</time>
      </trkpt>
      <trkpt lat="47.3294" lon="-2.47042">
        <ele>55.799999237061</ele>
        <time>2022-03-24T10:14:53.000Z</time>
      </trkpt>
      <trkpt lat="47.3294" lon="-2.47033">
        <ele>56.200000762939</ele>
        <time>2022-03-24T10:14:54.000Z</time>
      </trkpt>
      <trkpt lat="47.32942" lon="-2.46986">
        <ele>56.200000762939</ele>
        <time>2022-03-24T10:15:00.000Z</time>
      </trkpt>
      <trkpt lat="47.32948" lon="-2.46943">
        <ele>56.200000762939</ele>
        <time>2022-03-24T10:15:06.000Z</time>
      </trkpt>
      <trkpt lat="47.32958" lon="-2.46887">
        <ele>56.200000762939</ele>
        <time>2022-03-24T10:15:14.000Z</time>
      </trkpt>
      <trkpt lat="47.32962" lon="-2.46833">
        <ele>56.200000762939</ele>
        <time>2022-03-24T10:15:21.000Z</time>
      </trkpt>
      <trkpt lat="47.32967" lon="-2.46772">
        <ele>56.200000762939</ele>
        <time>2022-03-24T10:15:29.000Z</time>
      </trkpt>
      <trkpt lat="47.32964" lon="-2.46727">
        <ele>56.200000762939</ele>
        <time>2022-03-24T10:15:35.000Z</time>
      </trkpt>
      <trkpt lat="47.32953" lon="-2.46677">
        <ele>56.200000762939</ele>
        <time>2022-03-24T10:15:42.000Z</time>
      </trkpt>
      <trkpt lat="47.3295" lon="-2.46655">
        <ele>56.200000762939</ele>
        <time>2022-03-24T10:15:45.000Z</time>
      </trkpt>
      <trkpt lat="47.3295" lon="-2.46638">
        <ele>56.200000762939</ele>
        <time>2022-03-24T10:15:47.000Z</time>
      </trkpt>
      <trkpt lat="47.3295" lon="-2.46629">
        <ele>56.599998474121</ele>
        <time>2022-03-24T10:15:48.000Z</time>
      </trkpt>
      <trkpt lat="47.3295" lon="-2.46621">
        <ele>57</ele>
        <time>2022-03-24T10:15:49.000Z</time>
      </trkpt>
      <trkpt lat="47.3295" lon="-2.46612">
        <ele>57.400001525879</ele>
        <time>2022-03-24T10:15:50.000Z</time>
      </trkpt>
      <trkpt lat="47.32951" lon="-2.46604">
        <ele>57.799999237061</ele>
        <time>2022-03-24T10:15:51.000Z</time>
      </trkpt>
      <trkpt lat="47.32951" lon="-2.46596">
        <ele>58.200000762939</ele>
        <time>2022-03-24T10:15:52.000Z</time>
      </trkpt>
      <trkpt lat="47.32953" lon="-2.46573">
        <ele>58.200000762939</ele>
        <time>2022-03-24T10:15:55.000Z</time>
      </trkpt>
      <trkpt lat="47.32957" lon="-2.46515">
        <ele>58.200000762939</ele>
        <time>2022-03-24T10:16:02.000Z</time>
      </trkpt>
      <trkpt lat="47.3296" lon="-2.46471">
        <ele>58.599998474121</ele>
        <time>2022-03-24T10:16:08.000Z</time>
      </trkpt>
      <trkpt lat="47.3296" lon="-2.46464">
        <ele>59.200000762939</ele>
        <time>2022-03-24T10:16:09.000Z</time>
      </trkpt>
      <trkpt lat="47.3296" lon="-2.46458">
        <ele>59.599998474121</ele>
        <time>2022-03-24T10:16:10.000Z</time>
      </trkpt>
      <trkpt lat="47.32961" lon="-2.46452">
        <ele>60.200000762939</ele>
        <time>2022-03-24T10:16:11.000Z</time>
      </trkpt>
      <trkpt lat="47.32962" lon="-2.46445">
        <ele>60.599998474121</ele>
        <time>2022-03-24T10:16:12.000Z</time>
      </trkpt>
      <trkpt lat="47.32962" lon="-2.46438">
        <ele>60.599998474121</ele>
        <time>2022-03-24T10:16:13.000Z</time>
      </trkpt>
      <trkpt lat="47.32963" lon="-2.46432">
        <ele>61</ele>
        <time>2022-03-24T10:16:14.000Z</time>
      </trkpt>
      <trkpt lat="47.32962" lon="-2.46426">
        <ele>61.400001525879</ele>
        <time>2022-03-24T10:16:15.000Z</time>
      </trkpt>
      <trkpt lat="47.32962" lon="-2.4642">
        <ele>61.799999237061</ele>
        <time>2022-03-24T10:16:16.000Z</time>
      </trkpt>
      <trkpt lat="47.32962" lon="-2.46415">
        <ele>62.200000762939</ele>
        <time>2022-03-24T10:16:17.000Z</time>
      </trkpt>
      <trkpt lat="47.32962" lon="-2.46409">
        <ele>62.599998474121</ele>
        <time>2022-03-24T10:16:18.000Z</time>
      </trkpt>
      <trkpt lat="47.32962" lon="-2.46398">
        <ele>63.200000762939</ele>
        <time>2022-03-24T10:16:20.000Z</time>
      </trkpt>
      <trkpt lat="47.32962" lon="-2.46393">
        <ele>63.599998474121</ele>
        <time>2022-03-24T10:16:21.000Z</time>
      </trkpt>
      <trkpt lat="47.32962" lon="-2.46389">
        <ele>64</ele>
        <time>2022-03-24T10:16:22.000Z</time>
      </trkpt>
      <trkpt lat="47.32963" lon="-2.46384">
        <ele>64.400001525879</ele>
        <time>2022-03-24T10:16:23.000Z</time>
      </trkpt>
      <trkpt lat="47.32963" lon="-2.4638">
        <ele>65</ele>
        <time>2022-03-24T10:16:24.000Z</time>
      </trkpt>
      <trkpt lat="47.32961" lon="-2.46366">
        <ele>65.400001525879</ele>
        <time>2022-03-24T10:16:27.000Z</time>
      </trkpt>
      <trkpt lat="47.3296" lon="-2.46361">
        <ele>65.800003051758</ele>
        <time>2022-03-24T10:16:28.000Z</time>
      </trkpt>
      <trkpt lat="47.32959" lon="-2.46356">
        <ele>66.199996948242</ele>
        <time>2022-03-24T10:16:29.000Z</time>
      </trkpt>
      <trkpt lat="47.32958" lon="-2.46351">
        <ele>66.599998474121</ele>
        <time>2022-03-24T10:16:30.000Z</time>
      </trkpt>
      <trkpt lat="47.32957" lon="-2.46346">
        <ele>67.599998474121</ele>
        <time>2022-03-24T10:16:31.000Z</time>
      </trkpt>
      <trkpt lat="47.32956" lon="-2.46341">
        <ele>68</ele>
        <time>2022-03-24T10:16:32.000Z</time>
      </trkpt>
      <trkpt lat="47.32955" lon="-2.46337">
        <ele>68.400001525879</ele>
        <time>2022-03-24T10:16:33.000Z</time>
      </trkpt>
      <trkpt lat="47.32954" lon="-2.46333">
        <ele>68.800003051758</ele>
        <time>2022-03-24T10:16:34.000Z</time>
      </trkpt>
      <trkpt lat="47.32953" lon="-2.46328">
        <ele>69.199996948242</ele>
        <time>2022-03-24T10:16:35.000Z</time>
      </trkpt>
      <trkpt lat="47.32947" lon="-2.46307">
        <ele>69.599998474121</ele>
        <time>2022-03-24T10:16:39.000Z</time>
      </trkpt>
      <trkpt lat="47.32946" lon="-2.46303">
        <ele>70</ele>
        <time>2022-03-24T10:16:40.000Z</time>
      </trkpt>
      <trkpt lat="47.32944" lon="-2.46298">
        <ele>70.599998474121</ele>
        <time>2022-03-24T10:16:41.000Z</time>
      </trkpt>
      <trkpt lat="47.32943" lon="-2.46292">
        <ele>71</ele>
        <time>2022-03-24T10:16:42.000Z</time>
      </trkpt>
      <trkpt lat="47.32942" lon="-2.46288">
        <ele>71.400001525879</ele>
        <time>2022-03-24T10:16:43.000Z</time>
      </trkpt>
      <trkpt lat="47.32933" lon="-2.46255">
        <ele>71.400001525879</ele>
        <time>2022-03-24T10:16:49.000Z</time>
      </trkpt>
      <trkpt lat="47.32919" lon="-2.46197">
        <ele>71.400001525879</ele>
        <time>2022-03-24T10:16:59.000Z</time>
      </trkpt>
      <trkpt lat="47.32909" lon="-2.4616">
        <ele>71.800003051758</ele>
        <time>2022-03-24T10:17:06.000Z</time>
      </trkpt>
      <trkpt lat="47.32908" lon="-2.46155">
        <ele>72.199996948242</ele>
        <time>2022-03-24T10:17:07.000Z</time>
      </trkpt>
      <trkpt lat="47.32907" lon="-2.46151">
        <ele>72.599998474121</ele>
        <time>2022-03-24T10:17:08.000Z</time>
      </trkpt>
      <trkpt lat="47.32905" lon="-2.46147">
        <ele>73</ele>
        <time>2022-03-24T10:17:09.000Z</time>
      </trkpt>
      <trkpt lat="47.329" lon="-2.46146">
        <ele>73.400001525879</ele>
        <time>2022-03-24T10:17:10.000Z</time>
      </trkpt>
      <trkpt lat="47.32891" lon="-2.46146">
        <ele>73.400001525879</ele>
        <time>2022-03-24T10:17:12.000Z</time>
      </trkpt>
      <trkpt lat="47.32883" lon="-2.46151">
        <ele>73.400001525879</ele>
        <time>2022-03-24T10:17:14.000Z</time>
      </trkpt>
      <trkpt lat="47.32874" lon="-2.46157">
        <ele>73.400001525879</ele>
        <time>2022-03-24T10:17:16.000Z</time>
      </trkpt>
      <trkpt lat="47.32852" lon="-2.46171">
        <ele>72.599998474121</ele>
        <time>2022-03-24T10:17:20.000Z</time>
      </trkpt>
      <trkpt lat="47.32846" lon="-2.46174">
        <ele>72</ele>
        <time>2022-03-24T10:17:21.000Z</time>
      </trkpt>
      <trkpt lat="47.32839" lon="-2.46178">
        <ele>71.599998474121</ele>
        <time>2022-03-24T10:17:22.000Z</time>
      </trkpt>
      <trkpt lat="47.32833" lon="-2.46182">
        <ele>71.199996948242</ele>
        <time>2022-03-24T10:17:23.000Z</time>
      </trkpt>
      <trkpt lat="47.32827" lon="-2.46186">
        <ele>70.599998474121</ele>
        <time>2022-03-24T10:17:24.000Z</time>
      </trkpt>
      <trkpt lat="47.3282" lon="-2.46188">
        <ele>70.199996948242</ele>
        <time>2022-03-24T10:17:25.000Z</time>
      </trkpt>
      <trkpt lat="47.32814" lon="-2.46189">
        <ele>69.800003051758</ele>
        <time>2022-03-24T10:17:26.000Z</time>
      </trkpt>
      <trkpt lat="47.32808" lon="-2.46187">
        <ele>69.199996948242</ele>
        <time>2022-03-24T10:17:27.000Z</time>
      </trkpt>
      <trkpt lat="47.32801" lon="-2.46185">
        <ele>68.800003051758</ele>
        <time>2022-03-24T10:17:28.000Z</time>
      </trkpt>
      <trkpt lat="47.32795" lon="-2.46182">
        <ele>68.800003051758</ele>
        <time>2022-03-24T10:17:29.000Z</time>
      </trkpt>
      <trkpt lat="47.32778" lon="-2.4617">
        <ele>68.400001525879</ele>
        <time>2022-03-24T10:17:32.000Z</time>
      </trkpt>
      <trkpt lat="47.32773" lon="-2.46164">
        <ele>68</ele>
        <time>2022-03-24T10:17:33.000Z</time>
      </trkpt>
      <trkpt lat="47.32768" lon="-2.46158">
        <ele>67.599998474121</ele>
        <time>2022-03-24T10:17:34.000Z</time>
      </trkpt>
      <trkpt lat="47.32765" lon="-2.46153">
        <ele>67.199996948242</ele>
        <time>2022-03-24T10:17:35.000Z</time>
      </trkpt>
      <trkpt lat="47.32763" lon="-2.46148">
        <ele>66.800003051758</ele>
        <time>2022-03-24T10:17:36.000Z</time>
      </trkpt>
      <trkpt lat="47.32761" lon="-2.46137">
        <ele>66.400001525879</ele>
        <time>2022-03-24T10:17:40.000Z</time>
      </trkpt>
      <trkpt lat="47.32761" lon="-2.46135">
        <ele>66</ele>
        <time>2022-03-24T10:17:41.000Z</time>
      </trkpt>
      <trkpt lat="47.32761" lon="-2.46132">
        <ele>65.599998474121</ele>
        <time>2022-03-24T10:17:42.000Z</time>
      </trkpt>
      <trkpt lat="47.3276" lon="-2.4613">
        <ele>65.199996948242</ele>
        <time>2022-03-24T10:17:43.000Z</time>
      </trkpt>
      <trkpt lat="47.3276" lon="-2.46127">
        <ele>64.800003051758</ele>
        <time>2022-03-24T10:17:44.000Z</time>
      </trkpt>
      <trkpt lat="47.32759" lon="-2.46119">
        <ele>64.800003051758</ele>
        <time>2022-03-24T10:17:46.000Z</time>
      </trkpt>
      <trkpt lat="47.32757" lon="-2.46108">
        <ele>64.800003051758</ele>
        <time>2022-03-24T10:17:51.000Z</time>
      </trkpt>
      <trkpt lat="47.32754" lon="-2.46103">
        <ele>64.400001525879</ele>
        <time>2022-03-24T10:17:53.000Z</time>
      </trkpt>
      <trkpt lat="47.32753" lon="-2.461">
        <ele>64</ele>
        <time>2022-03-24T10:17:54.000Z</time>
      </trkpt>
      <trkpt lat="47.32751" lon="-2.46098">
        <ele>63.599998474121</ele>
        <time>2022-03-24T10:17:55.000Z</time>
      </trkpt>
      <trkpt lat="47.3275" lon="-2.46095">
        <ele>63.200000762939</ele>
        <time>2022-03-24T10:17:56.000Z</time>
      </trkpt>
      <trkpt lat="47.32749" lon="-2.46094">
        <ele>62.599998474121</ele>
        <time>2022-03-24T10:17:57.000Z</time>
      </trkpt>
      <trkpt lat="47.32743" lon="-2.46085">
        <ele>62.599998474121</ele>
        <time>2022-03-24T10:18:02.000Z</time>
      </trkpt>
      <trkpt lat="47.32735" lon="-2.46078">
        <ele>62.599998474121</ele>
        <time>2022-03-24T10:18:08.000Z</time>
      </trkpt>
      <trkpt lat="47.32727" lon="-2.46068">
        <ele>62.599998474121</ele>
        <time>2022-03-24T10:18:15.000Z</time>
      </trkpt>
      <trkpt lat="47.32717" lon="-2.46057">
        <ele>62.599998474121</ele>
        <time>2022-03-24T10:18:21.000Z</time>
      </trkpt>
      <trkpt lat="47.32709" lon="-2.46046">
        <ele>62.200000762939</ele>
        <time>2022-03-24T10:18:26.000Z</time>
      </trkpt>
      <trkpt lat="47.32708" lon="-2.46045">
        <ele>61.799999237061</ele>
        <time>2022-03-24T10:18:27.000Z</time>
      </trkpt>
      <trkpt lat="47.32706" lon="-2.46043">
        <ele>61.400001525879</ele>
        <time>2022-03-24T10:18:28.000Z</time>
      </trkpt>
      <trkpt lat="47.32705" lon="-2.46042">
        <ele>61</ele>
        <time>2022-03-24T10:18:29.000Z</time>
      </trkpt>
      <trkpt lat="47.32704" lon="-2.46041">
        <ele>60.400001525879</ele>
        <time>2022-03-24T10:18:30.000Z</time>
      </trkpt>
      <trkpt lat="47.32699" lon="-2.46037">
        <ele>60.400001525879</ele>
        <time>2022-03-24T10:18:34.000Z</time>
      </trkpt>
      <trkpt lat="47.32697" lon="-2.46034">
        <ele>60.400001525879</ele>
        <time>2022-03-24T10:18:37.000Z</time>
      </trkpt>
      <trkpt lat="47.32695" lon="-2.46032">
        <ele>60.400001525879</ele>
        <time>2022-03-24T10:18:41.000Z</time>
      </trkpt>
      <trkpt lat="47.32693" lon="-2.4603">
        <ele>60.400001525879</ele>
        <time>2022-03-24T10:18:42.000Z</time>
      </trkpt>
      <trkpt lat="47.32685" lon="-2.46018">
        <ele>60.400001525879</ele>
        <time>2022-03-24T10:18:47.000Z</time>
      </trkpt>
      <trkpt lat="47.32674" lon="-2.46002">
        <ele>60.400001525879</ele>
        <time>2022-03-24T10:18:55.000Z</time>
      </trkpt>
      <trkpt lat="47.3266" lon="-2.45983">
        <ele>60.400001525879</ele>
        <time>2022-03-24T10:19:00.000Z</time>
      </trkpt>
      <trkpt lat="47.32633" lon="-2.45956">
        <ele>60.400001525879</ele>
        <time>2022-03-24T10:19:07.000Z</time>
      </trkpt>
      <trkpt lat="47.3263" lon="-2.45951">
        <ele>60.400001525879</ele>
        <time>2022-03-24T10:19:08.000Z</time>
      </trkpt>
      <trkpt lat="47.32613" lon="-2.45922">
        <ele>60.400001525879</ele>
        <time>2022-03-24T10:19:13.000Z</time>
      </trkpt>
      <trkpt lat="47.32584" lon="-2.45884">
        <ele>60.400001525879</ele>
        <time>2022-03-24T10:19:20.000Z</time>
      </trkpt>
      <trkpt lat="47.32562" lon="-2.45853">
        <ele>60.400001525879</ele>
        <time>2022-03-24T10:19:26.000Z</time>
      </trkpt>
      <trkpt lat="47.3255" lon="-2.45828">
        <ele>60.400001525879</ele>
        <time>2022-03-24T10:19:30.000Z</time>
      </trkpt>
      <trkpt lat="47.32542" lon="-2.45817">
        <ele>60.400001525879</ele>
        <time>2022-03-24T10:19:32.000Z</time>
      </trkpt>
      <trkpt lat="47.32529" lon="-2.458">
        <ele>60.400001525879</ele>
        <time>2022-03-24T10:19:35.000Z</time>
      </trkpt>
      <trkpt lat="47.32518" lon="-2.45779">
        <ele>60.400001525879</ele>
        <time>2022-03-24T10:19:38.000Z</time>
      </trkpt>
      <trkpt lat="47.32493" lon="-2.45732">
        <ele>60.400001525879</ele>
        <time>2022-03-24T10:19:45.000Z</time>
      </trkpt>
      <trkpt lat="47.32469" lon="-2.45687">
        <ele>60.400001525879</ele>
        <time>2022-03-24T10:19:52.000Z</time>
      </trkpt>
      <trkpt lat="47.32445" lon="-2.45651">
        <ele>60.400001525879</ele>
        <time>2022-03-24T10:19:59.000Z</time>
      </trkpt>
      <trkpt lat="47.32427" lon="-2.4562">
        <ele>60.400001525879</ele>
        <time>2022-03-24T10:20:05.000Z</time>
      </trkpt>
      <trkpt lat="47.32425" lon="-2.45615">
        <ele>60.400001525879</ele>
        <time>2022-03-24T10:20:06.000Z</time>
      </trkpt>
      <trkpt lat="47.32411" lon="-2.45582">
        <ele>60.400001525879</ele>
        <time>2022-03-24T10:20:13.000Z</time>
      </trkpt>
      <trkpt lat="47.32396" lon="-2.45553">
        <ele>60.400001525879</ele>
        <time>2022-03-24T10:20:19.000Z</time>
      </trkpt>
      <trkpt lat="47.32382" lon="-2.45525">
        <ele>60.400001525879</ele>
        <time>2022-03-24T10:20:24.000Z</time>
      </trkpt>
      <trkpt lat="47.32363" lon="-2.45494">
        <ele>60.400001525879</ele>
        <time>2022-03-24T10:20:29.000Z</time>
      </trkpt>
      <trkpt lat="47.32343" lon="-2.45465">
        <ele>60.400001525879</ele>
        <time>2022-03-24T10:20:34.000Z</time>
      </trkpt>
      <trkpt lat="47.32336" lon="-2.45452">
        <ele>60.400001525879</ele>
        <time>2022-03-24T10:20:36.000Z</time>
      </trkpt>
      <trkpt lat="47.32318" lon="-2.45424">
        <ele>60</ele>
        <time>2022-03-24T10:20:41.000Z</time>
      </trkpt>
      <trkpt lat="47.32314" lon="-2.45418">
        <ele>59.599998474121</ele>
        <time>2022-03-24T10:20:42.000Z</time>
      </trkpt>
      <trkpt lat="47.32312" lon="-2.45412">
        <ele>59.200000762939</ele>
        <time>2022-03-24T10:20:43.000Z</time>
      </trkpt>
      <trkpt lat="47.32312" lon="-2.45406">
        <ele>58.799999237061</ele>
        <time>2022-03-24T10:20:44.000Z</time>
      </trkpt>
      <trkpt lat="47.32314" lon="-2.45399">
        <ele>58.400001525879</ele>
        <time>2022-03-24T10:20:45.000Z</time>
      </trkpt>
      <trkpt lat="47.3232" lon="-2.45373">
        <ele>58.400001525879</ele>
        <time>2022-03-24T10:20:49.000Z</time>
      </trkpt>
      <trkpt lat="47.32318" lon="-2.4536">
        <ele>58.400001525879</ele>
        <time>2022-03-24T10:20:51.000Z</time>
      </trkpt>
      <trkpt lat="47.32317" lon="-2.45353">
        <ele>58.799999237061</ele>
        <time>2022-03-24T10:20:52.000Z</time>
      </trkpt>
      <trkpt lat="47.32316" lon="-2.45347">
        <ele>59.200000762939</ele>
        <time>2022-03-24T10:20:53.000Z</time>
      </trkpt>
      <trkpt lat="47.32316" lon="-2.45341">
        <ele>59.599998474121</ele>
        <time>2022-03-24T10:20:54.000Z</time>
      </trkpt>
      <trkpt lat="47.32315" lon="-2.45336">
        <ele>60.200000762939</ele>
        <time>2022-03-24T10:20:55.000Z</time>
      </trkpt>
      <trkpt lat="47.32315" lon="-2.4533">
        <ele>60.599998474121</ele>
        <time>2022-03-24T10:20:56.000Z</time>
      </trkpt>
      <trkpt lat="47.32316" lon="-2.4532">
        <ele>61</ele>
        <time>2022-03-24T10:20:58.000Z</time>
      </trkpt>
      <trkpt lat="47.32316" lon="-2.45317">
        <ele>61.400001525879</ele>
        <time>2022-03-24T10:20:59.000Z</time>
      </trkpt>
      <trkpt lat="47.32315" lon="-2.45313">
        <ele>61.799999237061</ele>
        <time>2022-03-24T10:21:00.000Z</time>
      </trkpt>
      <trkpt lat="47.32315" lon="-2.4531">
        <ele>62.599998474121</ele>
        <time>2022-03-24T10:21:01.000Z</time>
      </trkpt>
      <trkpt lat="47.32313" lon="-2.45298">
        <ele>62.599998474121</ele>
        <time>2022-03-24T10:21:06.000Z</time>
      </trkpt>
      <trkpt lat="47.32308" lon="-2.4528">
        <ele>62.599998474121</ele>
        <time>2022-03-24T10:21:11.000Z</time>
      </trkpt>
      <trkpt lat="47.32302" lon="-2.45257">
        <ele>62.599998474121</ele>
        <time>2022-03-24T10:21:15.000Z</time>
      </trkpt>
      <trkpt lat="47.323" lon="-2.4525">
        <ele>62.599998474121</ele>
        <time>2022-03-24T10:21:16.000Z</time>
      </trkpt>
      <trkpt lat="47.32296" lon="-2.45235">
        <ele>62.200000762939</ele>
        <time>2022-03-24T10:21:18.000Z</time>
      </trkpt>
      <trkpt lat="47.32293" lon="-2.45227">
        <ele>61.799999237061</ele>
        <time>2022-03-24T10:21:19.000Z</time>
      </trkpt>
      <trkpt lat="47.3229" lon="-2.45219">
        <ele>61.400001525879</ele>
        <time>2022-03-24T10:21:20.000Z</time>
      </trkpt>
      <trkpt lat="47.32287" lon="-2.45211">
        <ele>61</ele>
        <time>2022-03-24T10:21:21.000Z</time>
      </trkpt>
      <trkpt lat="47.32284" lon="-2.45203">
        <ele>60.599998474121</ele>
        <time>2022-03-24T10:21:22.000Z</time>
      </trkpt>
      <trkpt lat="47.32277" lon="-2.45189">
        <ele>60.599998474121</ele>
        <time>2022-03-24T10:21:24.000Z</time>
      </trkpt>
      <trkpt lat="47.32267" lon="-2.45158">
        <ele>60.599998474121</ele>
        <time>2022-03-24T10:21:29.000Z</time>
      </trkpt>
      <trkpt lat="47.32263" lon="-2.45143">
        <ele>61</ele>
        <time>2022-03-24T10:21:32.000Z</time>
      </trkpt>
      <trkpt lat="47.32261" lon="-2.45137">
        <ele>61.400001525879</ele>
        <time>2022-03-24T10:21:33.000Z</time>
      </trkpt>
      <trkpt lat="47.3226" lon="-2.45131">
        <ele>61.799999237061</ele>
        <time>2022-03-24T10:21:34.000Z</time>
      </trkpt>
      <trkpt lat="47.32257" lon="-2.45124">
        <ele>62.200000762939</ele>
        <time>2022-03-24T10:21:35.000Z</time>
      </trkpt>
      <trkpt lat="47.32255" lon="-2.45118">
        <ele>62.799999237061</ele>
        <time>2022-03-24T10:21:36.000Z</time>
      </trkpt>
      <trkpt lat="47.32243" lon="-2.45088">
        <ele>62.799999237061</ele>
        <time>2022-03-24T10:21:41.000Z</time>
      </trkpt>
      <trkpt lat="47.3224" lon="-2.45082">
        <ele>63.200000762939</ele>
        <time>2022-03-24T10:21:42.000Z</time>
      </trkpt>
      <trkpt lat="47.32237" lon="-2.45076">
        <ele>63.599998474121</ele>
        <time>2022-03-24T10:21:43.000Z</time>
      </trkpt>
      <trkpt lat="47.32234" lon="-2.45071">
        <ele>64</ele>
        <time>2022-03-24T10:21:44.000Z</time>
      </trkpt>
      <trkpt lat="47.32232" lon="-2.45066">
        <ele>64.400001525879</ele>
        <time>2022-03-24T10:21:45.000Z</time>
      </trkpt>
      <trkpt lat="47.32229" lon="-2.45061">
        <ele>64.800003051758</ele>
        <time>2022-03-24T10:21:46.000Z</time>
      </trkpt>
      <trkpt lat="47.32224" lon="-2.45051">
        <ele>64.800003051758</ele>
        <time>2022-03-24T10:21:48.000Z</time>
      </trkpt>
      <trkpt lat="47.32219" lon="-2.45041">
        <ele>64.800003051758</ele>
        <time>2022-03-24T10:21:50.000Z</time>
      </trkpt>
      <trkpt lat="47.32211" lon="-2.45024">
        <ele>64.800003051758</ele>
        <time>2022-03-24T10:21:54.000Z</time>
      </trkpt>
      <trkpt lat="47.32205" lon="-2.45015">
        <ele>64.800003051758</ele>
        <time>2022-03-24T10:21:58.000Z</time>
      </trkpt>
      <trkpt lat="47.32202" lon="-2.45011">
        <ele>64.800003051758</ele>
        <time>2022-03-24T10:22:00.000Z</time>
      </trkpt>
      <trkpt lat="47.32202" lon="-2.45009">
        <ele>64.800003051758</ele>
        <time>2022-03-24T10:22:01.000Z</time>
      </trkpt>
      <trkpt lat="47.32202" lon="-2.45009">
        <ele>64.800003051758</ele>
        <time>2022-03-24T10:22:02.000Z</time>
      </trkpt>
      <trkpt lat="47.32201" lon="-2.45006">
        <ele>64.800003051758</ele>
        <time>2022-03-24T10:22:32.000Z</time>
      </trkpt>
      <trkpt lat="47.32195" lon="-2.44993">
        <ele>64.800003051758</ele>
        <time>2022-03-24T10:22:37.000Z</time>
      </trkpt>
      <trkpt lat="47.32185" lon="-2.44978">
        <ele>64.800003051758</ele>
        <time>2022-03-24T10:22:41.000Z</time>
      </trkpt>
      <trkpt lat="47.32181" lon="-2.44974">
        <ele>64.800003051758</ele>
        <time>2022-03-24T10:22:42.000Z</time>
      </trkpt>
      <trkpt lat="47.32162" lon="-2.44956">
        <ele>64.800003051758</ele>
        <time>2022-03-24T10:22:46.000Z</time>
      </trkpt>
      <trkpt lat="47.32157" lon="-2.44952">
        <ele>64.800003051758</ele>
        <time>2022-03-24T10:22:47.000Z</time>
      </trkpt>
      <trkpt lat="47.32136" lon="-2.44933">
        <ele>64.800003051758</ele>
        <time>2022-03-24T10:22:51.000Z</time>
      </trkpt>
      <trkpt lat="47.32132" lon="-2.44926">
        <ele>64.800003051758</ele>
        <time>2022-03-24T10:22:52.000Z</time>
      </trkpt>
      <trkpt lat="47.32127" lon="-2.44919">
        <ele>64.400001525879</ele>
        <time>2022-03-24T10:22:53.000Z</time>
      </trkpt>
      <trkpt lat="47.32123" lon="-2.44912">
        <ele>64</ele>
        <time>2022-03-24T10:22:54.000Z</time>
      </trkpt>
      <trkpt lat="47.3212" lon="-2.44905">
        <ele>63.599998474121</ele>
        <time>2022-03-24T10:22:55.000Z</time>
      </trkpt>
      <trkpt lat="47.32116" lon="-2.44897">
        <ele>63.200000762939</ele>
        <time>2022-03-24T10:22:56.000Z</time>
      </trkpt>
      <trkpt lat="47.32113" lon="-2.44889">
        <ele>62.799999237061</ele>
        <time>2022-03-24T10:22:57.000Z</time>
      </trkpt>
      <trkpt lat="47.32093" lon="-2.44842">
        <ele>62.799999237061</ele>
        <time>2022-03-24T10:23:03.000Z</time>
      </trkpt>
      <trkpt lat="47.32062" lon="-2.44773">
        <ele>62.799999237061</ele>
        <time>2022-03-24T10:23:12.000Z</time>
      </trkpt>
      <trkpt lat="47.32053" lon="-2.44758">
        <ele>62.400001525879</ele>
        <time>2022-03-24T10:23:14.000Z</time>
      </trkpt>
      <trkpt lat="47.32049" lon="-2.44751">
        <ele>62</ele>
        <time>2022-03-24T10:23:15.000Z</time>
      </trkpt>
      <trkpt lat="47.32045" lon="-2.44743">
        <ele>61.400001525879</ele>
        <time>2022-03-24T10:23:16.000Z</time>
      </trkpt>
      <trkpt lat="47.3204" lon="-2.44736">
        <ele>61</ele>
        <time>2022-03-24T10:23:17.000Z</time>
      </trkpt>
      <trkpt lat="47.32036" lon="-2.4473">
        <ele>60.599998474121</ele>
        <time>2022-03-24T10:23:18.000Z</time>
      </trkpt>
      <trkpt lat="47.32031" lon="-2.44723">
        <ele>60.599998474121</ele>
        <time>2022-03-24T10:23:19.000Z</time>
      </trkpt>
      <trkpt lat="47.31991" lon="-2.44665">
        <ele>60.599998474121</ele>
        <time>2022-03-24T10:23:28.000Z</time>
      </trkpt>
      <trkpt lat="47.31952" lon="-2.4462">
        <ele>60.599998474121</ele>
        <time>2022-03-24T10:23:36.000Z</time>
      </trkpt>
      <trkpt lat="47.31921" lon="-2.44583">
        <ele>60.599998474121</ele>
        <time>2022-03-24T10:23:43.000Z</time>
      </trkpt>
      <trkpt lat="47.31905" lon="-2.44567">
        <ele>60.599998474121</ele>
        <time>2022-03-24T10:23:47.000Z</time>
      </trkpt>
      <trkpt lat="47.31901" lon="-2.44566">
        <ele>60.599998474121</ele>
        <time>2022-03-24T10:23:48.000Z</time>
      </trkpt>
      <trkpt lat="47.31898" lon="-2.44568">
        <ele>60.200000762939</ele>
        <time>2022-03-24T10:23:49.000Z</time>
      </trkpt>
      <trkpt lat="47.31895" lon="-2.44571">
        <ele>59.799999237061</ele>
        <time>2022-03-24T10:23:50.000Z</time>
      </trkpt>
      <trkpt lat="47.31892" lon="-2.44577">
        <ele>59.200000762939</ele>
        <time>2022-03-24T10:23:51.000Z</time>
      </trkpt>
      <trkpt lat="47.3189" lon="-2.44582">
        <ele>58.799999237061</ele>
        <time>2022-03-24T10:23:52.000Z</time>
      </trkpt>
      <trkpt lat="47.31889" lon="-2.44588">
        <ele>58.400001525879</ele>
        <time>2022-03-24T10:23:53.000Z</time>
      </trkpt>
      <trkpt lat="47.31885" lon="-2.44599">
        <ele>58.400001525879</ele>
        <time>2022-03-24T10:23:55.000Z</time>
      </trkpt>
      <trkpt lat="47.31882" lon="-2.44604">
        <ele>58.400001525879</ele>
        <time>2022-03-24T10:23:56.000Z</time>
      </trkpt>
      <trkpt lat="47.3188" lon="-2.44611">
        <ele>58.400001525879</ele>
        <time>2022-03-24T10:23:57.000Z</time>
      </trkpt>
      <trkpt lat="47.3187" lon="-2.4464">
        <ele>58.400001525879</ele>
        <time>2022-03-24T10:24:02.000Z</time>
      </trkpt>
      <trkpt lat="47.31857" lon="-2.44671">
        <ele>58.400001525879</ele>
        <time>2022-03-24T10:24:08.000Z</time>
      </trkpt>
      <trkpt lat="47.31841" lon="-2.44699">
        <ele>58</ele>
        <time>2022-03-24T10:24:15.000Z</time>
      </trkpt>
      <trkpt lat="47.31838" lon="-2.44703">
        <ele>57.599998474121</ele>
        <time>2022-03-24T10:24:16.000Z</time>
      </trkpt>
      <trkpt lat="47.31835" lon="-2.44707">
        <ele>57.200000762939</ele>
        <time>2022-03-24T10:24:17.000Z</time>
      </trkpt>
      <trkpt lat="47.31831" lon="-2.44711">
        <ele>56.799999237061</ele>
        <time>2022-03-24T10:24:18.000Z</time>
      </trkpt>
      <trkpt lat="47.31827" lon="-2.44715">
        <ele>56.400001525879</ele>
        <time>2022-03-24T10:24:19.000Z</time>
      </trkpt>
      <trkpt lat="47.31818" lon="-2.44723">
        <ele>56.400001525879</ele>
        <time>2022-03-24T10:24:21.000Z</time>
      </trkpt>
      <trkpt lat="47.31809" lon="-2.44728">
        <ele>56.400001525879</ele>
        <time>2022-03-24T10:24:23.000Z</time>
      </trkpt>
      <trkpt lat="47.3179" lon="-2.44738">
        <ele>56.400001525879</ele>
        <time>2022-03-24T10:24:27.000Z</time>
      </trkpt>
      <trkpt lat="47.31753" lon="-2.44764">
        <ele>56.400001525879</ele>
        <time>2022-03-24T10:24:35.000Z</time>
      </trkpt>
      <trkpt lat="47.3175" lon="-2.44769">
        <ele>56.400001525879</ele>
        <time>2022-03-24T10:24:36.000Z</time>
      </trkpt>
      <trkpt lat="47.31738" lon="-2.44783">
        <ele>56.400001525879</ele>
        <time>2022-03-24T10:24:39.000Z</time>
      </trkpt>
      <trkpt lat="47.31735" lon="-2.44786">
        <ele>56.400001525879</ele>
        <time>2022-03-24T10:24:40.000Z</time>
      </trkpt>
      <trkpt lat="47.31725" lon="-2.44784">
        <ele>56.400001525879</ele>
        <time>2022-03-24T10:24:43.000Z</time>
      </trkpt>
      <trkpt lat="47.3172" lon="-2.44778">
        <ele>56.400001525879</ele>
        <time>2022-03-24T10:24:45.000Z</time>
      </trkpt>
      <trkpt lat="47.31715" lon="-2.44768">
        <ele>56.400001525879</ele>
        <time>2022-03-24T10:24:47.000Z</time>
      </trkpt>
      <trkpt lat="47.31693" lon="-2.44715">
        <ele>56.400001525879</ele>
        <time>2022-03-24T10:24:55.000Z</time>
      </trkpt>
      <trkpt lat="47.31667" lon="-2.44651">
        <ele>56.400001525879</ele>
        <time>2022-03-24T10:25:04.000Z</time>
      </trkpt>
      <trkpt lat="47.31639" lon="-2.44589">
        <ele>56.400001525879</ele>
        <time>2022-03-24T10:25:13.000Z</time>
      </trkpt>
      <trkpt lat="47.31612" lon="-2.44542">
        <ele>56.400001525879</ele>
        <time>2022-03-24T10:25:20.000Z</time>
      </trkpt>
      <trkpt lat="47.31587" lon="-2.44493">
        <ele>56.400001525879</ele>
        <time>2022-03-24T10:25:27.000Z</time>
      </trkpt>
      <trkpt lat="47.31575" lon="-2.44434">
        <ele>56.400001525879</ele>
        <time>2022-03-24T10:25:34.000Z</time>
      </trkpt>
      <trkpt lat="47.31573" lon="-2.44417">
        <ele>56</ele>
        <time>2022-03-24T10:25:36.000Z</time>
      </trkpt>
      <trkpt lat="47.31572" lon="-2.44408">
        <ele>55.599998474121</ele>
        <time>2022-03-24T10:25:37.000Z</time>
      </trkpt>
      <trkpt lat="47.3157" lon="-2.444">
        <ele>55.200000762939</ele>
        <time>2022-03-24T10:25:38.000Z</time>
      </trkpt>
      <trkpt lat="47.31569" lon="-2.44391">
        <ele>54.599998474121</ele>
        <time>2022-03-24T10:25:39.000Z</time>
      </trkpt>
      <trkpt lat="47.31568" lon="-2.44383">
        <ele>54.200000762939</ele>
        <time>2022-03-24T10:25:40.000Z</time>
      </trkpt>
      <trkpt lat="47.31565" lon="-2.44366">
        <ele>54.200000762939</ele>
        <time>2022-03-24T10:25:42.000Z</time>
      </trkpt>
      <trkpt lat="47.31556" lon="-2.44301">
        <ele>54.200000762939</ele>
        <time>2022-03-24T10:25:50.000Z</time>
      </trkpt>
      <trkpt lat="47.31547" lon="-2.44238">
        <ele>54.200000762939</ele>
        <time>2022-03-24T10:25:58.000Z</time>
      </trkpt>
      <trkpt lat="47.31532" lon="-2.44183">
        <ele>54.200000762939</ele>
        <time>2022-03-24T10:26:06.000Z</time>
      </trkpt>
      <trkpt lat="47.3151" lon="-2.44141">
        <ele>54.200000762939</ele>
        <time>2022-03-24T10:26:13.000Z</time>
      </trkpt>
      <trkpt lat="47.31483" lon="-2.44106">
        <ele>54.200000762939</ele>
        <time>2022-03-24T10:26:20.000Z</time>
      </trkpt>
      <trkpt lat="47.31453" lon="-2.44068">
        <ele>54.200000762939</ele>
        <time>2022-03-24T10:26:28.000Z</time>
      </trkpt>
      <trkpt lat="47.31423" lon="-2.44028">
        <ele>54.200000762939</ele>
        <time>2022-03-24T10:26:36.000Z</time>
      </trkpt>
      <trkpt lat="47.31394" lon="-2.43991">
        <ele>54.200000762939</ele>
        <time>2022-03-24T10:26:44.000Z</time>
      </trkpt>
      <trkpt lat="47.31368" lon="-2.43962">
        <ele>54.200000762939</ele>
        <time>2022-03-24T10:26:52.000Z</time>
      </trkpt>
      <trkpt lat="47.31362" lon="-2.43943">
        <ele>54.200000762939</ele>
        <time>2022-03-24T10:26:56.000Z</time>
      </trkpt>
      <trkpt lat="47.31347" lon="-2.43903">
        <ele>54.200000762939</ele>
        <time>2022-03-24T10:27:03.000Z</time>
      </trkpt>
      <trkpt lat="47.31324" lon="-2.43842">
        <ele>54.200000762939</ele>
        <time>2022-03-24T10:27:14.000Z</time>
      </trkpt>
      <trkpt lat="47.31315" lon="-2.43828">
        <ele>54.200000762939</ele>
        <time>2022-03-24T10:27:17.000Z</time>
      </trkpt>
      <trkpt lat="47.31307" lon="-2.4382">
        <ele>54.200000762939</ele>
        <time>2022-03-24T10:27:19.000Z</time>
      </trkpt>
      <trkpt lat="47.31291" lon="-2.43796">
        <ele>54.599998474121</ele>
        <time>2022-03-24T10:27:24.000Z</time>
      </trkpt>
      <trkpt lat="47.31288" lon="-2.4379">
        <ele>55</ele>
        <time>2022-03-24T10:27:25.000Z</time>
      </trkpt>
      <trkpt lat="47.31286" lon="-2.43784">
        <ele>55.400001525879</ele>
        <time>2022-03-24T10:27:26.000Z</time>
      </trkpt>
      <trkpt lat="47.31283" lon="-2.43778">
        <ele>55.799999237061</ele>
        <time>2022-03-24T10:27:27.000Z</time>
      </trkpt>
      <trkpt lat="47.31281" lon="-2.43772">
        <ele>56.200000762939</ele>
        <time>2022-03-24T10:27:28.000Z</time>
      </trkpt>
      <trkpt lat="47.31269" lon="-2.43741">
        <ele>56.200000762939</ele>
        <time>2022-03-24T10:27:33.000Z</time>
      </trkpt>
      <trkpt lat="47.31267" lon="-2.43734">
        <ele>56.200000762939</ele>
        <time>2022-03-24T10:27:34.000Z</time>
      </trkpt>
      <trkpt lat="47.31247" lon="-2.4368">
        <ele>56.200000762939</ele>
        <time>2022-03-24T10:27:42.000Z</time>
      </trkpt>
      <trkpt lat="47.31237" lon="-2.43628">
        <ele>56.200000762939</ele>
        <time>2022-03-24T10:27:49.000Z</time>
      </trkpt>
      <trkpt lat="47.31228" lon="-2.43568">
        <ele>56.200000762939</ele>
        <time>2022-03-24T10:27:57.000Z</time>
      </trkpt>
      <trkpt lat="47.31218" lon="-2.43504">
        <ele>56.200000762939</ele>
        <time>2022-03-24T10:28:05.000Z</time>
      </trkpt>
      <trkpt lat="47.31207" lon="-2.43428">
        <ele>56.200000762939</ele>
        <time>2022-03-24T10:28:15.000Z</time>
      </trkpt>
      <trkpt lat="47.31198" lon="-2.43368">
        <ele>56.200000762939</ele>
        <time>2022-03-24T10:28:23.000Z</time>
      </trkpt>
      <trkpt lat="47.31191" lon="-2.43326">
        <ele>56.200000762939</ele>
        <time>2022-03-24T10:28:29.000Z</time>
      </trkpt>
      <trkpt lat="47.31178" lon="-2.43294">
        <ele>56.200000762939</ele>
        <time>2022-03-24T10:28:34.000Z</time>
      </trkpt>
      <trkpt lat="47.31159" lon="-2.43265">
        <ele>56.200000762939</ele>
        <time>2022-03-24T10:28:39.000Z</time>
      </trkpt>
      <trkpt lat="47.31149" lon="-2.43248">
        <ele>56.200000762939</ele>
        <time>2022-03-24T10:28:42.000Z</time>
      </trkpt>
      <trkpt lat="47.31142" lon="-2.43236">
        <ele>56.200000762939</ele>
        <time>2022-03-24T10:28:44.000Z</time>
      </trkpt>
      <trkpt lat="47.31138" lon="-2.4323">
        <ele>56.200000762939</ele>
        <time>2022-03-24T10:28:45.000Z</time>
      </trkpt>
      <trkpt lat="47.31116" lon="-2.43197">
        <ele>56.200000762939</ele>
        <time>2022-03-24T10:28:51.000Z</time>
      </trkpt>
      <trkpt lat="47.31112" lon="-2.43194">
        <ele>56.200000762939</ele>
        <time>2022-03-24T10:28:52.000Z</time>
      </trkpt>
      <trkpt lat="47.31102" lon="-2.43192">
        <ele>56.200000762939</ele>
        <time>2022-03-24T10:28:54.000Z</time>
      </trkpt>
      <trkpt lat="47.31089" lon="-2.43202">
        <ele>56.200000762939</ele>
        <time>2022-03-24T10:28:57.000Z</time>
      </trkpt>
      <trkpt lat="47.31084" lon="-2.43206">
        <ele>56.200000762939</ele>
        <time>2022-03-24T10:28:58.000Z</time>
      </trkpt>
      <trkpt lat="47.31059" lon="-2.43229">
        <ele>56.200000762939</ele>
        <time>2022-03-24T10:29:03.000Z</time>
      </trkpt>
      <trkpt lat="47.31054" lon="-2.43235">
        <ele>56.200000762939</ele>
        <time>2022-03-24T10:29:04.000Z</time>
      </trkpt>
      <trkpt lat="47.31044" lon="-2.43247">
        <ele>56.200000762939</ele>
        <time>2022-03-24T10:29:06.000Z</time>
      </trkpt>
      <trkpt lat="47.3104" lon="-2.43254">
        <ele>56.200000762939</ele>
        <time>2022-03-24T10:29:07.000Z</time>
      </trkpt>
      <trkpt lat="47.31003" lon="-2.43299">
        <ele>56.200000762939</ele>
        <time>2022-03-24T10:29:14.000Z</time>
      </trkpt>
      <trkpt lat="47.30978" lon="-2.43314">
        <ele>56.200000762939</ele>
        <time>2022-03-24T10:29:18.000Z</time>
      </trkpt>
      <trkpt lat="47.30971" lon="-2.43317">
        <ele>56.200000762939</ele>
        <time>2022-03-24T10:29:19.000Z</time>
      </trkpt>
      <trkpt lat="47.30916" lon="-2.43342">
        <ele>56.200000762939</ele>
        <time>2022-03-24T10:29:27.000Z</time>
      </trkpt>
      <trkpt lat="47.30867" lon="-2.43362">
        <ele>56.200000762939</ele>
        <time>2022-03-24T10:29:34.000Z</time>
      </trkpt>
      <trkpt lat="47.30831" lon="-2.43377">
        <ele>55.799999237061</ele>
        <time>2022-03-24T10:29:39.000Z</time>
      </trkpt>
      <trkpt lat="47.30824" lon="-2.4338">
        <ele>55</ele>
        <time>2022-03-24T10:29:40.000Z</time>
      </trkpt>
      <trkpt lat="47.30817" lon="-2.43382">
        <ele>54.599998474121</ele>
        <time>2022-03-24T10:29:41.000Z</time>
      </trkpt>
      <trkpt lat="47.3081" lon="-2.43384">
        <ele>54.200000762939</ele>
        <time>2022-03-24T10:29:42.000Z</time>
      </trkpt>
      <trkpt lat="47.30781" lon="-2.43387">
        <ele>54.200000762939</ele>
        <time>2022-03-24T10:29:46.000Z</time>
      </trkpt>
      <trkpt lat="47.30732" lon="-2.4339">
        <ele>54.200000762939</ele>
        <time>2022-03-24T10:29:53.000Z</time>
      </trkpt>
      <trkpt lat="47.30688" lon="-2.43394">
        <ele>54.200000762939</ele>
        <time>2022-03-24T10:30:00.000Z</time>
      </trkpt>
      <trkpt lat="47.30647" lon="-2.43402">
        <ele>54.200000762939</ele>
        <time>2022-03-24T10:30:07.000Z</time>
      </trkpt>
      <trkpt lat="47.30603" lon="-2.43413">
        <ele>54.200000762939</ele>
        <time>2022-03-24T10:30:14.000Z</time>
      </trkpt>
      <trkpt lat="47.30547" lon="-2.43422">
        <ele>54.200000762939</ele>
        <time>2022-03-24T10:30:23.000Z</time>
      </trkpt>
      <trkpt lat="47.30516" lon="-2.43417">
        <ele>54.200000762939</ele>
        <time>2022-03-24T10:30:28.000Z</time>
      </trkpt>
      <trkpt lat="47.30468" lon="-2.43413">
        <ele>54.200000762939</ele>
        <time>2022-03-24T10:30:36.000Z</time>
      </trkpt>
      <trkpt lat="47.30462" lon="-2.43414">
        <ele>54.200000762939</ele>
        <time>2022-03-24T10:30:37.000Z</time>
      </trkpt>
      <trkpt lat="47.30446" lon="-2.43421">
        <ele>54.200000762939</ele>
        <time>2022-03-24T10:30:40.000Z</time>
      </trkpt>
      <trkpt lat="47.3043" lon="-2.43417">
        <ele>54.200000762939</ele>
        <time>2022-03-24T10:30:43.000Z</time>
      </trkpt>
      <trkpt lat="47.30422" lon="-2.43394">
        <ele>54.200000762939</ele>
        <time>2022-03-24T10:30:46.000Z</time>
      </trkpt>
      <trkpt lat="47.30421" lon="-2.43386">
        <ele>54.200000762939</ele>
        <time>2022-03-24T10:30:47.000Z</time>
      </trkpt>
      <trkpt lat="47.30411" lon="-2.43325">
        <ele>54.200000762939</ele>
        <time>2022-03-24T10:30:54.000Z</time>
      </trkpt>
      <trkpt lat="47.30396" lon="-2.43266">
        <ele>54.200000762939</ele>
        <time>2022-03-24T10:31:01.000Z</time>
      </trkpt>
      <trkpt lat="47.30391" lon="-2.43251">
        <ele>54.200000762939</ele>
        <time>2022-03-24T10:31:03.000Z</time>
      </trkpt>
      <trkpt lat="47.30382" lon="-2.4324">
        <ele>54.200000762939</ele>
        <time>2022-03-24T10:31:05.000Z</time>
      </trkpt>
      <trkpt lat="47.30364" lon="-2.43236">
        <ele>54.200000762939</ele>
        <time>2022-03-24T10:31:08.000Z</time>
      </trkpt>
      <trkpt lat="47.30357" lon="-2.43236">
        <ele>54.200000762939</ele>
        <time>2022-03-24T10:31:09.000Z</time>
      </trkpt>
      <trkpt lat="47.30331" lon="-2.43243">
        <ele>54.200000762939</ele>
        <time>2022-03-24T10:31:13.000Z</time>
      </trkpt>
      <trkpt lat="47.30292" lon="-2.43252">
        <ele>54.200000762939</ele>
        <time>2022-03-24T10:31:19.000Z</time>
      </trkpt>
      <trkpt lat="47.3024" lon="-2.43272">
        <ele>54.200000762939</ele>
        <time>2022-03-24T10:31:27.000Z</time>
      </trkpt>
      <trkpt lat="47.30186" lon="-2.43295">
        <ele>54.200000762939</ele>
        <time>2022-03-24T10:31:35.000Z</time>
      </trkpt>
      <trkpt lat="47.30179" lon="-2.43298">
        <ele>54.200000762939</ele>
        <time>2022-03-24T10:31:36.000Z</time>
      </trkpt>
      <trkpt lat="47.30138" lon="-2.43314">
        <ele>54.200000762939</ele>
        <time>2022-03-24T10:31:42.000Z</time>
      </trkpt>
      <trkpt lat="47.30103" lon="-2.43323">
        <ele>54.200000762939</ele>
        <time>2022-03-24T10:31:47.000Z</time>
      </trkpt>
      <trkpt lat="47.3006" lon="-2.43333">
        <ele>54.200000762939</ele>
        <time>2022-03-24T10:31:53.000Z</time>
      </trkpt>
      <trkpt lat="47.30032" lon="-2.43334">
        <ele>54.200000762939</ele>
        <time>2022-03-24T10:31:57.000Z</time>
      </trkpt>
      <trkpt lat="47.30025" lon="-2.43332">
        <ele>54.200000762939</ele>
        <time>2022-03-24T10:31:58.000Z</time>
      </trkpt>
      <trkpt lat="47.30005" lon="-2.43323">
        <ele>54.200000762939</ele>
        <time>2022-03-24T10:32:01.000Z</time>
      </trkpt>
      <trkpt lat="47.29993" lon="-2.43313">
        <ele>54.200000762939</ele>
        <time>2022-03-24T10:32:03.000Z</time>
      </trkpt>
      <trkpt lat="47.29976" lon="-2.43298">
        <ele>54.200000762939</ele>
        <time>2022-03-24T10:32:06.000Z</time>
      </trkpt>
      <trkpt lat="47.29963" lon="-2.43294">
        <ele>54.200000762939</ele>
        <time>2022-03-24T10:32:08.000Z</time>
      </trkpt>
      <trkpt lat="47.29938" lon="-2.43301">
        <ele>54.200000762939</ele>
        <time>2022-03-24T10:32:12.000Z</time>
      </trkpt>
      <trkpt lat="47.29933" lon="-2.43304">
        <ele>54.200000762939</ele>
        <time>2022-03-24T10:32:13.000Z</time>
      </trkpt>
      <trkpt lat="47.29901" lon="-2.43313">
        <ele>54.200000762939</ele>
        <time>2022-03-24T10:32:19.000Z</time>
      </trkpt>
      <trkpt lat="47.29888" lon="-2.43314">
        <ele>54.200000762939</ele>
        <time>2022-03-24T10:32:22.000Z</time>
      </trkpt>
      <trkpt lat="47.2988" lon="-2.43314">
        <ele>54.200000762939</ele>
        <time>2022-03-24T10:32:24.000Z</time>
      </trkpt>
      <trkpt lat="47.29874" lon="-2.43303">
        <ele>54.200000762939</ele>
        <time>2022-03-24T10:32:27.000Z</time>
      </trkpt>
      <trkpt lat="47.29872" lon="-2.43295">
        <ele>54.200000762939</ele>
        <time>2022-03-24T10:32:30.000Z</time>
      </trkpt>
      <trkpt lat="47.29871" lon="-2.43294">
        <ele>54.200000762939</ele>
        <time>2022-03-24T10:32:32.000Z</time>
      </trkpt>
      <trkpt lat="47.29871" lon="-2.43292">
        <ele>54.200000762939</ele>
        <time>2022-03-24T10:32:47.000Z</time>
      </trkpt>
      <trkpt lat="47.2987" lon="-2.43289">
        <ele>54.200000762939</ele>
        <time>2022-03-24T10:32:48.000Z</time>
      </trkpt>
      <trkpt lat="47.2987" lon="-2.43285">
        <ele>54.200000762939</ele>
        <time>2022-03-24T10:32:51.000Z</time>
      </trkpt>
      <trkpt lat="47.29868" lon="-2.43281">
        <ele>54.200000762939</ele>
        <time>2022-03-24T10:33:08.000Z</time>
      </trkpt>
      <trkpt lat="47.29858" lon="-2.43264">
        <ele>54.200000762939</ele>
        <time>2022-03-24T10:33:13.000Z</time>
      </trkpt>
      <trkpt lat="47.29843" lon="-2.4324">
        <ele>54.200000762939</ele>
        <time>2022-03-24T10:33:18.000Z</time>
      </trkpt>
      <trkpt lat="47.29822" lon="-2.43203">
        <ele>54.200000762939</ele>
        <time>2022-03-24T10:33:25.000Z</time>
      </trkpt>
      <trkpt lat="47.29819" lon="-2.432">
        <ele>54.200000762939</ele>
        <time>2022-03-24T10:33:26.000Z</time>
      </trkpt>
      <trkpt lat="47.29797" lon="-2.43186">
        <ele>54.200000762939</ele>
        <time>2022-03-24T10:33:32.000Z</time>
      </trkpt>
      <trkpt lat="47.29789" lon="-2.43187">
        <ele>54.200000762939</ele>
        <time>2022-03-24T10:33:34.000Z</time>
      </trkpt>
      <trkpt lat="47.29777" lon="-2.4319">
        <ele>54.200000762939</ele>
        <time>2022-03-24T10:33:37.000Z</time>
      </trkpt>
      <trkpt lat="47.29747" lon="-2.43199">
        <ele>54.200000762939</ele>
        <time>2022-03-24T10:33:44.000Z</time>
      </trkpt>
      <trkpt lat="47.29714" lon="-2.43209">
        <ele>54.200000762939</ele>
        <time>2022-03-24T10:33:51.000Z</time>
      </trkpt>
      <trkpt lat="47.29677" lon="-2.4322">
        <ele>54.200000762939</ele>
        <time>2022-03-24T10:33:59.000Z</time>
      </trkpt>
      <trkpt lat="47.29645" lon="-2.43229">
        <ele>54.200000762939</ele>
        <time>2022-03-24T10:34:06.000Z</time>
      </trkpt>
      <trkpt lat="47.29606" lon="-2.43243">
        <ele>54.200000762939</ele>
        <time>2022-03-24T10:34:15.000Z</time>
      </trkpt>
      <trkpt lat="47.2958" lon="-2.43258">
        <ele>54.200000762939</ele>
        <time>2022-03-24T10:34:22.000Z</time>
      </trkpt>
      <trkpt lat="47.29562" lon="-2.43278">
        <ele>54.200000762939</ele>
        <time>2022-03-24T10:34:28.000Z</time>
      </trkpt>
      <trkpt lat="47.29554" lon="-2.43292">
        <ele>54.200000762939</ele>
        <time>2022-03-24T10:34:31.000Z</time>
      </trkpt>
      <trkpt lat="47.29545" lon="-2.43306">
        <ele>54.200000762939</ele>
        <time>2022-03-24T10:34:34.000Z</time>
      </trkpt>
      <trkpt lat="47.29531" lon="-2.43332">
        <ele>54.599998474121</ele>
        <time>2022-03-24T10:34:39.000Z</time>
      </trkpt>
      <trkpt lat="47.29528" lon="-2.43337">
        <ele>55</ele>
        <time>2022-03-24T10:34:40.000Z</time>
      </trkpt>
      <trkpt lat="47.29525" lon="-2.43342">
        <ele>55.400001525879</ele>
        <time>2022-03-24T10:34:41.000Z</time>
      </trkpt>
      <trkpt lat="47.29522" lon="-2.43347">
        <ele>55.799999237061</ele>
        <time>2022-03-24T10:34:42.000Z</time>
      </trkpt>
      <trkpt lat="47.29519" lon="-2.43353">
        <ele>56.200000762939</ele>
        <time>2022-03-24T10:34:43.000Z</time>
      </trkpt>
      <trkpt lat="47.29499" lon="-2.43389">
        <ele>56.200000762939</ele>
        <time>2022-03-24T10:34:50.000Z</time>
      </trkpt>
      <trkpt lat="47.29496" lon="-2.43394">
        <ele>56.200000762939</ele>
        <time>2022-03-24T10:34:51.000Z</time>
      </trkpt>
      <trkpt lat="47.29487" lon="-2.43412">
        <ele>56.200000762939</ele>
        <time>2022-03-24T10:34:54.000Z</time>
      </trkpt>
      <trkpt lat="47.29484" lon="-2.43417">
        <ele>56.200000762939</ele>
        <time>2022-03-24T10:34:55.000Z</time>
      </trkpt>
      <trkpt lat="47.29481" lon="-2.43422">
        <ele>56.200000762939</ele>
        <time>2022-03-24T10:34:56.000Z</time>
      </trkpt>
      <trkpt lat="47.29472" lon="-2.4344">
        <ele>56.200000762939</ele>
        <time>2022-03-24T10:34:59.000Z</time>
      </trkpt>
      <trkpt lat="47.29464" lon="-2.43458">
        <ele>56.200000762939</ele>
        <time>2022-03-24T10:35:02.000Z</time>
      </trkpt>
      <trkpt lat="47.29449" lon="-2.43465">
        <ele>56.200000762939</ele>
        <time>2022-03-24T10:35:06.000Z</time>
      </trkpt>
      <trkpt lat="47.29441" lon="-2.43447">
        <ele>55.799999237061</ele>
        <time>2022-03-24T10:35:09.000Z</time>
      </trkpt>
      <trkpt lat="47.29439" lon="-2.43441">
        <ele>55.400001525879</ele>
        <time>2022-03-24T10:35:10.000Z</time>
      </trkpt>
      <trkpt lat="47.29437" lon="-2.43435">
        <ele>55</ele>
        <time>2022-03-24T10:35:11.000Z</time>
      </trkpt>
      <trkpt lat="47.29436" lon="-2.43428">
        <ele>54.599998474121</ele>
        <time>2022-03-24T10:35:12.000Z</time>
      </trkpt>
      <trkpt lat="47.29435" lon="-2.43422">
        <ele>54</ele>
        <time>2022-03-24T10:35:13.000Z</time>
      </trkpt>
      <trkpt lat="47.29434" lon="-2.43414">
        <ele>54</ele>
        <time>2022-03-24T10:35:14.000Z</time>
      </trkpt>
      <trkpt lat="47.29432" lon="-2.434">
        <ele>54</ele>
        <time>2022-03-24T10:35:16.000Z</time>
      </trkpt>
      <trkpt lat="47.29426" lon="-2.4339">
        <ele>54</ele>
        <time>2022-03-24T10:35:18.000Z</time>
      </trkpt>
      <trkpt lat="47.29414" lon="-2.43386">
        <ele>54</ele>
        <time>2022-03-24T10:35:21.000Z</time>
      </trkpt>
      <trkpt lat="47.29409" lon="-2.43373">
        <ele>54</ele>
        <time>2022-03-24T10:35:24.000Z</time>
      </trkpt>
      <trkpt lat="47.29404" lon="-2.4335">
        <ele>54</ele>
        <time>2022-03-24T10:35:29.000Z</time>
      </trkpt>
      <trkpt lat="47.29398" lon="-2.43341">
        <ele>54</ele>
        <time>2022-03-24T10:35:31.000Z</time>
      </trkpt>
      <trkpt lat="47.2939" lon="-2.43329">
        <ele>54</ele>
        <time>2022-03-24T10:35:34.000Z</time>
      </trkpt>
      <trkpt lat="47.29367" lon="-2.43297">
        <ele>54</ele>
        <time>2022-03-24T10:35:41.000Z</time>
      </trkpt>
      <trkpt lat="47.29365" lon="-2.43291">
        <ele>54</ele>
        <time>2022-03-24T10:35:42.000Z</time>
      </trkpt>
      <trkpt lat="47.29362" lon="-2.43272">
        <ele>54</ele>
        <time>2022-03-24T10:35:45.000Z</time>
      </trkpt>
      <trkpt lat="47.29362" lon="-2.43265">
        <ele>54</ele>
        <time>2022-03-24T10:35:46.000Z</time>
      </trkpt>
      <trkpt lat="47.29364" lon="-2.43244">
        <ele>54</ele>
        <time>2022-03-24T10:35:50.000Z</time>
      </trkpt>
      <trkpt lat="47.29366" lon="-2.43238">
        <ele>54</ele>
        <time>2022-03-24T10:35:51.000Z</time>
      </trkpt>
      <trkpt lat="47.29376" lon="-2.43215">
        <ele>54</ele>
        <time>2022-03-24T10:35:55.000Z</time>
      </trkpt>
      <trkpt lat="47.29376" lon="-2.43193">
        <ele>54</ele>
        <time>2022-03-24T10:35:58.000Z</time>
      </trkpt>
      <trkpt lat="47.29375" lon="-2.43186">
        <ele>54</ele>
        <time>2022-03-24T10:35:59.000Z</time>
      </trkpt>
      <trkpt lat="47.29368" lon="-2.43152">
        <ele>54</ele>
        <time>2022-03-24T10:36:04.000Z</time>
      </trkpt>
      <trkpt lat="47.29359" lon="-2.43126">
        <ele>54</ele>
        <time>2022-03-24T10:36:08.000Z</time>
      </trkpt>
      <trkpt lat="47.29357" lon="-2.43121">
        <ele>54</ele>
        <time>2022-03-24T10:36:09.000Z</time>
      </trkpt>
      <trkpt lat="47.29344" lon="-2.43092">
        <ele>54</ele>
        <time>2022-03-24T10:36:14.000Z</time>
      </trkpt>
      <trkpt lat="47.2934" lon="-2.43087">
        <ele>54</ele>
        <time>2022-03-24T10:36:15.000Z</time>
      </trkpt>
      <trkpt lat="47.29323" lon="-2.43074">
        <ele>54</ele>
        <time>2022-03-24T10:36:19.000Z</time>
      </trkpt>
      <trkpt lat="47.2931" lon="-2.43067">
        <ele>54</ele>
        <time>2022-03-24T10:36:22.000Z</time>
      </trkpt>
      <trkpt lat="47.29305" lon="-2.43048">
        <ele>54</ele>
        <time>2022-03-24T10:36:25.000Z</time>
      </trkpt>
      <trkpt lat="47.29308" lon="-2.43019">
        <ele>54</ele>
        <time>2022-03-24T10:36:29.000Z</time>
      </trkpt>
      <trkpt lat="47.29309" lon="-2.43011">
        <ele>54</ele>
        <time>2022-03-24T10:36:30.000Z</time>
      </trkpt>
      <trkpt lat="47.29312" lon="-2.42983">
        <ele>54</ele>
        <time>2022-03-24T10:36:34.000Z</time>
      </trkpt>
      <trkpt lat="47.29314" lon="-2.42967">
        <ele>54</ele>
        <time>2022-03-24T10:36:36.000Z</time>
      </trkpt>
      <trkpt lat="47.29314" lon="-2.42951">
        <ele>54</ele>
        <time>2022-03-24T10:36:38.000Z</time>
      </trkpt>
      <trkpt lat="47.29312" lon="-2.42934">
        <ele>54</ele>
        <time>2022-03-24T10:36:40.000Z</time>
      </trkpt>
      <trkpt lat="47.29317" lon="-2.42911">
        <ele>54</ele>
        <time>2022-03-24T10:36:43.000Z</time>
      </trkpt>
      <trkpt lat="47.29327" lon="-2.42868">
        <ele>54</ele>
        <time>2022-03-24T10:36:49.000Z</time>
      </trkpt>
      <trkpt lat="47.29329" lon="-2.42861">
        <ele>54</ele>
        <time>2022-03-24T10:36:50.000Z</time>
      </trkpt>
      <trkpt lat="47.29342" lon="-2.42834">
        <ele>54</ele>
        <time>2022-03-24T10:36:54.000Z</time>
      </trkpt>
      <trkpt lat="47.29355" lon="-2.42818">
        <ele>54</ele>
        <time>2022-03-24T10:36:57.000Z</time>
      </trkpt>
      <trkpt lat="47.29364" lon="-2.42809">
        <ele>54</ele>
        <time>2022-03-24T10:36:59.000Z</time>
      </trkpt>
      <trkpt lat="47.29376" lon="-2.42791">
        <ele>54</ele>
        <time>2022-03-24T10:37:02.000Z</time>
      </trkpt>
      <trkpt lat="47.2938" lon="-2.42778">
        <ele>54</ele>
        <time>2022-03-24T10:37:04.000Z</time>
      </trkpt>
      <trkpt lat="47.29383" lon="-2.42763">
        <ele>54</ele>
        <time>2022-03-24T10:37:06.000Z</time>
      </trkpt>
      <trkpt lat="47.2939" lon="-2.42739">
        <ele>54</ele>
        <time>2022-03-24T10:37:10.000Z</time>
      </trkpt>
      <trkpt lat="47.294" lon="-2.42711">
        <ele>54</ele>
        <time>2022-03-24T10:37:15.000Z</time>
      </trkpt>
      <trkpt lat="47.29405" lon="-2.427">
        <ele>54</ele>
        <time>2022-03-24T10:37:17.000Z</time>
      </trkpt>
      <trkpt lat="47.29413" lon="-2.42684">
        <ele>54</ele>
        <time>2022-03-24T10:37:20.000Z</time>
      </trkpt>
      <trkpt lat="47.29417" lon="-2.42667">
        <ele>54</ele>
        <time>2022-03-24T10:37:23.000Z</time>
      </trkpt>
      <trkpt lat="47.29417" lon="-2.42655">
        <ele>54</ele>
        <time>2022-03-24T10:37:25.000Z</time>
      </trkpt>
      <trkpt lat="47.29419" lon="-2.42638">
        <ele>54</ele>
        <time>2022-03-24T10:37:28.000Z</time>
      </trkpt>
      <trkpt lat="47.29421" lon="-2.42594">
        <ele>54</ele>
        <time>2022-03-24T10:37:35.000Z</time>
      </trkpt>
      <trkpt lat="47.29431" lon="-2.42574">
        <ele>54</ele>
        <time>2022-03-24T10:37:39.000Z</time>
      </trkpt>
      <trkpt lat="47.29434" lon="-2.4257">
        <ele>54</ele>
        <time>2022-03-24T10:37:40.000Z</time>
      </trkpt>
      <trkpt lat="47.2945" lon="-2.42551">
        <ele>54</ele>
        <time>2022-03-24T10:37:44.000Z</time>
      </trkpt>
      <trkpt lat="47.29454" lon="-2.42548">
        <ele>54</ele>
        <time>2022-03-24T10:37:45.000Z</time>
      </trkpt>
      <trkpt lat="47.29477" lon="-2.42523">
        <ele>54</ele>
        <time>2022-03-24T10:37:51.000Z</time>
      </trkpt>
      <trkpt lat="47.29481" lon="-2.4252">
        <ele>54</ele>
        <time>2022-03-24T10:37:52.000Z</time>
      </trkpt>
      <trkpt lat="47.29502" lon="-2.42498">
        <ele>54</ele>
        <time>2022-03-24T10:37:57.000Z</time>
      </trkpt>
      <trkpt lat="47.29516" lon="-2.42483">
        <ele>54</ele>
        <time>2022-03-24T10:38:00.000Z</time>
      </trkpt>
      <trkpt lat="47.29527" lon="-2.42475">
        <ele>54</ele>
        <time>2022-03-24T10:38:02.000Z</time>
      </trkpt>
      <trkpt lat="47.29543" lon="-2.42454">
        <ele>54</ele>
        <time>2022-03-24T10:38:06.000Z</time>
      </trkpt>
      <trkpt lat="47.29553" lon="-2.42437">
        <ele>54</ele>
        <time>2022-03-24T10:38:09.000Z</time>
      </trkpt>
      <trkpt lat="47.29557" lon="-2.42432">
        <ele>54</ele>
        <time>2022-03-24T10:38:10.000Z</time>
      </trkpt>
      <trkpt lat="47.29571" lon="-2.42424">
        <ele>54</ele>
        <time>2022-03-24T10:38:13.000Z</time>
      </trkpt>
      <trkpt lat="47.29576" lon="-2.42424">
        <ele>54</ele>
        <time>2022-03-24T10:38:14.000Z</time>
      </trkpt>
      <trkpt lat="47.29605" lon="-2.42432">
        <ele>54</ele>
        <time>2022-03-24T10:38:20.000Z</time>
      </trkpt>
      <trkpt lat="47.29614" lon="-2.42435">
        <ele>54</ele>
        <time>2022-03-24T10:38:22.000Z</time>
      </trkpt>
      <trkpt lat="47.29626" lon="-2.42431">
        <ele>54</ele>
        <time>2022-03-24T10:38:25.000Z</time>
      </trkpt>
      <trkpt lat="47.29629" lon="-2.42411">
        <ele>54</ele>
        <time>2022-03-24T10:38:28.000Z</time>
      </trkpt>
      <trkpt lat="47.29639" lon="-2.42361">
        <ele>54</ele>
        <time>2022-03-24T10:38:34.000Z</time>
      </trkpt>
      <trkpt lat="47.29651" lon="-2.4231">
        <ele>54</ele>
        <time>2022-03-24T10:38:40.000Z</time>
      </trkpt>
      <trkpt lat="47.29653" lon="-2.42302">
        <ele>54</ele>
        <time>2022-03-24T10:38:41.000Z</time>
      </trkpt>
      <trkpt lat="47.29659" lon="-2.42269">
        <ele>54</ele>
        <time>2022-03-24T10:38:45.000Z</time>
      </trkpt>
      <trkpt lat="47.29673" lon="-2.42222">
        <ele>54</ele>
        <time>2022-03-24T10:38:51.000Z</time>
      </trkpt>
      <trkpt lat="47.29679" lon="-2.42208">
        <ele>54</ele>
        <time>2022-03-24T10:38:53.000Z</time>
      </trkpt>
      <trkpt lat="47.29695" lon="-2.42183">
        <ele>54</ele>
        <time>2022-03-24T10:38:57.000Z</time>
      </trkpt>
      <trkpt lat="47.29723" lon="-2.42135">
        <ele>54</ele>
        <time>2022-03-24T10:39:04.000Z</time>
      </trkpt>
      <trkpt lat="47.29755" lon="-2.4208">
        <ele>54</ele>
        <time>2022-03-24T10:39:12.000Z</time>
      </trkpt>
      <trkpt lat="47.29781" lon="-2.42027">
        <ele>54</ele>
        <time>2022-03-24T10:39:19.000Z</time>
      </trkpt>
      <trkpt lat="47.29784" lon="-2.42018">
        <ele>54</ele>
        <time>2022-03-24T10:39:20.000Z</time>
      </trkpt>
      <trkpt lat="47.29787" lon="-2.41991">
        <ele>54</ele>
        <time>2022-03-24T10:39:23.000Z</time>
      </trkpt>
      <trkpt lat="47.29781" lon="-2.41965">
        <ele>54</ele>
        <time>2022-03-24T10:39:26.000Z</time>
      </trkpt>
      <trkpt lat="47.29779" lon="-2.41957">
        <ele>54</ele>
        <time>2022-03-24T10:39:27.000Z</time>
      </trkpt>
      <trkpt lat="47.29765" lon="-2.41872">
        <ele>54</ele>
        <time>2022-03-24T10:39:37.000Z</time>
      </trkpt>
      <trkpt lat="47.29768" lon="-2.41822">
        <ele>54</ele>
        <time>2022-03-24T10:39:43.000Z</time>
      </trkpt>
      <trkpt lat="47.29768" lon="-2.41764">
        <ele>54</ele>
        <time>2022-03-24T10:39:50.000Z</time>
      </trkpt>
      <trkpt lat="47.29766" lon="-2.41756">
        <ele>54</ele>
        <time>2022-03-24T10:39:51.000Z</time>
      </trkpt>
      <trkpt lat="47.29758" lon="-2.41747">
        <ele>54</ele>
        <time>2022-03-24T10:39:53.000Z</time>
      </trkpt>
      <trkpt lat="47.29742" lon="-2.41752">
        <ele>54</ele>
        <time>2022-03-24T10:39:56.000Z</time>
      </trkpt>
      <trkpt lat="47.29734" lon="-2.41761">
        <ele>54</ele>
        <time>2022-03-24T10:39:58.000Z</time>
      </trkpt>
      <trkpt lat="47.29725" lon="-2.41772">
        <ele>54</ele>
        <time>2022-03-24T10:40:00.000Z</time>
      </trkpt>
      <trkpt lat="47.2971" lon="-2.41798">
        <ele>54</ele>
        <time>2022-03-24T10:40:04.000Z</time>
      </trkpt>
      <trkpt lat="47.29702" lon="-2.41812">
        <ele>54</ele>
        <time>2022-03-24T10:40:06.000Z</time>
      </trkpt>
      <trkpt lat="47.29697" lon="-2.41817">
        <ele>54</ele>
        <time>2022-03-24T10:40:07.000Z</time>
      </trkpt>
      <trkpt lat="47.29685" lon="-2.41822">
        <ele>54</ele>
        <time>2022-03-24T10:40:09.000Z</time>
      </trkpt>
      <trkpt lat="47.29663" lon="-2.41825">
        <ele>54</ele>
        <time>2022-03-24T10:40:13.000Z</time>
      </trkpt>
      <trkpt lat="47.29657" lon="-2.41828">
        <ele>54</ele>
        <time>2022-03-24T10:40:14.000Z</time>
      </trkpt>
      <trkpt lat="47.29651" lon="-2.41828">
        <ele>54</ele>
        <time>2022-03-24T10:40:15.000Z</time>
      </trkpt>
      <trkpt lat="47.29643" lon="-2.41819">
        <ele>54</ele>
        <time>2022-03-24T10:40:17.000Z</time>
      </trkpt>
      <trkpt lat="47.29636" lon="-2.41798">
        <ele>54</ele>
        <time>2022-03-24T10:40:20.000Z</time>
      </trkpt>
      <trkpt lat="47.29629" lon="-2.41769">
        <ele>54</ele>
        <time>2022-03-24T10:40:24.000Z</time>
      </trkpt>
      <trkpt lat="47.29618" lon="-2.41753">
        <ele>54</ele>
        <time>2022-03-24T10:40:27.000Z</time>
      </trkpt>
      <trkpt lat="47.29614" lon="-2.41749">
        <ele>54</ele>
        <time>2022-03-24T10:40:28.000Z</time>
      </trkpt>
      <trkpt lat="47.2961" lon="-2.41746">
        <ele>54</ele>
        <time>2022-03-24T10:40:29.000Z</time>
      </trkpt>
      <trkpt lat="47.2958" lon="-2.41713">
        <ele>54</ele>
        <time>2022-03-24T10:40:37.000Z</time>
      </trkpt>
      <trkpt lat="47.29575" lon="-2.41712">
        <ele>54</ele>
        <time>2022-03-24T10:40:38.000Z</time>
      </trkpt>
      <trkpt lat="47.29565" lon="-2.4171">
        <ele>54</ele>
        <time>2022-03-24T10:40:40.000Z</time>
      </trkpt>
      <trkpt lat="47.2955" lon="-2.41697">
        <ele>54</ele>
        <time>2022-03-24T10:40:44.000Z</time>
      </trkpt>
      <trkpt lat="47.29546" lon="-2.41688">
        <ele>54</ele>
        <time>2022-03-24T10:40:46.000Z</time>
      </trkpt>
      <trkpt lat="47.29539" lon="-2.41671">
        <ele>54</ele>
        <time>2022-03-24T10:40:49.000Z</time>
      </trkpt>
      <trkpt lat="47.29535" lon="-2.41658">
        <ele>54</ele>
        <time>2022-03-24T10:40:51.000Z</time>
      </trkpt>
      <trkpt lat="47.29526" lon="-2.41623">
        <ele>54</ele>
        <time>2022-03-24T10:40:56.000Z</time>
      </trkpt>
      <trkpt lat="47.29525" lon="-2.41608">
        <ele>54</ele>
        <time>2022-03-24T10:40:58.000Z</time>
      </trkpt>
      <trkpt lat="47.29525" lon="-2.41593">
        <ele>54</ele>
        <time>2022-03-24T10:41:00.000Z</time>
      </trkpt>
      <trkpt lat="47.29526" lon="-2.41586">
        <ele>54</ele>
        <time>2022-03-24T10:41:01.000Z</time>
      </trkpt>
      <trkpt lat="47.29533" lon="-2.41564">
        <ele>54</ele>
        <time>2022-03-24T10:41:05.000Z</time>
      </trkpt>
      <trkpt lat="47.29538" lon="-2.41535">
        <ele>54</ele>
        <time>2022-03-24T10:41:10.000Z</time>
      </trkpt>
      <trkpt lat="47.29538" lon="-2.41529">
        <ele>54</ele>
        <time>2022-03-24T10:41:11.000Z</time>
      </trkpt>
      <trkpt lat="47.29533" lon="-2.41506">
        <ele>54</ele>
        <time>2022-03-24T10:41:15.000Z</time>
      </trkpt>
      <trkpt lat="47.29527" lon="-2.41495">
        <ele>54</ele>
        <time>2022-03-24T10:41:17.000Z</time>
      </trkpt>
      <trkpt lat="47.29517" lon="-2.4148">
        <ele>54</ele>
        <time>2022-03-24T10:41:20.000Z</time>
      </trkpt>
      <trkpt lat="47.29512" lon="-2.41476">
        <ele>54</ele>
        <time>2022-03-24T10:41:21.000Z</time>
      </trkpt>
      <trkpt lat="47.29498" lon="-2.41479">
        <ele>54</ele>
        <time>2022-03-24T10:41:24.000Z</time>
      </trkpt>
      <trkpt lat="47.29477" lon="-2.41487">
        <ele>54</ele>
        <time>2022-03-24T10:41:29.000Z</time>
      </trkpt>
      <trkpt lat="47.29468" lon="-2.41484">
        <ele>54</ele>
        <time>2022-03-24T10:41:31.000Z</time>
      </trkpt>
      <trkpt lat="47.29462" lon="-2.41484">
        <ele>54</ele>
        <time>2022-03-24T10:41:32.000Z</time>
      </trkpt>
      <trkpt lat="47.29458" lon="-2.41485">
        <ele>54</ele>
        <time>2022-03-24T10:41:33.000Z</time>
      </trkpt>
      <trkpt lat="47.2944" lon="-2.41488">
        <ele>54</ele>
        <time>2022-03-24T10:41:37.000Z</time>
      </trkpt>
      <trkpt lat="47.2943" lon="-2.41484">
        <ele>54</ele>
        <time>2022-03-24T10:41:39.000Z</time>
      </trkpt>
      <trkpt lat="47.29423" lon="-2.41477">
        <ele>54</ele>
        <time>2022-03-24T10:41:41.000Z</time>
      </trkpt>
      <trkpt lat="47.2942" lon="-2.41472">
        <ele>54</ele>
        <time>2022-03-24T10:41:42.000Z</time>
      </trkpt>
      <trkpt lat="47.29416" lon="-2.41467">
        <ele>54</ele>
        <time>2022-03-24T10:41:43.000Z</time>
      </trkpt>
      <trkpt lat="47.29405" lon="-2.41453">
        <ele>54</ele>
        <time>2022-03-24T10:41:46.000Z</time>
      </trkpt>
      <trkpt lat="47.29395" lon="-2.41436">
        <ele>54</ele>
        <time>2022-03-24T10:41:49.000Z</time>
      </trkpt>
      <trkpt lat="47.29393" lon="-2.4143">
        <ele>54</ele>
        <time>2022-03-24T10:41:50.000Z</time>
      </trkpt>
      <trkpt lat="47.2938" lon="-2.41398">
        <ele>54</ele>
        <time>2022-03-24T10:41:55.000Z</time>
      </trkpt>
      <trkpt lat="47.29371" lon="-2.41381">
        <ele>54</ele>
        <time>2022-03-24T10:41:58.000Z</time>
      </trkpt>
      <trkpt lat="47.2936" lon="-2.41367">
        <ele>54</ele>
        <time>2022-03-24T10:42:01.000Z</time>
      </trkpt>
      <trkpt lat="47.29347" lon="-2.41347">
        <ele>54</ele>
        <time>2022-03-24T10:42:05.000Z</time>
      </trkpt>
      <trkpt lat="47.29346" lon="-2.41342">
        <ele>54</ele>
        <time>2022-03-24T10:42:06.000Z</time>
      </trkpt>
      <trkpt lat="47.29349" lon="-2.41318">
        <ele>54</ele>
        <time>2022-03-24T10:42:10.000Z</time>
      </trkpt>
      <trkpt lat="47.29358" lon="-2.41293">
        <ele>54</ele>
        <time>2022-03-24T10:42:14.000Z</time>
      </trkpt>
      <trkpt lat="47.29357" lon="-2.41273">
        <ele>54</ele>
        <time>2022-03-24T10:42:17.000Z</time>
      </trkpt>
      <trkpt lat="47.29357" lon="-2.41266">
        <ele>54</ele>
        <time>2022-03-24T10:42:18.000Z</time>
      </trkpt>
      <trkpt lat="47.29355" lon="-2.41252">
        <ele>54</ele>
        <time>2022-03-24T10:42:20.000Z</time>
      </trkpt>
      <trkpt lat="47.29346" lon="-2.41234">
        <ele>54</ele>
        <time>2022-03-24T10:42:23.000Z</time>
      </trkpt>
      <trkpt lat="47.29327" lon="-2.41214">
        <ele>54</ele>
        <time>2022-03-24T10:42:27.000Z</time>
      </trkpt>
      <trkpt lat="47.29323" lon="-2.41208">
        <ele>54</ele>
        <time>2022-03-24T10:42:28.000Z</time>
      </trkpt>
      <trkpt lat="47.29304" lon="-2.41189">
        <ele>54</ele>
        <time>2022-03-24T10:42:32.000Z</time>
      </trkpt>
      <trkpt lat="47.29301" lon="-2.41184">
        <ele>54</ele>
        <time>2022-03-24T10:42:33.000Z</time>
      </trkpt>
      <trkpt lat="47.29297" lon="-2.41171">
        <ele>54</ele>
        <time>2022-03-24T10:42:35.000Z</time>
      </trkpt>
      <trkpt lat="47.29283" lon="-2.41139">
        <ele>54</ele>
        <time>2022-03-24T10:42:40.000Z</time>
      </trkpt>
      <trkpt lat="47.29279" lon="-2.41133">
        <ele>54</ele>
        <time>2022-03-24T10:42:41.000Z</time>
      </trkpt>
      <trkpt lat="47.29266" lon="-2.41119">
        <ele>54</ele>
        <time>2022-03-24T10:42:44.000Z</time>
      </trkpt>
      <trkpt lat="47.29258" lon="-2.41108">
        <ele>54</ele>
        <time>2022-03-24T10:42:46.000Z</time>
      </trkpt>
      <trkpt lat="47.29247" lon="-2.41092">
        <ele>54</ele>
        <time>2022-03-24T10:42:49.000Z</time>
      </trkpt>
      <trkpt lat="47.29242" lon="-2.41076">
        <ele>54</ele>
        <time>2022-03-24T10:42:51.000Z</time>
      </trkpt>
      <trkpt lat="47.2925" lon="-2.41057">
        <ele>54</ele>
        <time>2022-03-24T10:42:54.000Z</time>
      </trkpt>
      <trkpt lat="47.29247" lon="-2.41034">
        <ele>54</ele>
        <time>2022-03-24T10:42:57.000Z</time>
      </trkpt>
      <trkpt lat="47.29231" lon="-2.41013">
        <ele>54</ele>
        <time>2022-03-24T10:43:01.000Z</time>
      </trkpt>
      <trkpt lat="47.29225" lon="-2.41">
        <ele>54</ele>
        <time>2022-03-24T10:43:03.000Z</time>
      </trkpt>
      <trkpt lat="47.29216" lon="-2.40978">
        <ele>54</ele>
        <time>2022-03-24T10:43:06.000Z</time>
      </trkpt>
      <trkpt lat="47.29207" lon="-2.40957">
        <ele>54</ele>
        <time>2022-03-24T10:43:09.000Z</time>
      </trkpt>
      <trkpt lat="47.29198" lon="-2.40949">
        <ele>54</ele>
        <time>2022-03-24T10:43:11.000Z</time>
      </trkpt>
      <trkpt lat="47.29181" lon="-2.40945">
        <ele>54</ele>
        <time>2022-03-24T10:43:14.000Z</time>
      </trkpt>
      <trkpt lat="47.29176" lon="-2.40944">
        <ele>54</ele>
        <time>2022-03-24T10:43:15.000Z</time>
      </trkpt>
      <trkpt lat="47.2917" lon="-2.4094">
        <ele>54</ele>
        <time>2022-03-24T10:43:16.000Z</time>
      </trkpt>
      <trkpt lat="47.29163" lon="-2.40928">
        <ele>54</ele>
        <time>2022-03-24T10:43:18.000Z</time>
      </trkpt>
      <trkpt lat="47.29161" lon="-2.40906">
        <ele>54</ele>
        <time>2022-03-24T10:43:21.000Z</time>
      </trkpt>
      <trkpt lat="47.29161" lon="-2.40901">
        <ele>54</ele>
        <time>2022-03-24T10:43:22.000Z</time>
      </trkpt>
      <trkpt lat="47.29162" lon="-2.40899">
        <ele>54</ele>
        <time>2022-03-24T10:43:24.000Z</time>
      </trkpt>
      <trkpt lat="47.29162" lon="-2.40899">
        <ele>54</ele>
        <time>2022-03-24T10:43:25.000Z</time>
      </trkpt>
      <trkpt lat="47.29166" lon="-2.40893">
        <ele>54</ele>
        <time>2022-03-24T10:43:41.000Z</time>
      </trkpt>
      <trkpt lat="47.29167" lon="-2.4089">
        <ele>54</ele>
        <time>2022-03-24T10:43:43.000Z</time>
      </trkpt>
      <trkpt lat="47.29172" lon="-2.4087">
        <ele>54</ele>
        <time>2022-03-24T10:43:48.000Z</time>
      </trkpt>
      <trkpt lat="47.29174" lon="-2.40852">
        <ele>54</ele>
        <time>2022-03-24T10:43:51.000Z</time>
      </trkpt>
      <trkpt lat="47.29172" lon="-2.40834">
        <ele>54</ele>
        <time>2022-03-24T10:43:54.000Z</time>
      </trkpt>
      <trkpt lat="47.29171" lon="-2.4082">
        <ele>54</ele>
        <time>2022-03-24T10:43:56.000Z</time>
      </trkpt>
      <trkpt lat="47.29175" lon="-2.408">
        <ele>54</ele>
        <time>2022-03-24T10:43:59.000Z</time>
      </trkpt>
      <trkpt lat="47.29179" lon="-2.40787">
        <ele>54</ele>
        <time>2022-03-24T10:44:01.000Z</time>
      </trkpt>
      <trkpt lat="47.29189" lon="-2.40761">
        <ele>54</ele>
        <time>2022-03-24T10:44:05.000Z</time>
      </trkpt>
      <trkpt lat="47.29194" lon="-2.40748">
        <ele>54</ele>
        <time>2022-03-24T10:44:07.000Z</time>
      </trkpt>
      <trkpt lat="47.29204" lon="-2.40732">
        <ele>54</ele>
        <time>2022-03-24T10:44:10.000Z</time>
      </trkpt>
      <trkpt lat="47.29229" lon="-2.40689">
        <ele>54</ele>
        <time>2022-03-24T10:44:18.000Z</time>
      </trkpt>
      <trkpt lat="47.2923" lon="-2.40656">
        <ele>54</ele>
        <time>2022-03-24T10:44:22.000Z</time>
      </trkpt>
      <trkpt lat="47.29222" lon="-2.40635">
        <ele>54</ele>
        <time>2022-03-24T10:44:25.000Z</time>
      </trkpt>
      <trkpt lat="47.29219" lon="-2.40629">
        <ele>54</ele>
        <time>2022-03-24T10:44:26.000Z</time>
      </trkpt>
      <trkpt lat="47.29203" lon="-2.40609">
        <ele>54</ele>
        <time>2022-03-24T10:44:30.000Z</time>
      </trkpt>
      <trkpt lat="47.29197" lon="-2.40609">
        <ele>54</ele>
        <time>2022-03-24T10:44:31.000Z</time>
      </trkpt>
      <trkpt lat="47.29185" lon="-2.40618">
        <ele>54</ele>
        <time>2022-03-24T10:44:34.000Z</time>
      </trkpt>
      <trkpt lat="47.29166" lon="-2.40632">
        <ele>54</ele>
        <time>2022-03-24T10:44:39.000Z</time>
      </trkpt>
      <trkpt lat="47.29149" lon="-2.40646">
        <ele>54</ele>
        <time>2022-03-24T10:44:45.000Z</time>
      </trkpt>
      <trkpt lat="47.29147" lon="-2.40647">
        <ele>54</ele>
        <time>2022-03-24T10:44:48.000Z</time>
      </trkpt>
      <trkpt lat="47.29144" lon="-2.40634">
        <ele>54</ele>
        <time>2022-03-24T10:45:08.000Z</time>
      </trkpt>
      <trkpt lat="47.29142" lon="-2.40615">
        <ele>54</ele>
        <time>2022-03-24T10:45:14.000Z</time>
      </trkpt>
      <trkpt lat="47.29137" lon="-2.40593">
        <ele>54</ele>
        <time>2022-03-24T10:45:21.000Z</time>
      </trkpt>
      <trkpt lat="47.29133" lon="-2.40586">
        <ele>54</ele>
        <time>2022-03-24T10:45:26.000Z</time>
      </trkpt>
      <trkpt lat="47.29131" lon="-2.40584">
        <ele>54</ele>
        <time>2022-03-24T10:45:36.000Z</time>
      </trkpt>
      <trkpt lat="47.29131" lon="-2.40584">
        <ele>54</ele>
        <time>2022-03-24T10:45:37.000Z</time>
      </trkpt>
      <trkpt lat="47.29128" lon="-2.40577">
        <ele>54</ele>
        <time>2022-03-24T10:45:44.000Z</time>
      </trkpt>
      <trkpt lat="47.29121" lon="-2.40565">
        <ele>54</ele>
        <time>2022-03-24T10:45:52.000Z</time>
      </trkpt>
      <trkpt lat="47.29112" lon="-2.40554">
        <ele>54</ele>
        <time>2022-03-24T10:46:00.000Z</time>
      </trkpt>
      <trkpt lat="47.29104" lon="-2.40547">
        <ele>54</ele>
        <time>2022-03-24T10:46:08.000Z</time>
      </trkpt>
      <trkpt lat="47.29102" lon="-2.40545">
        <ele>54</ele>
        <time>2022-03-24T10:46:11.000Z</time>
      </trkpt>
      <trkpt lat="47.29099" lon="-2.40533">
        <ele>54</ele>
        <time>2022-03-24T10:46:14.000Z</time>
      </trkpt>
      <trkpt lat="47.29099" lon="-2.40528">
        <ele>54</ele>
        <time>2022-03-24T10:46:15.000Z</time>
      </trkpt>
      <trkpt lat="47.29107" lon="-2.40508">
        <ele>54</ele>
        <time>2022-03-24T10:46:19.000Z</time>
      </trkpt>
      <trkpt lat="47.29121" lon="-2.40497">
        <ele>54</ele>
        <time>2022-03-24T10:46:23.000Z</time>
      </trkpt>
      <trkpt lat="47.29142" lon="-2.40487">
        <ele>54</ele>
        <time>2022-03-24T10:46:28.000Z</time>
      </trkpt>
      <trkpt lat="47.29151" lon="-2.40486">
        <ele>54</ele>
        <time>2022-03-24T10:46:30.000Z</time>
      </trkpt>
      <trkpt lat="47.29165" lon="-2.40502">
        <ele>54</ele>
        <time>2022-03-24T10:46:34.000Z</time>
      </trkpt>
      <trkpt lat="47.29178" lon="-2.4052">
        <ele>54</ele>
        <time>2022-03-24T10:46:38.000Z</time>
      </trkpt>
      <trkpt lat="47.2919" lon="-2.40514">
        <ele>54</ele>
        <time>2022-03-24T10:46:41.000Z</time>
      </trkpt>
      <trkpt lat="47.29221" lon="-2.40498">
        <ele>54</ele>
        <time>2022-03-24T10:46:48.000Z</time>
      </trkpt>
      <trkpt lat="47.29251" lon="-2.40481">
        <ele>54</ele>
        <time>2022-03-24T10:46:54.000Z</time>
      </trkpt>
      <trkpt lat="47.29287" lon="-2.40465">
        <ele>54</ele>
        <time>2022-03-24T10:47:01.000Z</time>
      </trkpt>
      <trkpt lat="47.29296" lon="-2.40448">
        <ele>54</ele>
        <time>2022-03-24T10:47:04.000Z</time>
      </trkpt>
      <trkpt lat="47.29306" lon="-2.40419">
        <ele>54</ele>
        <time>2022-03-24T10:47:08.000Z</time>
      </trkpt>
      <trkpt lat="47.29308" lon="-2.40411">
        <ele>54</ele>
        <time>2022-03-24T10:47:09.000Z</time>
      </trkpt>
      <trkpt lat="47.29308" lon="-2.40403">
        <ele>54</ele>
        <time>2022-03-24T10:47:10.000Z</time>
      </trkpt>
      <trkpt lat="47.29303" lon="-2.40388">
        <ele>54</ele>
        <time>2022-03-24T10:47:12.000Z</time>
      </trkpt>
      <trkpt lat="47.29296" lon="-2.40375">
        <ele>54</ele>
        <time>2022-03-24T10:47:14.000Z</time>
      </trkpt>
      <trkpt lat="47.29286" lon="-2.4035">
        <ele>54</ele>
        <time>2022-03-24T10:47:18.000Z</time>
      </trkpt>
      <trkpt lat="47.29292" lon="-2.40332">
        <ele>54</ele>
        <time>2022-03-24T10:47:21.000Z</time>
      </trkpt>
      <trkpt lat="47.29304" lon="-2.4032">
        <ele>54</ele>
        <time>2022-03-24T10:47:24.000Z</time>
      </trkpt>
      <trkpt lat="47.29309" lon="-2.40316">
        <ele>54</ele>
        <time>2022-03-24T10:47:25.000Z</time>
      </trkpt>
      <trkpt lat="47.29338" lon="-2.40281">
        <ele>54</ele>
        <time>2022-03-24T10:47:32.000Z</time>
      </trkpt>
      <trkpt lat="47.29362" lon="-2.40261">
        <ele>54</ele>
        <time>2022-03-24T10:47:37.000Z</time>
      </trkpt>
      <trkpt lat="47.29379" lon="-2.40244">
        <ele>54</ele>
        <time>2022-03-24T10:47:41.000Z</time>
      </trkpt>
      <trkpt lat="47.29384" lon="-2.40242">
        <ele>54</ele>
        <time>2022-03-24T10:47:42.000Z</time>
      </trkpt>
      <trkpt lat="47.29421" lon="-2.40218">
        <ele>54</ele>
        <time>2022-03-24T10:47:50.000Z</time>
      </trkpt>
      <trkpt lat="47.29426" lon="-2.40216">
        <ele>54</ele>
        <time>2022-03-24T10:47:51.000Z</time>
      </trkpt>
      <trkpt lat="47.2944" lon="-2.40217">
        <ele>54</ele>
        <time>2022-03-24T10:47:54.000Z</time>
      </trkpt>
      <trkpt lat="47.2945" lon="-2.40199">
        <ele>54</ele>
        <time>2022-03-24T10:47:57.000Z</time>
      </trkpt>
      <trkpt lat="47.29453" lon="-2.40168">
        <ele>54</ele>
        <time>2022-03-24T10:48:01.000Z</time>
      </trkpt>
      <trkpt lat="47.29454" lon="-2.4016">
        <ele>54</ele>
        <time>2022-03-24T10:48:02.000Z</time>
      </trkpt>
      <trkpt lat="47.29455" lon="-2.40138">
        <ele>54</ele>
        <time>2022-03-24T10:48:05.000Z</time>
      </trkpt>
      <trkpt lat="47.29457" lon="-2.40121">
        <ele>54</ele>
        <time>2022-03-24T10:48:07.000Z</time>
      </trkpt>
      <trkpt lat="47.29462" lon="-2.40071">
        <ele>54</ele>
        <time>2022-03-24T10:48:13.000Z</time>
      </trkpt>
      <trkpt lat="47.29462" lon="-2.40054">
        <ele>54</ele>
        <time>2022-03-24T10:48:15.000Z</time>
      </trkpt>
      <trkpt lat="47.29461" lon="-2.4003">
        <ele>54</ele>
        <time>2022-03-24T10:48:18.000Z</time>
      </trkpt>
      <trkpt lat="47.2946" lon="-2.40007">
        <ele>54</ele>
        <time>2022-03-24T10:48:21.000Z</time>
      </trkpt>
      <trkpt lat="47.29461" lon="-2.39984">
        <ele>54</ele>
        <time>2022-03-24T10:48:24.000Z</time>
      </trkpt>
      <trkpt lat="47.29462" lon="-2.39977">
        <ele>54</ele>
        <time>2022-03-24T10:48:25.000Z</time>
      </trkpt>
      <trkpt lat="47.2947" lon="-2.39953">
        <ele>54</ele>
        <time>2022-03-24T10:48:29.000Z</time>
      </trkpt>
      <trkpt lat="47.29483" lon="-2.39926">
        <ele>54</ele>
        <time>2022-03-24T10:48:35.000Z</time>
      </trkpt>
      <trkpt lat="47.2949" lon="-2.39902">
        <ele>54</ele>
        <time>2022-03-24T10:48:41.000Z</time>
      </trkpt>
      <trkpt lat="47.29493" lon="-2.399">
        <ele>54</ele>
        <time>2022-03-24T10:48:42.000Z</time>
      </trkpt>
      <trkpt lat="47.295" lon="-2.39894">
        <ele>54</ele>
        <time>2022-03-24T10:48:44.000Z</time>
      </trkpt>
      <trkpt lat="47.29509" lon="-2.39878">
        <ele>54</ele>
        <time>2022-03-24T10:48:47.000Z</time>
      </trkpt>
      <trkpt lat="47.29516" lon="-2.39866">
        <ele>54</ele>
        <time>2022-03-24T10:48:49.000Z</time>
      </trkpt>
      <trkpt lat="47.29537" lon="-2.39823">
        <ele>54</ele>
        <time>2022-03-24T10:48:56.000Z</time>
      </trkpt>
      <trkpt lat="47.29553" lon="-2.39792">
        <ele>54</ele>
        <time>2022-03-24T10:49:01.000Z</time>
      </trkpt>
      <trkpt lat="47.29556" lon="-2.39785">
        <ele>54</ele>
        <time>2022-03-24T10:49:02.000Z</time>
      </trkpt>
      <trkpt lat="47.2958" lon="-2.39731">
        <ele>54</ele>
        <time>2022-03-24T10:49:10.000Z</time>
      </trkpt>
      <trkpt lat="47.29609" lon="-2.39681">
        <ele>54</ele>
        <time>2022-03-24T10:49:18.000Z</time>
      </trkpt>
      <trkpt lat="47.29613" lon="-2.39676">
        <ele>54</ele>
        <time>2022-03-24T10:49:19.000Z</time>
      </trkpt>
      <trkpt lat="47.29619" lon="-2.39663">
        <ele>54</ele>
        <time>2022-03-24T10:49:21.000Z</time>
      </trkpt>
      <trkpt lat="47.29626" lon="-2.39641">
        <ele>54</ele>
        <time>2022-03-24T10:49:24.000Z</time>
      </trkpt>
      <trkpt lat="47.29629" lon="-2.39611">
        <ele>54</ele>
        <time>2022-03-24T10:49:28.000Z</time>
      </trkpt>
      <trkpt lat="47.29628" lon="-2.39604">
        <ele>54</ele>
        <time>2022-03-24T10:49:29.000Z</time>
      </trkpt>
      <trkpt lat="47.29629" lon="-2.3959">
        <ele>54</ele>
        <time>2022-03-24T10:49:31.000Z</time>
      </trkpt>
      <trkpt lat="47.29629" lon="-2.39578">
        <ele>54</ele>
        <time>2022-03-24T10:49:33.000Z</time>
      </trkpt>
      <trkpt lat="47.29624" lon="-2.39572">
        <ele>54</ele>
        <time>2022-03-24T10:49:35.000Z</time>
      </trkpt>
      <trkpt lat="47.29621" lon="-2.39573">
        <ele>54</ele>
        <time>2022-03-24T10:49:36.000Z</time>
      </trkpt>
      <trkpt lat="47.29613" lon="-2.39573">
        <ele>54</ele>
        <time>2022-03-24T10:49:39.000Z</time>
      </trkpt>
      <trkpt lat="47.29611" lon="-2.39571">
        <ele>54</ele>
        <time>2022-03-24T10:49:40.000Z</time>
      </trkpt>
      <trkpt lat="47.29611" lon="-2.39568">
        <ele>54.599998474121</ele>
        <time>2022-03-24T10:49:41.000Z</time>
      </trkpt>
      <trkpt lat="47.29611" lon="-2.39566">
        <ele>55</ele>
        <time>2022-03-24T10:49:42.000Z</time>
      </trkpt>
      <trkpt lat="47.29612" lon="-2.39564">
        <ele>55.400001525879</ele>
        <time>2022-03-24T10:49:43.000Z</time>
      </trkpt>
      <trkpt lat="47.29614" lon="-2.39563">
        <ele>55.799999237061</ele>
        <time>2022-03-24T10:49:44.000Z</time>
      </trkpt>
      <trkpt lat="47.29616" lon="-2.39562">
        <ele>56.400001525879</ele>
        <time>2022-03-24T10:49:45.000Z</time>
      </trkpt>
      <trkpt lat="47.29621" lon="-2.39556">
        <ele>56.400001525879</ele>
        <time>2022-03-24T10:49:48.000Z</time>
      </trkpt>
      <trkpt lat="47.29619" lon="-2.39554">
        <ele>56.799999237061</ele>
        <time>2022-03-24T10:49:49.000Z</time>
      </trkpt>
      <trkpt lat="47.29617" lon="-2.39554">
        <ele>57.200000762939</ele>
        <time>2022-03-24T10:49:50.000Z</time>
      </trkpt>
      <trkpt lat="47.29615" lon="-2.39555">
        <ele>57.599998474121</ele>
        <time>2022-03-24T10:49:51.000Z</time>
      </trkpt>
      <trkpt lat="47.29611" lon="-2.39554">
        <ele>58</ele>
        <time>2022-03-24T10:49:52.000Z</time>
      </trkpt>
      <trkpt lat="47.29608" lon="-2.39554">
        <ele>58.599998474121</ele>
        <time>2022-03-24T10:49:53.000Z</time>
      </trkpt>
      <trkpt lat="47.29597" lon="-2.39552">
        <ele>58.599998474121</ele>
        <time>2022-03-24T10:49:57.000Z</time>
      </trkpt>
      <trkpt lat="47.29594" lon="-2.39551">
        <ele>59</ele>
        <time>2022-03-24T10:49:58.000Z</time>
      </trkpt>
      <trkpt lat="47.29592" lon="-2.39551">
        <ele>59.400001525879</ele>
        <time>2022-03-24T10:49:59.000Z</time>
      </trkpt>
      <trkpt lat="47.29588" lon="-2.39551">
        <ele>59.799999237061</ele>
        <time>2022-03-24T10:50:00.000Z</time>
      </trkpt>
      <trkpt lat="47.29585" lon="-2.3955">
        <ele>60.200000762939</ele>
        <time>2022-03-24T10:50:01.000Z</time>
      </trkpt>
      <trkpt lat="47.29582" lon="-2.39549">
        <ele>60.799999237061</ele>
        <time>2022-03-24T10:50:02.000Z</time>
      </trkpt>
      <trkpt lat="47.29574" lon="-2.39547">
        <ele>60.799999237061</ele>
        <time>2022-03-24T10:50:04.000Z</time>
      </trkpt>
      <trkpt lat="47.29559" lon="-2.39544">
        <ele>60.799999237061</ele>
        <time>2022-03-24T10:50:07.000Z</time>
      </trkpt>
      <trkpt lat="47.29555" lon="-2.39543">
        <ele>60.799999237061</ele>
        <time>2022-03-24T10:50:08.000Z</time>
      </trkpt>
      <trkpt lat="47.29555" lon="-2.39532">
        <ele>60.799999237061</ele>
        <time>2022-03-24T10:50:10.000Z</time>
      </trkpt>
      <trkpt lat="47.29557" lon="-2.39528">
        <ele>60.200000762939</ele>
        <time>2022-03-24T10:50:11.000Z</time>
      </trkpt>
      <trkpt lat="47.2956" lon="-2.39525">
        <ele>59.799999237061</ele>
        <time>2022-03-24T10:50:12.000Z</time>
      </trkpt>
      <trkpt lat="47.29563" lon="-2.39523">
        <ele>59.400001525879</ele>
        <time>2022-03-24T10:50:13.000Z</time>
      </trkpt>
      <trkpt lat="47.29566" lon="-2.39519">
        <ele>59</ele>
        <time>2022-03-24T10:50:14.000Z</time>
      </trkpt>
      <trkpt lat="47.29568" lon="-2.39515">
        <ele>58.599998474121</ele>
        <time>2022-03-24T10:50:15.000Z</time>
      </trkpt>
      <trkpt lat="47.29565" lon="-2.39511">
        <ele>58.599998474121</ele>
        <time>2022-03-24T10:50:16.000Z</time>
      </trkpt>
      <trkpt lat="47.29558" lon="-2.39507">
        <ele>58.599998474121</ele>
        <time>2022-03-24T10:50:18.000Z</time>
      </trkpt>
      <trkpt lat="47.29557" lon="-2.39504">
        <ele>58</ele>
        <time>2022-03-24T10:50:19.000Z</time>
      </trkpt>
      <trkpt lat="47.29557" lon="-2.39499">
        <ele>57.599998474121</ele>
        <time>2022-03-24T10:50:20.000Z</time>
      </trkpt>
      <trkpt lat="47.29559" lon="-2.39495">
        <ele>57</ele>
        <time>2022-03-24T10:50:21.000Z</time>
      </trkpt>
      <trkpt lat="47.29562" lon="-2.39492">
        <ele>56.599998474121</ele>
        <time>2022-03-24T10:50:22.000Z</time>
      </trkpt>
      <trkpt lat="47.29565" lon="-2.3949">
        <ele>56.200000762939</ele>
        <time>2022-03-24T10:50:23.000Z</time>
      </trkpt>
      <trkpt lat="47.29568" lon="-2.3949">
        <ele>56.200000762939</ele>
        <time>2022-03-24T10:50:24.000Z</time>
      </trkpt>
      <trkpt lat="47.29572" lon="-2.39492">
        <ele>56.200000762939</ele>
        <time>2022-03-24T10:50:25.000Z</time>
      </trkpt>
      <trkpt lat="47.2958" lon="-2.39496">
        <ele>56.200000762939</ele>
        <time>2022-03-24T10:50:27.000Z</time>
      </trkpt>
      <trkpt lat="47.29594" lon="-2.39493">
        <ele>56.200000762939</ele>
        <time>2022-03-24T10:50:30.000Z</time>
      </trkpt>
      <trkpt lat="47.29601" lon="-2.39484">
        <ele>56.200000762939</ele>
        <time>2022-03-24T10:50:32.000Z</time>
      </trkpt>
      <trkpt lat="47.29607" lon="-2.39473">
        <ele>56.200000762939</ele>
        <time>2022-03-24T10:50:34.000Z</time>
      </trkpt>
      <trkpt lat="47.29616" lon="-2.39459">
        <ele>55.799999237061</ele>
        <time>2022-03-24T10:50:37.000Z</time>
      </trkpt>
      <trkpt lat="47.29619" lon="-2.39455">
        <ele>55.200000762939</ele>
        <time>2022-03-24T10:50:38.000Z</time>
      </trkpt>
      <trkpt lat="47.29621" lon="-2.3945">
        <ele>54.400001525879</ele>
        <time>2022-03-24T10:50:39.000Z</time>
      </trkpt>
      <trkpt lat="47.29624" lon="-2.39445">
        <ele>54</ele>
        <time>2022-03-24T10:50:40.000Z</time>
      </trkpt>
      <trkpt lat="47.29631" lon="-2.39433">
        <ele>54</ele>
        <time>2022-03-24T10:50:44.000Z</time>
      </trkpt>
      <trkpt lat="47.29632" lon="-2.39433">
        <ele>54</ele>
        <time>2022-03-24T10:50:45.000Z</time>
      </trkpt>
      <trkpt lat="47.29633" lon="-2.39428">
        <ele>54</ele>
        <time>2022-03-24T10:51:10.000Z</time>
      </trkpt>
      <trkpt lat="47.29633" lon="-2.39422">
        <ele>54</ele>
        <time>2022-03-24T10:51:12.000Z</time>
      </trkpt>
      <trkpt lat="47.29633" lon="-2.39415">
        <ele>54</ele>
        <time>2022-03-24T10:51:14.000Z</time>
      </trkpt>
      <trkpt lat="47.29631" lon="-2.39401">
        <ele>54</ele>
        <time>2022-03-24T10:51:17.000Z</time>
      </trkpt>
      <trkpt lat="47.29631" lon="-2.39373">
        <ele>54</ele>
        <time>2022-03-24T10:51:22.000Z</time>
      </trkpt>
      <trkpt lat="47.29633" lon="-2.39331">
        <ele>54</ele>
        <time>2022-03-24T10:51:30.000Z</time>
      </trkpt>
      <trkpt lat="47.29636" lon="-2.39302">
        <ele>54</ele>
        <time>2022-03-24T10:51:35.000Z</time>
      </trkpt>
      <trkpt lat="47.29637" lon="-2.39296">
        <ele>54</ele>
        <time>2022-03-24T10:51:36.000Z</time>
      </trkpt>
      <trkpt lat="47.29641" lon="-2.39266">
        <ele>54</ele>
        <time>2022-03-24T10:51:41.000Z</time>
      </trkpt>
      <trkpt lat="47.29647" lon="-2.39216">
        <ele>54</ele>
        <time>2022-03-24T10:51:49.000Z</time>
      </trkpt>
      <trkpt lat="47.29645" lon="-2.39182">
        <ele>54</ele>
        <time>2022-03-24T10:51:55.000Z</time>
      </trkpt>
      <trkpt lat="47.29634" lon="-2.39159">
        <ele>54.400001525879</ele>
        <time>2022-03-24T10:51:59.000Z</time>
      </trkpt>
      <trkpt lat="47.29632" lon="-2.39153">
        <ele>54.799999237061</ele>
        <time>2022-03-24T10:52:00.000Z</time>
      </trkpt>
      <trkpt lat="47.2963" lon="-2.39148">
        <ele>55.200000762939</ele>
        <time>2022-03-24T10:52:01.000Z</time>
      </trkpt>
      <trkpt lat="47.29629" lon="-2.39142">
        <ele>55.799999237061</ele>
        <time>2022-03-24T10:52:02.000Z</time>
      </trkpt>
      <trkpt lat="47.29628" lon="-2.39136">
        <ele>56.200000762939</ele>
        <time>2022-03-24T10:52:03.000Z</time>
      </trkpt>
      <trkpt lat="47.29626" lon="-2.39112">
        <ele>56.200000762939</ele>
        <time>2022-03-24T10:52:07.000Z</time>
      </trkpt>
      <trkpt lat="47.29625" lon="-2.39088">
        <ele>56.200000762939</ele>
        <time>2022-03-24T10:52:11.000Z</time>
      </trkpt>
      <trkpt lat="47.29625" lon="-2.39082">
        <ele>56.200000762939</ele>
        <time>2022-03-24T10:52:12.000Z</time>
      </trkpt>
      <trkpt lat="47.29625" lon="-2.39064">
        <ele>56.200000762939</ele>
        <time>2022-03-24T10:52:15.000Z</time>
      </trkpt>
      <trkpt lat="47.29624" lon="-2.3904">
        <ele>56.200000762939</ele>
        <time>2022-03-24T10:52:19.000Z</time>
      </trkpt>
      <trkpt lat="47.29622" lon="-2.39024">
        <ele>56.599998474121</ele>
        <time>2022-03-24T10:52:22.000Z</time>
      </trkpt>
      <trkpt lat="47.2962" lon="-2.39019">
        <ele>57</ele>
        <time>2022-03-24T10:52:23.000Z</time>
      </trkpt>
      <trkpt lat="47.29618" lon="-2.39015">
        <ele>57.400001525879</ele>
        <time>2022-03-24T10:52:24.000Z</time>
      </trkpt>
      <trkpt lat="47.29614" lon="-2.39012">
        <ele>57.799999237061</ele>
        <time>2022-03-24T10:52:25.000Z</time>
      </trkpt>
      <trkpt lat="47.2961" lon="-2.3901">
        <ele>58.200000762939</ele>
        <time>2022-03-24T10:52:26.000Z</time>
      </trkpt>
      <trkpt lat="47.29602" lon="-2.39005">
        <ele>58.200000762939</ele>
        <time>2022-03-24T10:52:28.000Z</time>
      </trkpt>
      <trkpt lat="47.2957" lon="-2.38991">
        <ele>58.200000762939</ele>
        <time>2022-03-24T10:52:36.000Z</time>
      </trkpt>
      <trkpt lat="47.2954" lon="-2.38975">
        <ele>58.200000762939</ele>
        <time>2022-03-24T10:52:43.000Z</time>
      </trkpt>
      <trkpt lat="47.29512" lon="-2.38952">
        <ele>58.200000762939</ele>
        <time>2022-03-24T10:52:50.000Z</time>
      </trkpt>
      <trkpt lat="47.29498" lon="-2.38928">
        <ele>58.200000762939</ele>
        <time>2022-03-24T10:52:55.000Z</time>
      </trkpt>
      <trkpt lat="47.29486" lon="-2.3889">
        <ele>58.200000762939</ele>
        <time>2022-03-24T10:53:01.000Z</time>
      </trkpt>
      <trkpt lat="47.29484" lon="-2.38884">
        <ele>58.200000762939</ele>
        <time>2022-03-24T10:53:02.000Z</time>
      </trkpt>
      <trkpt lat="47.29472" lon="-2.38847">
        <ele>58.200000762939</ele>
        <time>2022-03-24T10:53:08.000Z</time>
      </trkpt>
      <trkpt lat="47.29471" lon="-2.3884">
        <ele>58.200000762939</ele>
        <time>2022-03-24T10:53:09.000Z</time>
      </trkpt>
      <trkpt lat="47.2947" lon="-2.3882">
        <ele>58.200000762939</ele>
        <time>2022-03-24T10:53:12.000Z</time>
      </trkpt>
      <trkpt lat="47.2947" lon="-2.38806">
        <ele>58.200000762939</ele>
        <time>2022-03-24T10:53:14.000Z</time>
      </trkpt>
      <trkpt lat="47.2947" lon="-2.38736">
        <ele>58.200000762939</ele>
        <time>2022-03-24T10:53:23.000Z</time>
      </trkpt>
      <trkpt lat="47.29465" lon="-2.38678">
        <ele>58.200000762939</ele>
        <time>2022-03-24T10:53:30.000Z</time>
      </trkpt>
      <trkpt lat="47.29459" lon="-2.38656">
        <ele>58.200000762939</ele>
        <time>2022-03-24T10:53:33.000Z</time>
      </trkpt>
      <trkpt lat="47.29459" lon="-2.38641">
        <ele>58.200000762939</ele>
        <time>2022-03-24T10:53:35.000Z</time>
      </trkpt>
      <trkpt lat="47.2946" lon="-2.38625">
        <ele>58.200000762939</ele>
        <time>2022-03-24T10:53:37.000Z</time>
      </trkpt>
      <trkpt lat="47.2946" lon="-2.386">
        <ele>58.200000762939</ele>
        <time>2022-03-24T10:53:40.000Z</time>
      </trkpt>
      <trkpt lat="47.2946" lon="-2.38542">
        <ele>57.799999237061</ele>
        <time>2022-03-24T10:53:47.000Z</time>
      </trkpt>
      <trkpt lat="47.2946" lon="-2.38534">
        <ele>57.400001525879</ele>
        <time>2022-03-24T10:53:48.000Z</time>
      </trkpt>
      <trkpt lat="47.2946" lon="-2.38526">
        <ele>57</ele>
        <time>2022-03-24T10:53:49.000Z</time>
      </trkpt>
      <trkpt lat="47.2946" lon="-2.38517">
        <ele>56.599998474121</ele>
        <time>2022-03-24T10:53:50.000Z</time>
      </trkpt>
      <trkpt lat="47.2946" lon="-2.38509">
        <ele>56.200000762939</ele>
        <time>2022-03-24T10:53:51.000Z</time>
      </trkpt>
      <trkpt lat="47.29459" lon="-2.38485">
        <ele>56.200000762939</ele>
        <time>2022-03-24T10:53:54.000Z</time>
      </trkpt>
      <trkpt lat="47.29456" lon="-2.3842">
        <ele>56.200000762939</ele>
        <time>2022-03-24T10:54:02.000Z</time>
      </trkpt>
      <trkpt lat="47.29453" lon="-2.38365">
        <ele>56.200000762939</ele>
        <time>2022-03-24T10:54:09.000Z</time>
      </trkpt>
      <trkpt lat="47.29454" lon="-2.38335">
        <ele>56.200000762939</ele>
        <time>2022-03-24T10:54:13.000Z</time>
      </trkpt>
      <trkpt lat="47.29455" lon="-2.3832">
        <ele>56.200000762939</ele>
        <time>2022-03-24T10:54:15.000Z</time>
      </trkpt>
      <trkpt lat="47.29457" lon="-2.38266">
        <ele>56.200000762939</ele>
        <time>2022-03-24T10:54:23.000Z</time>
      </trkpt>
      <trkpt lat="47.29454" lon="-2.38233">
        <ele>56.200000762939</ele>
        <time>2022-03-24T10:54:29.000Z</time>
      </trkpt>
      <trkpt lat="47.29449" lon="-2.38189">
        <ele>56.200000762939</ele>
        <time>2022-03-24T10:54:37.000Z</time>
      </trkpt>
      <trkpt lat="47.29444" lon="-2.38148">
        <ele>56.200000762939</ele>
        <time>2022-03-24T10:54:44.000Z</time>
      </trkpt>
      <trkpt lat="47.2944" lon="-2.38133">
        <ele>56.200000762939</ele>
        <time>2022-03-24T10:54:47.000Z</time>
      </trkpt>
      <trkpt lat="47.29436" lon="-2.38121">
        <ele>56.200000762939</ele>
        <time>2022-03-24T10:54:49.000Z</time>
      </trkpt>
      <trkpt lat="47.29418" lon="-2.38073">
        <ele>56.200000762939</ele>
        <time>2022-03-24T10:54:56.000Z</time>
      </trkpt>
      <trkpt lat="47.29401" lon="-2.38026">
        <ele>56.200000762939</ele>
        <time>2022-03-24T10:55:03.000Z</time>
      </trkpt>
      <trkpt lat="47.29384" lon="-2.37978">
        <ele>56.200000762939</ele>
        <time>2022-03-24T10:55:10.000Z</time>
      </trkpt>
      <trkpt lat="47.29381" lon="-2.37971">
        <ele>56.200000762939</ele>
        <time>2022-03-24T10:55:11.000Z</time>
      </trkpt>
      <trkpt lat="47.29365" lon="-2.37925">
        <ele>56.200000762939</ele>
        <time>2022-03-24T10:55:18.000Z</time>
      </trkpt>
      <trkpt lat="47.2936" lon="-2.37912">
        <ele>56.599998474121</ele>
        <time>2022-03-24T10:55:20.000Z</time>
      </trkpt>
      <trkpt lat="47.29358" lon="-2.37905">
        <ele>57</ele>
        <time>2022-03-24T10:55:21.000Z</time>
      </trkpt>
      <trkpt lat="47.29356" lon="-2.37899">
        <ele>57.400001525879</ele>
        <time>2022-03-24T10:55:22.000Z</time>
      </trkpt>
      <trkpt lat="47.29353" lon="-2.37893">
        <ele>57.799999237061</ele>
        <time>2022-03-24T10:55:23.000Z</time>
      </trkpt>
      <trkpt lat="47.29351" lon="-2.37887">
        <ele>58.200000762939</ele>
        <time>2022-03-24T10:55:24.000Z</time>
      </trkpt>
      <trkpt lat="47.29347" lon="-2.37874">
        <ele>58.200000762939</ele>
        <time>2022-03-24T10:55:26.000Z</time>
      </trkpt>
      <trkpt lat="47.29337" lon="-2.37836">
        <ele>58.200000762939</ele>
        <time>2022-03-24T10:55:32.000Z</time>
      </trkpt>
      <trkpt lat="47.29335" lon="-2.37823">
        <ele>58.599998474121</ele>
        <time>2022-03-24T10:55:34.000Z</time>
      </trkpt>
      <trkpt lat="47.29334" lon="-2.37816">
        <ele>59</ele>
        <time>2022-03-24T10:55:35.000Z</time>
      </trkpt>
      <trkpt lat="47.29333" lon="-2.37809">
        <ele>59.599998474121</ele>
        <time>2022-03-24T10:55:36.000Z</time>
      </trkpt>
      <trkpt lat="47.29333" lon="-2.37802">
        <ele>60.400001525879</ele>
        <time>2022-03-24T10:55:37.000Z</time>
      </trkpt>
      <trkpt lat="47.29332" lon="-2.37788">
        <ele>60.400001525879</ele>
        <time>2022-03-24T10:55:39.000Z</time>
      </trkpt>
      <trkpt lat="47.29331" lon="-2.37762">
        <ele>60.400001525879</ele>
        <time>2022-03-24T10:55:43.000Z</time>
      </trkpt>
      <trkpt lat="47.2933" lon="-2.37756">
        <ele>60.799999237061</ele>
        <time>2022-03-24T10:55:44.000Z</time>
      </trkpt>
      <trkpt lat="47.2933" lon="-2.37749">
        <ele>61.200000762939</ele>
        <time>2022-03-24T10:55:45.000Z</time>
      </trkpt>
      <trkpt lat="47.2933" lon="-2.37743">
        <ele>61.599998474121</ele>
        <time>2022-03-24T10:55:46.000Z</time>
      </trkpt>
      <trkpt lat="47.29329" lon="-2.37737">
        <ele>62</ele>
        <time>2022-03-24T10:55:47.000Z</time>
      </trkpt>
      <trkpt lat="47.29329" lon="-2.37732">
        <ele>62.400001525879</ele>
        <time>2022-03-24T10:55:48.000Z</time>
      </trkpt>
      <trkpt lat="47.2933" lon="-2.37706">
        <ele>62.400001525879</ele>
        <time>2022-03-24T10:55:53.000Z</time>
      </trkpt>
      <trkpt lat="47.2933" lon="-2.37701">
        <ele>62.799999237061</ele>
        <time>2022-03-24T10:55:54.000Z</time>
      </trkpt>
      <trkpt lat="47.2933" lon="-2.37695">
        <ele>63.200000762939</ele>
        <time>2022-03-24T10:55:55.000Z</time>
      </trkpt>
      <trkpt lat="47.29329" lon="-2.3769">
        <ele>63.599998474121</ele>
        <time>2022-03-24T10:55:56.000Z</time>
      </trkpt>
      <trkpt lat="47.29328" lon="-2.37685">
        <ele>64</ele>
        <time>2022-03-24T10:55:57.000Z</time>
      </trkpt>
      <trkpt lat="47.29328" lon="-2.3768">
        <ele>64.599998474121</ele>
        <time>2022-03-24T10:55:58.000Z</time>
      </trkpt>
      <trkpt lat="47.29328" lon="-2.37675">
        <ele>64.599998474121</ele>
        <time>2022-03-24T10:55:59.000Z</time>
      </trkpt>
      <trkpt lat="47.29327" lon="-2.37654">
        <ele>65</ele>
        <time>2022-03-24T10:56:03.000Z</time>
      </trkpt>
      <trkpt lat="47.29327" lon="-2.37649">
        <ele>65.400001525879</ele>
        <time>2022-03-24T10:56:04.000Z</time>
      </trkpt>
      <trkpt lat="47.29327" lon="-2.37643">
        <ele>65.800003051758</ele>
        <time>2022-03-24T10:56:05.000Z</time>
      </trkpt>
      <trkpt lat="47.29326" lon="-2.37638">
        <ele>66.199996948242</ele>
        <time>2022-03-24T10:56:06.000Z</time>
      </trkpt>
      <trkpt lat="47.29325" lon="-2.37633">
        <ele>66.800003051758</ele>
        <time>2022-03-24T10:56:07.000Z</time>
      </trkpt>
      <trkpt lat="47.29321" lon="-2.37622">
        <ele>66.800003051758</ele>
        <time>2022-03-24T10:56:09.000Z</time>
      </trkpt>
      <trkpt lat="47.29307" lon="-2.37591">
        <ele>66.800003051758</ele>
        <time>2022-03-24T10:56:15.000Z</time>
      </trkpt>
      <trkpt lat="47.29287" lon="-2.37559">
        <ele>66.800003051758</ele>
        <time>2022-03-24T10:56:21.000Z</time>
      </trkpt>
      <trkpt lat="47.29277" lon="-2.37542">
        <ele>66.800003051758</ele>
        <time>2022-03-24T10:56:24.000Z</time>
      </trkpt>
      <trkpt lat="47.29268" lon="-2.37526">
        <ele>66.800003051758</ele>
        <time>2022-03-24T10:56:27.000Z</time>
      </trkpt>
      <trkpt lat="47.29264" lon="-2.37522">
        <ele>66.800003051758</ele>
        <time>2022-03-24T10:56:28.000Z</time>
      </trkpt>
      <trkpt lat="47.29248" lon="-2.37496">
        <ele>66.800003051758</ele>
        <time>2022-03-24T10:56:34.000Z</time>
      </trkpt>
      <trkpt lat="47.2923" lon="-2.37471">
        <ele>66.800003051758</ele>
        <time>2022-03-24T10:56:40.000Z</time>
      </trkpt>
      <trkpt lat="47.29224" lon="-2.37462">
        <ele>67.199996948242</ele>
        <time>2022-03-24T10:56:42.000Z</time>
      </trkpt>
      <trkpt lat="47.29221" lon="-2.37457">
        <ele>67.599998474121</ele>
        <time>2022-03-24T10:56:43.000Z</time>
      </trkpt>
      <trkpt lat="47.29218" lon="-2.37452">
        <ele>68</ele>
        <time>2022-03-24T10:56:44.000Z</time>
      </trkpt>
      <trkpt lat="47.29215" lon="-2.37448">
        <ele>68.400001525879</ele>
        <time>2022-03-24T10:56:45.000Z</time>
      </trkpt>
      <trkpt lat="47.29212" lon="-2.37444">
        <ele>68.800003051758</ele>
        <time>2022-03-24T10:56:46.000Z</time>
      </trkpt>
      <trkpt lat="47.29204" lon="-2.37432">
        <ele>68.800003051758</ele>
        <time>2022-03-24T10:56:49.000Z</time>
      </trkpt>
      <trkpt lat="47.29189" lon="-2.37406">
        <ele>68.800003051758</ele>
        <time>2022-03-24T10:56:55.000Z</time>
      </trkpt>
      <trkpt lat="47.29181" lon="-2.37394">
        <ele>69.199996948242</ele>
        <time>2022-03-24T10:56:58.000Z</time>
      </trkpt>
      <trkpt lat="47.29178" lon="-2.3739">
        <ele>69.599998474121</ele>
        <time>2022-03-24T10:56:59.000Z</time>
      </trkpt>
      <trkpt lat="47.29175" lon="-2.37385">
        <ele>70</ele>
        <time>2022-03-24T10:57:00.000Z</time>
      </trkpt>
      <trkpt lat="47.29172" lon="-2.37381">
        <ele>70.400001525879</ele>
        <time>2022-03-24T10:57:01.000Z</time>
      </trkpt>
      <trkpt lat="47.2917" lon="-2.37376">
        <ele>70.800003051758</ele>
        <time>2022-03-24T10:57:02.000Z</time>
      </trkpt>
      <trkpt lat="47.29156" lon="-2.37345">
        <ele>70.800003051758</ele>
        <time>2022-03-24T10:57:09.000Z</time>
      </trkpt>
      <trkpt lat="47.29146" lon="-2.37322">
        <ele>70.800003051758</ele>
        <time>2022-03-24T10:57:15.000Z</time>
      </trkpt>
      <trkpt lat="47.29135" lon="-2.37308">
        <ele>70.800003051758</ele>
        <time>2022-03-24T10:57:20.000Z</time>
      </trkpt>
      <trkpt lat="47.29123" lon="-2.37297">
        <ele>70.800003051758</ele>
        <time>2022-03-24T10:57:25.000Z</time>
      </trkpt>
      <trkpt lat="47.29107" lon="-2.37279">
        <ele>70.800003051758</ele>
        <time>2022-03-24T10:57:31.000Z</time>
      </trkpt>
      <trkpt lat="47.29086" lon="-2.37257">
        <ele>70.800003051758</ele>
        <time>2022-03-24T10:57:39.000Z</time>
      </trkpt>
      <trkpt lat="47.29069" lon="-2.37237">
        <ele>70.800003051758</ele>
        <time>2022-03-24T10:57:45.000Z</time>
      </trkpt>
      <trkpt lat="47.29062" lon="-2.37224">
        <ele>70.800003051758</ele>
        <time>2022-03-24T10:57:49.000Z</time>
      </trkpt>
      <trkpt lat="47.29061" lon="-2.37223">
        <ele>70.800003051758</ele>
        <time>2022-03-24T10:57:51.000Z</time>
      </trkpt>
      <trkpt lat="47.29059" lon="-2.37222">
        <ele>70.800003051758</ele>
        <time>2022-03-24T10:58:04.000Z</time>
      </trkpt>
      <trkpt lat="47.29057" lon="-2.37221">
        <ele>70.800003051758</ele>
        <time>2022-03-24T10:58:05.000Z</time>
      </trkpt>
      <trkpt lat="47.29041" lon="-2.37208">
        <ele>70.800003051758</ele>
        <time>2022-03-24T10:58:11.000Z</time>
      </trkpt>
      <trkpt lat="47.29021" lon="-2.37189">
        <ele>70.400001525879</ele>
        <time>2022-03-24T10:58:16.000Z</time>
      </trkpt>
      <trkpt lat="47.29017" lon="-2.37185">
        <ele>70</ele>
        <time>2022-03-24T10:58:17.000Z</time>
      </trkpt>
      <trkpt lat="47.29013" lon="-2.37181">
        <ele>69.599998474121</ele>
        <time>2022-03-24T10:58:18.000Z</time>
      </trkpt>
      <trkpt lat="47.29009" lon="-2.37177">
        <ele>69.199996948242</ele>
        <time>2022-03-24T10:58:19.000Z</time>
      </trkpt>
      <trkpt lat="47.29006" lon="-2.37174">
        <ele>68.800003051758</ele>
        <time>2022-03-24T10:58:20.000Z</time>
      </trkpt>
      <trkpt lat="47.28999" lon="-2.37172">
        <ele>68.800003051758</ele>
        <time>2022-03-24T10:58:22.000Z</time>
      </trkpt>
      <trkpt lat="47.28992" lon="-2.37175">
        <ele>68.400001525879</ele>
        <time>2022-03-24T10:58:24.000Z</time>
      </trkpt>
      <trkpt lat="47.28989" lon="-2.37177">
        <ele>67.800003051758</ele>
        <time>2022-03-24T10:58:25.000Z</time>
      </trkpt>
      <trkpt lat="47.28987" lon="-2.37179">
        <ele>67.400001525879</ele>
        <time>2022-03-24T10:58:26.000Z</time>
      </trkpt>
      <trkpt lat="47.28984" lon="-2.37181">
        <ele>67</ele>
        <time>2022-03-24T10:58:27.000Z</time>
      </trkpt>
      <trkpt lat="47.28981" lon="-2.37183">
        <ele>66.400001525879</ele>
        <time>2022-03-24T10:58:28.000Z</time>
      </trkpt>
      <trkpt lat="47.28978" lon="-2.37185">
        <ele>66</ele>
        <time>2022-03-24T10:58:29.000Z</time>
      </trkpt>
      <trkpt lat="47.28977" lon="-2.37186">
        <ele>65.199996948242</ele>
        <time>2022-03-24T10:58:30.000Z</time>
      </trkpt>
      <trkpt lat="47.28976" lon="-2.37188">
        <ele>64.800003051758</ele>
        <time>2022-03-24T10:58:31.000Z</time>
      </trkpt>
      <trkpt lat="47.28974" lon="-2.37189">
        <ele>64.400001525879</ele>
        <time>2022-03-24T10:58:32.000Z</time>
      </trkpt>
      <trkpt lat="47.28974" lon="-2.3719">
        <ele>64.400001525879</ele>
        <time>2022-03-24T10:58:34.000Z</time>
      </trkpt>
      <trkpt lat="47.28972" lon="-2.37191">
        <ele>64.400001525879</ele>
        <time>2022-03-24T10:58:39.000Z</time>
      </trkpt>
      <trkpt lat="47.2897" lon="-2.37192">
        <ele>64.400001525879</ele>
        <time>2022-03-24T10:58:40.000Z</time>
      </trkpt>
      <trkpt lat="47.28957" lon="-2.37198">
        <ele>64.400001525879</ele>
        <time>2022-03-24T10:58:44.000Z</time>
      </trkpt>
      <trkpt lat="47.28938" lon="-2.37208">
        <ele>64</ele>
        <time>2022-03-24T10:58:48.000Z</time>
      </trkpt>
      <trkpt lat="47.28932" lon="-2.37211">
        <ele>63.599998474121</ele>
        <time>2022-03-24T10:58:49.000Z</time>
      </trkpt>
      <trkpt lat="47.28926" lon="-2.37213">
        <ele>63.200000762939</ele>
        <time>2022-03-24T10:58:50.000Z</time>
      </trkpt>
      <trkpt lat="47.2892" lon="-2.37216">
        <ele>62.799999237061</ele>
        <time>2022-03-24T10:58:51.000Z</time>
      </trkpt>
      <trkpt lat="47.28914" lon="-2.37218">
        <ele>62.400001525879</ele>
        <time>2022-03-24T10:58:52.000Z</time>
      </trkpt>
      <trkpt lat="47.28901" lon="-2.37224">
        <ele>62.400001525879</ele>
        <time>2022-03-24T10:58:54.000Z</time>
      </trkpt>
      <trkpt lat="47.28894" lon="-2.37227">
        <ele>61.400001525879</ele>
        <time>2022-03-24T10:58:55.000Z</time>
      </trkpt>
      <trkpt lat="47.28888" lon="-2.3723">
        <ele>61</ele>
        <time>2022-03-24T10:58:56.000Z</time>
      </trkpt>
      <trkpt lat="47.28881" lon="-2.37233">
        <ele>60.599998474121</ele>
        <time>2022-03-24T10:58:57.000Z</time>
      </trkpt>
      <trkpt lat="47.28875" lon="-2.37236">
        <ele>60.200000762939</ele>
        <time>2022-03-24T10:58:58.000Z</time>
      </trkpt>
      <trkpt lat="47.28868" lon="-2.37237">
        <ele>60.200000762939</ele>
        <time>2022-03-24T10:58:59.000Z</time>
      </trkpt>
      <trkpt lat="47.28849" lon="-2.37239">
        <ele>60.200000762939</ele>
        <time>2022-03-24T10:59:03.000Z</time>
      </trkpt>
      <trkpt lat="47.28842" lon="-2.37232">
        <ele>60.200000762939</ele>
        <time>2022-03-24T10:59:06.000Z</time>
      </trkpt>
      <trkpt lat="47.28839" lon="-2.37217">
        <ele>60.200000762939</ele>
        <time>2022-03-24T10:59:09.000Z</time>
      </trkpt>
      <trkpt lat="47.28837" lon="-2.37207">
        <ele>60.200000762939</ele>
        <time>2022-03-24T10:59:11.000Z</time>
      </trkpt>
      <trkpt lat="47.28834" lon="-2.37178">
        <ele>60.200000762939</ele>
        <time>2022-03-24T10:59:16.000Z</time>
      </trkpt>
      <trkpt lat="47.2883" lon="-2.37135">
        <ele>60.200000762939</ele>
        <time>2022-03-24T10:59:24.000Z</time>
      </trkpt>
      <trkpt lat="47.28831" lon="-2.37115">
        <ele>60.200000762939</ele>
        <time>2022-03-24T10:59:29.000Z</time>
      </trkpt>
      <trkpt lat="47.28831" lon="-2.37112">
        <ele>60.200000762939</ele>
        <time>2022-03-24T10:59:32.000Z</time>
      </trkpt>
      <trkpt lat="47.28829" lon="-2.37113">
        <ele>60.200000762939</ele>
        <time>2022-03-24T10:59:33.000Z</time>
      </trkpt>
      <trkpt lat="47.28823" lon="-2.37118">
        <ele>60.200000762939</ele>
        <time>2022-03-24T10:59:37.000Z</time>
      </trkpt>
      <trkpt lat="47.28821" lon="-2.37119">
        <ele>60.799999237061</ele>
        <time>2022-03-24T10:59:38.000Z</time>
      </trkpt>
      <trkpt lat="47.2882" lon="-2.37119">
        <ele>61.200000762939</ele>
        <time>2022-03-24T10:59:39.000Z</time>
      </trkpt>
      <trkpt lat="47.28818" lon="-2.37119">
        <ele>61.599998474121</ele>
        <time>2022-03-24T10:59:40.000Z</time>
      </trkpt>
      <trkpt lat="47.28816" lon="-2.37119">
        <ele>62</ele>
        <time>2022-03-24T10:59:41.000Z</time>
      </trkpt>
      <trkpt lat="47.28814" lon="-2.37119">
        <ele>62.599998474121</ele>
        <time>2022-03-24T10:59:42.000Z</time>
      </trkpt>
      <trkpt lat="47.28811" lon="-2.3712">
        <ele>63</ele>
        <time>2022-03-24T10:59:44.000Z</time>
      </trkpt>
      <trkpt lat="47.28809" lon="-2.3712">
        <ele>63.400001525879</ele>
        <time>2022-03-24T10:59:45.000Z</time>
      </trkpt>
      <trkpt lat="47.28808" lon="-2.37119">
        <ele>63.799999237061</ele>
        <time>2022-03-24T10:59:46.000Z</time>
      </trkpt>
      <trkpt lat="47.28806" lon="-2.37117">
        <ele>64.400001525879</ele>
        <time>2022-03-24T10:59:47.000Z</time>
      </trkpt>
      <trkpt lat="47.28805" lon="-2.37115">
        <ele>64.800003051758</ele>
        <time>2022-03-24T10:59:48.000Z</time>
      </trkpt>
      <trkpt lat="47.28804" lon="-2.37112">
        <ele>64.800003051758</ele>
        <time>2022-03-24T10:59:49.000Z</time>
      </trkpt>
      <trkpt lat="47.28802" lon="-2.3711">
        <ele>64.800003051758</ele>
        <time>2022-03-24T10:59:50.000Z</time>
      </trkpt>
      <trkpt lat="47.288" lon="-2.37093">
        <ele>64.800003051758</ele>
        <time>2022-03-24T10:59:55.000Z</time>
      </trkpt>
      <trkpt lat="47.28799" lon="-2.3709">
        <ele>65.199996948242</ele>
        <time>2022-03-24T10:59:56.000Z</time>
      </trkpt>
      <trkpt lat="47.28799" lon="-2.37087">
        <ele>65.599998474121</ele>
        <time>2022-03-24T10:59:57.000Z</time>
      </trkpt>
      <trkpt lat="47.28798" lon="-2.37084">
        <ele>66</ele>
        <time>2022-03-24T10:59:58.000Z</time>
      </trkpt>
      <trkpt lat="47.28798" lon="-2.37081">
        <ele>66.400001525879</ele>
        <time>2022-03-24T10:59:59.000Z</time>
      </trkpt>
      <trkpt lat="47.28797" lon="-2.37077">
        <ele>66.800003051758</ele>
        <time>2022-03-24T11:00:00.000Z</time>
      </trkpt>
      <trkpt lat="47.28797" lon="-2.37074">
        <ele>66.800003051758</ele>
        <time>2022-03-24T11:00:01.000Z</time>
      </trkpt>
      <trkpt lat="47.28793" lon="-2.37066">
        <ele>67.400001525879</ele>
        <time>2022-03-24T11:00:03.000Z</time>
      </trkpt>
      <trkpt lat="47.28792" lon="-2.37062">
        <ele>67.800003051758</ele>
        <time>2022-03-24T11:00:04.000Z</time>
      </trkpt>
      <trkpt lat="47.28791" lon="-2.37058">
        <ele>68.199996948242</ele>
        <time>2022-03-24T11:00:05.000Z</time>
      </trkpt>
      <trkpt lat="47.28789" lon="-2.37055">
        <ele>68.599998474121</ele>
        <time>2022-03-24T11:00:06.000Z</time>
      </trkpt>
      <trkpt lat="47.28788" lon="-2.37053">
        <ele>69.199996948242</ele>
        <time>2022-03-24T11:00:07.000Z</time>
      </trkpt>
      <trkpt lat="47.28781" lon="-2.37028">
        <ele>69.199996948242</ele>
        <time>2022-03-24T11:00:14.000Z</time>
      </trkpt>
      <trkpt lat="47.28779" lon="-2.37024">
        <ele>69.599998474121</ele>
        <time>2022-03-24T11:00:15.000Z</time>
      </trkpt>
      <trkpt lat="47.28777" lon="-2.37018">
        <ele>70</ele>
        <time>2022-03-24T11:00:16.000Z</time>
      </trkpt>
      <trkpt lat="47.28775" lon="-2.37013">
        <ele>70.400001525879</ele>
        <time>2022-03-24T11:00:17.000Z</time>
      </trkpt>
      <trkpt lat="47.28773" lon="-2.37009">
        <ele>70.800003051758</ele>
        <time>2022-03-24T11:00:18.000Z</time>
      </trkpt>
      <trkpt lat="47.28771" lon="-2.37006">
        <ele>71.199996948242</ele>
        <time>2022-03-24T11:00:19.000Z</time>
      </trkpt>
      <trkpt lat="47.28769" lon="-2.37004">
        <ele>71.199996948242</ele>
        <time>2022-03-24T11:00:20.000Z</time>
      </trkpt>
      <trkpt lat="47.28758" lon="-2.36982">
        <ele>71.199996948242</ele>
        <time>2022-03-24T11:00:26.000Z</time>
      </trkpt>
      <trkpt lat="47.28757" lon="-2.36956">
        <ele>71.199996948242</ele>
        <time>2022-03-24T11:00:31.000Z</time>
      </trkpt>
      <trkpt lat="47.28754" lon="-2.36944">
        <ele>70.199996948242</ele>
        <time>2022-03-24T11:00:33.000Z</time>
      </trkpt>
      <trkpt lat="47.28751" lon="-2.36937">
        <ele>69.599998474121</ele>
        <time>2022-03-24T11:00:34.000Z</time>
      </trkpt>
      <trkpt lat="47.28747" lon="-2.3693">
        <ele>69.199996948242</ele>
        <time>2022-03-24T11:00:35.000Z</time>
      </trkpt>
      <trkpt lat="47.28743" lon="-2.36925">
        <ele>68.599998474121</ele>
        <time>2022-03-24T11:00:36.000Z</time>
      </trkpt>
      <trkpt lat="47.28738" lon="-2.3692">
        <ele>68</ele>
        <time>2022-03-24T11:00:37.000Z</time>
      </trkpt>
      <trkpt lat="47.28734" lon="-2.36917">
        <ele>67.400001525879</ele>
        <time>2022-03-24T11:00:38.000Z</time>
      </trkpt>
      <trkpt lat="47.2873" lon="-2.36913">
        <ele>67</ele>
        <time>2022-03-24T11:00:39.000Z</time>
      </trkpt>
      <trkpt lat="47.28727" lon="-2.3691">
        <ele>66.400001525879</ele>
        <time>2022-03-24T11:00:40.000Z</time>
      </trkpt>
      <trkpt lat="47.28721" lon="-2.36903">
        <ele>66.400001525879</ele>
        <time>2022-03-24T11:00:42.000Z</time>
      </trkpt>
      <trkpt lat="47.28717" lon="-2.369">
        <ele>66.800003051758</ele>
        <time>2022-03-24T11:00:43.000Z</time>
      </trkpt>
      <trkpt lat="47.28714" lon="-2.36896">
        <ele>67.199996948242</ele>
        <time>2022-03-24T11:00:44.000Z</time>
      </trkpt>
      <trkpt lat="47.28711" lon="-2.36892">
        <ele>67.599998474121</ele>
        <time>2022-03-24T11:00:45.000Z</time>
      </trkpt>
      <trkpt lat="47.28709" lon="-2.36888">
        <ele>68</ele>
        <time>2022-03-24T11:00:46.000Z</time>
      </trkpt>
      <trkpt lat="47.28707" lon="-2.36884">
        <ele>68.400001525879</ele>
        <time>2022-03-24T11:00:47.000Z</time>
      </trkpt>
      <trkpt lat="47.28703" lon="-2.36874">
        <ele>68.400001525879</ele>
        <time>2022-03-24T11:00:50.000Z</time>
      </trkpt>
      <trkpt lat="47.28689" lon="-2.36844">
        <ele>68.400001525879</ele>
        <time>2022-03-24T11:00:57.000Z</time>
      </trkpt>
      <trkpt lat="47.28687" lon="-2.36839">
        <ele>69.199996948242</ele>
        <time>2022-03-24T11:00:58.000Z</time>
      </trkpt>
      <trkpt lat="47.28684" lon="-2.36834">
        <ele>69.599998474121</ele>
        <time>2022-03-24T11:00:59.000Z</time>
      </trkpt>
      <trkpt lat="47.28682" lon="-2.36829">
        <ele>70</ele>
        <time>2022-03-24T11:01:00.000Z</time>
      </trkpt>
      <trkpt lat="47.2868" lon="-2.36826">
        <ele>70.400001525879</ele>
        <time>2022-03-24T11:01:01.000Z</time>
      </trkpt>
      <trkpt lat="47.28678" lon="-2.3682">
        <ele>70.400001525879</ele>
        <time>2022-03-24T11:01:03.000Z</time>
      </trkpt>
      <trkpt lat="47.28666" lon="-2.368">
        <ele>70.400001525879</ele>
        <time>2022-03-24T11:01:10.000Z</time>
      </trkpt>
      <trkpt lat="47.28662" lon="-2.36797">
        <ele>70.400001525879</ele>
        <time>2022-03-24T11:01:12.000Z</time>
      </trkpt>
      <trkpt lat="47.28656" lon="-2.368">
        <ele>70.400001525879</ele>
        <time>2022-03-24T11:01:14.000Z</time>
      </trkpt>
      <trkpt lat="47.28637" lon="-2.36818">
        <ele>70.400001525879</ele>
        <time>2022-03-24T11:01:19.000Z</time>
      </trkpt>
      <trkpt lat="47.28618" lon="-2.36837">
        <ele>70.400001525879</ele>
        <time>2022-03-24T11:01:23.000Z</time>
      </trkpt>
      <trkpt lat="47.28613" lon="-2.36841">
        <ele>70.400001525879</ele>
        <time>2022-03-24T11:01:24.000Z</time>
      </trkpt>
      <trkpt lat="47.28601" lon="-2.36842">
        <ele>70.400001525879</ele>
        <time>2022-03-24T11:01:26.000Z</time>
      </trkpt>
      <trkpt lat="47.28586" lon="-2.36826">
        <ele>70.400001525879</ele>
        <time>2022-03-24T11:01:30.000Z</time>
      </trkpt>
      <trkpt lat="47.2858" lon="-2.36814">
        <ele>70.400001525879</ele>
        <time>2022-03-24T11:01:32.000Z</time>
      </trkpt>
      <trkpt lat="47.28578" lon="-2.36808">
        <ele>70.400001525879</ele>
        <time>2022-03-24T11:01:33.000Z</time>
      </trkpt>
      <trkpt lat="47.28569" lon="-2.36792">
        <ele>70.400001525879</ele>
        <time>2022-03-24T11:01:36.000Z</time>
      </trkpt>
      <trkpt lat="47.28545" lon="-2.36747">
        <ele>70.400001525879</ele>
        <time>2022-03-24T11:01:45.000Z</time>
      </trkpt>
      <trkpt lat="47.28534" lon="-2.36726">
        <ele>71</ele>
        <time>2022-03-24T11:01:50.000Z</time>
      </trkpt>
      <trkpt lat="47.28532" lon="-2.36722">
        <ele>71.400001525879</ele>
        <time>2022-03-24T11:01:51.000Z</time>
      </trkpt>
      <trkpt lat="47.2853" lon="-2.36718">
        <ele>71.800003051758</ele>
        <time>2022-03-24T11:01:52.000Z</time>
      </trkpt>
      <trkpt lat="47.28528" lon="-2.36714">
        <ele>72.199996948242</ele>
        <time>2022-03-24T11:01:53.000Z</time>
      </trkpt>
      <trkpt lat="47.28526" lon="-2.36711">
        <ele>72.599998474121</ele>
        <time>2022-03-24T11:01:54.000Z</time>
      </trkpt>
      <trkpt lat="47.2852" lon="-2.36699">
        <ele>72.599998474121</ele>
        <time>2022-03-24T11:01:58.000Z</time>
      </trkpt>
      <trkpt lat="47.28515" lon="-2.36691">
        <ele>73</ele>
        <time>2022-03-24T11:02:01.000Z</time>
      </trkpt>
      <trkpt lat="47.28514" lon="-2.36689">
        <ele>73.400001525879</ele>
        <time>2022-03-24T11:02:02.000Z</time>
      </trkpt>
      <trkpt lat="47.28512" lon="-2.36687">
        <ele>73.800003051758</ele>
        <time>2022-03-24T11:02:03.000Z</time>
      </trkpt>
      <trkpt lat="47.28511" lon="-2.36685">
        <ele>74.199996948242</ele>
        <time>2022-03-24T11:02:04.000Z</time>
      </trkpt>
      <trkpt lat="47.28509" lon="-2.36682">
        <ele>74.599998474121</ele>
        <time>2022-03-24T11:02:05.000Z</time>
      </trkpt>
      <trkpt lat="47.28497" lon="-2.3667">
        <ele>74.599998474121</ele>
        <time>2022-03-24T11:02:11.000Z</time>
      </trkpt>
      <trkpt lat="47.28492" lon="-2.36658">
        <ele>74.599998474121</ele>
        <time>2022-03-24T11:02:16.000Z</time>
      </trkpt>
      <trkpt lat="47.28485" lon="-2.36642">
        <ele>74.599998474121</ele>
        <time>2022-03-24T11:02:22.000Z</time>
      </trkpt>
      <trkpt lat="47.28479" lon="-2.3662">
        <ele>74.599998474121</ele>
        <time>2022-03-24T11:02:30.000Z</time>
      </trkpt>
      <trkpt lat="47.28475" lon="-2.36603">
        <ele>74.599998474121</ele>
        <time>2022-03-24T11:02:37.000Z</time>
      </trkpt>
      <trkpt lat="47.28469" lon="-2.36583">
        <ele>74.599998474121</ele>
        <time>2022-03-24T11:02:44.000Z</time>
      </trkpt>
      <trkpt lat="47.28471" lon="-2.36562">
        <ele>74.599998474121</ele>
        <time>2022-03-24T11:02:50.000Z</time>
      </trkpt>
      <trkpt lat="47.28484" lon="-2.36546">
        <ele>74.599998474121</ele>
        <time>2022-03-24T11:02:56.000Z</time>
      </trkpt>
      <trkpt lat="47.2849" lon="-2.36537">
        <ele>75</ele>
        <time>2022-03-24T11:02:59.000Z</time>
      </trkpt>
      <trkpt lat="47.28492" lon="-2.36535">
        <ele>75.400001525879</ele>
        <time>2022-03-24T11:03:00.000Z</time>
      </trkpt>
      <trkpt lat="47.28494" lon="-2.36532">
        <ele>75.800003051758</ele>
        <time>2022-03-24T11:03:01.000Z</time>
      </trkpt>
      <trkpt lat="47.28496" lon="-2.36529">
        <ele>76.599998474121</ele>
        <time>2022-03-24T11:03:02.000Z</time>
      </trkpt>
      <trkpt lat="47.28505" lon="-2.36518">
        <ele>76.599998474121</ele>
        <time>2022-03-24T11:03:06.000Z</time>
      </trkpt>
      <trkpt lat="47.28515" lon="-2.36503">
        <ele>77</ele>
        <time>2022-03-24T11:03:11.000Z</time>
      </trkpt>
      <trkpt lat="47.28516" lon="-2.365">
        <ele>77.400001525879</ele>
        <time>2022-03-24T11:03:12.000Z</time>
      </trkpt>
      <trkpt lat="47.28517" lon="-2.36495">
        <ele>77.800003051758</ele>
        <time>2022-03-24T11:03:13.000Z</time>
      </trkpt>
      <trkpt lat="47.28518" lon="-2.3649">
        <ele>78.199996948242</ele>
        <time>2022-03-24T11:03:14.000Z</time>
      </trkpt>
      <trkpt lat="47.28519" lon="-2.36485">
        <ele>78.599998474121</ele>
        <time>2022-03-24T11:03:15.000Z</time>
      </trkpt>
      <trkpt lat="47.28519" lon="-2.36481">
        <ele>78.599998474121</ele>
        <time>2022-03-24T11:03:16.000Z</time>
      </trkpt>
      <trkpt lat="47.28512" lon="-2.36459">
        <ele>78.599998474121</ele>
        <time>2022-03-24T11:03:21.000Z</time>
      </trkpt>
      <trkpt lat="47.28503" lon="-2.36448">
        <ele>78.599998474121</ele>
        <time>2022-03-24T11:03:24.000Z</time>
      </trkpt>
      <trkpt lat="47.28499" lon="-2.36446">
        <ele>78.599998474121</ele>
        <time>2022-03-24T11:03:25.000Z</time>
      </trkpt>
      <trkpt lat="47.28482" lon="-2.36431">
        <ele>78.599998474121</ele>
        <time>2022-03-24T11:03:30.000Z</time>
      </trkpt>
      <trkpt lat="47.28477" lon="-2.36425">
        <ele>79.199996948242</ele>
        <time>2022-03-24T11:03:32.000Z</time>
      </trkpt>
      <trkpt lat="47.28475" lon="-2.36423">
        <ele>79.599998474121</ele>
        <time>2022-03-24T11:03:33.000Z</time>
      </trkpt>
      <trkpt lat="47.28473" lon="-2.3642">
        <ele>80</ele>
        <time>2022-03-24T11:03:34.000Z</time>
      </trkpt>
      <trkpt lat="47.28472" lon="-2.36418">
        <ele>80.400001525879</ele>
        <time>2022-03-24T11:03:35.000Z</time>
      </trkpt>
      <trkpt lat="47.28471" lon="-2.36414">
        <ele>80.800003051758</ele>
        <time>2022-03-24T11:03:36.000Z</time>
      </trkpt>
      <trkpt lat="47.28462" lon="-2.36402">
        <ele>80.800003051758</ele>
        <time>2022-03-24T11:03:40.000Z</time>
      </trkpt>
      <trkpt lat="47.28459" lon="-2.36398">
        <ele>80.800003051758</ele>
        <time>2022-03-24T11:03:41.000Z</time>
      </trkpt>
      <trkpt lat="47.28439" lon="-2.36383">
        <ele>80.800003051758</ele>
        <time>2022-03-24T11:03:45.000Z</time>
      </trkpt>
      <trkpt lat="47.28425" lon="-2.36372">
        <ele>80.800003051758</ele>
        <time>2022-03-24T11:03:48.000Z</time>
      </trkpt>
      <trkpt lat="47.28421" lon="-2.36367">
        <ele>80.400001525879</ele>
        <time>2022-03-24T11:03:49.000Z</time>
      </trkpt>
      <trkpt lat="47.28418" lon="-2.36362">
        <ele>80</ele>
        <time>2022-03-24T11:03:50.000Z</time>
      </trkpt>
      <trkpt lat="47.28415" lon="-2.36357">
        <ele>79.199996948242</ele>
        <time>2022-03-24T11:03:51.000Z</time>
      </trkpt>
      <trkpt lat="47.28413" lon="-2.36352">
        <ele>78.800003051758</ele>
        <time>2022-03-24T11:03:52.000Z</time>
      </trkpt>
      <trkpt lat="47.28409" lon="-2.36348">
        <ele>78.800003051758</ele>
        <time>2022-03-24T11:03:53.000Z</time>
      </trkpt>
      <trkpt lat="47.28402" lon="-2.36342">
        <ele>78.800003051758</ele>
        <time>2022-03-24T11:03:55.000Z</time>
      </trkpt>
      <trkpt lat="47.28381" lon="-2.36326">
        <ele>78.800003051758</ele>
        <time>2022-03-24T11:04:01.000Z</time>
      </trkpt>
      <trkpt lat="47.28373" lon="-2.36322">
        <ele>78.199996948242</ele>
        <time>2022-03-24T11:04:03.000Z</time>
      </trkpt>
      <trkpt lat="47.28371" lon="-2.36318">
        <ele>77.800003051758</ele>
        <time>2022-03-24T11:04:04.000Z</time>
      </trkpt>
      <trkpt lat="47.28368" lon="-2.36313">
        <ele>77.400001525879</ele>
        <time>2022-03-24T11:04:05.000Z</time>
      </trkpt>
      <trkpt lat="47.28366" lon="-2.36308">
        <ele>77</ele>
        <time>2022-03-24T11:04:06.000Z</time>
      </trkpt>
      <trkpt lat="47.28365" lon="-2.36303">
        <ele>76.400001525879</ele>
        <time>2022-03-24T11:04:07.000Z</time>
      </trkpt>
      <trkpt lat="47.28365" lon="-2.36297">
        <ele>76.400001525879</ele>
        <time>2022-03-24T11:04:08.000Z</time>
      </trkpt>
      <trkpt lat="47.28362" lon="-2.3628">
        <ele>76.400001525879</ele>
        <time>2022-03-24T11:04:11.000Z</time>
      </trkpt>
      <trkpt lat="47.28346" lon="-2.36273">
        <ele>75.599998474121</ele>
        <time>2022-03-24T11:04:15.000Z</time>
      </trkpt>
      <trkpt lat="47.28341" lon="-2.36271">
        <ele>75.199996948242</ele>
        <time>2022-03-24T11:04:16.000Z</time>
      </trkpt>
      <trkpt lat="47.28335" lon="-2.36267">
        <ele>74.800003051758</ele>
        <time>2022-03-24T11:04:17.000Z</time>
      </trkpt>
      <trkpt lat="47.2833" lon="-2.36264">
        <ele>74.400001525879</ele>
        <time>2022-03-24T11:04:18.000Z</time>
      </trkpt>
      <trkpt lat="47.28316" lon="-2.36254">
        <ele>74.400001525879</ele>
        <time>2022-03-24T11:04:21.000Z</time>
      </trkpt>
      <trkpt lat="47.28311" lon="-2.36251">
        <ele>74</ele>
        <time>2022-03-24T11:04:22.000Z</time>
      </trkpt>
      <trkpt lat="47.28307" lon="-2.36249">
        <ele>73.599998474121</ele>
        <time>2022-03-24T11:04:23.000Z</time>
      </trkpt>
      <trkpt lat="47.28303" lon="-2.36247">
        <ele>73.199996948242</ele>
        <time>2022-03-24T11:04:24.000Z</time>
      </trkpt>
      <trkpt lat="47.28299" lon="-2.36245">
        <ele>72.800003051758</ele>
        <time>2022-03-24T11:04:25.000Z</time>
      </trkpt>
      <trkpt lat="47.28294" lon="-2.36245">
        <ele>72.400001525879</ele>
        <time>2022-03-24T11:04:26.000Z</time>
      </trkpt>
      <trkpt lat="47.2829" lon="-2.36244">
        <ele>72.400001525879</ele>
        <time>2022-03-24T11:04:27.000Z</time>
      </trkpt>
      <trkpt lat="47.28276" lon="-2.36233">
        <ele>72.400001525879</ele>
        <time>2022-03-24T11:04:31.000Z</time>
      </trkpt>
      <trkpt lat="47.28271" lon="-2.36214">
        <ele>72.400001525879</ele>
        <time>2022-03-24T11:04:35.000Z</time>
      </trkpt>
      <trkpt lat="47.2827" lon="-2.36209">
        <ele>72.400001525879</ele>
        <time>2022-03-24T11:04:36.000Z</time>
      </trkpt>
      <trkpt lat="47.28264" lon="-2.36167">
        <ele>72.400001525879</ele>
        <time>2022-03-24T11:04:43.000Z</time>
      </trkpt>
      <trkpt lat="47.28261" lon="-2.36156">
        <ele>72.800003051758</ele>
        <time>2022-03-24T11:04:45.000Z</time>
      </trkpt>
      <trkpt lat="47.2826" lon="-2.3615">
        <ele>73.199996948242</ele>
        <time>2022-03-24T11:04:46.000Z</time>
      </trkpt>
      <trkpt lat="47.28258" lon="-2.36144">
        <ele>73.599998474121</ele>
        <time>2022-03-24T11:04:47.000Z</time>
      </trkpt>
      <trkpt lat="47.28256" lon="-2.36139">
        <ele>74</ele>
        <time>2022-03-24T11:04:48.000Z</time>
      </trkpt>
      <trkpt lat="47.28253" lon="-2.36133">
        <ele>74.400001525879</ele>
        <time>2022-03-24T11:04:49.000Z</time>
      </trkpt>
      <trkpt lat="47.28249" lon="-2.36123">
        <ele>74.400001525879</ele>
        <time>2022-03-24T11:04:51.000Z</time>
      </trkpt>
      <trkpt lat="47.28245" lon="-2.36113">
        <ele>74.400001525879</ele>
        <time>2022-03-24T11:04:53.000Z</time>
      </trkpt>
      <trkpt lat="47.28242" lon="-2.36091">
        <ele>74.400001525879</ele>
        <time>2022-03-24T11:04:57.000Z</time>
      </trkpt>
      <trkpt lat="47.28245" lon="-2.36065">
        <ele>74.400001525879</ele>
        <time>2022-03-24T11:05:02.000Z</time>
      </trkpt>
      <trkpt lat="47.28249" lon="-2.36037">
        <ele>74.400001525879</ele>
        <time>2022-03-24T11:05:06.000Z</time>
      </trkpt>
      <trkpt lat="47.28252" lon="-2.36025">
        <ele>74.400001525879</ele>
        <time>2022-03-24T11:05:08.000Z</time>
      </trkpt>
      <trkpt lat="47.28251" lon="-2.3602">
        <ele>74.400001525879</ele>
        <time>2022-03-24T11:05:11.000Z</time>
      </trkpt>
      <trkpt lat="47.28248" lon="-2.3602">
        <ele>74.400001525879</ele>
        <time>2022-03-24T11:05:12.000Z</time>
      </trkpt>
      <trkpt lat="47.28243" lon="-2.36023">
        <ele>74.400001525879</ele>
        <time>2022-03-24T11:05:14.000Z</time>
      </trkpt>
      <trkpt lat="47.28236" lon="-2.36028">
        <ele>74</ele>
        <time>2022-03-24T11:05:16.000Z</time>
      </trkpt>
      <trkpt lat="47.28233" lon="-2.36031">
        <ele>73.599998474121</ele>
        <time>2022-03-24T11:05:17.000Z</time>
      </trkpt>
      <trkpt lat="47.28229" lon="-2.36034">
        <ele>73.199996948242</ele>
        <time>2022-03-24T11:05:18.000Z</time>
      </trkpt>
      <trkpt lat="47.28226" lon="-2.36035">
        <ele>72.800003051758</ele>
        <time>2022-03-24T11:05:19.000Z</time>
      </trkpt>
      <trkpt lat="47.28223" lon="-2.36035">
        <ele>72.400001525879</ele>
        <time>2022-03-24T11:05:20.000Z</time>
      </trkpt>
      <trkpt lat="47.28215" lon="-2.3603">
        <ele>72.400001525879</ele>
        <time>2022-03-24T11:05:23.000Z</time>
      </trkpt>
      <trkpt lat="47.2821" lon="-2.36023">
        <ele>72.400001525879</ele>
        <time>2022-03-24T11:05:26.000Z</time>
      </trkpt>
      <trkpt lat="47.28198" lon="-2.36003">
        <ele>72.400001525879</ele>
        <time>2022-03-24T11:05:30.000Z</time>
      </trkpt>
      <trkpt lat="47.28185" lon="-2.35978">
        <ele>72.400001525879</ele>
        <time>2022-03-24T11:05:35.000Z</time>
      </trkpt>
      <trkpt lat="47.28178" lon="-2.35958">
        <ele>72.400001525879</ele>
        <time>2022-03-24T11:05:40.000Z</time>
      </trkpt>
      <trkpt lat="47.28169" lon="-2.35956">
        <ele>72.400001525879</ele>
        <time>2022-03-24T11:05:44.000Z</time>
      </trkpt>
      <trkpt lat="47.28162" lon="-2.35945">
        <ele>72.400001525879</ele>
        <time>2022-03-24T11:05:47.000Z</time>
      </trkpt>
      <trkpt lat="47.28158" lon="-2.35936">
        <ele>72.400001525879</ele>
        <time>2022-03-24T11:05:49.000Z</time>
      </trkpt>
      <trkpt lat="47.28149" lon="-2.35922">
        <ele>72.800003051758</ele>
        <time>2022-03-24T11:05:53.000Z</time>
      </trkpt>
      <trkpt lat="47.28148" lon="-2.35919">
        <ele>73.199996948242</ele>
        <time>2022-03-24T11:05:54.000Z</time>
      </trkpt>
      <trkpt lat="47.28146" lon="-2.35915">
        <ele>74.199996948242</ele>
        <time>2022-03-24T11:05:55.000Z</time>
      </trkpt>
      <trkpt lat="47.28143" lon="-2.35911">
        <ele>74.599998474121</ele>
        <time>2022-03-24T11:05:56.000Z</time>
      </trkpt>
      <trkpt lat="47.28134" lon="-2.35896">
        <ele>74.599998474121</ele>
        <time>2022-03-24T11:06:00.000Z</time>
      </trkpt>
      <trkpt lat="47.28121" lon="-2.35877">
        <ele>74.599998474121</ele>
        <time>2022-03-24T11:06:05.000Z</time>
      </trkpt>
      <trkpt lat="47.28106" lon="-2.35852">
        <ele>74.599998474121</ele>
        <time>2022-03-24T11:06:11.000Z</time>
      </trkpt>
      <trkpt lat="47.28092" lon="-2.35827">
        <ele>74.599998474121</ele>
        <time>2022-03-24T11:06:17.000Z</time>
      </trkpt>
      <trkpt lat="47.28081" lon="-2.35804">
        <ele>74.599998474121</ele>
        <time>2022-03-24T11:06:22.000Z</time>
      </trkpt>
      <trkpt lat="47.2808" lon="-2.35796">
        <ele>74.599998474121</ele>
        <time>2022-03-24T11:06:25.000Z</time>
      </trkpt>
      <trkpt lat="47.28082" lon="-2.35789">
        <ele>74.599998474121</ele>
        <time>2022-03-24T11:06:27.000Z</time>
      </trkpt>
      <trkpt lat="47.28084" lon="-2.3578">
        <ele>74.599998474121</ele>
        <time>2022-03-24T11:06:29.000Z</time>
      </trkpt>
      <trkpt lat="47.28086" lon="-2.3576">
        <ele>74.599998474121</ele>
        <time>2022-03-24T11:06:33.000Z</time>
      </trkpt>
      <trkpt lat="47.28088" lon="-2.3574">
        <ele>75</ele>
        <time>2022-03-24T11:06:37.000Z</time>
      </trkpt>
      <trkpt lat="47.28089" lon="-2.35737">
        <ele>75.400001525879</ele>
        <time>2022-03-24T11:06:38.000Z</time>
      </trkpt>
      <trkpt lat="47.28091" lon="-2.35733">
        <ele>75.800003051758</ele>
        <time>2022-03-24T11:06:39.000Z</time>
      </trkpt>
      <trkpt lat="47.28091" lon="-2.35728">
        <ele>76.400001525879</ele>
        <time>2022-03-24T11:06:40.000Z</time>
      </trkpt>
      <trkpt lat="47.28093" lon="-2.35723">
        <ele>76.800003051758</ele>
        <time>2022-03-24T11:06:41.000Z</time>
      </trkpt>
      <trkpt lat="47.28096" lon="-2.35711">
        <ele>76.800003051758</ele>
        <time>2022-03-24T11:06:44.000Z</time>
      </trkpt>
      <trkpt lat="47.28095" lon="-2.35691">
        <ele>76.800003051758</ele>
        <time>2022-03-24T11:06:48.000Z</time>
      </trkpt>
      <trkpt lat="47.28093" lon="-2.35683">
        <ele>76.800003051758</ele>
        <time>2022-03-24T11:06:49.000Z</time>
      </trkpt>
      <trkpt lat="47.28086" lon="-2.35662">
        <ele>76.800003051758</ele>
        <time>2022-03-24T11:06:52.000Z</time>
      </trkpt>
      <trkpt lat="47.2808" lon="-2.35642">
        <ele>76.199996948242</ele>
        <time>2022-03-24T11:06:56.000Z</time>
      </trkpt>
      <trkpt lat="47.28079" lon="-2.35638">
        <ele>75.800003051758</ele>
        <time>2022-03-24T11:06:57.000Z</time>
      </trkpt>
      <trkpt lat="47.28077" lon="-2.35633">
        <ele>75.400001525879</ele>
        <time>2022-03-24T11:06:58.000Z</time>
      </trkpt>
      <trkpt lat="47.28076" lon="-2.35628">
        <ele>75</ele>
        <time>2022-03-24T11:06:59.000Z</time>
      </trkpt>
      <trkpt lat="47.28076" lon="-2.35623">
        <ele>74.400001525879</ele>
        <time>2022-03-24T11:07:00.000Z</time>
      </trkpt>
      <trkpt lat="47.28076" lon="-2.35619">
        <ele>74</ele>
        <time>2022-03-24T11:07:01.000Z</time>
      </trkpt>
      <trkpt lat="47.28077" lon="-2.35617">
        <ele>73.599998474121</ele>
        <time>2022-03-24T11:07:02.000Z</time>
      </trkpt>
      <trkpt lat="47.28078" lon="-2.35615">
        <ele>73.199996948242</ele>
        <time>2022-03-24T11:07:03.000Z</time>
      </trkpt>
      <trkpt lat="47.2808" lon="-2.35614">
        <ele>72.800003051758</ele>
        <time>2022-03-24T11:07:04.000Z</time>
      </trkpt>
      <trkpt lat="47.28082" lon="-2.35615">
        <ele>72.199996948242</ele>
        <time>2022-03-24T11:07:05.000Z</time>
      </trkpt>
      <trkpt lat="47.28083" lon="-2.35615">
        <ele>72.199996948242</ele>
        <time>2022-03-24T11:07:06.000Z</time>
      </trkpt>
      <trkpt lat="47.28089" lon="-2.35623">
        <ele>72.199996948242</ele>
        <time>2022-03-24T11:07:13.000Z</time>
      </trkpt>
      <trkpt lat="47.28086" lon="-2.35621">
        <ele>72.199996948242</ele>
        <time>2022-03-24T11:18:30.000Z</time>
      </trkpt>
      <trkpt lat="47.28083" lon="-2.35616">
        <ele>72.199996948242</ele>
        <time>2022-03-24T11:18:32.000Z</time>
      </trkpt>
      <trkpt lat="47.28075" lon="-2.35614">
        <ele>72.199996948242</ele>
        <time>2022-03-24T11:18:35.000Z</time>
      </trkpt>
      <trkpt lat="47.28073" lon="-2.35614">
        <ele>72.199996948242</ele>
        <time>2022-03-24T11:18:36.000Z</time>
      </trkpt>
      <trkpt lat="47.28061" lon="-2.35611">
        <ele>72.199996948242</ele>
        <time>2022-03-24T11:18:41.000Z</time>
      </trkpt>
      <trkpt lat="47.28043" lon="-2.35607">
        <ele>72.199996948242</ele>
        <time>2022-03-24T11:18:46.000Z</time>
      </trkpt>
      <trkpt lat="47.28017" lon="-2.3561">
        <ele>72.199996948242</ele>
        <time>2022-03-24T11:18:53.000Z</time>
      </trkpt>
      <trkpt lat="47.28001" lon="-2.35605">
        <ele>72.199996948242</ele>
        <time>2022-03-24T11:18:57.000Z</time>
      </trkpt>
      <trkpt lat="47.27985" lon="-2.35599">
        <ele>71.800003051758</ele>
        <time>2022-03-24T11:19:00.000Z</time>
      </trkpt>
      <trkpt lat="47.2798" lon="-2.35596">
        <ele>71.400001525879</ele>
        <time>2022-03-24T11:19:01.000Z</time>
      </trkpt>
      <trkpt lat="47.27976" lon="-2.3559">
        <ele>71</ele>
        <time>2022-03-24T11:19:02.000Z</time>
      </trkpt>
      <trkpt lat="47.27972" lon="-2.35584">
        <ele>70.400001525879</ele>
        <time>2022-03-24T11:19:03.000Z</time>
      </trkpt>
      <trkpt lat="47.27968" lon="-2.3558">
        <ele>70</ele>
        <time>2022-03-24T11:19:04.000Z</time>
      </trkpt>
      <trkpt lat="47.27953" lon="-2.35582">
        <ele>70</ele>
        <time>2022-03-24T11:19:07.000Z</time>
      </trkpt>
      <trkpt lat="47.27949" lon="-2.35584">
        <ele>70</ele>
        <time>2022-03-24T11:19:08.000Z</time>
      </trkpt>
      <trkpt lat="47.27945" lon="-2.35585">
        <ele>70</ele>
        <time>2022-03-24T11:19:09.000Z</time>
      </trkpt>
      <trkpt lat="47.27931" lon="-2.35587">
        <ele>70</ele>
        <time>2022-03-24T11:19:12.000Z</time>
      </trkpt>
      <trkpt lat="47.27926" lon="-2.35588">
        <ele>70</ele>
        <time>2022-03-24T11:19:13.000Z</time>
      </trkpt>
      <trkpt lat="47.27904" lon="-2.35593">
        <ele>69.599998474121</ele>
        <time>2022-03-24T11:19:17.000Z</time>
      </trkpt>
      <trkpt lat="47.27899" lon="-2.35593">
        <ele>69.199996948242</ele>
        <time>2022-03-24T11:19:18.000Z</time>
      </trkpt>
      <trkpt lat="47.27893" lon="-2.35595">
        <ele>68.599998474121</ele>
        <time>2022-03-24T11:19:19.000Z</time>
      </trkpt>
      <trkpt lat="47.27887" lon="-2.35596">
        <ele>68.199996948242</ele>
        <time>2022-03-24T11:19:20.000Z</time>
      </trkpt>
      <trkpt lat="47.27882" lon="-2.35597">
        <ele>67.800003051758</ele>
        <time>2022-03-24T11:19:21.000Z</time>
      </trkpt>
      <trkpt lat="47.27863" lon="-2.35601">
        <ele>67.800003051758</ele>
        <time>2022-03-24T11:19:24.000Z</time>
      </trkpt>
      <trkpt lat="47.27825" lon="-2.35613">
        <ele>67.800003051758</ele>
        <time>2022-03-24T11:19:30.000Z</time>
      </trkpt>
      <trkpt lat="47.27819" lon="-2.35615">
        <ele>67</ele>
        <time>2022-03-24T11:19:31.000Z</time>
      </trkpt>
      <trkpt lat="47.27813" lon="-2.35617">
        <ele>66.599998474121</ele>
        <time>2022-03-24T11:19:32.000Z</time>
      </trkpt>
      <trkpt lat="47.27807" lon="-2.35618">
        <ele>66</ele>
        <time>2022-03-24T11:19:33.000Z</time>
      </trkpt>
      <trkpt lat="47.27801" lon="-2.35621">
        <ele>65.599998474121</ele>
        <time>2022-03-24T11:19:34.000Z</time>
      </trkpt>
      <trkpt lat="47.27783" lon="-2.35631">
        <ele>65.599998474121</ele>
        <time>2022-03-24T11:19:37.000Z</time>
      </trkpt>
      <trkpt lat="47.27765" lon="-2.35645">
        <ele>65.199996948242</ele>
        <time>2022-03-24T11:19:40.000Z</time>
      </trkpt>
      <trkpt lat="47.2776" lon="-2.35651">
        <ele>64.800003051758</ele>
        <time>2022-03-24T11:19:41.000Z</time>
      </trkpt>
      <trkpt lat="47.27755" lon="-2.35658">
        <ele>64.400001525879</ele>
        <time>2022-03-24T11:19:42.000Z</time>
      </trkpt>
      <trkpt lat="47.27751" lon="-2.35665">
        <ele>63.799999237061</ele>
        <time>2022-03-24T11:19:43.000Z</time>
      </trkpt>
      <trkpt lat="47.27746" lon="-2.35671">
        <ele>63.400001525879</ele>
        <time>2022-03-24T11:19:44.000Z</time>
      </trkpt>
      <trkpt lat="47.27723" lon="-2.35706">
        <ele>63.400001525879</ele>
        <time>2022-03-24T11:19:49.000Z</time>
      </trkpt>
      <trkpt lat="47.277" lon="-2.35728">
        <ele>63.400001525879</ele>
        <time>2022-03-24T11:19:53.000Z</time>
      </trkpt>
      <trkpt lat="47.27693" lon="-2.35732">
        <ele>63.400001525879</ele>
        <time>2022-03-24T11:19:54.000Z</time>
      </trkpt>
      <trkpt lat="47.27687" lon="-2.35736">
        <ele>63</ele>
        <time>2022-03-24T11:19:55.000Z</time>
      </trkpt>
      <trkpt lat="47.27682" lon="-2.35742">
        <ele>62.599998474121</ele>
        <time>2022-03-24T11:19:56.000Z</time>
      </trkpt>
      <trkpt lat="47.27678" lon="-2.35747">
        <ele>62</ele>
        <time>2022-03-24T11:19:57.000Z</time>
      </trkpt>
      <trkpt lat="47.27673" lon="-2.35747">
        <ele>61.599998474121</ele>
        <time>2022-03-24T11:19:58.000Z</time>
      </trkpt>
      <trkpt lat="47.27669" lon="-2.35743">
        <ele>61</ele>
        <time>2022-03-24T11:19:59.000Z</time>
      </trkpt>
      <trkpt lat="47.27662" lon="-2.35731">
        <ele>61</ele>
        <time>2022-03-24T11:20:01.000Z</time>
      </trkpt>
      <trkpt lat="47.27647" lon="-2.35719">
        <ele>61</ele>
        <time>2022-03-24T11:20:04.000Z</time>
      </trkpt>
      <trkpt lat="47.27642" lon="-2.35717">
        <ele>61</ele>
        <time>2022-03-24T11:20:05.000Z</time>
      </trkpt>
      <trkpt lat="47.27606" lon="-2.35708">
        <ele>60.599998474121</ele>
        <time>2022-03-24T11:20:11.000Z</time>
      </trkpt>
      <trkpt lat="47.27599" lon="-2.35707">
        <ele>60.200000762939</ele>
        <time>2022-03-24T11:20:12.000Z</time>
      </trkpt>
      <trkpt lat="47.27594" lon="-2.35705">
        <ele>59.799999237061</ele>
        <time>2022-03-24T11:20:13.000Z</time>
      </trkpt>
      <trkpt lat="47.27588" lon="-2.35704">
        <ele>59.400001525879</ele>
        <time>2022-03-24T11:20:14.000Z</time>
      </trkpt>
      <trkpt lat="47.27582" lon="-2.35702">
        <ele>59</ele>
        <time>2022-03-24T11:20:15.000Z</time>
      </trkpt>
      <trkpt lat="47.27558" lon="-2.35697">
        <ele>59</ele>
        <time>2022-03-24T11:20:19.000Z</time>
      </trkpt>
      <trkpt lat="47.27536" lon="-2.35694">
        <ele>59</ele>
        <time>2022-03-24T11:20:23.000Z</time>
      </trkpt>
      <trkpt lat="47.2753" lon="-2.35693">
        <ele>59</ele>
        <time>2022-03-24T11:20:24.000Z</time>
      </trkpt>
      <trkpt lat="47.27496" lon="-2.35686">
        <ele>59</ele>
        <time>2022-03-24T11:20:30.000Z</time>
      </trkpt>
      <trkpt lat="47.27479" lon="-2.35682">
        <ele>58.599998474121</ele>
        <time>2022-03-24T11:20:33.000Z</time>
      </trkpt>
      <trkpt lat="47.27473" lon="-2.3568">
        <ele>58.200000762939</ele>
        <time>2022-03-24T11:20:34.000Z</time>
      </trkpt>
      <trkpt lat="47.27467" lon="-2.35679">
        <ele>57.799999237061</ele>
        <time>2022-03-24T11:20:35.000Z</time>
      </trkpt>
      <trkpt lat="47.27461" lon="-2.35677">
        <ele>57.200000762939</ele>
        <time>2022-03-24T11:20:36.000Z</time>
      </trkpt>
      <trkpt lat="47.27455" lon="-2.35676">
        <ele>56.799999237061</ele>
        <time>2022-03-24T11:20:37.000Z</time>
      </trkpt>
      <trkpt lat="47.27422" lon="-2.35668">
        <ele>56.799999237061</ele>
        <time>2022-03-24T11:20:43.000Z</time>
      </trkpt>
      <trkpt lat="47.27417" lon="-2.35668">
        <ele>56.799999237061</ele>
        <time>2022-03-24T11:20:44.000Z</time>
      </trkpt>
      <trkpt lat="47.274" lon="-2.35671">
        <ele>56.799999237061</ele>
        <time>2022-03-24T11:20:47.000Z</time>
      </trkpt>
      <trkpt lat="47.27395" lon="-2.35674">
        <ele>56.799999237061</ele>
        <time>2022-03-24T11:20:48.000Z</time>
      </trkpt>
      <trkpt lat="47.27368" lon="-2.35695">
        <ele>56.400001525879</ele>
        <time>2022-03-24T11:20:53.000Z</time>
      </trkpt>
      <trkpt lat="47.27362" lon="-2.35698">
        <ele>56</ele>
        <time>2022-03-24T11:20:54.000Z</time>
      </trkpt>
      <trkpt lat="47.27357" lon="-2.35702">
        <ele>55.599998474121</ele>
        <time>2022-03-24T11:20:55.000Z</time>
      </trkpt>
      <trkpt lat="47.27352" lon="-2.35705">
        <ele>55.200000762939</ele>
        <time>2022-03-24T11:20:56.000Z</time>
      </trkpt>
      <trkpt lat="47.27347" lon="-2.35709">
        <ele>54.799999237061</ele>
        <time>2022-03-24T11:20:57.000Z</time>
      </trkpt>
      <trkpt lat="47.27328" lon="-2.35727">
        <ele>54.799999237061</ele>
        <time>2022-03-24T11:21:01.000Z</time>
      </trkpt>
      <trkpt lat="47.27322" lon="-2.35736">
        <ele>54.799999237061</ele>
        <time>2022-03-24T11:21:03.000Z</time>
      </trkpt>
      <trkpt lat="47.27316" lon="-2.35743">
        <ele>54.799999237061</ele>
        <time>2022-03-24T11:21:05.000Z</time>
      </trkpt>
      <trkpt lat="47.27306" lon="-2.35735">
        <ele>54.799999237061</ele>
        <time>2022-03-24T11:21:08.000Z</time>
      </trkpt>
      <trkpt lat="47.27296" lon="-2.35711">
        <ele>54.799999237061</ele>
        <time>2022-03-24T11:21:12.000Z</time>
      </trkpt>
      <trkpt lat="47.27293" lon="-2.35705">
        <ele>54.799999237061</ele>
        <time>2022-03-24T11:21:13.000Z</time>
      </trkpt>
      <trkpt lat="47.27288" lon="-2.35694">
        <ele>55.200000762939</ele>
        <time>2022-03-24T11:21:15.000Z</time>
      </trkpt>
      <trkpt lat="47.27285" lon="-2.35687">
        <ele>55.599998474121</ele>
        <time>2022-03-24T11:21:16.000Z</time>
      </trkpt>
      <trkpt lat="47.27283" lon="-2.35681">
        <ele>56</ele>
        <time>2022-03-24T11:21:17.000Z</time>
      </trkpt>
      <trkpt lat="47.2728" lon="-2.35675">
        <ele>56.400001525879</ele>
        <time>2022-03-24T11:21:18.000Z</time>
      </trkpt>
      <trkpt lat="47.27278" lon="-2.35668">
        <ele>56.799999237061</ele>
        <time>2022-03-24T11:21:19.000Z</time>
      </trkpt>
      <trkpt lat="47.27276" lon="-2.35663">
        <ele>56.799999237061</ele>
        <time>2022-03-24T11:21:20.000Z</time>
      </trkpt>
      <trkpt lat="47.27249" lon="-2.35604">
        <ele>56.799999237061</ele>
        <time>2022-03-24T11:21:30.000Z</time>
      </trkpt>
      <trkpt lat="47.27224" lon="-2.3555">
        <ele>56.799999237061</ele>
        <time>2022-03-24T11:21:39.000Z</time>
      </trkpt>
      <trkpt lat="47.27205" lon="-2.35509">
        <ele>56.799999237061</ele>
        <time>2022-03-24T11:21:46.000Z</time>
      </trkpt>
      <trkpt lat="47.27181" lon="-2.35461">
        <ele>56.799999237061</ele>
        <time>2022-03-24T11:21:54.000Z</time>
      </trkpt>
      <trkpt lat="47.27157" lon="-2.35414">
        <ele>56.799999237061</ele>
        <time>2022-03-24T11:22:02.000Z</time>
      </trkpt>
      <trkpt lat="47.27128" lon="-2.35361">
        <ele>56.799999237061</ele>
        <time>2022-03-24T11:22:11.000Z</time>
      </trkpt>
      <trkpt lat="47.27095" lon="-2.35307">
        <ele>56.799999237061</ele>
        <time>2022-03-24T11:22:21.000Z</time>
      </trkpt>
      <trkpt lat="47.27063" lon="-2.35257">
        <ele>56.799999237061</ele>
        <time>2022-03-24T11:22:29.000Z</time>
      </trkpt>
      <trkpt lat="47.27034" lon="-2.35212">
        <ele>56.799999237061</ele>
        <time>2022-03-24T11:22:36.000Z</time>
      </trkpt>
      <trkpt lat="47.27001" lon="-2.35161">
        <ele>56.799999237061</ele>
        <time>2022-03-24T11:22:44.000Z</time>
      </trkpt>
      <trkpt lat="47.26964" lon="-2.35104">
        <ele>56.799999237061</ele>
        <time>2022-03-24T11:22:53.000Z</time>
      </trkpt>
      <trkpt lat="47.26928" lon="-2.35048">
        <ele>56.799999237061</ele>
        <time>2022-03-24T11:23:02.000Z</time>
      </trkpt>
      <trkpt lat="47.2689" lon="-2.3499">
        <ele>56.799999237061</ele>
        <time>2022-03-24T11:23:11.000Z</time>
      </trkpt>
      <trkpt lat="47.26881" lon="-2.34977">
        <ele>56.799999237061</ele>
        <time>2022-03-24T11:23:13.000Z</time>
      </trkpt>
      <trkpt lat="47.26842" lon="-2.34919">
        <ele>56.799999237061</ele>
        <time>2022-03-24T11:23:22.000Z</time>
      </trkpt>
      <trkpt lat="47.26804" lon="-2.3486">
        <ele>56.799999237061</ele>
        <time>2022-03-24T11:23:31.000Z</time>
      </trkpt>
      <trkpt lat="47.2677" lon="-2.34813">
        <ele>56.799999237061</ele>
        <time>2022-03-24T11:23:39.000Z</time>
      </trkpt>
      <trkpt lat="47.26738" lon="-2.3477">
        <ele>56.799999237061</ele>
        <time>2022-03-24T11:23:46.000Z</time>
      </trkpt>
      <trkpt lat="47.26697" lon="-2.34721">
        <ele>56.799999237061</ele>
        <time>2022-03-24T11:23:54.000Z</time>
      </trkpt>
      <trkpt lat="47.26666" lon="-2.34683">
        <ele>56.799999237061</ele>
        <time>2022-03-24T11:24:00.000Z</time>
      </trkpt>
      <trkpt lat="47.26651" lon="-2.34664">
        <ele>56.799999237061</ele>
        <time>2022-03-24T11:24:03.000Z</time>
      </trkpt>
      <trkpt lat="47.26641" lon="-2.34651">
        <ele>56.799999237061</ele>
        <time>2022-03-24T11:24:05.000Z</time>
      </trkpt>
      <trkpt lat="47.26621" lon="-2.34629">
        <ele>56.799999237061</ele>
        <time>2022-03-24T11:24:09.000Z</time>
      </trkpt>
      <trkpt lat="47.26611" lon="-2.34617">
        <ele>56.799999237061</ele>
        <time>2022-03-24T11:24:11.000Z</time>
      </trkpt>
      <trkpt lat="47.26572" lon="-2.34572">
        <ele>56.799999237061</ele>
        <time>2022-03-24T11:24:19.000Z</time>
      </trkpt>
      <trkpt lat="47.26539" lon="-2.34537">
        <ele>56.799999237061</ele>
        <time>2022-03-24T11:24:26.000Z</time>
      </trkpt>
      <trkpt lat="47.26513" lon="-2.34516">
        <ele>56.799999237061</ele>
        <time>2022-03-24T11:24:31.000Z</time>
      </trkpt>
      <trkpt lat="47.26508" lon="-2.34512">
        <ele>56.799999237061</ele>
        <time>2022-03-24T11:24:32.000Z</time>
      </trkpt>
      <trkpt lat="47.26468" lon="-2.34483">
        <ele>56.799999237061</ele>
        <time>2022-03-24T11:24:39.000Z</time>
      </trkpt>
      <trkpt lat="47.26417" lon="-2.34448">
        <ele>56.799999237061</ele>
        <time>2022-03-24T11:24:48.000Z</time>
      </trkpt>
      <trkpt lat="47.26379" lon="-2.34417">
        <ele>56.799999237061</ele>
        <time>2022-03-24T11:24:55.000Z</time>
      </trkpt>
      <trkpt lat="47.26337" lon="-2.34381">
        <ele>56.799999237061</ele>
        <time>2022-03-24T11:25:03.000Z</time>
      </trkpt>
      <trkpt lat="47.26317" lon="-2.34367">
        <ele>56.799999237061</ele>
        <time>2022-03-24T11:25:07.000Z</time>
      </trkpt>
      <trkpt lat="47.26299" lon="-2.34343">
        <ele>56.799999237061</ele>
        <time>2022-03-24T11:25:11.000Z</time>
      </trkpt>
      <trkpt lat="47.26294" lon="-2.34337">
        <ele>56.799999237061</ele>
        <time>2022-03-24T11:25:12.000Z</time>
      </trkpt>
      <trkpt lat="47.26274" lon="-2.34316">
        <ele>56.799999237061</ele>
        <time>2022-03-24T11:25:16.000Z</time>
      </trkpt>
      <trkpt lat="47.26253" lon="-2.34295">
        <ele>56.799999237061</ele>
        <time>2022-03-24T11:25:20.000Z</time>
      </trkpt>
      <trkpt lat="47.26219" lon="-2.34258">
        <ele>56.799999237061</ele>
        <time>2022-03-24T11:25:27.000Z</time>
      </trkpt>
      <trkpt lat="47.26187" lon="-2.34223">
        <ele>56.799999237061</ele>
        <time>2022-03-24T11:25:34.000Z</time>
      </trkpt>
      <trkpt lat="47.26154" lon="-2.34189">
        <ele>56.799999237061</ele>
        <time>2022-03-24T11:25:41.000Z</time>
      </trkpt>
      <trkpt lat="47.26149" lon="-2.34185">
        <ele>56.799999237061</ele>
        <time>2022-03-24T11:25:42.000Z</time>
      </trkpt>
      <trkpt lat="47.26137" lon="-2.34181">
        <ele>56.799999237061</ele>
        <time>2022-03-24T11:25:44.000Z</time>
      </trkpt>
      <trkpt lat="47.26122" lon="-2.34166">
        <ele>56.799999237061</ele>
        <time>2022-03-24T11:25:47.000Z</time>
      </trkpt>
      <trkpt lat="47.26116" lon="-2.34161">
        <ele>56.799999237061</ele>
        <time>2022-03-24T11:25:48.000Z</time>
      </trkpt>
      <trkpt lat="47.26105" lon="-2.34156">
        <ele>56.799999237061</ele>
        <time>2022-03-24T11:25:50.000Z</time>
      </trkpt>
      <trkpt lat="47.26059" lon="-2.34134">
        <ele>56.799999237061</ele>
        <time>2022-03-24T11:25:58.000Z</time>
      </trkpt>
      <trkpt lat="47.2601" lon="-2.34109">
        <ele>56.799999237061</ele>
        <time>2022-03-24T11:26:07.000Z</time>
      </trkpt>
      <trkpt lat="47.25961" lon="-2.34085">
        <ele>56.799999237061</ele>
        <time>2022-03-24T11:26:16.000Z</time>
      </trkpt>
      <trkpt lat="47.25932" lon="-2.3407">
        <ele>56.799999237061</ele>
        <time>2022-03-24T11:26:22.000Z</time>
      </trkpt>
      <trkpt lat="47.25919" lon="-2.3407">
        <ele>56.799999237061</ele>
        <time>2022-03-24T11:26:26.000Z</time>
      </trkpt>
      <trkpt lat="47.25915" lon="-2.3407">
        <ele>56.799999237061</ele>
        <time>2022-03-24T11:26:27.000Z</time>
      </trkpt>
      <trkpt lat="47.25902" lon="-2.34062">
        <ele>56.799999237061</ele>
        <time>2022-03-24T11:26:30.000Z</time>
      </trkpt>
      <trkpt lat="47.25897" lon="-2.3404">
        <ele>56.799999237061</ele>
        <time>2022-03-24T11:26:33.000Z</time>
      </trkpt>
      <trkpt lat="47.25899" lon="-2.34026">
        <ele>56.400001525879</ele>
        <time>2022-03-24T11:26:35.000Z</time>
      </trkpt>
      <trkpt lat="47.25902" lon="-2.34019">
        <ele>55.799999237061</ele>
        <time>2022-03-24T11:26:36.000Z</time>
      </trkpt>
      <trkpt lat="47.25905" lon="-2.34013">
        <ele>55.400001525879</ele>
        <time>2022-03-24T11:26:37.000Z</time>
      </trkpt>
      <trkpt lat="47.25907" lon="-2.34005">
        <ele>55</ele>
        <time>2022-03-24T11:26:38.000Z</time>
      </trkpt>
      <trkpt lat="47.25909" lon="-2.33998">
        <ele>54.599998474121</ele>
        <time>2022-03-24T11:26:39.000Z</time>
      </trkpt>
      <trkpt lat="47.25913" lon="-2.33984">
        <ele>54.599998474121</ele>
        <time>2022-03-24T11:26:41.000Z</time>
      </trkpt>
      <trkpt lat="47.25927" lon="-2.3395">
        <ele>54.599998474121</ele>
        <time>2022-03-24T11:26:46.000Z</time>
      </trkpt>
      <trkpt lat="47.25934" lon="-2.33938">
        <ele>54.599998474121</ele>
        <time>2022-03-24T11:26:48.000Z</time>
      </trkpt>
      <trkpt lat="47.25943" lon="-2.3392">
        <ele>54.599998474121</ele>
        <time>2022-03-24T11:26:51.000Z</time>
      </trkpt>
      <trkpt lat="47.25948" lon="-2.33906">
        <ele>54.599998474121</ele>
        <time>2022-03-24T11:26:53.000Z</time>
      </trkpt>
      <trkpt lat="47.2595" lon="-2.33898">
        <ele>54.599998474121</ele>
        <time>2022-03-24T11:26:54.000Z</time>
      </trkpt>
      <trkpt lat="47.25963" lon="-2.33864">
        <ele>54.599998474121</ele>
        <time>2022-03-24T11:26:59.000Z</time>
      </trkpt>
      <trkpt lat="47.25982" lon="-2.33814">
        <ele>54.599998474121</ele>
        <time>2022-03-24T11:27:06.000Z</time>
      </trkpt>
      <trkpt lat="47.26001" lon="-2.33758">
        <ele>54.599998474121</ele>
        <time>2022-03-24T11:27:13.000Z</time>
      </trkpt>
      <trkpt lat="47.26017" lon="-2.33712">
        <ele>54.599998474121</ele>
        <time>2022-03-24T11:27:19.000Z</time>
      </trkpt>
      <trkpt lat="47.26019" lon="-2.33704">
        <ele>54.599998474121</ele>
        <time>2022-03-24T11:27:20.000Z</time>
      </trkpt>
      <trkpt lat="47.26025" lon="-2.33674">
        <ele>54.599998474121</ele>
        <time>2022-03-24T11:27:24.000Z</time>
      </trkpt>
      <trkpt lat="47.26032" lon="-2.33668">
        <ele>54.599998474121</ele>
        <time>2022-03-24T11:27:26.000Z</time>
      </trkpt>
      <trkpt lat="47.26043" lon="-2.33675">
        <ele>54.599998474121</ele>
        <time>2022-03-24T11:27:29.000Z</time>
      </trkpt>
      <trkpt lat="47.26046" lon="-2.33684">
        <ele>54.599998474121</ele>
        <time>2022-03-24T11:27:31.000Z</time>
      </trkpt>
      <trkpt lat="47.26047" lon="-2.33688">
        <ele>54.599998474121</ele>
        <time>2022-03-24T11:27:32.000Z</time>
      </trkpt>
      <trkpt lat="47.2605" lon="-2.33688">
        <ele>54.599998474121</ele>
        <time>2022-03-24T11:27:33.000Z</time>
      </trkpt>
      <trkpt lat="47.26054" lon="-2.33677">
        <ele>54.599998474121</ele>
        <time>2022-03-24T11:27:36.000Z</time>
      </trkpt>
      <trkpt lat="47.26059" lon="-2.33657">
        <ele>54.599998474121</ele>
        <time>2022-03-24T11:27:39.000Z</time>
      </trkpt>
      <trkpt lat="47.26063" lon="-2.33643">
        <ele>54.599998474121</ele>
        <time>2022-03-24T11:27:41.000Z</time>
      </trkpt>
      <trkpt lat="47.26066" lon="-2.33637">
        <ele>54.599998474121</ele>
        <time>2022-03-24T11:27:42.000Z</time>
      </trkpt>
      <trkpt lat="47.26078" lon="-2.33601">
        <ele>54.599998474121</ele>
        <time>2022-03-24T11:27:47.000Z</time>
      </trkpt>
      <trkpt lat="47.26093" lon="-2.33559">
        <ele>54.599998474121</ele>
        <time>2022-03-24T11:27:53.000Z</time>
      </trkpt>
      <trkpt lat="47.26099" lon="-2.33544">
        <ele>54.599998474121</ele>
        <time>2022-03-24T11:27:55.000Z</time>
      </trkpt>
      <trkpt lat="47.26113" lon="-2.33502">
        <ele>54.599998474121</ele>
        <time>2022-03-24T11:28:01.000Z</time>
      </trkpt>
      <trkpt lat="47.26126" lon="-2.33465">
        <ele>54.599998474121</ele>
        <time>2022-03-24T11:28:07.000Z</time>
      </trkpt>
      <trkpt lat="47.26134" lon="-2.33444">
        <ele>54.599998474121</ele>
        <time>2022-03-24T11:28:12.000Z</time>
      </trkpt>
      <trkpt lat="47.26135" lon="-2.33439">
        <ele>54.599998474121</ele>
        <time>2022-03-24T11:28:13.000Z</time>
      </trkpt>
      <trkpt lat="47.26134" lon="-2.33426">
        <ele>54.599998474121</ele>
        <time>2022-03-24T11:28:15.000Z</time>
      </trkpt>
      <trkpt lat="47.26126" lon="-2.33414">
        <ele>54.599998474121</ele>
        <time>2022-03-24T11:28:18.000Z</time>
      </trkpt>
      <trkpt lat="47.26123" lon="-2.3341">
        <ele>54.599998474121</ele>
        <time>2022-03-24T11:28:19.000Z</time>
      </trkpt>
      <trkpt lat="47.26107" lon="-2.33391">
        <ele>54.599998474121</ele>
        <time>2022-03-24T11:28:23.000Z</time>
      </trkpt>
      <trkpt lat="47.26103" lon="-2.33386">
        <ele>54.599998474121</ele>
        <time>2022-03-24T11:28:24.000Z</time>
      </trkpt>
      <trkpt lat="47.26096" lon="-2.33375">
        <ele>54.599998474121</ele>
        <time>2022-03-24T11:28:26.000Z</time>
      </trkpt>
      <trkpt lat="47.26084" lon="-2.3336">
        <ele>54.599998474121</ele>
        <time>2022-03-24T11:28:29.000Z</time>
      </trkpt>
      <trkpt lat="47.26081" lon="-2.33354">
        <ele>54.599998474121</ele>
        <time>2022-03-24T11:28:30.000Z</time>
      </trkpt>
      <trkpt lat="47.26074" lon="-2.33342">
        <ele>54.599998474121</ele>
        <time>2022-03-24T11:28:32.000Z</time>
      </trkpt>
      <trkpt lat="47.26066" lon="-2.3332">
        <ele>54.599998474121</ele>
        <time>2022-03-24T11:28:35.000Z</time>
      </trkpt>
      <trkpt lat="47.26046" lon="-2.33263">
        <ele>54.599998474121</ele>
        <time>2022-03-24T11:28:43.000Z</time>
      </trkpt>
      <trkpt lat="47.26028" lon="-2.33213">
        <ele>54.599998474121</ele>
        <time>2022-03-24T11:28:50.000Z</time>
      </trkpt>
      <trkpt lat="47.26004" lon="-2.33144">
        <ele>54.599998474121</ele>
        <time>2022-03-24T11:29:00.000Z</time>
      </trkpt>
      <trkpt lat="47.25992" lon="-2.33109">
        <ele>54.599998474121</ele>
        <time>2022-03-24T11:29:05.000Z</time>
      </trkpt>
      <trkpt lat="47.25988" lon="-2.33094">
        <ele>54.599998474121</ele>
        <time>2022-03-24T11:29:07.000Z</time>
      </trkpt>
      <trkpt lat="47.2598" lon="-2.33072">
        <ele>54.599998474121</ele>
        <time>2022-03-24T11:29:10.000Z</time>
      </trkpt>
      <trkpt lat="47.25975" lon="-2.33058">
        <ele>54.599998474121</ele>
        <time>2022-03-24T11:29:12.000Z</time>
      </trkpt>
      <trkpt lat="47.25957" lon="-2.33003">
        <ele>54.599998474121</ele>
        <time>2022-03-24T11:29:20.000Z</time>
      </trkpt>
      <trkpt lat="47.2594" lon="-2.32957">
        <ele>54.599998474121</ele>
        <time>2022-03-24T11:29:27.000Z</time>
      </trkpt>
      <trkpt lat="47.25937" lon="-2.32951">
        <ele>54.599998474121</ele>
        <time>2022-03-24T11:29:28.000Z</time>
      </trkpt>
      <trkpt lat="47.25934" lon="-2.32945">
        <ele>54.599998474121</ele>
        <time>2022-03-24T11:29:29.000Z</time>
      </trkpt>
      <trkpt lat="47.25926" lon="-2.32917">
        <ele>54.599998474121</ele>
        <time>2022-03-24T11:29:33.000Z</time>
      </trkpt>
      <trkpt lat="47.25924" lon="-2.3291">
        <ele>54.599998474121</ele>
        <time>2022-03-24T11:29:34.000Z</time>
      </trkpt>
      <trkpt lat="47.25908" lon="-2.32862">
        <ele>54.599998474121</ele>
        <time>2022-03-24T11:29:41.000Z</time>
      </trkpt>
      <trkpt lat="47.25893" lon="-2.32821">
        <ele>54.599998474121</ele>
        <time>2022-03-24T11:29:47.000Z</time>
      </trkpt>
      <trkpt lat="47.25876" lon="-2.32766">
        <ele>54.599998474121</ele>
        <time>2022-03-24T11:29:55.000Z</time>
      </trkpt>
      <trkpt lat="47.25869" lon="-2.32739">
        <ele>54.599998474121</ele>
        <time>2022-03-24T11:30:00.000Z</time>
      </trkpt>
      <trkpt lat="47.25878" lon="-2.32724">
        <ele>54.599998474121</ele>
        <time>2022-03-24T11:30:03.000Z</time>
      </trkpt>
      <trkpt lat="47.25907" lon="-2.32694">
        <ele>54.599998474121</ele>
        <time>2022-03-24T11:30:10.000Z</time>
      </trkpt>
      <trkpt lat="47.25939" lon="-2.32672">
        <ele>54.599998474121</ele>
        <time>2022-03-24T11:30:17.000Z</time>
      </trkpt>
      <trkpt lat="47.25957" lon="-2.3266">
        <ele>54.599998474121</ele>
        <time>2022-03-24T11:30:21.000Z</time>
      </trkpt>
      <trkpt lat="47.25962" lon="-2.32649">
        <ele>54.599998474121</ele>
        <time>2022-03-24T11:30:23.000Z</time>
      </trkpt>
      <trkpt lat="47.25962" lon="-2.32627">
        <ele>54.599998474121</ele>
        <time>2022-03-24T11:30:26.000Z</time>
      </trkpt>
      <trkpt lat="47.25961" lon="-2.32619">
        <ele>54.599998474121</ele>
        <time>2022-03-24T11:30:27.000Z</time>
      </trkpt>
      <trkpt lat="47.25949" lon="-2.32569">
        <ele>54.599998474121</ele>
        <time>2022-03-24T11:30:34.000Z</time>
      </trkpt>
      <trkpt lat="47.25947" lon="-2.32562">
        <ele>54.599998474121</ele>
        <time>2022-03-24T11:30:35.000Z</time>
      </trkpt>
      <trkpt lat="47.25936" lon="-2.32529">
        <ele>54.599998474121</ele>
        <time>2022-03-24T11:30:40.000Z</time>
      </trkpt>
      <trkpt lat="47.25926" lon="-2.32496">
        <ele>54.599998474121</ele>
        <time>2022-03-24T11:30:45.000Z</time>
      </trkpt>
      <trkpt lat="47.25921" lon="-2.32485">
        <ele>54.599998474121</ele>
        <time>2022-03-24T11:30:47.000Z</time>
      </trkpt>
      <trkpt lat="47.25907" lon="-2.32465">
        <ele>54.599998474121</ele>
        <time>2022-03-24T11:30:52.000Z</time>
      </trkpt>
      <trkpt lat="47.25902" lon="-2.32458">
        <ele>54.599998474121</ele>
        <time>2022-03-24T11:30:54.000Z</time>
      </trkpt>
      <trkpt lat="47.25904" lon="-2.32448">
        <ele>54.599998474121</ele>
        <time>2022-03-24T11:30:56.000Z</time>
      </trkpt>
      <trkpt lat="47.25917" lon="-2.32432">
        <ele>54.599998474121</ele>
        <time>2022-03-24T11:31:00.000Z</time>
      </trkpt>
      <trkpt lat="47.2592" lon="-2.32427">
        <ele>54.599998474121</ele>
        <time>2022-03-24T11:31:01.000Z</time>
      </trkpt>
      <trkpt lat="47.25941" lon="-2.32398">
        <ele>54.599998474121</ele>
        <time>2022-03-24T11:31:07.000Z</time>
      </trkpt>
      <trkpt lat="47.25962" lon="-2.32373">
        <ele>54.599998474121</ele>
        <time>2022-03-24T11:31:13.000Z</time>
      </trkpt>
      <trkpt lat="47.25987" lon="-2.32342">
        <ele>54.599998474121</ele>
        <time>2022-03-24T11:31:20.000Z</time>
      </trkpt>
      <trkpt lat="47.26013" lon="-2.32309">
        <ele>54.599998474121</ele>
        <time>2022-03-24T11:31:27.000Z</time>
      </trkpt>
      <trkpt lat="47.26038" lon="-2.32284">
        <ele>54.599998474121</ele>
        <time>2022-03-24T11:31:33.000Z</time>
      </trkpt>
      <trkpt lat="47.26069" lon="-2.32249">
        <ele>54.599998474121</ele>
        <time>2022-03-24T11:31:41.000Z</time>
      </trkpt>
      <trkpt lat="47.26079" lon="-2.32235">
        <ele>54.599998474121</ele>
        <time>2022-03-24T11:31:44.000Z</time>
      </trkpt>
      <trkpt lat="47.26089" lon="-2.32221">
        <ele>54.599998474121</ele>
        <time>2022-03-24T11:31:47.000Z</time>
      </trkpt>
      <trkpt lat="47.26097" lon="-2.32211">
        <ele>54.599998474121</ele>
        <time>2022-03-24T11:31:49.000Z</time>
      </trkpt>
      <trkpt lat="47.26105" lon="-2.32194">
        <ele>54.599998474121</ele>
        <time>2022-03-24T11:31:52.000Z</time>
      </trkpt>
      <trkpt lat="47.26125" lon="-2.32143">
        <ele>54.599998474121</ele>
        <time>2022-03-24T11:32:00.000Z</time>
      </trkpt>
      <trkpt lat="47.26133" lon="-2.32117">
        <ele>54.599998474121</ele>
        <time>2022-03-24T11:32:04.000Z</time>
      </trkpt>
      <trkpt lat="47.26136" lon="-2.32104">
        <ele>54.599998474121</ele>
        <time>2022-03-24T11:32:06.000Z</time>
      </trkpt>
      <trkpt lat="47.26148" lon="-2.32063">
        <ele>54.599998474121</ele>
        <time>2022-03-24T11:32:12.000Z</time>
      </trkpt>
      <trkpt lat="47.2616" lon="-2.32033">
        <ele>54.599998474121</ele>
        <time>2022-03-24T11:32:17.000Z</time>
      </trkpt>
      <trkpt lat="47.26164" lon="-2.32028">
        <ele>54.599998474121</ele>
        <time>2022-03-24T11:32:18.000Z</time>
      </trkpt>
      <trkpt lat="47.26178" lon="-2.32021">
        <ele>54.599998474121</ele>
        <time>2022-03-24T11:32:22.000Z</time>
      </trkpt>
      <trkpt lat="47.26181" lon="-2.32022">
        <ele>54.599998474121</ele>
        <time>2022-03-24T11:32:23.000Z</time>
      </trkpt>
      <trkpt lat="47.26184" lon="-2.32023">
        <ele>54.599998474121</ele>
        <time>2022-03-24T11:32:24.000Z</time>
      </trkpt>
      <trkpt lat="47.26187" lon="-2.32025">
        <ele>54.599998474121</ele>
        <time>2022-03-24T11:32:26.000Z</time>
      </trkpt>
      <trkpt lat="47.26192" lon="-2.32024">
        <ele>54.599998474121</ele>
        <time>2022-03-24T11:32:29.000Z</time>
      </trkpt>
      <trkpt lat="47.26195" lon="-2.32018">
        <ele>54.599998474121</ele>
        <time>2022-03-24T11:32:31.000Z</time>
      </trkpt>
      <trkpt lat="47.26201" lon="-2.32007">
        <ele>54.599998474121</ele>
        <time>2022-03-24T11:32:35.000Z</time>
      </trkpt>
      <trkpt lat="47.26212" lon="-2.31995">
        <ele>54.599998474121</ele>
        <time>2022-03-24T11:32:39.000Z</time>
      </trkpt>
      <trkpt lat="47.26216" lon="-2.31992">
        <ele>54.599998474121</ele>
        <time>2022-03-24T11:32:40.000Z</time>
      </trkpt>
      <trkpt lat="47.26225" lon="-2.31982">
        <ele>54.599998474121</ele>
        <time>2022-03-24T11:32:43.000Z</time>
      </trkpt>
      <trkpt lat="47.26231" lon="-2.31981">
        <ele>54.599998474121</ele>
        <time>2022-03-24T11:32:45.000Z</time>
      </trkpt>
      <trkpt lat="47.26234" lon="-2.31979">
        <ele>54.599998474121</ele>
        <time>2022-03-24T11:32:46.000Z</time>
      </trkpt>
      <trkpt lat="47.26238" lon="-2.3197">
        <ele>54.599998474121</ele>
        <time>2022-03-24T11:32:48.000Z</time>
      </trkpt>
      <trkpt lat="47.26253" lon="-2.31943">
        <ele>54.599998474121</ele>
        <time>2022-03-24T11:32:54.000Z</time>
      </trkpt>
      <trkpt lat="47.26268" lon="-2.3192">
        <ele>54.599998474121</ele>
        <time>2022-03-24T11:33:00.000Z</time>
      </trkpt>
      <trkpt lat="47.26286" lon="-2.31899">
        <ele>54.599998474121</ele>
        <time>2022-03-24T11:33:05.000Z</time>
      </trkpt>
      <trkpt lat="47.2629" lon="-2.31896">
        <ele>54.599998474121</ele>
        <time>2022-03-24T11:33:06.000Z</time>
      </trkpt>
      <trkpt lat="47.26299" lon="-2.31886">
        <ele>54.599998474121</ele>
        <time>2022-03-24T11:33:09.000Z</time>
      </trkpt>
      <trkpt lat="47.263" lon="-2.31869">
        <ele>54.599998474121</ele>
        <time>2022-03-24T11:33:12.000Z</time>
      </trkpt>
      <trkpt lat="47.263" lon="-2.31858">
        <ele>54.599998474121</ele>
        <time>2022-03-24T11:33:14.000Z</time>
      </trkpt>
      <trkpt lat="47.26303" lon="-2.3183">
        <ele>54.599998474121</ele>
        <time>2022-03-24T11:33:19.000Z</time>
      </trkpt>
      <trkpt lat="47.26305" lon="-2.31781">
        <ele>54.599998474121</ele>
        <time>2022-03-24T11:33:27.000Z</time>
      </trkpt>
      <trkpt lat="47.26301" lon="-2.31742">
        <ele>54.599998474121</ele>
        <time>2022-03-24T11:33:33.000Z</time>
      </trkpt>
      <trkpt lat="47.26301" lon="-2.31725">
        <ele>54.599998474121</ele>
        <time>2022-03-24T11:33:36.000Z</time>
      </trkpt>
      <trkpt lat="47.26305" lon="-2.31716">
        <ele>54.599998474121</ele>
        <time>2022-03-24T11:33:38.000Z</time>
      </trkpt>
      <trkpt lat="47.26314" lon="-2.3171">
        <ele>54.599998474121</ele>
        <time>2022-03-24T11:33:41.000Z</time>
      </trkpt>
      <trkpt lat="47.26318" lon="-2.31709">
        <ele>54.599998474121</ele>
        <time>2022-03-24T11:33:42.000Z</time>
      </trkpt>
      <trkpt lat="47.26332" lon="-2.31697">
        <ele>54.599998474121</ele>
        <time>2022-03-24T11:33:47.000Z</time>
      </trkpt>
      <trkpt lat="47.26336" lon="-2.31689">
        <ele>54.599998474121</ele>
        <time>2022-03-24T11:33:49.000Z</time>
      </trkpt>
      <trkpt lat="47.26341" lon="-2.31686">
        <ele>54.599998474121</ele>
        <time>2022-03-24T11:33:51.000Z</time>
      </trkpt>
      <trkpt lat="47.26344" lon="-2.31685">
        <ele>55</ele>
        <time>2022-03-24T11:33:52.000Z</time>
      </trkpt>
      <trkpt lat="47.26347" lon="-2.31684">
        <ele>55.400001525879</ele>
        <time>2022-03-24T11:33:53.000Z</time>
      </trkpt>
      <trkpt lat="47.26349" lon="-2.31682">
        <ele>55.799999237061</ele>
        <time>2022-03-24T11:33:54.000Z</time>
      </trkpt>
      <trkpt lat="47.26352" lon="-2.3168">
        <ele>56.599998474121</ele>
        <time>2022-03-24T11:33:55.000Z</time>
      </trkpt>
      <trkpt lat="47.26361" lon="-2.31675">
        <ele>56.599998474121</ele>
        <time>2022-03-24T11:33:58.000Z</time>
      </trkpt>
      <trkpt lat="47.26384" lon="-2.31663">
        <ele>56.599998474121</ele>
        <time>2022-03-24T11:34:05.000Z</time>
      </trkpt>
      <trkpt lat="47.26401" lon="-2.31654">
        <ele>56.599998474121</ele>
        <time>2022-03-24T11:34:11.000Z</time>
      </trkpt>
      <trkpt lat="47.26411" lon="-2.31642">
        <ele>56.599998474121</ele>
        <time>2022-03-24T11:34:15.000Z</time>
      </trkpt>
      <trkpt lat="47.2641" lon="-2.31639">
        <ele>56.599998474121</ele>
        <time>2022-03-24T11:34:16.000Z</time>
      </trkpt>
      <trkpt lat="47.2641" lon="-2.31635">
        <ele>57</ele>
        <time>2022-03-24T11:34:17.000Z</time>
      </trkpt>
      <trkpt lat="47.2641" lon="-2.3163">
        <ele>57.400001525879</ele>
        <time>2022-03-24T11:34:18.000Z</time>
      </trkpt>
      <trkpt lat="47.2641" lon="-2.31625">
        <ele>58.200000762939</ele>
        <time>2022-03-24T11:34:19.000Z</time>
      </trkpt>
      <trkpt lat="47.2641" lon="-2.31619">
        <ele>58.599998474121</ele>
        <time>2022-03-24T11:34:20.000Z</time>
      </trkpt>
      <trkpt lat="47.2641" lon="-2.31614">
        <ele>58.599998474121</ele>
        <time>2022-03-24T11:34:21.000Z</time>
      </trkpt>
      <trkpt lat="47.2641" lon="-2.31579">
        <ele>58.599998474121</ele>
        <time>2022-03-24T11:34:28.000Z</time>
      </trkpt>
      <trkpt lat="47.26412" lon="-2.31553">
        <ele>58.599998474121</ele>
        <time>2022-03-24T11:34:34.000Z</time>
      </trkpt>
      <trkpt lat="47.26415" lon="-2.31551">
        <ele>58.599998474121</ele>
        <time>2022-03-24T11:34:37.000Z</time>
      </trkpt>
      <trkpt lat="47.26413" lon="-2.31553">
        <ele>58.599998474121</ele>
        <time>2022-03-24T11:34:41.000Z</time>
      </trkpt>
      <trkpt lat="47.26413" lon="-2.31555">
        <ele>58.599998474121</ele>
        <time>2022-03-24T11:34:43.000Z</time>
      </trkpt>
      <trkpt lat="47.26413" lon="-2.31556">
        <ele>58.599998474121</ele>
        <time>2022-03-24T11:34:45.000Z</time>
      </trkpt>
      <trkpt lat="47.26412" lon="-2.31554">
        <ele>58.599998474121</ele>
        <time>2022-03-24T11:34:53.000Z</time>
      </trkpt>
      <trkpt lat="47.26414" lon="-2.31553">
        <ele>58.599998474121</ele>
        <time>2022-03-24T11:34:54.000Z</time>
      </trkpt>
      <trkpt lat="47.26415" lon="-2.31553">
        <ele>58.599998474121</ele>
        <time>2022-03-24T11:34:56.000Z</time>
      </trkpt>
    </trkseg>
  </trk>
</gpx>